<?xml version="1.0" encoding="UTF-8" standalone="no" ?>
<gpx xmlns="http://www.topografix.com/GPX/1/1" xmlns:xsi="http://www.w3.org/2001/XMLSchema-instance" xsi:schemaLocation="http://www.topografix.com/GPX/1/1 http://www.topografix.com/GPX/1/1/gpx.xsd" version="1.1" creator="VisuGPX - https://www.visugpx.com">
  <metadata>
    <name>GR 70 Stevenson E3 Langogne - La Bastide Puylaurent</name>
    <desc><![CDATA[GR 70 Stevenson E3 Langognes - La Bastide Puylaurent]]></desc>
  </metadata>
  <trk>
    <name><![CDATA[2013-06-01 09:29:56 Chronomètre]]></name>
    <trkseg>
      <trkpt lat="44.72774" lon="3.86521">
        <ele>928.77</ele>
        <time>2013-06-01T07:29:56Z</time>
      </trkpt>
      <trkpt lat="44.72786" lon="3.86509">
        <ele>929.25</ele>
        <time>2013-06-01T07:30:14Z</time>
      </trkpt>
      <trkpt lat="44.72788" lon="3.86493">
        <ele>931.17</ele>
        <time>2013-06-01T07:30:25Z</time>
      </trkpt>
      <trkpt lat="44.72785" lon="3.86487">
        <ele>931.65</ele>
        <time>2013-06-01T07:30:30Z</time>
      </trkpt>
      <trkpt lat="44.72783" lon="3.8648">
        <ele>932.14</ele>
        <time>2013-06-01T07:30:35Z</time>
      </trkpt>
      <trkpt lat="44.72782" lon="3.86463">
        <ele>933.58</ele>
        <time>2013-06-01T07:30:49Z</time>
      </trkpt>
      <trkpt lat="44.72783" lon="3.86459">
        <ele>933.1</ele>
        <time>2013-06-01T07:31:01Z</time>
      </trkpt>
      <trkpt lat="44.72782" lon="3.8645">
        <ele>932.62</ele>
        <time>2013-06-01T07:31:12Z</time>
      </trkpt>
      <trkpt lat="44.72798" lon="3.86439">
        <ele>932.62</ele>
        <time>2013-06-01T07:31:28Z</time>
      </trkpt>
      <trkpt lat="44.72815" lon="3.86427">
        <ele>932.62</ele>
        <time>2013-06-01T07:31:44Z</time>
      </trkpt>
      <trkpt lat="44.72837" lon="3.86411">
        <ele>933.58</ele>
        <time>2013-06-01T07:32:03Z</time>
      </trkpt>
      <trkpt lat="44.72848" lon="3.86404">
        <ele>932.14</ele>
        <time>2013-06-01T07:32:13Z</time>
      </trkpt>
      <trkpt lat="44.72853" lon="3.86401">
        <ele>933.58</ele>
        <time>2013-06-01T07:32:18Z</time>
      </trkpt>
      <trkpt lat="44.72868" lon="3.8639">
        <ele>932.62</ele>
        <time>2013-06-01T07:32:32Z</time>
      </trkpt>
      <trkpt lat="44.72873" lon="3.86385">
        <ele>935.5</ele>
        <time>2013-06-01T07:32:37Z</time>
      </trkpt>
      <trkpt lat="44.72878" lon="3.86379">
        <ele>934.06</ele>
        <time>2013-06-01T07:32:43Z</time>
      </trkpt>
      <trkpt lat="44.72897" lon="3.8636">
        <ele>934.54</ele>
        <time>2013-06-01T07:33:01Z</time>
      </trkpt>
      <trkpt lat="44.72902" lon="3.86353">
        <ele>932.62</ele>
        <time>2013-06-01T07:33:07Z</time>
      </trkpt>
      <trkpt lat="44.72921" lon="3.86332">
        <ele>934.54</ele>
        <time>2013-06-01T07:33:26Z</time>
      </trkpt>
      <trkpt lat="44.72928" lon="3.86323">
        <ele>933.58</ele>
        <time>2013-06-01T07:33:33Z</time>
      </trkpt>
      <trkpt lat="44.72937" lon="3.86311">
        <ele>933.1</ele>
        <time>2013-06-01T07:33:43Z</time>
      </trkpt>
      <trkpt lat="44.72951" lon="3.86292">
        <ele>934.06</ele>
        <time>2013-06-01T07:33:59Z</time>
      </trkpt>
      <trkpt lat="44.72966" lon="3.86271">
        <ele>933.1</ele>
        <time>2013-06-01T07:34:15Z</time>
      </trkpt>
      <trkpt lat="44.72981" lon="3.86244">
        <ele>933.58</ele>
        <time>2013-06-01T07:34:32Z</time>
      </trkpt>
      <trkpt lat="44.72982" lon="3.86243">
        <ele>933.58</ele>
        <time>2013-06-01T07:34:33Z</time>
      </trkpt>
      <trkpt lat="44.73" lon="3.86215">
        <ele>933.58</ele>
        <time>2013-06-01T07:34:54Z</time>
      </trkpt>
      <trkpt lat="44.73016" lon="3.86187">
        <ele>933.1</ele>
        <time>2013-06-01T07:35:14Z</time>
      </trkpt>
      <trkpt lat="44.7303" lon="3.86168">
        <ele>931.17</ele>
        <time>2013-06-01T07:35:30Z</time>
      </trkpt>
      <trkpt lat="44.73035" lon="3.86159">
        <ele>930.21</ele>
        <time>2013-06-01T07:35:36Z</time>
      </trkpt>
      <trkpt lat="44.73038" lon="3.86151">
        <ele>930.21</ele>
        <time>2013-06-01T07:35:41Z</time>
      </trkpt>
      <trkpt lat="44.73052" lon="3.86125">
        <ele>928.77</ele>
        <time>2013-06-01T07:36:00Z</time>
      </trkpt>
      <trkpt lat="44.73065" lon="3.86104">
        <ele>927.33</ele>
        <time>2013-06-01T07:36:16Z</time>
      </trkpt>
      <trkpt lat="44.73081" lon="3.86083">
        <ele>926.85</ele>
        <time>2013-06-01T07:36:32Z</time>
      </trkpt>
      <trkpt lat="44.73101" lon="3.86064">
        <ele>925.89</ele>
        <time>2013-06-01T07:36:49Z</time>
      </trkpt>
      <trkpt lat="44.73102" lon="3.86063">
        <ele>925.89</ele>
        <time>2013-06-01T07:36:50Z</time>
      </trkpt>
      <trkpt lat="44.73122" lon="3.86049">
        <ele>923.96</ele>
        <time>2013-06-01T07:37:07Z</time>
      </trkpt>
      <trkpt lat="44.7314" lon="3.86031">
        <ele>922.04</ele>
        <time>2013-06-01T07:37:24Z</time>
      </trkpt>
      <trkpt lat="44.73154" lon="3.86016">
        <ele>919.16</ele>
        <time>2013-06-01T07:37:37Z</time>
      </trkpt>
      <trkpt lat="44.73165" lon="3.86">
        <ele>918.2</ele>
        <time>2013-06-01T07:37:49Z</time>
      </trkpt>
      <trkpt lat="44.73166" lon="3.85976">
        <ele>916.27</ele>
        <time>2013-06-01T07:38:03Z</time>
      </trkpt>
      <trkpt lat="44.73164" lon="3.85969">
        <ele>916.27</ele>
        <time>2013-06-01T07:38:07Z</time>
      </trkpt>
      <trkpt lat="44.73162" lon="3.85963">
        <ele>915.79</ele>
        <time>2013-06-01T07:38:11Z</time>
      </trkpt>
      <trkpt lat="44.73162" lon="3.85955">
        <ele>915.79</ele>
        <time>2013-06-01T07:38:16Z</time>
      </trkpt>
      <trkpt lat="44.73153" lon="3.85939">
        <ele>916.75</ele>
        <time>2013-06-01T07:38:26Z</time>
      </trkpt>
      <trkpt lat="44.73139" lon="3.85931">
        <ele>914.83</ele>
        <time>2013-06-01T07:38:37Z</time>
      </trkpt>
      <trkpt lat="44.73115" lon="3.85925">
        <ele>914.35</ele>
        <time>2013-06-01T07:38:55Z</time>
      </trkpt>
      <trkpt lat="44.73101" lon="3.85919">
        <ele>915.79</ele>
        <time>2013-06-01T07:39:06Z</time>
      </trkpt>
      <trkpt lat="44.73081" lon="3.85899">
        <ele>915.79</ele>
        <time>2013-06-01T07:39:24Z</time>
      </trkpt>
      <trkpt lat="44.73083" lon="3.85893">
        <ele>916.27</ele>
        <time>2013-06-01T07:39:28Z</time>
      </trkpt>
      <trkpt lat="44.73096" lon="3.85874">
        <ele>916.75</ele>
        <time>2013-06-01T07:39:43Z</time>
      </trkpt>
      <trkpt lat="44.73111" lon="3.85856">
        <ele>917.24</ele>
        <time>2013-06-01T07:39:59Z</time>
      </trkpt>
      <trkpt lat="44.73118" lon="3.85847">
        <ele>918.2</ele>
        <time>2013-06-01T07:40:06Z</time>
      </trkpt>
      <trkpt lat="44.73131" lon="3.85832">
        <ele>919.16</ele>
        <time>2013-06-01T07:40:19Z</time>
      </trkpt>
      <trkpt lat="44.73137" lon="3.85824">
        <ele>919.64</ele>
        <time>2013-06-01T07:40:26Z</time>
      </trkpt>
      <trkpt lat="44.73143" lon="3.85825">
        <ele>919.64</ele>
        <time>2013-06-01T07:40:31Z</time>
      </trkpt>
      <trkpt lat="44.73149" lon="3.85827">
        <ele>918.2</ele>
        <time>2013-06-01T07:40:37Z</time>
      </trkpt>
      <trkpt lat="44.7315" lon="3.85827">
        <ele>918.2</ele>
        <time>2013-06-01T07:40:38Z</time>
      </trkpt>
      <trkpt lat="44.73159" lon="3.85831">
        <ele>919.16</ele>
        <time>2013-06-01T07:40:46Z</time>
      </trkpt>
      <trkpt lat="44.73173" lon="3.85836">
        <ele>917.72</ele>
        <time>2013-06-01T07:40:59Z</time>
      </trkpt>
      <trkpt lat="44.73199" lon="3.8584">
        <ele>917.72</ele>
        <time>2013-06-01T07:41:18Z</time>
      </trkpt>
      <trkpt lat="44.73221" lon="3.85842">
        <ele>917.24</ele>
        <time>2013-06-01T07:41:35Z</time>
      </trkpt>
      <trkpt lat="44.73239" lon="3.85837">
        <ele>919.16</ele>
        <time>2013-06-01T07:41:49Z</time>
      </trkpt>
      <trkpt lat="44.7325" lon="3.85832">
        <ele>917.72</ele>
        <time>2013-06-01T07:41:56Z</time>
      </trkpt>
      <trkpt lat="44.73277" lon="3.85832">
        <ele>917.24</ele>
        <time>2013-06-01T07:42:14Z</time>
      </trkpt>
      <trkpt lat="44.73285" lon="3.8583">
        <ele>918.68</ele>
        <time>2013-06-01T07:42:20Z</time>
      </trkpt>
      <trkpt lat="44.73302" lon="3.85813">
        <ele>918.68</ele>
        <time>2013-06-01T07:42:35Z</time>
      </trkpt>
      <trkpt lat="44.73304" lon="3.85811">
        <ele>917.24</ele>
        <time>2013-06-01T07:42:37Z</time>
      </trkpt>
      <trkpt lat="44.73315" lon="3.85796">
        <ele>917.24</ele>
        <time>2013-06-01T07:42:50Z</time>
      </trkpt>
      <trkpt lat="44.7334" lon="3.85773">
        <ele>917.24</ele>
        <time>2013-06-01T07:43:10Z</time>
      </trkpt>
      <trkpt lat="44.7335" lon="3.85756">
        <ele>916.27</ele>
        <time>2013-06-01T07:43:22Z</time>
      </trkpt>
      <trkpt lat="44.73355" lon="3.85748">
        <ele>916.27</ele>
        <time>2013-06-01T07:43:27Z</time>
      </trkpt>
      <trkpt lat="44.73373" lon="3.85727">
        <ele>916.27</ele>
        <time>2013-06-01T07:43:45Z</time>
      </trkpt>
      <trkpt lat="44.73388" lon="3.85718">
        <ele>915.79</ele>
        <time>2013-06-01T07:43:58Z</time>
      </trkpt>
      <trkpt lat="44.73402" lon="3.85712">
        <ele>917.24</ele>
        <time>2013-06-01T07:44:11Z</time>
      </trkpt>
      <trkpt lat="44.7341" lon="3.85707">
        <ele>916.27</ele>
        <time>2013-06-01T07:44:17Z</time>
      </trkpt>
      <trkpt lat="44.73428" lon="3.85702">
        <ele>917.24</ele>
        <time>2013-06-01T07:44:33Z</time>
      </trkpt>
      <trkpt lat="44.73438" lon="3.85696">
        <ele>915.79</ele>
        <time>2013-06-01T07:44:45Z</time>
      </trkpt>
      <trkpt lat="44.73439" lon="3.85695">
        <ele>917.24</ele>
        <time>2013-06-01T07:44:56Z</time>
      </trkpt>
      <trkpt lat="44.73442" lon="3.85693">
        <ele>916.27</ele>
        <time>2013-06-01T07:45:13Z</time>
      </trkpt>
      <trkpt lat="44.73449" lon="3.85688">
        <ele>916.27</ele>
        <time>2013-06-01T07:45:29Z</time>
      </trkpt>
      <trkpt lat="44.73449" lon="3.85689">
        <ele>915.79</ele>
        <time>2013-06-01T07:45:36Z</time>
      </trkpt>
      <trkpt lat="44.7345" lon="3.8569">
        <ele>915.31</ele>
        <time>2013-06-01T07:46:10Z</time>
      </trkpt>
      <trkpt lat="44.7345" lon="3.85691">
        <ele>915.31</ele>
        <time>2013-06-01T07:46:33Z</time>
      </trkpt>
      <trkpt lat="44.7345" lon="3.85687">
        <ele>915.31</ele>
        <time>2013-06-01T07:47:02Z</time>
      </trkpt>
      <trkpt lat="44.7345" lon="3.85688">
        <ele>915.79</ele>
        <time>2013-06-01T07:47:25Z</time>
      </trkpt>
      <trkpt lat="44.73451" lon="3.85688">
        <ele>914.35</ele>
        <time>2013-06-01T07:47:28Z</time>
      </trkpt>
      <trkpt lat="44.73454" lon="3.85684">
        <ele>912.43</ele>
        <time>2013-06-01T07:47:32Z</time>
      </trkpt>
      <trkpt lat="44.73469" lon="3.8566">
        <ele>913.87</ele>
        <time>2013-06-01T07:47:51Z</time>
      </trkpt>
      <trkpt lat="44.73483" lon="3.85636">
        <ele>912.43</ele>
        <time>2013-06-01T07:48:09Z</time>
      </trkpt>
      <trkpt lat="44.73497" lon="3.8561">
        <ele>910.99</ele>
        <time>2013-06-01T07:48:27Z</time>
      </trkpt>
      <trkpt lat="44.73509" lon="3.8559">
        <ele>910.51</ele>
        <time>2013-06-01T07:48:41Z</time>
      </trkpt>
      <trkpt lat="44.7352" lon="3.85574">
        <ele>910.51</ele>
        <time>2013-06-01T07:48:53Z</time>
      </trkpt>
      <trkpt lat="44.73535" lon="3.85546">
        <ele>910.03</ele>
        <time>2013-06-01T07:49:13Z</time>
      </trkpt>
      <trkpt lat="44.73548" lon="3.85518">
        <ele>909.54</ele>
        <time>2013-06-01T07:49:31Z</time>
      </trkpt>
      <trkpt lat="44.7355" lon="3.85514">
        <ele>909.54</ele>
        <time>2013-06-01T07:49:34Z</time>
      </trkpt>
      <trkpt lat="44.73529" lon="3.855">
        <ele>910.99</ele>
        <time>2013-06-01T07:49:53Z</time>
      </trkpt>
      <trkpt lat="44.7351" lon="3.8549">
        <ele>912.91</ele>
        <time>2013-06-01T07:50:09Z</time>
      </trkpt>
      <trkpt lat="44.73495" lon="3.85476">
        <ele>913.87</ele>
        <time>2013-06-01T07:50:24Z</time>
      </trkpt>
      <trkpt lat="44.73446" lon="3.85418">
        <ele>915.79</ele>
        <time>2013-06-01T07:51:13Z</time>
      </trkpt>
      <trkpt lat="44.73446" lon="3.8542">
        <ele>916.27</ele>
        <time>2013-06-01T07:51:16Z</time>
      </trkpt>
      <trkpt lat="44.7343" lon="3.85426">
        <ele>917.24</ele>
        <time>2013-06-01T07:51:34Z</time>
      </trkpt>
      <trkpt lat="44.73428" lon="3.85428">
        <ele>917.72</ele>
        <time>2013-06-01T07:51:37Z</time>
      </trkpt>
      <trkpt lat="44.7342" lon="3.85435">
        <ele>918.68</ele>
        <time>2013-06-01T07:51:45Z</time>
      </trkpt>
      <trkpt lat="44.734" lon="3.85449">
        <ele>921.56</ele>
        <time>2013-06-01T07:52:03Z</time>
      </trkpt>
      <trkpt lat="44.73389" lon="3.85456">
        <ele>922.52</ele>
        <time>2013-06-01T07:52:20Z</time>
      </trkpt>
      <trkpt lat="44.73385" lon="3.85458">
        <ele>922.52</ele>
        <time>2013-06-01T07:52:50Z</time>
      </trkpt>
      <trkpt lat="44.73385" lon="3.85458">
        <ele>921.08</ele>
        <time>2013-06-01T07:52:56Z</time>
      </trkpt>
      <trkpt lat="44.73383" lon="3.85459">
        <ele>922.52</ele>
        <time>2013-06-01T07:52:58Z</time>
      </trkpt>
      <trkpt lat="44.73369" lon="3.85475">
        <ele>923</ele>
        <time>2013-06-01T07:53:15Z</time>
      </trkpt>
      <trkpt lat="44.73354" lon="3.85497">
        <ele>924.93</ele>
        <time>2013-06-01T07:53:33Z</time>
      </trkpt>
      <trkpt lat="44.73339" lon="3.85521">
        <ele>924.93</ele>
        <time>2013-06-01T07:53:52Z</time>
      </trkpt>
      <trkpt lat="44.73327" lon="3.85541">
        <ele>923.96</ele>
        <time>2013-06-01T07:54:06Z</time>
      </trkpt>
      <trkpt lat="44.73318" lon="3.85556">
        <ele>925.89</ele>
        <time>2013-06-01T07:54:17Z</time>
      </trkpt>
      <trkpt lat="44.73316" lon="3.8556">
        <ele>924.93</ele>
        <time>2013-06-01T07:54:20Z</time>
      </trkpt>
      <trkpt lat="44.73307" lon="3.85573">
        <ele>925.89</ele>
        <time>2013-06-01T07:54:31Z</time>
      </trkpt>
      <trkpt lat="44.73285" lon="3.85586">
        <ele>927.33</ele>
        <time>2013-06-01T07:54:49Z</time>
      </trkpt>
      <trkpt lat="44.73278" lon="3.85587">
        <ele>927.33</ele>
        <time>2013-06-01T07:54:55Z</time>
      </trkpt>
      <trkpt lat="44.73261" lon="3.85586">
        <ele>928.29</ele>
        <time>2013-06-01T07:55:07Z</time>
      </trkpt>
      <trkpt lat="44.73248" lon="3.85582">
        <ele>928.29</ele>
        <time>2013-06-01T07:55:18Z</time>
      </trkpt>
      <trkpt lat="44.73231" lon="3.8558">
        <ele>928.77</ele>
        <time>2013-06-01T07:55:30Z</time>
      </trkpt>
      <trkpt lat="44.73207" lon="3.85576">
        <ele>928.29</ele>
        <time>2013-06-01T07:55:47Z</time>
      </trkpt>
      <trkpt lat="44.73189" lon="3.8558">
        <ele>929.73</ele>
        <time>2013-06-01T07:56:03Z</time>
      </trkpt>
      <trkpt lat="44.73167" lon="3.85581">
        <ele>930.21</ele>
        <time>2013-06-01T07:56:20Z</time>
      </trkpt>
      <trkpt lat="44.73149" lon="3.85585">
        <ele>930.69</ele>
        <time>2013-06-01T07:56:34Z</time>
      </trkpt>
      <trkpt lat="44.73134" lon="3.85594">
        <ele>933.1</ele>
        <time>2013-06-01T07:56:50Z</time>
      </trkpt>
      <trkpt lat="44.73119" lon="3.85621">
        <ele>933.58</ele>
        <time>2013-06-01T07:57:11Z</time>
      </trkpt>
      <trkpt lat="44.73115" lon="3.85625">
        <ele>932.14</ele>
        <time>2013-06-01T07:57:15Z</time>
      </trkpt>
      <trkpt lat="44.73093" lon="3.85628">
        <ele>931.65</ele>
        <time>2013-06-01T07:57:31Z</time>
      </trkpt>
      <trkpt lat="44.7307" lon="3.85626">
        <ele>930.69</ele>
        <time>2013-06-01T07:57:47Z</time>
      </trkpt>
      <trkpt lat="44.73046" lon="3.85618">
        <ele>930.69</ele>
        <time>2013-06-01T07:58:06Z</time>
      </trkpt>
      <trkpt lat="44.7302" lon="3.85607">
        <ele>928.77</ele>
        <time>2013-06-01T07:58:27Z</time>
      </trkpt>
      <trkpt lat="44.73007" lon="3.856">
        <ele>928.29</ele>
        <time>2013-06-01T07:58:38Z</time>
      </trkpt>
      <trkpt lat="44.73005" lon="3.856">
        <ele>928.29</ele>
        <time>2013-06-01T07:58:40Z</time>
      </trkpt>
      <trkpt lat="44.72995" lon="3.85595">
        <ele>928.29</ele>
        <time>2013-06-01T07:58:50Z</time>
      </trkpt>
      <trkpt lat="44.72989" lon="3.85592">
        <ele>927.81</ele>
        <time>2013-06-01T07:59:00Z</time>
      </trkpt>
      <trkpt lat="44.7297" lon="3.85584">
        <ele>927.33</ele>
        <time>2013-06-01T07:59:16Z</time>
      </trkpt>
      <trkpt lat="44.72954" lon="3.85582">
        <ele>926.37</ele>
        <time>2013-06-01T07:59:30Z</time>
      </trkpt>
      <trkpt lat="44.72929" lon="3.8558">
        <ele>925.89</ele>
        <time>2013-06-01T07:59:47Z</time>
      </trkpt>
      <trkpt lat="44.72912" lon="3.85579">
        <ele>924.93</ele>
        <time>2013-06-01T08:00:00Z</time>
      </trkpt>
      <trkpt lat="44.72887" lon="3.85581">
        <ele>924.93</ele>
        <time>2013-06-01T08:00:16Z</time>
      </trkpt>
      <trkpt lat="44.72872" lon="3.85584">
        <ele>924.93</ele>
        <time>2013-06-01T08:00:30Z</time>
      </trkpt>
      <trkpt lat="44.72859" lon="3.85584">
        <ele>923.96</ele>
        <time>2013-06-01T08:00:44Z</time>
      </trkpt>
      <trkpt lat="44.72837" lon="3.8558">
        <ele>923.48</ele>
        <time>2013-06-01T08:01:02Z</time>
      </trkpt>
      <trkpt lat="44.72818" lon="3.85575">
        <ele>923.48</ele>
        <time>2013-06-01T08:01:18Z</time>
      </trkpt>
      <trkpt lat="44.728" lon="3.85568">
        <ele>922.04</ele>
        <time>2013-06-01T08:01:34Z</time>
      </trkpt>
      <trkpt lat="44.7278" lon="3.85563">
        <ele>923.48</ele>
        <time>2013-06-01T08:01:49Z</time>
      </trkpt>
      <trkpt lat="44.72776" lon="3.85563">
        <ele>922.52</ele>
        <time>2013-06-01T08:01:53Z</time>
      </trkpt>
      <trkpt lat="44.72771" lon="3.85563">
        <ele>922.52</ele>
        <time>2013-06-01T08:01:56Z</time>
      </trkpt>
      <trkpt lat="44.72752" lon="3.85546">
        <ele>921.08</ele>
        <time>2013-06-01T08:02:13Z</time>
      </trkpt>
      <trkpt lat="44.72741" lon="3.85544">
        <ele>922.04</ele>
        <time>2013-06-01T08:02:20Z</time>
      </trkpt>
      <trkpt lat="44.72739" lon="3.85533">
        <ele>923</ele>
        <time>2013-06-01T08:02:35Z</time>
      </trkpt>
      <trkpt lat="44.72738" lon="3.85519">
        <ele>925.89</ele>
        <time>2013-06-01T08:02:49Z</time>
      </trkpt>
      <trkpt lat="44.72737" lon="3.85512">
        <ele>924.45</ele>
        <time>2013-06-01T08:02:54Z</time>
      </trkpt>
      <trkpt lat="44.72732" lon="3.855">
        <ele>925.89</ele>
        <time>2013-06-01T08:03:05Z</time>
      </trkpt>
      <trkpt lat="44.72731" lon="3.855">
        <ele>924.93</ele>
        <time>2013-06-01T08:03:10Z</time>
      </trkpt>
      <trkpt lat="44.72725" lon="3.85493">
        <ele>923.96</ele>
        <time>2013-06-01T08:03:24Z</time>
      </trkpt>
      <trkpt lat="44.72722" lon="3.85491">
        <ele>925.89</ele>
        <time>2013-06-01T08:03:28Z</time>
      </trkpt>
      <trkpt lat="44.72717" lon="3.85489">
        <ele>925.89</ele>
        <time>2013-06-01T08:03:34Z</time>
      </trkpt>
      <trkpt lat="44.72702" lon="3.85476">
        <ele>925.89</ele>
        <time>2013-06-01T08:03:51Z</time>
      </trkpt>
      <trkpt lat="44.7269" lon="3.85468">
        <ele>925.89</ele>
        <time>2013-06-01T08:04:08Z</time>
      </trkpt>
      <trkpt lat="44.72678" lon="3.85465">
        <ele>925.89</ele>
        <time>2013-06-01T08:04:24Z</time>
      </trkpt>
      <trkpt lat="44.72677" lon="3.85462">
        <ele>924.45</ele>
        <time>2013-06-01T08:04:31Z</time>
      </trkpt>
      <trkpt lat="44.72667" lon="3.85465">
        <ele>924.45</ele>
        <time>2013-06-01T08:04:46Z</time>
      </trkpt>
      <trkpt lat="44.72656" lon="3.85475">
        <ele>923.48</ele>
        <time>2013-06-01T08:05:02Z</time>
      </trkpt>
      <trkpt lat="44.7265" lon="3.85481">
        <ele>923.48</ele>
        <time>2013-06-01T08:05:19Z</time>
      </trkpt>
      <trkpt lat="44.72644" lon="3.85478">
        <ele>923</ele>
        <time>2013-06-01T08:05:38Z</time>
      </trkpt>
      <trkpt lat="44.72639" lon="3.8548">
        <ele>923</ele>
        <time>2013-06-01T08:05:58Z</time>
      </trkpt>
      <trkpt lat="44.7264" lon="3.85488">
        <ele>922.52</ele>
        <time>2013-06-01T08:06:20Z</time>
      </trkpt>
      <trkpt lat="44.72638" lon="3.85485">
        <ele>923.48</ele>
        <time>2013-06-01T08:06:35Z</time>
      </trkpt>
      <trkpt lat="44.72638" lon="3.85483">
        <ele>922.52</ele>
        <time>2013-06-01T08:06:42Z</time>
      </trkpt>
      <trkpt lat="44.72639" lon="3.85483">
        <ele>923.48</ele>
        <time>2013-06-01T08:06:46Z</time>
      </trkpt>
      <trkpt lat="44.72639" lon="3.8549">
        <ele>923.48</ele>
        <time>2013-06-01T08:07:09Z</time>
      </trkpt>
      <trkpt lat="44.72637" lon="3.85488">
        <ele>922.04</ele>
        <time>2013-06-01T08:07:36Z</time>
      </trkpt>
      <trkpt lat="44.7264" lon="3.85487">
        <ele>922.04</ele>
        <time>2013-06-01T08:08:07Z</time>
      </trkpt>
      <trkpt lat="44.72637" lon="3.85489">
        <ele>921.56</ele>
        <time>2013-06-01T08:08:29Z</time>
      </trkpt>
      <trkpt lat="44.72635" lon="3.8548">
        <ele>923.48</ele>
        <time>2013-06-01T08:08:55Z</time>
      </trkpt>
      <trkpt lat="44.72637" lon="3.85484">
        <ele>922.04</ele>
        <time>2013-06-01T08:09:14Z</time>
      </trkpt>
      <trkpt lat="44.72637" lon="3.8549">
        <ele>921.56</ele>
        <time>2013-06-01T08:09:40Z</time>
      </trkpt>
      <trkpt lat="44.72638" lon="3.85486">
        <ele>921.08</ele>
        <time>2013-06-01T08:10:04Z</time>
      </trkpt>
      <trkpt lat="44.72636" lon="3.85487">
        <ele>921.08</ele>
        <time>2013-06-01T08:10:32Z</time>
      </trkpt>
      <trkpt lat="44.72637" lon="3.85487">
        <ele>922.52</ele>
        <time>2013-06-01T08:10:36Z</time>
      </trkpt>
      <trkpt lat="44.72636" lon="3.85487">
        <ele>921.08</ele>
        <time>2013-06-01T08:10:46Z</time>
      </trkpt>
      <trkpt lat="44.72636" lon="3.85487">
        <ele>921.56</ele>
        <time>2013-06-01T08:10:53Z</time>
      </trkpt>
      <trkpt lat="44.72636" lon="3.8549">
        <ele>922.04</ele>
        <time>2013-06-01T08:11:23Z</time>
      </trkpt>
      <trkpt lat="44.72638" lon="3.85491">
        <ele>922.04</ele>
        <time>2013-06-01T08:11:50Z</time>
      </trkpt>
      <trkpt lat="44.72632" lon="3.8549">
        <ele>922.52</ele>
        <time>2013-06-01T08:12:12Z</time>
      </trkpt>
      <trkpt lat="44.72626" lon="3.855">
        <ele>920.6</ele>
        <time>2013-06-01T08:12:21Z</time>
      </trkpt>
      <trkpt lat="44.72624" lon="3.85503">
        <ele>920.6</ele>
        <time>2013-06-01T08:12:36Z</time>
      </trkpt>
      <trkpt lat="44.72618" lon="3.85502">
        <ele>919.64</ele>
        <time>2013-06-01T08:12:54Z</time>
      </trkpt>
      <trkpt lat="44.72615" lon="3.85498">
        <ele>920.6</ele>
        <time>2013-06-01T08:13:13Z</time>
      </trkpt>
      <trkpt lat="44.72614" lon="3.85497">
        <ele>919.64</ele>
        <time>2013-06-01T08:13:19Z</time>
      </trkpt>
      <trkpt lat="44.72615" lon="3.85497">
        <ele>921.08</ele>
        <time>2013-06-01T08:13:28Z</time>
      </trkpt>
      <trkpt lat="44.72613" lon="3.85507">
        <ele>918.2</ele>
        <time>2013-06-01T08:13:44Z</time>
      </trkpt>
      <trkpt lat="44.72616" lon="3.8551">
        <ele>921.08</ele>
        <time>2013-06-01T08:13:47Z</time>
      </trkpt>
      <trkpt lat="44.7262" lon="3.85522">
        <ele>919.16</ele>
        <time>2013-06-01T08:13:58Z</time>
      </trkpt>
      <trkpt lat="44.72625" lon="3.8555">
        <ele>917.72</ele>
        <time>2013-06-01T08:14:14Z</time>
      </trkpt>
      <trkpt lat="44.72625" lon="3.85552">
        <ele>917.24</ele>
        <time>2013-06-01T08:14:15Z</time>
      </trkpt>
      <trkpt lat="44.72626" lon="3.8556">
        <ele>919.16</ele>
        <time>2013-06-01T08:14:20Z</time>
      </trkpt>
      <trkpt lat="44.72624" lon="3.85568">
        <ele>918.2</ele>
        <time>2013-06-01T08:14:25Z</time>
      </trkpt>
      <trkpt lat="44.72616" lon="3.85578">
        <ele>917.72</ele>
        <time>2013-06-01T08:14:33Z</time>
      </trkpt>
      <trkpt lat="44.7261" lon="3.85586">
        <ele>917.24</ele>
        <time>2013-06-01T08:14:39Z</time>
      </trkpt>
      <trkpt lat="44.72597" lon="3.85603">
        <ele>916.27</ele>
        <time>2013-06-01T08:14:51Z</time>
      </trkpt>
      <trkpt lat="44.72587" lon="3.85609">
        <ele>915.31</ele>
        <time>2013-06-01T08:15:02Z</time>
      </trkpt>
      <trkpt lat="44.72567" lon="3.85627">
        <ele>915.31</ele>
        <time>2013-06-01T08:15:17Z</time>
      </trkpt>
      <trkpt lat="44.72561" lon="3.85633">
        <ele>916.75</ele>
        <time>2013-06-01T08:15:23Z</time>
      </trkpt>
      <trkpt lat="44.72554" lon="3.85637">
        <ele>917.24</ele>
        <time>2013-06-01T08:15:34Z</time>
      </trkpt>
      <trkpt lat="44.72548" lon="3.8564">
        <ele>917.72</ele>
        <time>2013-06-01T08:15:39Z</time>
      </trkpt>
      <trkpt lat="44.72539" lon="3.85645">
        <ele>916.27</ele>
        <time>2013-06-01T08:15:46Z</time>
      </trkpt>
      <trkpt lat="44.72521" lon="3.85636">
        <ele>915.79</ele>
        <time>2013-06-01T08:16:02Z</time>
      </trkpt>
      <trkpt lat="44.72514" lon="3.85639">
        <ele>916.75</ele>
        <time>2013-06-01T08:16:06Z</time>
      </trkpt>
      <trkpt lat="44.72499" lon="3.8565">
        <ele>917.24</ele>
        <time>2013-06-01T08:16:19Z</time>
      </trkpt>
      <trkpt lat="44.72484" lon="3.85647">
        <ele>919.16</ele>
        <time>2013-06-01T08:16:30Z</time>
      </trkpt>
      <trkpt lat="44.72478" lon="3.85636">
        <ele>920.6</ele>
        <time>2013-06-01T08:16:38Z</time>
      </trkpt>
      <trkpt lat="44.72467" lon="3.85633">
        <ele>922.04</ele>
        <time>2013-06-01T08:16:48Z</time>
      </trkpt>
      <trkpt lat="44.72465" lon="3.85632">
        <ele>922.52</ele>
        <time>2013-06-01T08:16:50Z</time>
      </trkpt>
      <trkpt lat="44.72449" lon="3.85616">
        <ele>923.96</ele>
        <time>2013-06-01T08:17:04Z</time>
      </trkpt>
      <trkpt lat="44.72424" lon="3.8561">
        <ele>924.45</ele>
        <time>2013-06-01T08:17:23Z</time>
      </trkpt>
      <trkpt lat="44.72406" lon="3.85614">
        <ele>925.89</ele>
        <time>2013-06-01T08:17:37Z</time>
      </trkpt>
      <trkpt lat="44.72394" lon="3.85616">
        <ele>923.96</ele>
        <time>2013-06-01T08:17:46Z</time>
      </trkpt>
      <trkpt lat="44.72392" lon="3.85617">
        <ele>927.33</ele>
        <time>2013-06-01T08:17:48Z</time>
      </trkpt>
      <trkpt lat="44.72386" lon="3.85618">
        <ele>927.33</ele>
        <time>2013-06-01T08:17:53Z</time>
      </trkpt>
      <trkpt lat="44.72366" lon="3.85621">
        <ele>928.77</ele>
        <time>2013-06-01T08:18:08Z</time>
      </trkpt>
      <trkpt lat="44.72345" lon="3.85625">
        <ele>929.73</ele>
        <time>2013-06-01T08:18:23Z</time>
      </trkpt>
      <trkpt lat="44.72326" lon="3.8563">
        <ele>930.69</ele>
        <time>2013-06-01T08:18:38Z</time>
      </trkpt>
      <trkpt lat="44.72304" lon="3.85618">
        <ele>932.14</ele>
        <time>2013-06-01T08:18:54Z</time>
      </trkpt>
      <trkpt lat="44.72285" lon="3.856">
        <ele>933.58</ele>
        <time>2013-06-01T08:19:08Z</time>
      </trkpt>
      <trkpt lat="44.72269" lon="3.85577">
        <ele>935.02</ele>
        <time>2013-06-01T08:19:24Z</time>
      </trkpt>
      <trkpt lat="44.72247" lon="3.85557">
        <ele>935.5</ele>
        <time>2013-06-01T08:19:43Z</time>
      </trkpt>
      <trkpt lat="44.7224" lon="3.85551">
        <ele>935.02</ele>
        <time>2013-06-01T08:19:49Z</time>
      </trkpt>
      <trkpt lat="44.72231" lon="3.85547">
        <ele>936.94</ele>
        <time>2013-06-01T08:19:56Z</time>
      </trkpt>
      <trkpt lat="44.72212" lon="3.85544">
        <ele>938.38</ele>
        <time>2013-06-01T08:20:12Z</time>
      </trkpt>
      <trkpt lat="44.72193" lon="3.85547">
        <ele>940.79</ele>
        <time>2013-06-01T08:20:27Z</time>
      </trkpt>
      <trkpt lat="44.72173" lon="3.85552">
        <ele>942.71</ele>
        <time>2013-06-01T08:20:42Z</time>
      </trkpt>
      <trkpt lat="44.72153" lon="3.85557">
        <ele>944.63</ele>
        <time>2013-06-01T08:20:58Z</time>
      </trkpt>
      <trkpt lat="44.72152" lon="3.85558">
        <ele>944.63</ele>
        <time>2013-06-01T08:20:59Z</time>
      </trkpt>
      <trkpt lat="44.72146" lon="3.8556">
        <ele>945.59</ele>
        <time>2013-06-01T08:21:04Z</time>
      </trkpt>
      <trkpt lat="44.72142" lon="3.85562">
        <ele>945.59</ele>
        <time>2013-06-01T08:21:07Z</time>
      </trkpt>
      <trkpt lat="44.7214" lon="3.85564">
        <ele>946.07</ele>
        <time>2013-06-01T08:21:09Z</time>
      </trkpt>
      <trkpt lat="44.72135" lon="3.85566">
        <ele>946.56</ele>
        <time>2013-06-01T08:21:13Z</time>
      </trkpt>
      <trkpt lat="44.72112" lon="3.85574">
        <ele>948.48</ele>
        <time>2013-06-01T08:21:30Z</time>
      </trkpt>
      <trkpt lat="44.72111" lon="3.85575">
        <ele>948.48</ele>
        <time>2013-06-01T08:21:31Z</time>
      </trkpt>
      <trkpt lat="44.72086" lon="3.85582">
        <ele>950.88</ele>
        <time>2013-06-01T08:21:49Z</time>
      </trkpt>
      <trkpt lat="44.72062" lon="3.85581">
        <ele>952.8</ele>
        <time>2013-06-01T08:22:05Z</time>
      </trkpt>
      <trkpt lat="44.72052" lon="3.85581">
        <ele>953.28</ele>
        <time>2013-06-01T08:22:12Z</time>
      </trkpt>
      <trkpt lat="44.7203" lon="3.85579">
        <ele>953.28</ele>
        <time>2013-06-01T08:22:28Z</time>
      </trkpt>
      <trkpt lat="44.72008" lon="3.85575">
        <ele>954.73</ele>
        <time>2013-06-01T08:22:44Z</time>
      </trkpt>
      <trkpt lat="44.71987" lon="3.85577">
        <ele>955.21</ele>
        <time>2013-06-01T08:23:00Z</time>
      </trkpt>
      <trkpt lat="44.71965" lon="3.85583">
        <ele>955.69</ele>
        <time>2013-06-01T08:23:16Z</time>
      </trkpt>
      <trkpt lat="44.71962" lon="3.85583">
        <ele>955.69</ele>
        <time>2013-06-01T08:23:18Z</time>
      </trkpt>
      <trkpt lat="44.71943" lon="3.85589">
        <ele>956.17</ele>
        <time>2013-06-01T08:23:31Z</time>
      </trkpt>
      <trkpt lat="44.71933" lon="3.85592">
        <ele>957.13</ele>
        <time>2013-06-01T08:23:39Z</time>
      </trkpt>
      <trkpt lat="44.71928" lon="3.85595">
        <ele>957.61</ele>
        <time>2013-06-01T08:23:43Z</time>
      </trkpt>
      <trkpt lat="44.71926" lon="3.85597">
        <ele>957.61</ele>
        <time>2013-06-01T08:23:44Z</time>
      </trkpt>
      <trkpt lat="44.71921" lon="3.85599">
        <ele>957.61</ele>
        <time>2013-06-01T08:23:48Z</time>
      </trkpt>
      <trkpt lat="44.71918" lon="3.85599">
        <ele>956.17</ele>
        <time>2013-06-01T08:23:50Z</time>
      </trkpt>
      <trkpt lat="44.71911" lon="3.85601">
        <ele>957.61</ele>
        <time>2013-06-01T08:23:55Z</time>
      </trkpt>
      <trkpt lat="44.71895" lon="3.85605">
        <ele>958.09</ele>
        <time>2013-06-01T08:24:07Z</time>
      </trkpt>
      <trkpt lat="44.71878" lon="3.85608">
        <ele>959.53</ele>
        <time>2013-06-01T08:24:19Z</time>
      </trkpt>
      <trkpt lat="44.71852" lon="3.85605">
        <ele>960.49</ele>
        <time>2013-06-01T08:24:36Z</time>
      </trkpt>
      <trkpt lat="44.7183" lon="3.85605">
        <ele>962.42</ele>
        <time>2013-06-01T08:24:54Z</time>
      </trkpt>
      <trkpt lat="44.71818" lon="3.85605">
        <ele>962.42</ele>
        <time>2013-06-01T08:25:02Z</time>
      </trkpt>
      <trkpt lat="44.71801" lon="3.85604">
        <ele>963.38</ele>
        <time>2013-06-01T08:25:16Z</time>
      </trkpt>
      <trkpt lat="44.71782" lon="3.85602">
        <ele>963.38</ele>
        <time>2013-06-01T08:25:30Z</time>
      </trkpt>
      <trkpt lat="44.7178" lon="3.85601">
        <ele>964.82</ele>
        <time>2013-06-01T08:25:32Z</time>
      </trkpt>
      <trkpt lat="44.7176" lon="3.85599">
        <ele>965.78</ele>
        <time>2013-06-01T08:25:46Z</time>
      </trkpt>
      <trkpt lat="44.71747" lon="3.85597">
        <ele>969.15</ele>
        <time>2013-06-01T08:25:56Z</time>
      </trkpt>
      <trkpt lat="44.71745" lon="3.85597">
        <ele>969.15</ele>
        <time>2013-06-01T08:25:57Z</time>
      </trkpt>
      <trkpt lat="44.71723" lon="3.85598">
        <ele>967.7</ele>
        <time>2013-06-01T08:26:14Z</time>
      </trkpt>
      <trkpt lat="44.71701" lon="3.85598">
        <ele>968.18</ele>
        <time>2013-06-01T08:26:29Z</time>
      </trkpt>
      <trkpt lat="44.71675" lon="3.85596">
        <ele>969.63</ele>
        <time>2013-06-01T08:26:48Z</time>
      </trkpt>
      <trkpt lat="44.71654" lon="3.85601">
        <ele>971.07</ele>
        <time>2013-06-01T08:27:04Z</time>
      </trkpt>
      <trkpt lat="44.71631" lon="3.85607">
        <ele>971.55</ele>
        <time>2013-06-01T08:27:21Z</time>
      </trkpt>
      <trkpt lat="44.71604" lon="3.85615">
        <ele>971.55</ele>
        <time>2013-06-01T08:27:40Z</time>
      </trkpt>
      <trkpt lat="44.71575" lon="3.85623">
        <ele>972.99</ele>
        <time>2013-06-01T08:28:01Z</time>
      </trkpt>
      <trkpt lat="44.71549" lon="3.85629">
        <ele>972.51</ele>
        <time>2013-06-01T08:28:20Z</time>
      </trkpt>
      <trkpt lat="44.71529" lon="3.85633">
        <ele>972.03</ele>
        <time>2013-06-01T08:28:35Z</time>
      </trkpt>
      <trkpt lat="44.71504" lon="3.85637">
        <ele>972.03</ele>
        <time>2013-06-01T08:28:53Z</time>
      </trkpt>
      <trkpt lat="44.71474" lon="3.8564">
        <ele>971.55</ele>
        <time>2013-06-01T08:29:15Z</time>
      </trkpt>
      <trkpt lat="44.71447" lon="3.85644">
        <ele>971.07</ele>
        <time>2013-06-01T08:29:34Z</time>
      </trkpt>
      <trkpt lat="44.71421" lon="3.85652">
        <ele>970.11</ele>
        <time>2013-06-01T08:29:53Z</time>
      </trkpt>
      <trkpt lat="44.71396" lon="3.85657">
        <ele>971.07</ele>
        <time>2013-06-01T08:30:12Z</time>
      </trkpt>
      <trkpt lat="44.71372" lon="3.8566">
        <ele>971.07</ele>
        <time>2013-06-01T08:30:31Z</time>
      </trkpt>
      <trkpt lat="44.71344" lon="3.85662">
        <ele>972.51</ele>
        <time>2013-06-01T08:30:50Z</time>
      </trkpt>
      <trkpt lat="44.71339" lon="3.85662">
        <ele>971.07</ele>
        <time>2013-06-01T08:30:54Z</time>
      </trkpt>
      <trkpt lat="44.71307" lon="3.85664">
        <ele>972.99</ele>
        <time>2013-06-01T08:31:17Z</time>
      </trkpt>
      <trkpt lat="44.71296" lon="3.85665">
        <ele>973.47</ele>
        <time>2013-06-01T08:31:25Z</time>
      </trkpt>
      <trkpt lat="44.71266" lon="3.85666">
        <ele>974.91</ele>
        <time>2013-06-01T08:31:47Z</time>
      </trkpt>
      <trkpt lat="44.71236" lon="3.85667">
        <ele>976.84</ele>
        <time>2013-06-01T08:32:09Z</time>
      </trkpt>
      <trkpt lat="44.71207" lon="3.85667">
        <ele>979.24</ele>
        <time>2013-06-01T08:32:31Z</time>
      </trkpt>
      <trkpt lat="44.7118" lon="3.85658">
        <ele>981.16</ele>
        <time>2013-06-01T08:32:51Z</time>
      </trkpt>
      <trkpt lat="44.71151" lon="3.85651">
        <ele>981.64</ele>
        <time>2013-06-01T08:33:13Z</time>
      </trkpt>
      <trkpt lat="44.71124" lon="3.85648">
        <ele>980.2</ele>
        <time>2013-06-01T08:33:32Z</time>
      </trkpt>
      <trkpt lat="44.71093" lon="3.85644">
        <ele>979.72</ele>
        <time>2013-06-01T08:33:55Z</time>
      </trkpt>
      <trkpt lat="44.71066" lon="3.85641">
        <ele>979.72</ele>
        <time>2013-06-01T08:34:15Z</time>
      </trkpt>
      <trkpt lat="44.71063" lon="3.8564">
        <ele>978.28</ele>
        <time>2013-06-01T08:34:17Z</time>
      </trkpt>
      <trkpt lat="44.71039" lon="3.85638">
        <ele>979.24</ele>
        <time>2013-06-01T08:34:34Z</time>
      </trkpt>
      <trkpt lat="44.71034" lon="3.85638">
        <ele>977.8</ele>
        <time>2013-06-01T08:34:38Z</time>
      </trkpt>
      <trkpt lat="44.71006" lon="3.8564">
        <ele>977.8</ele>
        <time>2013-06-01T08:34:58Z</time>
      </trkpt>
      <trkpt lat="44.70978" lon="3.85643">
        <ele>975.88</ele>
        <time>2013-06-01T08:35:19Z</time>
      </trkpt>
      <trkpt lat="44.70975" lon="3.85644">
        <ele>977.32</ele>
        <time>2013-06-01T08:35:21Z</time>
      </trkpt>
      <trkpt lat="44.70954" lon="3.85651">
        <ele>978.28</ele>
        <time>2013-06-01T08:35:37Z</time>
      </trkpt>
      <trkpt lat="44.70926" lon="3.85657">
        <ele>977.8</ele>
        <time>2013-06-01T08:35:56Z</time>
      </trkpt>
      <trkpt lat="44.70897" lon="3.85663">
        <ele>979.24</ele>
        <time>2013-06-01T08:36:17Z</time>
      </trkpt>
      <trkpt lat="44.7087" lon="3.8567">
        <ele>980.68</ele>
        <time>2013-06-01T08:36:36Z</time>
      </trkpt>
      <trkpt lat="44.70844" lon="3.85676">
        <ele>981.16</ele>
        <time>2013-06-01T08:36:56Z</time>
      </trkpt>
      <trkpt lat="44.7082" lon="3.85683">
        <ele>982.6</ele>
        <time>2013-06-01T08:37:14Z</time>
      </trkpt>
      <trkpt lat="44.70796" lon="3.85689">
        <ele>984.05</ele>
        <time>2013-06-01T08:37:31Z</time>
      </trkpt>
      <trkpt lat="44.70766" lon="3.85692">
        <ele>984.53</ele>
        <time>2013-06-01T08:37:52Z</time>
      </trkpt>
      <trkpt lat="44.70744" lon="3.85696">
        <ele>983.57</ele>
        <time>2013-06-01T08:38:09Z</time>
      </trkpt>
      <trkpt lat="44.70715" lon="3.85692">
        <ele>983.57</ele>
        <time>2013-06-01T08:38:29Z</time>
      </trkpt>
      <trkpt lat="44.70683" lon="3.85682">
        <ele>982.6</ele>
        <time>2013-06-01T08:38:52Z</time>
      </trkpt>
      <trkpt lat="44.70658" lon="3.85677">
        <ele>978.76</ele>
        <time>2013-06-01T08:39:11Z</time>
      </trkpt>
      <trkpt lat="44.70636" lon="3.85662">
        <ele>978.28</ele>
        <time>2013-06-01T08:39:28Z</time>
      </trkpt>
      <trkpt lat="44.70633" lon="3.85659">
        <ele>979.24</ele>
        <time>2013-06-01T08:39:31Z</time>
      </trkpt>
      <trkpt lat="44.70621" lon="3.8565">
        <ele>978.76</ele>
        <time>2013-06-01T08:39:40Z</time>
      </trkpt>
      <trkpt lat="44.70602" lon="3.85642">
        <ele>980.2</ele>
        <time>2013-06-01T08:39:53Z</time>
      </trkpt>
      <trkpt lat="44.70578" lon="3.85647">
        <ele>978.28</ele>
        <time>2013-06-01T08:40:11Z</time>
      </trkpt>
      <trkpt lat="44.70568" lon="3.85648">
        <ele>978.76</ele>
        <time>2013-06-01T08:40:18Z</time>
      </trkpt>
      <trkpt lat="44.70542" lon="3.85658">
        <ele>979.72</ele>
        <time>2013-06-01T08:40:38Z</time>
      </trkpt>
      <trkpt lat="44.70516" lon="3.85663">
        <ele>977.8</ele>
        <time>2013-06-01T08:40:56Z</time>
      </trkpt>
      <trkpt lat="44.70491" lon="3.85671">
        <ele>978.76</ele>
        <time>2013-06-01T08:41:14Z</time>
      </trkpt>
      <trkpt lat="44.7048" lon="3.85673">
        <ele>977.32</ele>
        <time>2013-06-01T08:41:22Z</time>
      </trkpt>
      <trkpt lat="44.70459" lon="3.85677">
        <ele>979.24</ele>
        <time>2013-06-01T08:41:38Z</time>
      </trkpt>
      <trkpt lat="44.70457" lon="3.85677">
        <ele>979.24</ele>
        <time>2013-06-01T08:41:39Z</time>
      </trkpt>
      <trkpt lat="44.70438" lon="3.85675">
        <ele>982.12</ele>
        <time>2013-06-01T08:41:53Z</time>
      </trkpt>
      <trkpt lat="44.70417" lon="3.85674">
        <ele>984.05</ele>
        <time>2013-06-01T08:42:09Z</time>
      </trkpt>
      <trkpt lat="44.70405" lon="3.85675">
        <ele>986.93</ele>
        <time>2013-06-01T08:42:18Z</time>
      </trkpt>
      <trkpt lat="44.70394" lon="3.85676">
        <ele>990.3</ele>
        <time>2013-06-01T08:42:26Z</time>
      </trkpt>
      <trkpt lat="44.70389" lon="3.85676">
        <ele>988.37</ele>
        <time>2013-06-01T08:42:30Z</time>
      </trkpt>
      <trkpt lat="44.70369" lon="3.85677">
        <ele>991.26</ele>
        <time>2013-06-01T08:42:45Z</time>
      </trkpt>
      <trkpt lat="44.70364" lon="3.85678">
        <ele>990.3</ele>
        <time>2013-06-01T08:42:49Z</time>
      </trkpt>
      <trkpt lat="44.70344" lon="3.85682">
        <ele>991.26</ele>
        <time>2013-06-01T08:43:04Z</time>
      </trkpt>
      <trkpt lat="44.70326" lon="3.85687">
        <ele>991.74</ele>
        <time>2013-06-01T08:43:17Z</time>
      </trkpt>
      <trkpt lat="44.70318" lon="3.8569">
        <ele>991.74</ele>
        <time>2013-06-01T08:43:23Z</time>
      </trkpt>
      <trkpt lat="44.7031" lon="3.85693">
        <ele>993.18</ele>
        <time>2013-06-01T08:43:29Z</time>
      </trkpt>
      <trkpt lat="44.70302" lon="3.85696">
        <ele>991.26</ele>
        <time>2013-06-01T08:43:35Z</time>
      </trkpt>
      <trkpt lat="44.7029" lon="3.857">
        <ele>993.18</ele>
        <time>2013-06-01T08:43:44Z</time>
      </trkpt>
      <trkpt lat="44.70274" lon="3.85707">
        <ele>992.7</ele>
        <time>2013-06-01T08:43:56Z</time>
      </trkpt>
      <trkpt lat="44.7027" lon="3.85709">
        <ele>991.26</ele>
        <time>2013-06-01T08:43:59Z</time>
      </trkpt>
      <trkpt lat="44.70259" lon="3.85713">
        <ele>993.66</ele>
        <time>2013-06-01T08:44:07Z</time>
      </trkpt>
      <trkpt lat="44.70236" lon="3.85721">
        <ele>996.54</ele>
        <time>2013-06-01T08:44:25Z</time>
      </trkpt>
      <trkpt lat="44.70224" lon="3.85725">
        <ele>997.99</ele>
        <time>2013-06-01T08:44:34Z</time>
      </trkpt>
      <trkpt lat="44.70209" lon="3.85731">
        <ele>997.51</ele>
        <time>2013-06-01T08:44:49Z</time>
      </trkpt>
      <trkpt lat="44.70209" lon="3.85731">
        <ele>997.51</ele>
        <time>2013-06-01T08:44:50Z</time>
      </trkpt>
      <trkpt lat="44.70206" lon="3.85733">
        <ele>1000.87</ele>
        <time>2013-06-01T08:44:52Z</time>
      </trkpt>
      <trkpt lat="44.70205" lon="3.85733">
        <ele>1000.87</ele>
        <time>2013-06-01T08:44:53Z</time>
      </trkpt>
      <trkpt lat="44.70183" lon="3.85742">
        <ele>999.91</ele>
        <time>2013-06-01T08:45:09Z</time>
      </trkpt>
      <trkpt lat="44.70179" lon="3.85743">
        <ele>1001.83</ele>
        <time>2013-06-01T08:45:12Z</time>
      </trkpt>
      <trkpt lat="44.70172" lon="3.85746">
        <ele>1003.27</ele>
        <time>2013-06-01T08:45:17Z</time>
      </trkpt>
      <trkpt lat="44.70163" lon="3.85748">
        <ele>1003.75</ele>
        <time>2013-06-01T08:45:24Z</time>
      </trkpt>
      <trkpt lat="44.70157" lon="3.85751">
        <ele>1003.75</ele>
        <time>2013-06-01T08:45:29Z</time>
      </trkpt>
      <trkpt lat="44.70153" lon="3.85752">
        <ele>1002.31</ele>
        <time>2013-06-01T08:45:32Z</time>
      </trkpt>
      <trkpt lat="44.70128" lon="3.85761">
        <ele>1005.2</ele>
        <time>2013-06-01T08:45:51Z</time>
      </trkpt>
      <trkpt lat="44.70108" lon="3.85768">
        <ele>1006.64</ele>
        <time>2013-06-01T08:46:06Z</time>
      </trkpt>
      <trkpt lat="44.7008" lon="3.85774">
        <ele>1008.08</ele>
        <time>2013-06-01T08:46:26Z</time>
      </trkpt>
      <trkpt lat="44.70059" lon="3.85779">
        <ele>1008.56</ele>
        <time>2013-06-01T08:46:42Z</time>
      </trkpt>
      <trkpt lat="44.70029" lon="3.85785">
        <ele>1008.56</ele>
        <time>2013-06-01T08:47:03Z</time>
      </trkpt>
      <trkpt lat="44.70019" lon="3.85786">
        <ele>1010.48</ele>
        <time>2013-06-01T08:47:10Z</time>
      </trkpt>
      <trkpt lat="44.6999" lon="3.85793">
        <ele>1010.48</ele>
        <time>2013-06-01T08:47:31Z</time>
      </trkpt>
      <trkpt lat="44.69964" lon="3.858">
        <ele>1010.48</ele>
        <time>2013-06-01T08:47:50Z</time>
      </trkpt>
      <trkpt lat="44.69942" lon="3.85807">
        <ele>1010.96</ele>
        <time>2013-06-01T08:48:06Z</time>
      </trkpt>
      <trkpt lat="44.69926" lon="3.85815">
        <ele>1010.96</ele>
        <time>2013-06-01T08:48:18Z</time>
      </trkpt>
      <trkpt lat="44.69921" lon="3.85814">
        <ele>1012.89</ele>
        <time>2013-06-01T08:48:22Z</time>
      </trkpt>
      <trkpt lat="44.69904" lon="3.85795">
        <ele>1012.89</ele>
        <time>2013-06-01T08:48:38Z</time>
      </trkpt>
      <trkpt lat="44.69883" lon="3.85769">
        <ele>1013.37</ele>
        <time>2013-06-01T08:48:58Z</time>
      </trkpt>
      <trkpt lat="44.69866" lon="3.85738">
        <ele>1014.33</ele>
        <time>2013-06-01T08:49:19Z</time>
      </trkpt>
      <trkpt lat="44.69855" lon="3.85718">
        <ele>1016.73</ele>
        <time>2013-06-01T08:49:33Z</time>
      </trkpt>
      <trkpt lat="44.69834" lon="3.8569">
        <ele>1017.21</ele>
        <time>2013-06-01T08:49:52Z</time>
      </trkpt>
      <trkpt lat="44.69819" lon="3.85669">
        <ele>1017.69</ele>
        <time>2013-06-01T08:50:08Z</time>
      </trkpt>
      <trkpt lat="44.69801" lon="3.85644">
        <ele>1018.65</ele>
        <time>2013-06-01T08:50:26Z</time>
      </trkpt>
      <trkpt lat="44.69785" lon="3.85621">
        <ele>1019.62</ele>
        <time>2013-06-01T08:50:43Z</time>
      </trkpt>
      <trkpt lat="44.69771" lon="3.85601">
        <ele>1022.5</ele>
        <time>2013-06-01T08:50:59Z</time>
      </trkpt>
      <trkpt lat="44.69763" lon="3.85594">
        <ele>1022.98</ele>
        <time>2013-06-01T08:51:14Z</time>
      </trkpt>
      <trkpt lat="44.69759" lon="3.85586">
        <ele>1022.98</ele>
        <time>2013-06-01T08:51:27Z</time>
      </trkpt>
      <trkpt lat="44.69749" lon="3.85562">
        <ele>1023.94</ele>
        <time>2013-06-01T08:51:44Z</time>
      </trkpt>
      <trkpt lat="44.69743" lon="3.85541">
        <ele>1025.86</ele>
        <time>2013-06-01T08:51:56Z</time>
      </trkpt>
      <trkpt lat="44.69734" lon="3.8551">
        <ele>1028.27</ele>
        <time>2013-06-01T08:52:13Z</time>
      </trkpt>
      <trkpt lat="44.69725" lon="3.85486">
        <ele>1030.19</ele>
        <time>2013-06-01T08:52:27Z</time>
      </trkpt>
      <trkpt lat="44.69713" lon="3.8546">
        <ele>1031.15</ele>
        <time>2013-06-01T08:52:43Z</time>
      </trkpt>
      <trkpt lat="44.69702" lon="3.85435">
        <ele>1032.59</ele>
        <time>2013-06-01T08:52:59Z</time>
      </trkpt>
      <trkpt lat="44.69692" lon="3.85414">
        <ele>1033.55</ele>
        <time>2013-06-01T08:53:13Z</time>
      </trkpt>
      <trkpt lat="44.69676" lon="3.85388">
        <ele>1035</ele>
        <time>2013-06-01T08:53:29Z</time>
      </trkpt>
      <trkpt lat="44.69658" lon="3.85362">
        <ele>1035</ele>
        <time>2013-06-01T08:53:47Z</time>
      </trkpt>
      <trkpt lat="44.69645" lon="3.85347">
        <ele>1035.48</ele>
        <time>2013-06-01T08:54:00Z</time>
      </trkpt>
      <trkpt lat="44.69634" lon="3.85332">
        <ele>1035.96</ele>
        <time>2013-06-01T08:54:12Z</time>
      </trkpt>
      <trkpt lat="44.69639" lon="3.85307">
        <ele>1036.44</ele>
        <time>2013-06-01T08:54:25Z</time>
      </trkpt>
      <trkpt lat="44.69647" lon="3.85296">
        <ele>1034.52</ele>
        <time>2013-06-01T08:54:34Z</time>
      </trkpt>
      <trkpt lat="44.69655" lon="3.85281">
        <ele>1034.04</ele>
        <time>2013-06-01T08:54:43Z</time>
      </trkpt>
      <trkpt lat="44.69658" lon="3.85274">
        <ele>1035.48</ele>
        <time>2013-06-01T08:54:48Z</time>
      </trkpt>
      <trkpt lat="44.6966" lon="3.85267">
        <ele>1035.48</ele>
        <time>2013-06-01T08:54:52Z</time>
      </trkpt>
      <trkpt lat="44.69665" lon="3.8526">
        <ele>1034.52</ele>
        <time>2013-06-01T08:54:56Z</time>
      </trkpt>
      <trkpt lat="44.69668" lon="3.85255">
        <ele>1034.52</ele>
        <time>2013-06-01T08:54:59Z</time>
      </trkpt>
      <trkpt lat="44.69674" lon="3.85239">
        <ele>1035</ele>
        <time>2013-06-01T08:55:08Z</time>
      </trkpt>
      <trkpt lat="44.69677" lon="3.85233">
        <ele>1035</ele>
        <time>2013-06-01T08:55:12Z</time>
      </trkpt>
      <trkpt lat="44.6968" lon="3.85229">
        <ele>1033.55</ele>
        <time>2013-06-01T08:55:15Z</time>
      </trkpt>
      <trkpt lat="44.69688" lon="3.85215">
        <ele>1029.23</ele>
        <time>2013-06-01T08:55:25Z</time>
      </trkpt>
      <trkpt lat="44.69695" lon="3.85204">
        <ele>1031.15</ele>
        <time>2013-06-01T08:55:32Z</time>
      </trkpt>
      <trkpt lat="44.69713" lon="3.85187">
        <ele>1027.79</ele>
        <time>2013-06-01T08:55:45Z</time>
      </trkpt>
      <trkpt lat="44.69731" lon="3.85172">
        <ele>1027.79</ele>
        <time>2013-06-01T08:56:00Z</time>
      </trkpt>
      <trkpt lat="44.69731" lon="3.8517">
        <ele>1028.27</ele>
        <time>2013-06-01T08:56:01Z</time>
      </trkpt>
      <trkpt lat="44.69755" lon="3.85151">
        <ele>1026.34</ele>
        <time>2013-06-01T08:56:20Z</time>
      </trkpt>
      <trkpt lat="44.69759" lon="3.85149">
        <ele>1025.86</ele>
        <time>2013-06-01T08:56:24Z</time>
      </trkpt>
      <trkpt lat="44.69766" lon="3.85145">
        <ele>1025.86</ele>
        <time>2013-06-01T08:56:29Z</time>
      </trkpt>
      <trkpt lat="44.6979" lon="3.85134">
        <ele>1025.86</ele>
        <time>2013-06-01T08:56:47Z</time>
      </trkpt>
      <trkpt lat="44.69805" lon="3.85107">
        <ele>1027.79</ele>
        <time>2013-06-01T08:57:02Z</time>
      </trkpt>
      <trkpt lat="44.6981" lon="3.85089">
        <ele>1027.79</ele>
        <time>2013-06-01T08:57:11Z</time>
      </trkpt>
      <trkpt lat="44.6981" lon="3.85073">
        <ele>1026.34</ele>
        <time>2013-06-01T08:57:20Z</time>
      </trkpt>
      <trkpt lat="44.6981" lon="3.85071">
        <ele>1026.34</ele>
        <time>2013-06-01T08:57:21Z</time>
      </trkpt>
      <trkpt lat="44.6981" lon="3.85063">
        <ele>1025.86</ele>
        <time>2013-06-01T08:57:25Z</time>
      </trkpt>
      <trkpt lat="44.69814" lon="3.8503">
        <ele>1024.9</ele>
        <time>2013-06-01T08:57:40Z</time>
      </trkpt>
      <trkpt lat="44.69817" lon="3.85018">
        <ele>1024.9</ele>
        <time>2013-06-01T08:57:46Z</time>
      </trkpt>
      <trkpt lat="44.69822" lon="3.84996">
        <ele>1024.42</ele>
        <time>2013-06-01T08:57:57Z</time>
      </trkpt>
      <trkpt lat="44.69826" lon="3.84986">
        <ele>1022.5</ele>
        <time>2013-06-01T08:58:03Z</time>
      </trkpt>
      <trkpt lat="44.6983" lon="3.84977">
        <ele>1024.42</ele>
        <time>2013-06-01T08:58:09Z</time>
      </trkpt>
      <trkpt lat="44.69831" lon="3.84974">
        <ele>1020.58</ele>
        <time>2013-06-01T08:58:11Z</time>
      </trkpt>
      <trkpt lat="44.69833" lon="3.8497">
        <ele>1023.94</ele>
        <time>2013-06-01T08:58:13Z</time>
      </trkpt>
      <trkpt lat="44.69833" lon="3.84969">
        <ele>1023.94</ele>
        <time>2013-06-01T08:58:14Z</time>
      </trkpt>
      <trkpt lat="44.69836" lon="3.84964">
        <ele>1025.38</ele>
        <time>2013-06-01T08:58:17Z</time>
      </trkpt>
      <trkpt lat="44.69846" lon="3.84922">
        <ele>1025.38</ele>
        <time>2013-06-01T08:58:39Z</time>
      </trkpt>
      <trkpt lat="44.69847" lon="3.84916">
        <ele>1024.42</ele>
        <time>2013-06-01T08:58:42Z</time>
      </trkpt>
      <trkpt lat="44.69855" lon="3.84883">
        <ele>1023.94</ele>
        <time>2013-06-01T08:59:00Z</time>
      </trkpt>
      <trkpt lat="44.6986" lon="3.8486">
        <ele>1024.9</ele>
        <time>2013-06-01T08:59:12Z</time>
      </trkpt>
      <trkpt lat="44.69861" lon="3.84854">
        <ele>1024.9</ele>
        <time>2013-06-01T08:59:15Z</time>
      </trkpt>
      <trkpt lat="44.69866" lon="3.84829">
        <ele>1024.9</ele>
        <time>2013-06-01T08:59:29Z</time>
      </trkpt>
      <trkpt lat="44.69867" lon="3.84827">
        <ele>1024.9</ele>
        <time>2013-06-01T08:59:30Z</time>
      </trkpt>
      <trkpt lat="44.69873" lon="3.84792">
        <ele>1023.46</ele>
        <time>2013-06-01T08:59:48Z</time>
      </trkpt>
      <trkpt lat="44.69879" lon="3.84758">
        <ele>1022.5</ele>
        <time>2013-06-01T09:00:06Z</time>
      </trkpt>
      <trkpt lat="44.69881" lon="3.84718">
        <ele>1020.1</ele>
        <time>2013-06-01T09:00:26Z</time>
      </trkpt>
      <trkpt lat="44.69881" lon="3.84678">
        <ele>1017.21</ele>
        <time>2013-06-01T09:00:46Z</time>
      </trkpt>
      <trkpt lat="44.69878" lon="3.84637">
        <ele>1016.25</ele>
        <time>2013-06-01T09:01:07Z</time>
      </trkpt>
      <trkpt lat="44.69871" lon="3.84606">
        <ele>1015.77</ele>
        <time>2013-06-01T09:01:23Z</time>
      </trkpt>
      <trkpt lat="44.69868" lon="3.84577">
        <ele>1014.33</ele>
        <time>2013-06-01T09:01:39Z</time>
      </trkpt>
      <trkpt lat="44.69877" lon="3.84547">
        <ele>1012.89</ele>
        <time>2013-06-01T09:01:57Z</time>
      </trkpt>
      <trkpt lat="44.69889" lon="3.8452">
        <ele>1012.41</ele>
        <time>2013-06-01T09:02:14Z</time>
      </trkpt>
      <trkpt lat="44.69898" lon="3.84493">
        <ele>1011.93</ele>
        <time>2013-06-01T09:02:30Z</time>
      </trkpt>
      <trkpt lat="44.69904" lon="3.84457">
        <ele>1011.93</ele>
        <time>2013-06-01T09:02:50Z</time>
      </trkpt>
      <trkpt lat="44.6991" lon="3.84427">
        <ele>1011.93</ele>
        <time>2013-06-01T09:03:05Z</time>
      </trkpt>
      <trkpt lat="44.69922" lon="3.84396">
        <ele>1013.37</ele>
        <time>2013-06-01T09:03:23Z</time>
      </trkpt>
      <trkpt lat="44.69932" lon="3.84371">
        <ele>1013.37</ele>
        <time>2013-06-01T09:03:38Z</time>
      </trkpt>
      <trkpt lat="44.6994" lon="3.84344">
        <ele>1014.33</ele>
        <time>2013-06-01T09:03:53Z</time>
      </trkpt>
      <trkpt lat="44.69944" lon="3.84322">
        <ele>1014.81</ele>
        <time>2013-06-01T09:04:07Z</time>
      </trkpt>
      <trkpt lat="44.69947" lon="3.8429">
        <ele>1015.29</ele>
        <time>2013-06-01T09:04:23Z</time>
      </trkpt>
      <trkpt lat="44.69946" lon="3.84282">
        <ele>1015.29</ele>
        <time>2013-06-01T09:04:27Z</time>
      </trkpt>
      <trkpt lat="44.69938" lon="3.8424">
        <ele>1012.41</ele>
        <time>2013-06-01T09:04:47Z</time>
      </trkpt>
      <trkpt lat="44.69938" lon="3.84205">
        <ele>1011.93</ele>
        <time>2013-06-01T09:05:05Z</time>
      </trkpt>
      <trkpt lat="44.69943" lon="3.84177">
        <ele>1011.93</ele>
        <time>2013-06-01T09:05:21Z</time>
      </trkpt>
      <trkpt lat="44.69948" lon="3.84169">
        <ele>1013.37</ele>
        <time>2013-06-01T09:05:26Z</time>
      </trkpt>
      <trkpt lat="44.69963" lon="3.84139">
        <ele>1015.77</ele>
        <time>2013-06-01T09:05:44Z</time>
      </trkpt>
      <trkpt lat="44.69955" lon="3.84115">
        <ele>1015.77</ele>
        <time>2013-06-01T09:05:59Z</time>
      </trkpt>
      <trkpt lat="44.69947" lon="3.84097">
        <ele>1013.37</ele>
        <time>2013-06-01T09:06:11Z</time>
      </trkpt>
      <trkpt lat="44.69933" lon="3.84072">
        <ele>1011.44</ele>
        <time>2013-06-01T09:06:26Z</time>
      </trkpt>
      <trkpt lat="44.69916" lon="3.84063">
        <ele>1009.04</ele>
        <time>2013-06-01T09:06:39Z</time>
      </trkpt>
      <trkpt lat="44.699" lon="3.84061">
        <ele>1005.68</ele>
        <time>2013-06-01T09:06:50Z</time>
      </trkpt>
      <trkpt lat="44.69887" lon="3.84062">
        <ele>1005.68</ele>
        <time>2013-06-01T09:06:58Z</time>
      </trkpt>
      <trkpt lat="44.69867" lon="3.84056">
        <ele>1004.23</ele>
        <time>2013-06-01T09:07:13Z</time>
      </trkpt>
      <trkpt lat="44.6985" lon="3.84046">
        <ele>1003.27</ele>
        <time>2013-06-01T09:07:26Z</time>
      </trkpt>
      <trkpt lat="44.69848" lon="3.84045">
        <ele>1003.27</ele>
        <time>2013-06-01T09:07:27Z</time>
      </trkpt>
      <trkpt lat="44.69833" lon="3.84022">
        <ele>1001.83</ele>
        <time>2013-06-01T09:07:44Z</time>
      </trkpt>
      <trkpt lat="44.69824" lon="3.84006">
        <ele>999.91</ele>
        <time>2013-06-01T09:07:56Z</time>
      </trkpt>
      <trkpt lat="44.69817" lon="3.83984">
        <ele>998.47</ele>
        <time>2013-06-01T09:08:10Z</time>
      </trkpt>
      <trkpt lat="44.69808" lon="3.8397">
        <ele>995.1</ele>
        <time>2013-06-01T09:08:22Z</time>
      </trkpt>
      <trkpt lat="44.69802" lon="3.83964">
        <ele>991.74</ele>
        <time>2013-06-01T09:08:29Z</time>
      </trkpt>
      <trkpt lat="44.69801" lon="3.83963">
        <ele>991.74</ele>
        <time>2013-06-01T09:08:30Z</time>
      </trkpt>
      <trkpt lat="44.69779" lon="3.83936">
        <ele>988.37</ele>
        <time>2013-06-01T09:08:48Z</time>
      </trkpt>
      <trkpt lat="44.69763" lon="3.83915">
        <ele>986.45</ele>
        <time>2013-06-01T09:09:01Z</time>
      </trkpt>
      <trkpt lat="44.69755" lon="3.83901">
        <ele>983.57</ele>
        <time>2013-06-01T09:09:11Z</time>
      </trkpt>
      <trkpt lat="44.69744" lon="3.83882">
        <ele>982.6</ele>
        <time>2013-06-01T09:09:24Z</time>
      </trkpt>
      <trkpt lat="44.6973" lon="3.83864">
        <ele>979.24</ele>
        <time>2013-06-01T09:09:37Z</time>
      </trkpt>
      <trkpt lat="44.69719" lon="3.83847">
        <ele>977.32</ele>
        <time>2013-06-01T09:09:51Z</time>
      </trkpt>
      <trkpt lat="44.69712" lon="3.83826">
        <ele>974.43</ele>
        <time>2013-06-01T09:10:05Z</time>
      </trkpt>
      <trkpt lat="44.69707" lon="3.83811">
        <ele>971.07</ele>
        <time>2013-06-01T09:10:17Z</time>
      </trkpt>
      <trkpt lat="44.69715" lon="3.83797">
        <ele>969.63</ele>
        <time>2013-06-01T09:10:30Z</time>
      </trkpt>
      <trkpt lat="44.69711" lon="3.83782">
        <ele>967.22</ele>
        <time>2013-06-01T09:10:42Z</time>
      </trkpt>
      <trkpt lat="44.69696" lon="3.83771">
        <ele>965.3</ele>
        <time>2013-06-01T09:10:53Z</time>
      </trkpt>
      <trkpt lat="44.69682" lon="3.83768">
        <ele>963.86</ele>
        <time>2013-06-01T09:11:03Z</time>
      </trkpt>
      <trkpt lat="44.69674" lon="3.83766">
        <ele>963.38</ele>
        <time>2013-06-01T09:11:08Z</time>
      </trkpt>
      <trkpt lat="44.69664" lon="3.83748">
        <ele>960.49</ele>
        <time>2013-06-01T09:11:24Z</time>
      </trkpt>
      <trkpt lat="44.69655" lon="3.83722">
        <ele>959.05</ele>
        <time>2013-06-01T09:11:39Z</time>
      </trkpt>
      <trkpt lat="44.69656" lon="3.83704">
        <ele>960.01</ele>
        <time>2013-06-01T09:11:50Z</time>
      </trkpt>
      <trkpt lat="44.69658" lon="3.83697">
        <ele>960.01</ele>
        <time>2013-06-01T09:11:55Z</time>
      </trkpt>
      <trkpt lat="44.69674" lon="3.83678">
        <ele>962.42</ele>
        <time>2013-06-01T09:12:10Z</time>
      </trkpt>
      <trkpt lat="44.69685" lon="3.8366">
        <ele>964.34</ele>
        <time>2013-06-01T09:12:24Z</time>
      </trkpt>
      <trkpt lat="44.69678" lon="3.83642">
        <ele>965.3</ele>
        <time>2013-06-01T09:12:39Z</time>
      </trkpt>
      <trkpt lat="44.69676" lon="3.83641">
        <ele>961.94</ele>
        <time>2013-06-01T09:12:41Z</time>
      </trkpt>
      <trkpt lat="44.69673" lon="3.83639">
        <ele>963.86</ele>
        <time>2013-06-01T09:12:43Z</time>
      </trkpt>
      <trkpt lat="44.69669" lon="3.83636">
        <ele>963.86</ele>
        <time>2013-06-01T09:12:46Z</time>
      </trkpt>
      <trkpt lat="44.69665" lon="3.83636">
        <ele>962.42</ele>
        <time>2013-06-01T09:12:49Z</time>
      </trkpt>
      <trkpt lat="44.69662" lon="3.83634">
        <ele>961.94</ele>
        <time>2013-06-01T09:12:52Z</time>
      </trkpt>
      <trkpt lat="44.69649" lon="3.83619">
        <ele>959.53</ele>
        <time>2013-06-01T09:13:04Z</time>
      </trkpt>
      <trkpt lat="44.69637" lon="3.83604">
        <ele>957.61</ele>
        <time>2013-06-01T09:13:17Z</time>
      </trkpt>
      <trkpt lat="44.69624" lon="3.83581">
        <ele>954.73</ele>
        <time>2013-06-01T09:13:31Z</time>
      </trkpt>
      <trkpt lat="44.69614" lon="3.83554">
        <ele>954.25</ele>
        <time>2013-06-01T09:13:45Z</time>
      </trkpt>
      <trkpt lat="44.69607" lon="3.83535">
        <ele>954.25</ele>
        <time>2013-06-01T09:13:59Z</time>
      </trkpt>
      <trkpt lat="44.69601" lon="3.83507">
        <ele>953.77</ele>
        <time>2013-06-01T09:14:13Z</time>
      </trkpt>
      <trkpt lat="44.69594" lon="3.83482">
        <ele>953.28</ele>
        <time>2013-06-01T09:14:26Z</time>
      </trkpt>
      <trkpt lat="44.69586" lon="3.83452">
        <ele>953.28</ele>
        <time>2013-06-01T09:14:40Z</time>
      </trkpt>
      <trkpt lat="44.69586" lon="3.83448">
        <ele>953.28</ele>
        <time>2013-06-01T09:14:42Z</time>
      </trkpt>
      <trkpt lat="44.69591" lon="3.83438">
        <ele>955.21</ele>
        <time>2013-06-01T09:14:50Z</time>
      </trkpt>
      <trkpt lat="44.69611" lon="3.83436">
        <ele>955.69</ele>
        <time>2013-06-01T09:15:07Z</time>
      </trkpt>
      <trkpt lat="44.69631" lon="3.83433">
        <ele>955.69</ele>
        <time>2013-06-01T09:15:22Z</time>
      </trkpt>
      <trkpt lat="44.69641" lon="3.8343">
        <ele>954.25</ele>
        <time>2013-06-01T09:15:27Z</time>
      </trkpt>
      <trkpt lat="44.69663" lon="3.83427">
        <ele>954.73</ele>
        <time>2013-06-01T09:15:42Z</time>
      </trkpt>
      <trkpt lat="44.6968" lon="3.83429">
        <ele>958.09</ele>
        <time>2013-06-01T09:15:57Z</time>
      </trkpt>
      <trkpt lat="44.69697" lon="3.83432">
        <ele>960.49</ele>
        <time>2013-06-01T09:16:12Z</time>
      </trkpt>
      <trkpt lat="44.69712" lon="3.83433">
        <ele>963.38</ele>
        <time>2013-06-01T09:16:25Z</time>
      </trkpt>
      <trkpt lat="44.69731" lon="3.83436">
        <ele>966.26</ele>
        <time>2013-06-01T09:16:41Z</time>
      </trkpt>
      <trkpt lat="44.69734" lon="3.83437">
        <ele>965.78</ele>
        <time>2013-06-01T09:16:43Z</time>
      </trkpt>
      <trkpt lat="44.6975" lon="3.83449">
        <ele>968.18</ele>
        <time>2013-06-01T09:17:00Z</time>
      </trkpt>
      <trkpt lat="44.69764" lon="3.8346">
        <ele>971.07</ele>
        <time>2013-06-01T09:17:15Z</time>
      </trkpt>
      <trkpt lat="44.69779" lon="3.83464">
        <ele>974.43</ele>
        <time>2013-06-01T09:17:30Z</time>
      </trkpt>
      <trkpt lat="44.69779" lon="3.83439">
        <ele>976.84</ele>
        <time>2013-06-01T09:17:48Z</time>
      </trkpt>
      <trkpt lat="44.69779" lon="3.83437">
        <ele>977.32</ele>
        <time>2013-06-01T09:17:49Z</time>
      </trkpt>
      <trkpt lat="44.69778" lon="3.83433">
        <ele>978.28</ele>
        <time>2013-06-01T09:17:51Z</time>
      </trkpt>
      <trkpt lat="44.69771" lon="3.83404">
        <ele>980.68</ele>
        <time>2013-06-01T09:18:08Z</time>
      </trkpt>
      <trkpt lat="44.69766" lon="3.8338">
        <ele>984.05</ele>
        <time>2013-06-01T09:18:22Z</time>
      </trkpt>
      <trkpt lat="44.6976" lon="3.8336">
        <ele>985.01</ele>
        <time>2013-06-01T09:18:36Z</time>
      </trkpt>
      <trkpt lat="44.69753" lon="3.83336">
        <ele>987.41</ele>
        <time>2013-06-01T09:18:53Z</time>
      </trkpt>
      <trkpt lat="44.69746" lon="3.83311">
        <ele>991.26</ele>
        <time>2013-06-01T09:19:10Z</time>
      </trkpt>
      <trkpt lat="44.69738" lon="3.83289">
        <ele>994.62</ele>
        <time>2013-06-01T09:19:25Z</time>
      </trkpt>
      <trkpt lat="44.69732" lon="3.83268">
        <ele>997.02</ele>
        <time>2013-06-01T09:19:43Z</time>
      </trkpt>
      <trkpt lat="44.69729" lon="3.83261">
        <ele>998.47</ele>
        <time>2013-06-01T09:20:07Z</time>
      </trkpt>
      <trkpt lat="44.69722" lon="3.83241">
        <ele>999.91</ele>
        <time>2013-06-01T09:20:20Z</time>
      </trkpt>
      <trkpt lat="44.69712" lon="3.83218">
        <ele>1003.27</ele>
        <time>2013-06-01T09:20:36Z</time>
      </trkpt>
      <trkpt lat="44.69702" lon="3.83197">
        <ele>1004.72</ele>
        <time>2013-06-01T09:20:51Z</time>
      </trkpt>
      <trkpt lat="44.697" lon="3.83196">
        <ele>1005.2</ele>
        <time>2013-06-01T09:20:53Z</time>
      </trkpt>
      <trkpt lat="44.69697" lon="3.83198">
        <ele>1005.68</ele>
        <time>2013-06-01T09:21:08Z</time>
      </trkpt>
      <trkpt lat="44.697" lon="3.832">
        <ele>1006.16</ele>
        <time>2013-06-01T09:21:33Z</time>
      </trkpt>
      <trkpt lat="44.69698" lon="3.832">
        <ele>1006.16</ele>
        <time>2013-06-01T09:21:58Z</time>
      </trkpt>
      <trkpt lat="44.69699" lon="3.832">
        <ele>1004.72</ele>
        <time>2013-06-01T09:22:40Z</time>
      </trkpt>
      <trkpt lat="44.69698" lon="3.832">
        <ele>1005.68</ele>
        <time>2013-06-01T09:23:09Z</time>
      </trkpt>
      <trkpt lat="44.69699" lon="3.832">
        <ele>1004.72</ele>
        <time>2013-06-01T09:23:18Z</time>
      </trkpt>
      <trkpt lat="44.69698" lon="3.83199">
        <ele>1005.68</ele>
        <time>2013-06-01T09:23:56Z</time>
      </trkpt>
      <trkpt lat="44.69699" lon="3.83201">
        <ele>1005.68</ele>
        <time>2013-06-01T09:24:32Z</time>
      </trkpt>
      <trkpt lat="44.697" lon="3.83201">
        <ele>1004.72</ele>
        <time>2013-06-01T09:24:43Z</time>
      </trkpt>
      <trkpt lat="44.69698" lon="3.83198">
        <ele>1005.68</ele>
        <time>2013-06-01T09:25:12Z</time>
      </trkpt>
      <trkpt lat="44.69695" lon="3.83191">
        <ele>1004.72</ele>
        <time>2013-06-01T09:25:36Z</time>
      </trkpt>
      <trkpt lat="44.69684" lon="3.83171">
        <ele>1007.6</ele>
        <time>2013-06-01T09:25:49Z</time>
      </trkpt>
      <trkpt lat="44.69676" lon="3.83158">
        <ele>1009.04</ele>
        <time>2013-06-01T09:26:05Z</time>
      </trkpt>
      <trkpt lat="44.69664" lon="3.83134">
        <ele>1011.93</ele>
        <time>2013-06-01T09:26:22Z</time>
      </trkpt>
      <trkpt lat="44.69652" lon="3.83114">
        <ele>1013.85</ele>
        <time>2013-06-01T09:26:38Z</time>
      </trkpt>
      <trkpt lat="44.69643" lon="3.83093">
        <ele>1015.29</ele>
        <time>2013-06-01T09:26:54Z</time>
      </trkpt>
      <trkpt lat="44.6964" lon="3.83083">
        <ele>1017.21</ele>
        <time>2013-06-01T09:27:01Z</time>
      </trkpt>
      <trkpt lat="44.6963" lon="3.83059">
        <ele>1019.62</ele>
        <time>2013-06-01T09:27:18Z</time>
      </trkpt>
      <trkpt lat="44.69623" lon="3.83044">
        <ele>1021.54</ele>
        <time>2013-06-01T09:27:34Z</time>
      </trkpt>
      <trkpt lat="44.69621" lon="3.83043">
        <ele>1020.1</ele>
        <time>2013-06-01T09:27:47Z</time>
      </trkpt>
      <trkpt lat="44.6962" lon="3.8304">
        <ele>1020.58</ele>
        <time>2013-06-01T09:28:03Z</time>
      </trkpt>
      <trkpt lat="44.6962" lon="3.8304">
        <ele>1021.54</ele>
        <time>2013-06-01T09:28:16Z</time>
      </trkpt>
      <trkpt lat="44.6962" lon="3.83041">
        <ele>1020.58</ele>
        <time>2013-06-01T09:28:25Z</time>
      </trkpt>
      <trkpt lat="44.6962" lon="3.83042">
        <ele>1021.54</ele>
        <time>2013-06-01T09:28:36Z</time>
      </trkpt>
      <trkpt lat="44.69622" lon="3.83042">
        <ele>1021.06</ele>
        <time>2013-06-01T09:29:01Z</time>
      </trkpt>
      <trkpt lat="44.69621" lon="3.83044">
        <ele>1021.06</ele>
        <time>2013-06-01T09:29:16Z</time>
      </trkpt>
      <trkpt lat="44.69618" lon="3.83036">
        <ele>1022.02</ele>
        <time>2013-06-01T09:29:36Z</time>
      </trkpt>
      <trkpt lat="44.69613" lon="3.83019">
        <ele>1023.94</ele>
        <time>2013-06-01T09:29:51Z</time>
      </trkpt>
      <trkpt lat="44.69615" lon="3.82989">
        <ele>1026.34</ele>
        <time>2013-06-01T09:30:09Z</time>
      </trkpt>
      <trkpt lat="44.69622" lon="3.82985">
        <ele>1026.83</ele>
        <time>2013-06-01T09:30:25Z</time>
      </trkpt>
      <trkpt lat="44.69618" lon="3.82974">
        <ele>1027.31</ele>
        <time>2013-06-01T09:30:41Z</time>
      </trkpt>
      <trkpt lat="44.69617" lon="3.82948">
        <ele>1029.71</ele>
        <time>2013-06-01T09:30:58Z</time>
      </trkpt>
      <trkpt lat="44.69612" lon="3.82917">
        <ele>1031.15</ele>
        <time>2013-06-01T09:31:15Z</time>
      </trkpt>
      <trkpt lat="44.69603" lon="3.82887">
        <ele>1032.11</ele>
        <time>2013-06-01T09:31:32Z</time>
      </trkpt>
      <trkpt lat="44.69596" lon="3.82855">
        <ele>1035</ele>
        <time>2013-06-01T09:31:49Z</time>
      </trkpt>
      <trkpt lat="44.69595" lon="3.82844">
        <ele>1036.44</ele>
        <time>2013-06-01T09:31:55Z</time>
      </trkpt>
      <trkpt lat="44.69594" lon="3.8284">
        <ele>1036.44</ele>
        <time>2013-06-01T09:31:57Z</time>
      </trkpt>
      <trkpt lat="44.69592" lon="3.8281">
        <ele>1037.88</ele>
        <time>2013-06-01T09:32:16Z</time>
      </trkpt>
      <trkpt lat="44.69591" lon="3.82782">
        <ele>1041.25</ele>
        <time>2013-06-01T09:32:33Z</time>
      </trkpt>
      <trkpt lat="44.69591" lon="3.82781">
        <ele>1041.25</ele>
        <time>2013-06-01T09:32:34Z</time>
      </trkpt>
      <trkpt lat="44.6959" lon="3.82752">
        <ele>1041.73</ele>
        <time>2013-06-01T09:32:50Z</time>
      </trkpt>
      <trkpt lat="44.69587" lon="3.82719">
        <ele>1042.21</ele>
        <time>2013-06-01T09:33:08Z</time>
      </trkpt>
      <trkpt lat="44.6959" lon="3.82679">
        <ele>1044.13</ele>
        <time>2013-06-01T09:33:29Z</time>
      </trkpt>
      <trkpt lat="44.69592" lon="3.82655">
        <ele>1044.61</ele>
        <time>2013-06-01T09:33:43Z</time>
      </trkpt>
      <trkpt lat="44.69592" lon="3.82646">
        <ele>1046.05</ele>
        <time>2013-06-01T09:33:47Z</time>
      </trkpt>
      <trkpt lat="44.69592" lon="3.82623">
        <ele>1046.53</ele>
        <time>2013-06-01T09:33:59Z</time>
      </trkpt>
      <trkpt lat="44.69586" lon="3.82586">
        <ele>1048.94</ele>
        <time>2013-06-01T09:34:18Z</time>
      </trkpt>
      <trkpt lat="44.69585" lon="3.82584">
        <ele>1048.94</ele>
        <time>2013-06-01T09:34:19Z</time>
      </trkpt>
      <trkpt lat="44.69577" lon="3.82572">
        <ele>1049.9</ele>
        <time>2013-06-01T09:34:28Z</time>
      </trkpt>
      <trkpt lat="44.6957" lon="3.82569">
        <ele>1048.94</ele>
        <time>2013-06-01T09:34:34Z</time>
      </trkpt>
      <trkpt lat="44.69565" lon="3.82567">
        <ele>1050.86</ele>
        <time>2013-06-01T09:34:38Z</time>
      </trkpt>
      <trkpt lat="44.69545" lon="3.82555">
        <ele>1047.49</ele>
        <time>2013-06-01T09:34:54Z</time>
      </trkpt>
      <trkpt lat="44.69524" lon="3.82542">
        <ele>1047.49</ele>
        <time>2013-06-01T09:35:11Z</time>
      </trkpt>
      <trkpt lat="44.69498" lon="3.82531">
        <ele>1047.49</ele>
        <time>2013-06-01T09:35:32Z</time>
      </trkpt>
      <trkpt lat="44.69475" lon="3.82519">
        <ele>1047.97</ele>
        <time>2013-06-01T09:35:51Z</time>
      </trkpt>
      <trkpt lat="44.69455" lon="3.82506">
        <ele>1047.97</ele>
        <time>2013-06-01T09:36:07Z</time>
      </trkpt>
      <trkpt lat="44.69436" lon="3.82492">
        <ele>1046.53</ele>
        <time>2013-06-01T09:36:26Z</time>
      </trkpt>
      <trkpt lat="44.69411" lon="3.82473">
        <ele>1046.05</ele>
        <time>2013-06-01T09:36:43Z</time>
      </trkpt>
      <trkpt lat="44.6939" lon="3.8246">
        <ele>1047.49</ele>
        <time>2013-06-01T09:37:00Z</time>
      </trkpt>
      <trkpt lat="44.69385" lon="3.82454">
        <ele>1046.05</ele>
        <time>2013-06-01T09:37:05Z</time>
      </trkpt>
      <trkpt lat="44.69367" lon="3.82431">
        <ele>1046.05</ele>
        <time>2013-06-01T09:37:22Z</time>
      </trkpt>
      <trkpt lat="44.69352" lon="3.82408">
        <ele>1045.57</ele>
        <time>2013-06-01T09:37:39Z</time>
      </trkpt>
      <trkpt lat="44.69332" lon="3.82375">
        <ele>1044.61</ele>
        <time>2013-06-01T09:38:01Z</time>
      </trkpt>
      <trkpt lat="44.69316" lon="3.82347">
        <ele>1044.61</ele>
        <time>2013-06-01T09:38:20Z</time>
      </trkpt>
      <trkpt lat="44.69304" lon="3.82326">
        <ele>1044.13</ele>
        <time>2013-06-01T09:38:36Z</time>
      </trkpt>
      <trkpt lat="44.69293" lon="3.82304">
        <ele>1043.65</ele>
        <time>2013-06-01T09:38:52Z</time>
      </trkpt>
      <trkpt lat="44.69292" lon="3.823">
        <ele>1044.13</ele>
        <time>2013-06-01T09:38:54Z</time>
      </trkpt>
      <trkpt lat="44.69271" lon="3.82264">
        <ele>1044.13</ele>
        <time>2013-06-01T09:39:15Z</time>
      </trkpt>
      <trkpt lat="44.69251" lon="3.82256">
        <ele>1043.65</ele>
        <time>2013-06-01T09:39:30Z</time>
      </trkpt>
      <trkpt lat="44.6923" lon="3.82253">
        <ele>1044.61</ele>
        <time>2013-06-01T09:39:46Z</time>
      </trkpt>
      <trkpt lat="44.69215" lon="3.82244">
        <ele>1046.05</ele>
        <time>2013-06-01T09:39:58Z</time>
      </trkpt>
      <trkpt lat="44.692" lon="3.8224">
        <ele>1047.01</ele>
        <time>2013-06-01T09:40:16Z</time>
      </trkpt>
      <trkpt lat="44.69199" lon="3.8224">
        <ele>1047.01</ele>
        <time>2013-06-01T09:40:23Z</time>
      </trkpt>
      <trkpt lat="44.6918" lon="3.82221">
        <ele>1047.97</ele>
        <time>2013-06-01T09:40:41Z</time>
      </trkpt>
      <trkpt lat="44.69173" lon="3.82215">
        <ele>1048.45</ele>
        <time>2013-06-01T09:40:48Z</time>
      </trkpt>
      <trkpt lat="44.69162" lon="3.82198">
        <ele>1050.86</ele>
        <time>2013-06-01T09:41:00Z</time>
      </trkpt>
      <trkpt lat="44.69151" lon="3.82178">
        <ele>1052.3</ele>
        <time>2013-06-01T09:41:14Z</time>
      </trkpt>
      <trkpt lat="44.69137" lon="3.82154">
        <ele>1054.22</ele>
        <time>2013-06-01T09:41:30Z</time>
      </trkpt>
      <trkpt lat="44.69123" lon="3.82125">
        <ele>1057.11</ele>
        <time>2013-06-01T09:41:48Z</time>
      </trkpt>
      <trkpt lat="44.69116" lon="3.82109">
        <ele>1057.59</ele>
        <time>2013-06-01T09:41:58Z</time>
      </trkpt>
      <trkpt lat="44.69103" lon="3.82088">
        <ele>1058.07</ele>
        <time>2013-06-01T09:42:12Z</time>
      </trkpt>
      <trkpt lat="44.69101" lon="3.82083">
        <ele>1058.07</ele>
        <time>2013-06-01T09:42:15Z</time>
      </trkpt>
      <trkpt lat="44.69098" lon="3.82061">
        <ele>1057.11</ele>
        <time>2013-06-01T09:42:28Z</time>
      </trkpt>
      <trkpt lat="44.69097" lon="3.82055">
        <ele>1058.55</ele>
        <time>2013-06-01T09:42:31Z</time>
      </trkpt>
      <trkpt lat="44.69093" lon="3.82039">
        <ele>1058.55</ele>
        <time>2013-06-01T09:42:39Z</time>
      </trkpt>
      <trkpt lat="44.69092" lon="3.82031">
        <ele>1058.55</ele>
        <time>2013-06-01T09:42:43Z</time>
      </trkpt>
      <trkpt lat="44.6909" lon="3.82021">
        <ele>1058.55</ele>
        <time>2013-06-01T09:42:48Z</time>
      </trkpt>
      <trkpt lat="44.69081" lon="3.82009">
        <ele>1058.55</ele>
        <time>2013-06-01T09:42:57Z</time>
      </trkpt>
      <trkpt lat="44.69077" lon="3.82001">
        <ele>1059.03</ele>
        <time>2013-06-01T09:43:11Z</time>
      </trkpt>
      <trkpt lat="44.69076" lon="3.82001">
        <ele>1057.59</ele>
        <time>2013-06-01T09:43:17Z</time>
      </trkpt>
      <trkpt lat="44.69076" lon="3.82001">
        <ele>1059.03</ele>
        <time>2013-06-01T09:43:22Z</time>
      </trkpt>
      <trkpt lat="44.69075" lon="3.81996">
        <ele>1059.51</ele>
        <time>2013-06-01T09:43:57Z</time>
      </trkpt>
      <trkpt lat="44.69075" lon="3.81998">
        <ele>1059.51</ele>
        <time>2013-06-01T09:44:27Z</time>
      </trkpt>
      <trkpt lat="44.69076" lon="3.81998">
        <ele>1058.07</ele>
        <time>2013-06-01T09:44:35Z</time>
      </trkpt>
      <trkpt lat="44.69076" lon="3.81999">
        <ele>1059.03</ele>
        <time>2013-06-01T09:45:00Z</time>
      </trkpt>
      <trkpt lat="44.69075" lon="3.81998">
        <ele>1057.59</ele>
        <time>2013-06-01T09:45:09Z</time>
      </trkpt>
      <trkpt lat="44.69074" lon="3.81996">
        <ele>1058.55</ele>
        <time>2013-06-01T09:45:32Z</time>
      </trkpt>
      <trkpt lat="44.69075" lon="3.81996">
        <ele>1056.63</ele>
        <time>2013-06-01T09:46:03Z</time>
      </trkpt>
      <trkpt lat="44.69074" lon="3.81998">
        <ele>1058.07</ele>
        <time>2013-06-01T09:46:09Z</time>
      </trkpt>
      <trkpt lat="44.69073" lon="3.82002">
        <ele>1058.07</ele>
        <time>2013-06-01T09:46:26Z</time>
      </trkpt>
      <trkpt lat="44.69074" lon="3.82002">
        <ele>1056.15</ele>
        <time>2013-06-01T09:46:47Z</time>
      </trkpt>
      <trkpt lat="44.69074" lon="3.81998">
        <ele>1057.59</ele>
        <time>2013-06-01T09:46:59Z</time>
      </trkpt>
      <trkpt lat="44.69078" lon="3.81996">
        <ele>1058.07</ele>
        <time>2013-06-01T09:47:21Z</time>
      </trkpt>
      <trkpt lat="44.69076" lon="3.81992">
        <ele>1056.63</ele>
        <time>2013-06-01T09:47:43Z</time>
      </trkpt>
      <trkpt lat="44.69076" lon="3.81992">
        <ele>1058.07</ele>
        <time>2013-06-01T09:47:45Z</time>
      </trkpt>
      <trkpt lat="44.69076" lon="3.81992">
        <ele>1057.11</ele>
        <time>2013-06-01T09:47:51Z</time>
      </trkpt>
      <trkpt lat="44.69079" lon="3.81997">
        <ele>1058.07</ele>
        <time>2013-06-01T09:48:14Z</time>
      </trkpt>
      <trkpt lat="44.69078" lon="3.82">
        <ele>1058.07</ele>
        <time>2013-06-01T09:48:34Z</time>
      </trkpt>
      <trkpt lat="44.69076" lon="3.82">
        <ele>1056.63</ele>
        <time>2013-06-01T09:48:50Z</time>
      </trkpt>
      <trkpt lat="44.69075" lon="3.81999">
        <ele>1058.55</ele>
        <time>2013-06-01T09:49:12Z</time>
      </trkpt>
      <trkpt lat="44.69074" lon="3.81991">
        <ele>1057.11</ele>
        <time>2013-06-01T09:49:39Z</time>
      </trkpt>
      <trkpt lat="44.69074" lon="3.81991">
        <ele>1058.55</ele>
        <time>2013-06-01T09:49:42Z</time>
      </trkpt>
      <trkpt lat="44.69077" lon="3.81994">
        <ele>1056.63</ele>
        <time>2013-06-01T09:49:57Z</time>
      </trkpt>
      <trkpt lat="44.69079" lon="3.81996">
        <ele>1058.07</ele>
        <time>2013-06-01T09:50:13Z</time>
      </trkpt>
      <trkpt lat="44.69083" lon="3.81997">
        <ele>1058.07</ele>
        <time>2013-06-01T09:50:38Z</time>
      </trkpt>
      <trkpt lat="44.69081" lon="3.82">
        <ele>1056.63</ele>
        <time>2013-06-01T09:50:45Z</time>
      </trkpt>
      <trkpt lat="44.6908" lon="3.82001">
        <ele>1056.63</ele>
        <time>2013-06-01T09:51:05Z</time>
      </trkpt>
      <trkpt lat="44.69084" lon="3.81999">
        <ele>1056.63</ele>
        <time>2013-06-01T09:51:28Z</time>
      </trkpt>
      <trkpt lat="44.69082" lon="3.81999">
        <ele>1057.59</ele>
        <time>2013-06-01T09:51:40Z</time>
      </trkpt>
      <trkpt lat="44.69077" lon="3.81998">
        <ele>1058.55</ele>
        <time>2013-06-01T09:52:03Z</time>
      </trkpt>
      <trkpt lat="44.69075" lon="3.81999">
        <ele>1057.59</ele>
        <time>2013-06-01T09:52:13Z</time>
      </trkpt>
      <trkpt lat="44.69075" lon="3.81997">
        <ele>1058.55</ele>
        <time>2013-06-01T09:52:16Z</time>
      </trkpt>
      <trkpt lat="44.69075" lon="3.81995">
        <ele>1058.07</ele>
        <time>2013-06-01T09:52:34Z</time>
      </trkpt>
      <trkpt lat="44.69074" lon="3.81995">
        <ele>1060.47</ele>
        <time>2013-06-01T09:52:40Z</time>
      </trkpt>
      <trkpt lat="44.69074" lon="3.81995">
        <ele>1060.95</ele>
        <time>2013-06-01T09:52:42Z</time>
      </trkpt>
      <trkpt lat="44.69072" lon="3.81994">
        <ele>1058.55</ele>
        <time>2013-06-01T09:52:45Z</time>
      </trkpt>
      <trkpt lat="44.69057" lon="3.81984">
        <ele>1058.55</ele>
        <time>2013-06-01T09:52:59Z</time>
      </trkpt>
      <trkpt lat="44.6904" lon="3.81973">
        <ele>1059.51</ele>
        <time>2013-06-01T09:53:15Z</time>
      </trkpt>
      <trkpt lat="44.69032" lon="3.81968">
        <ele>1058.55</ele>
        <time>2013-06-01T09:53:22Z</time>
      </trkpt>
      <trkpt lat="44.69007" lon="3.81952">
        <ele>1059.99</ele>
        <time>2013-06-01T09:53:41Z</time>
      </trkpt>
      <trkpt lat="44.68989" lon="3.81943">
        <ele>1062.87</ele>
        <time>2013-06-01T09:53:57Z</time>
      </trkpt>
      <trkpt lat="44.68988" lon="3.81942">
        <ele>1061.43</ele>
        <time>2013-06-01T09:53:58Z</time>
      </trkpt>
      <trkpt lat="44.68981" lon="3.81937">
        <ele>1063.36</ele>
        <time>2013-06-01T09:54:05Z</time>
      </trkpt>
      <trkpt lat="44.68965" lon="3.81931">
        <ele>1065.28</ele>
        <time>2013-06-01T09:54:20Z</time>
      </trkpt>
      <trkpt lat="44.68945" lon="3.81932">
        <ele>1068.16</ele>
        <time>2013-06-01T09:54:36Z</time>
      </trkpt>
      <trkpt lat="44.68924" lon="3.81935">
        <ele>1070.08</ele>
        <time>2013-06-01T09:54:53Z</time>
      </trkpt>
      <trkpt lat="44.68904" lon="3.81943">
        <ele>1072.01</ele>
        <time>2013-06-01T09:55:08Z</time>
      </trkpt>
      <trkpt lat="44.6889" lon="3.81949">
        <ele>1071.53</ele>
        <time>2013-06-01T09:55:22Z</time>
      </trkpt>
      <trkpt lat="44.68885" lon="3.81951">
        <ele>1072.97</ele>
        <time>2013-06-01T09:55:25Z</time>
      </trkpt>
      <trkpt lat="44.68865" lon="3.81959">
        <ele>1075.37</ele>
        <time>2013-06-01T09:55:38Z</time>
      </trkpt>
      <trkpt lat="44.68853" lon="3.81963">
        <ele>1075.85</ele>
        <time>2013-06-01T09:55:49Z</time>
      </trkpt>
      <trkpt lat="44.68833" lon="3.81971">
        <ele>1076.33</ele>
        <time>2013-06-01T09:56:03Z</time>
      </trkpt>
      <trkpt lat="44.68814" lon="3.81979">
        <ele>1078.74</ele>
        <time>2013-06-01T09:56:19Z</time>
      </trkpt>
      <trkpt lat="44.68793" lon="3.81981">
        <ele>1080.66</ele>
        <time>2013-06-01T09:56:35Z</time>
      </trkpt>
      <trkpt lat="44.68769" lon="3.81976">
        <ele>1082.1</ele>
        <time>2013-06-01T09:56:53Z</time>
      </trkpt>
      <trkpt lat="44.68759" lon="3.81973">
        <ele>1082.58</ele>
        <time>2013-06-01T09:57:00Z</time>
      </trkpt>
      <trkpt lat="44.68735" lon="3.81966">
        <ele>1083.54</ele>
        <time>2013-06-01T09:57:17Z</time>
      </trkpt>
      <trkpt lat="44.68718" lon="3.81959">
        <ele>1085.95</ele>
        <time>2013-06-01T09:57:33Z</time>
      </trkpt>
      <trkpt lat="44.68701" lon="3.81954">
        <ele>1088.35</ele>
        <time>2013-06-01T09:57:47Z</time>
      </trkpt>
      <trkpt lat="44.68698" lon="3.81953">
        <ele>1089.79</ele>
        <time>2013-06-01T09:57:49Z</time>
      </trkpt>
      <trkpt lat="44.68684" lon="3.81951">
        <ele>1090.27</ele>
        <time>2013-06-01T09:58:00Z</time>
      </trkpt>
      <trkpt lat="44.68659" lon="3.81945">
        <ele>1092.68</ele>
        <time>2013-06-01T09:58:19Z</time>
      </trkpt>
      <trkpt lat="44.68642" lon="3.81935">
        <ele>1093.16</ele>
        <time>2013-06-01T09:58:35Z</time>
      </trkpt>
      <trkpt lat="44.68632" lon="3.81927">
        <ele>1095.08</ele>
        <time>2013-06-01T09:58:45Z</time>
      </trkpt>
      <trkpt lat="44.68616" lon="3.81913">
        <ele>1097.48</ele>
        <time>2013-06-01T09:59:01Z</time>
      </trkpt>
      <trkpt lat="44.68615" lon="3.8191">
        <ele>1096.04</ele>
        <time>2013-06-01T09:59:03Z</time>
      </trkpt>
      <trkpt lat="44.68609" lon="3.819">
        <ele>1098.44</ele>
        <time>2013-06-01T09:59:09Z</time>
      </trkpt>
      <trkpt lat="44.68601" lon="3.81873">
        <ele>1099.89</ele>
        <time>2013-06-01T09:59:26Z</time>
      </trkpt>
      <trkpt lat="44.686" lon="3.81868">
        <ele>1100.85</ele>
        <time>2013-06-01T09:59:29Z</time>
      </trkpt>
      <trkpt lat="44.68599" lon="3.81862">
        <ele>1101.33</ele>
        <time>2013-06-01T09:59:33Z</time>
      </trkpt>
      <trkpt lat="44.68594" lon="3.81849">
        <ele>1103.25</ele>
        <time>2013-06-01T09:59:41Z</time>
      </trkpt>
      <trkpt lat="44.68592" lon="3.81843">
        <ele>1103.73</ele>
        <time>2013-06-01T09:59:44Z</time>
      </trkpt>
      <trkpt lat="44.68582" lon="3.8182">
        <ele>1104.69</ele>
        <time>2013-06-01T09:59:59Z</time>
      </trkpt>
      <trkpt lat="44.6858" lon="3.81817">
        <ele>1105.65</ele>
        <time>2013-06-01T10:00:01Z</time>
      </trkpt>
      <trkpt lat="44.68571" lon="3.81807">
        <ele>1108.06</ele>
        <time>2013-06-01T10:00:10Z</time>
      </trkpt>
      <trkpt lat="44.68554" lon="3.8179">
        <ele>1109.02</ele>
        <time>2013-06-01T10:00:28Z</time>
      </trkpt>
      <trkpt lat="44.68539" lon="3.81774">
        <ele>1111.42</ele>
        <time>2013-06-01T10:00:43Z</time>
      </trkpt>
      <trkpt lat="44.68537" lon="3.81767">
        <ele>1112.38</ele>
        <time>2013-06-01T10:00:50Z</time>
      </trkpt>
      <trkpt lat="44.68522" lon="3.81764">
        <ele>1112.38</ele>
        <time>2013-06-01T10:01:02Z</time>
      </trkpt>
      <trkpt lat="44.68519" lon="3.81765">
        <ele>1110.46</ele>
        <time>2013-06-01T10:01:05Z</time>
      </trkpt>
      <trkpt lat="44.68507" lon="3.81767">
        <ele>1112.38</ele>
        <time>2013-06-01T10:01:20Z</time>
      </trkpt>
      <trkpt lat="44.68499" lon="3.81766">
        <ele>1111.42</ele>
        <time>2013-06-01T10:01:27Z</time>
      </trkpt>
      <trkpt lat="44.68477" lon="3.81766">
        <ele>1113.82</ele>
        <time>2013-06-01T10:01:45Z</time>
      </trkpt>
      <trkpt lat="44.68456" lon="3.81769">
        <ele>1113.82</ele>
        <time>2013-06-01T10:02:00Z</time>
      </trkpt>
      <trkpt lat="44.68447" lon="3.81771">
        <ele>1113.82</ele>
        <time>2013-06-01T10:02:06Z</time>
      </trkpt>
      <trkpt lat="44.68432" lon="3.81772">
        <ele>1115.75</ele>
        <time>2013-06-01T10:02:13Z</time>
      </trkpt>
      <trkpt lat="44.68426" lon="3.81771">
        <ele>1116.71</ele>
        <time>2013-06-01T10:02:17Z</time>
      </trkpt>
      <trkpt lat="44.68409" lon="3.81773">
        <ele>1115.27</ele>
        <time>2013-06-01T10:02:30Z</time>
      </trkpt>
      <trkpt lat="44.68389" lon="3.81772">
        <ele>1116.71</ele>
        <time>2013-06-01T10:02:45Z</time>
      </trkpt>
      <trkpt lat="44.68384" lon="3.8177">
        <ele>1116.71</ele>
        <time>2013-06-01T10:02:48Z</time>
      </trkpt>
      <trkpt lat="44.68371" lon="3.81769">
        <ele>1118.15</ele>
        <time>2013-06-01T10:03:03Z</time>
      </trkpt>
      <trkpt lat="44.68361" lon="3.8177">
        <ele>1119.59</ele>
        <time>2013-06-01T10:03:15Z</time>
      </trkpt>
      <trkpt lat="44.68344" lon="3.81775">
        <ele>1120.55</ele>
        <time>2013-06-01T10:03:29Z</time>
      </trkpt>
      <trkpt lat="44.68335" lon="3.81776">
        <ele>1120.55</ele>
        <time>2013-06-01T10:03:35Z</time>
      </trkpt>
      <trkpt lat="44.68325" lon="3.81781">
        <ele>1120.55</ele>
        <time>2013-06-01T10:03:43Z</time>
      </trkpt>
      <trkpt lat="44.68307" lon="3.81795">
        <ele>1122.48</ele>
        <time>2013-06-01T10:04:00Z</time>
      </trkpt>
      <trkpt lat="44.68287" lon="3.81806">
        <ele>1123.92</ele>
        <time>2013-06-01T10:04:13Z</time>
      </trkpt>
      <trkpt lat="44.6827" lon="3.81815">
        <ele>1126.8</ele>
        <time>2013-06-01T10:04:26Z</time>
      </trkpt>
      <trkpt lat="44.68241" lon="3.81844">
        <ele>1126.8</ele>
        <time>2013-06-01T10:04:41Z</time>
      </trkpt>
      <trkpt lat="44.6822" lon="3.81847">
        <ele>1128.24</ele>
        <time>2013-06-01T10:04:57Z</time>
      </trkpt>
      <trkpt lat="44.68199" lon="3.8184">
        <ele>1129.21</ele>
        <time>2013-06-01T10:05:14Z</time>
      </trkpt>
      <trkpt lat="44.6818" lon="3.8183">
        <ele>1129.69</ele>
        <time>2013-06-01T10:05:30Z</time>
      </trkpt>
      <trkpt lat="44.6816" lon="3.81821">
        <ele>1130.17</ele>
        <time>2013-06-01T10:05:45Z</time>
      </trkpt>
      <trkpt lat="44.68142" lon="3.81821">
        <ele>1130.17</ele>
        <time>2013-06-01T10:05:57Z</time>
      </trkpt>
      <trkpt lat="44.68124" lon="3.81812">
        <ele>1131.13</ele>
        <time>2013-06-01T10:06:13Z</time>
      </trkpt>
      <trkpt lat="44.68107" lon="3.81797">
        <ele>1131.61</ele>
        <time>2013-06-01T10:06:26Z</time>
      </trkpt>
      <trkpt lat="44.68086" lon="3.81768">
        <ele>1132.09</ele>
        <time>2013-06-01T10:06:44Z</time>
      </trkpt>
      <trkpt lat="44.6808" lon="3.81755">
        <ele>1130.65</ele>
        <time>2013-06-01T10:06:52Z</time>
      </trkpt>
      <trkpt lat="44.6807" lon="3.81728">
        <ele>1130.65</ele>
        <time>2013-06-01T10:07:10Z</time>
      </trkpt>
      <trkpt lat="44.68064" lon="3.81697">
        <ele>1130.65</ele>
        <time>2013-06-01T10:07:27Z</time>
      </trkpt>
      <trkpt lat="44.68063" lon="3.81694">
        <ele>1130.65</ele>
        <time>2013-06-01T10:07:29Z</time>
      </trkpt>
      <trkpt lat="44.68056" lon="3.81658">
        <ele>1129.69</ele>
        <time>2013-06-01T10:07:47Z</time>
      </trkpt>
      <trkpt lat="44.68046" lon="3.81628">
        <ele>1129.69</ele>
        <time>2013-06-01T10:08:02Z</time>
      </trkpt>
      <trkpt lat="44.68046" lon="3.81626">
        <ele>1129.69</ele>
        <time>2013-06-01T10:08:03Z</time>
      </trkpt>
      <trkpt lat="44.68041" lon="3.81602">
        <ele>1128.73</ele>
        <time>2013-06-01T10:08:17Z</time>
      </trkpt>
      <trkpt lat="44.68032" lon="3.81577">
        <ele>1127.76</ele>
        <time>2013-06-01T10:08:33Z</time>
      </trkpt>
      <trkpt lat="44.68022" lon="3.81551">
        <ele>1127.28</ele>
        <time>2013-06-01T10:08:50Z</time>
      </trkpt>
      <trkpt lat="44.68023" lon="3.81532">
        <ele>1126.32</ele>
        <time>2013-06-01T10:09:03Z</time>
      </trkpt>
      <trkpt lat="44.68021" lon="3.81497">
        <ele>1124.88</ele>
        <time>2013-06-01T10:09:22Z</time>
      </trkpt>
      <trkpt lat="44.68019" lon="3.81474">
        <ele>1124.4</ele>
        <time>2013-06-01T10:09:34Z</time>
      </trkpt>
      <trkpt lat="44.6802" lon="3.81434">
        <ele>1123.92</ele>
        <time>2013-06-01T10:09:53Z</time>
      </trkpt>
      <trkpt lat="44.68019" lon="3.81426">
        <ele>1124.88</ele>
        <time>2013-06-01T10:10:03Z</time>
      </trkpt>
      <trkpt lat="44.6802" lon="3.8142">
        <ele>1123.92</ele>
        <time>2013-06-01T10:10:08Z</time>
      </trkpt>
      <trkpt lat="44.6802" lon="3.81412">
        <ele>1122.96</ele>
        <time>2013-06-01T10:10:24Z</time>
      </trkpt>
      <trkpt lat="44.6802" lon="3.81412">
        <ele>1125.36</ele>
        <time>2013-06-01T10:10:31Z</time>
      </trkpt>
      <trkpt lat="44.68019" lon="3.81407">
        <ele>1124.4</ele>
        <time>2013-06-01T10:10:43Z</time>
      </trkpt>
      <trkpt lat="44.68018" lon="3.8139">
        <ele>1125.84</ele>
        <time>2013-06-01T10:10:53Z</time>
      </trkpt>
      <trkpt lat="44.68017" lon="3.81371">
        <ele>1125.84</ele>
        <time>2013-06-01T10:11:03Z</time>
      </trkpt>
      <trkpt lat="44.68016" lon="3.81357">
        <ele>1126.8</ele>
        <time>2013-06-01T10:11:10Z</time>
      </trkpt>
      <trkpt lat="44.68008" lon="3.81323">
        <ele>1128.24</ele>
        <time>2013-06-01T10:11:29Z</time>
      </trkpt>
      <trkpt lat="44.68001" lon="3.81299">
        <ele>1129.21</ele>
        <time>2013-06-01T10:11:45Z</time>
      </trkpt>
      <trkpt lat="44.67992" lon="3.81271">
        <ele>1130.65</ele>
        <time>2013-06-01T10:12:03Z</time>
      </trkpt>
      <trkpt lat="44.67985" lon="3.81237">
        <ele>1133.05</ele>
        <time>2013-06-01T10:12:21Z</time>
      </trkpt>
      <trkpt lat="44.67981" lon="3.81203">
        <ele>1133.53</ele>
        <time>2013-06-01T10:12:39Z</time>
      </trkpt>
      <trkpt lat="44.67973" lon="3.81175">
        <ele>1134.49</ele>
        <time>2013-06-01T10:12:56Z</time>
      </trkpt>
      <trkpt lat="44.6797" lon="3.81162">
        <ele>1133.05</ele>
        <time>2013-06-01T10:13:05Z</time>
      </trkpt>
      <trkpt lat="44.67968" lon="3.81145">
        <ele>1134.01</ele>
        <time>2013-06-01T10:13:12Z</time>
      </trkpt>
      <trkpt lat="44.67958" lon="3.81117">
        <ele>1132.57</ele>
        <time>2013-06-01T10:13:27Z</time>
      </trkpt>
      <trkpt lat="44.67957" lon="3.81115">
        <ele>1132.09</ele>
        <time>2013-06-01T10:13:28Z</time>
      </trkpt>
      <trkpt lat="44.67954" lon="3.81106">
        <ele>1134.49</ele>
        <time>2013-06-01T10:13:33Z</time>
      </trkpt>
      <trkpt lat="44.67951" lon="3.81101">
        <ele>1133.05</ele>
        <time>2013-06-01T10:13:36Z</time>
      </trkpt>
      <trkpt lat="44.67941" lon="3.81084">
        <ele>1132.09</ele>
        <time>2013-06-01T10:13:46Z</time>
      </trkpt>
      <trkpt lat="44.67936" lon="3.81061">
        <ele>1131.61</ele>
        <time>2013-06-01T10:14:01Z</time>
      </trkpt>
      <trkpt lat="44.67928" lon="3.81037">
        <ele>1131.13</ele>
        <time>2013-06-01T10:14:14Z</time>
      </trkpt>
      <trkpt lat="44.67925" lon="3.81019">
        <ele>1130.65</ele>
        <time>2013-06-01T10:14:26Z</time>
      </trkpt>
      <trkpt lat="44.67926" lon="3.81011">
        <ele>1129.21</ele>
        <time>2013-06-01T10:14:31Z</time>
      </trkpt>
      <trkpt lat="44.67928" lon="3.81005">
        <ele>1130.65</ele>
        <time>2013-06-01T10:14:34Z</time>
      </trkpt>
      <trkpt lat="44.67943" lon="3.80985">
        <ele>1130.17</ele>
        <time>2013-06-01T10:14:49Z</time>
      </trkpt>
      <trkpt lat="44.67953" lon="3.80975">
        <ele>1132.57</ele>
        <time>2013-06-01T10:14:58Z</time>
      </trkpt>
      <trkpt lat="44.67962" lon="3.80959">
        <ele>1129.21</ele>
        <time>2013-06-01T10:15:09Z</time>
      </trkpt>
      <trkpt lat="44.67964" lon="3.80955">
        <ele>1132.09</ele>
        <time>2013-06-01T10:15:12Z</time>
      </trkpt>
      <trkpt lat="44.67966" lon="3.80952">
        <ele>1133.05</ele>
        <time>2013-06-01T10:15:14Z</time>
      </trkpt>
      <trkpt lat="44.67967" lon="3.80948">
        <ele>1131.61</ele>
        <time>2013-06-01T10:15:16Z</time>
      </trkpt>
      <trkpt lat="44.67969" lon="3.80943">
        <ele>1133.05</ele>
        <time>2013-06-01T10:15:19Z</time>
      </trkpt>
      <trkpt lat="44.67975" lon="3.80924">
        <ele>1133.05</ele>
        <time>2013-06-01T10:15:34Z</time>
      </trkpt>
      <trkpt lat="44.67974" lon="3.80923">
        <ele>1133.05</ele>
        <time>2013-06-01T10:15:38Z</time>
      </trkpt>
      <trkpt lat="44.67954" lon="3.80906">
        <ele>1133.53</ele>
        <time>2013-06-01T10:15:56Z</time>
      </trkpt>
      <trkpt lat="44.67929" lon="3.80879">
        <ele>1134.01</ele>
        <time>2013-06-01T10:16:19Z</time>
      </trkpt>
      <trkpt lat="44.67906" lon="3.80854">
        <ele>1134.49</ele>
        <time>2013-06-01T10:16:41Z</time>
      </trkpt>
      <trkpt lat="44.67892" lon="3.80841">
        <ele>1137.86</ele>
        <time>2013-06-01T10:16:53Z</time>
      </trkpt>
      <trkpt lat="44.67891" lon="3.80841">
        <ele>1137.86</ele>
        <time>2013-06-01T10:16:54Z</time>
      </trkpt>
      <trkpt lat="44.67869" lon="3.80824">
        <ele>1139.3</ele>
        <time>2013-06-01T10:17:13Z</time>
      </trkpt>
      <trkpt lat="44.6785" lon="3.80797">
        <ele>1140.26</ele>
        <time>2013-06-01T10:17:32Z</time>
      </trkpt>
      <trkpt lat="44.67838" lon="3.80769">
        <ele>1140.26</ele>
        <time>2013-06-01T10:17:50Z</time>
      </trkpt>
      <trkpt lat="44.67832" lon="3.80754">
        <ele>1143.63</ele>
        <time>2013-06-01T10:17:59Z</time>
      </trkpt>
      <trkpt lat="44.67828" lon="3.80745">
        <ele>1139.3</ele>
        <time>2013-06-01T10:18:04Z</time>
      </trkpt>
      <trkpt lat="44.67827" lon="3.80744">
        <ele>1139.3</ele>
        <time>2013-06-01T10:18:05Z</time>
      </trkpt>
      <trkpt lat="44.67827" lon="3.80741">
        <ele>1144.11</ele>
        <time>2013-06-01T10:18:07Z</time>
      </trkpt>
      <trkpt lat="44.67824" lon="3.80735">
        <ele>1142.66</ele>
        <time>2013-06-01T10:18:11Z</time>
      </trkpt>
      <trkpt lat="44.67821" lon="3.80728">
        <ele>1143.14</ele>
        <time>2013-06-01T10:18:16Z</time>
      </trkpt>
      <trkpt lat="44.6782" lon="3.80721">
        <ele>1144.11</ele>
        <time>2013-06-01T10:18:20Z</time>
      </trkpt>
      <trkpt lat="44.67814" lon="3.80694">
        <ele>1147.47</ele>
        <time>2013-06-01T10:18:36Z</time>
      </trkpt>
      <trkpt lat="44.67813" lon="3.80677">
        <ele>1146.51</ele>
        <time>2013-06-01T10:18:45Z</time>
      </trkpt>
      <trkpt lat="44.67812" lon="3.80673">
        <ele>1147.95</ele>
        <time>2013-06-01T10:18:47Z</time>
      </trkpt>
      <trkpt lat="44.67811" lon="3.80637">
        <ele>1150.35</ele>
        <time>2013-06-01T10:19:06Z</time>
      </trkpt>
      <trkpt lat="44.6781" lon="3.80629">
        <ele>1149.39</ele>
        <time>2013-06-01T10:19:11Z</time>
      </trkpt>
      <trkpt lat="44.678" lon="3.80591">
        <ele>1149.39</ele>
        <time>2013-06-01T10:19:33Z</time>
      </trkpt>
      <trkpt lat="44.67796" lon="3.80579">
        <ele>1151.32</ele>
        <time>2013-06-01T10:19:40Z</time>
      </trkpt>
      <trkpt lat="44.67785" lon="3.8055">
        <ele>1149.87</ele>
        <time>2013-06-01T10:19:57Z</time>
      </trkpt>
      <trkpt lat="44.67778" lon="3.80532">
        <ele>1151.32</ele>
        <time>2013-06-01T10:20:08Z</time>
      </trkpt>
      <trkpt lat="44.67775" lon="3.80524">
        <ele>1150.35</ele>
        <time>2013-06-01T10:20:13Z</time>
      </trkpt>
      <trkpt lat="44.67756" lon="3.80492">
        <ele>1149.39</ele>
        <time>2013-06-01T10:20:34Z</time>
      </trkpt>
      <trkpt lat="44.67741" lon="3.8048">
        <ele>1149.39</ele>
        <time>2013-06-01T10:20:55Z</time>
      </trkpt>
      <trkpt lat="44.67737" lon="3.80481">
        <ele>1148.43</ele>
        <time>2013-06-01T10:21:34Z</time>
      </trkpt>
      <trkpt lat="44.67739" lon="3.8048">
        <ele>1149.87</ele>
        <time>2013-06-01T10:21:48Z</time>
      </trkpt>
      <trkpt lat="44.67742" lon="3.80481">
        <ele>1148.91</ele>
        <time>2013-06-01T10:22:06Z</time>
      </trkpt>
      <trkpt lat="44.67744" lon="3.80477">
        <ele>1149.87</ele>
        <time>2013-06-01T10:22:28Z</time>
      </trkpt>
      <trkpt lat="44.67743" lon="3.80472">
        <ele>1150.84</ele>
        <time>2013-06-01T10:22:44Z</time>
      </trkpt>
      <trkpt lat="44.67726" lon="3.80452">
        <ele>1151.32</ele>
        <time>2013-06-01T10:23:04Z</time>
      </trkpt>
      <trkpt lat="44.67725" lon="3.80446">
        <ele>1151.8</ele>
        <time>2013-06-01T10:23:21Z</time>
      </trkpt>
      <trkpt lat="44.67725" lon="3.80446">
        <ele>1152.28</ele>
        <time>2013-06-01T10:23:49Z</time>
      </trkpt>
      <trkpt lat="44.67724" lon="3.80449">
        <ele>1151.32</ele>
        <time>2013-06-01T10:24:14Z</time>
      </trkpt>
      <trkpt lat="44.67723" lon="3.80449">
        <ele>1147.95</ele>
        <time>2013-06-01T10:24:22Z</time>
      </trkpt>
      <trkpt lat="44.67723" lon="3.80449">
        <ele>1152.28</ele>
        <time>2013-06-01T10:24:24Z</time>
      </trkpt>
      <trkpt lat="44.67723" lon="3.80449">
        <ele>1152.28</ele>
        <time>2013-06-01T10:24:25Z</time>
      </trkpt>
      <trkpt lat="44.67723" lon="3.80448">
        <ele>1150.35</ele>
        <time>2013-06-01T10:24:27Z</time>
      </trkpt>
      <trkpt lat="44.67722" lon="3.80448">
        <ele>1150.35</ele>
        <time>2013-06-01T10:24:38Z</time>
      </trkpt>
      <trkpt lat="44.67722" lon="3.80448">
        <ele>1152.28</ele>
        <time>2013-06-01T10:24:40Z</time>
      </trkpt>
      <trkpt lat="44.67723" lon="3.80449">
        <ele>1150.35</ele>
        <time>2013-06-01T10:24:42Z</time>
      </trkpt>
      <trkpt lat="44.67722" lon="3.80448">
        <ele>1150.84</ele>
        <time>2013-06-01T10:25:13Z</time>
      </trkpt>
      <trkpt lat="44.67726" lon="3.80445">
        <ele>1151.32</ele>
        <time>2013-06-01T10:25:44Z</time>
      </trkpt>
      <trkpt lat="44.67726" lon="3.80442">
        <ele>1151.32</ele>
        <time>2013-06-01T10:26:19Z</time>
      </trkpt>
      <trkpt lat="44.67724" lon="3.80448">
        <ele>1151.32</ele>
        <time>2013-06-01T10:26:58Z</time>
      </trkpt>
      <trkpt lat="44.67725" lon="3.80447">
        <ele>1152.76</ele>
        <time>2013-06-01T10:27:14Z</time>
      </trkpt>
      <trkpt lat="44.67725" lon="3.80446">
        <ele>1151.8</ele>
        <time>2013-06-01T10:27:51Z</time>
      </trkpt>
      <trkpt lat="44.67724" lon="3.80445">
        <ele>1151.32</ele>
        <time>2013-06-01T10:28:25Z</time>
      </trkpt>
      <trkpt lat="44.67724" lon="3.80446">
        <ele>1151.32</ele>
        <time>2013-06-01T10:28:26Z</time>
      </trkpt>
      <trkpt lat="44.67723" lon="3.80448">
        <ele>1153.24</ele>
        <time>2013-06-01T10:28:28Z</time>
      </trkpt>
      <trkpt lat="44.67724" lon="3.80445">
        <ele>1153.24</ele>
        <time>2013-06-01T10:28:54Z</time>
      </trkpt>
      <trkpt lat="44.6773" lon="3.80442">
        <ele>1152.28</ele>
        <time>2013-06-01T10:29:21Z</time>
      </trkpt>
      <trkpt lat="44.67727" lon="3.80445">
        <ele>1152.28</ele>
        <time>2013-06-01T10:29:41Z</time>
      </trkpt>
      <trkpt lat="44.67727" lon="3.8045">
        <ele>1153.24</ele>
        <time>2013-06-01T10:30:14Z</time>
      </trkpt>
      <trkpt lat="44.67724" lon="3.80446">
        <ele>1153.72</ele>
        <time>2013-06-01T10:30:43Z</time>
      </trkpt>
      <trkpt lat="44.67725" lon="3.80446">
        <ele>1153.72</ele>
        <time>2013-06-01T10:30:44Z</time>
      </trkpt>
      <trkpt lat="44.67724" lon="3.80448">
        <ele>1153.72</ele>
        <time>2013-06-01T10:31:14Z</time>
      </trkpt>
      <trkpt lat="44.67723" lon="3.80449">
        <ele>1152.28</ele>
        <time>2013-06-01T10:31:21Z</time>
      </trkpt>
      <trkpt lat="44.67723" lon="3.80449">
        <ele>1152.76</ele>
        <time>2013-06-01T10:31:36Z</time>
      </trkpt>
      <trkpt lat="44.67723" lon="3.80447">
        <ele>1152.76</ele>
        <time>2013-06-01T10:31:53Z</time>
      </trkpt>
      <trkpt lat="44.67723" lon="3.80448">
        <ele>1152.76</ele>
        <time>2013-06-01T10:32:20Z</time>
      </trkpt>
      <trkpt lat="44.67723" lon="3.80447">
        <ele>1153.72</ele>
        <time>2013-06-01T10:32:43Z</time>
      </trkpt>
      <trkpt lat="44.67722" lon="3.80448">
        <ele>1153.24</ele>
        <time>2013-06-01T10:33:11Z</time>
      </trkpt>
      <trkpt lat="44.67723" lon="3.80447">
        <ele>1154.2</ele>
        <time>2013-06-01T10:33:22Z</time>
      </trkpt>
      <trkpt lat="44.6771" lon="3.80442">
        <ele>1154.68</ele>
        <time>2013-06-01T10:33:37Z</time>
      </trkpt>
      <trkpt lat="44.67686" lon="3.8043">
        <ele>1155.64</ele>
        <time>2013-06-01T10:33:55Z</time>
      </trkpt>
      <trkpt lat="44.67672" lon="3.80416">
        <ele>1155.64</ele>
        <time>2013-06-01T10:34:08Z</time>
      </trkpt>
      <trkpt lat="44.67667" lon="3.80396">
        <ele>1157.56</ele>
        <time>2013-06-01T10:34:21Z</time>
      </trkpt>
      <trkpt lat="44.67666" lon="3.80392">
        <ele>1159.01</ele>
        <time>2013-06-01T10:34:23Z</time>
      </trkpt>
      <trkpt lat="44.67644" lon="3.80372">
        <ele>1159.97</ele>
        <time>2013-06-01T10:34:43Z</time>
      </trkpt>
      <trkpt lat="44.67634" lon="3.80353">
        <ele>1161.89</ele>
        <time>2013-06-01T10:34:56Z</time>
      </trkpt>
      <trkpt lat="44.67619" lon="3.8033">
        <ele>1162.85</ele>
        <time>2013-06-01T10:35:14Z</time>
      </trkpt>
      <trkpt lat="44.67603" lon="3.80298">
        <ele>1163.81</ele>
        <time>2013-06-01T10:35:34Z</time>
      </trkpt>
      <trkpt lat="44.67592" lon="3.80272">
        <ele>1165.26</ele>
        <time>2013-06-01T10:35:50Z</time>
      </trkpt>
      <trkpt lat="44.67577" lon="3.80234">
        <ele>1165.26</ele>
        <time>2013-06-01T10:36:12Z</time>
      </trkpt>
      <trkpt lat="44.67575" lon="3.80229">
        <ele>1166.22</ele>
        <time>2013-06-01T10:36:15Z</time>
      </trkpt>
      <trkpt lat="44.67564" lon="3.80201">
        <ele>1167.18</ele>
        <time>2013-06-01T10:36:33Z</time>
      </trkpt>
      <trkpt lat="44.67547" lon="3.80179">
        <ele>1168.14</ele>
        <time>2013-06-01T10:36:52Z</time>
      </trkpt>
      <trkpt lat="44.67529" lon="3.80151">
        <ele>1168.14</ele>
        <time>2013-06-01T10:37:12Z</time>
      </trkpt>
      <trkpt lat="44.67506" lon="3.80128">
        <ele>1168.14</ele>
        <time>2013-06-01T10:37:32Z</time>
      </trkpt>
      <trkpt lat="44.67489" lon="3.80109">
        <ele>1171.02</ele>
        <time>2013-06-01T10:37:48Z</time>
      </trkpt>
      <trkpt lat="44.67477" lon="3.80079">
        <ele>1173.91</ele>
        <time>2013-06-01T10:38:07Z</time>
      </trkpt>
      <trkpt lat="44.67474" lon="3.8006">
        <ele>1173.91</ele>
        <time>2013-06-01T10:38:18Z</time>
      </trkpt>
      <trkpt lat="44.67468" lon="3.80044">
        <ele>1174.87</ele>
        <time>2013-06-01T10:38:27Z</time>
      </trkpt>
      <trkpt lat="44.67459" lon="3.80022">
        <ele>1173.91</ele>
        <time>2013-06-01T10:38:41Z</time>
      </trkpt>
      <trkpt lat="44.67443" lon="3.79998">
        <ele>1173.43</ele>
        <time>2013-06-01T10:38:57Z</time>
      </trkpt>
      <trkpt lat="44.67424" lon="3.79971">
        <ele>1171.02</ele>
        <time>2013-06-01T10:39:16Z</time>
      </trkpt>
      <trkpt lat="44.67411" lon="3.79951">
        <ele>1170.06</ele>
        <time>2013-06-01T10:39:31Z</time>
      </trkpt>
      <trkpt lat="44.67411" lon="3.79949">
        <ele>1171.5</ele>
        <time>2013-06-01T10:39:34Z</time>
      </trkpt>
      <trkpt lat="44.67413" lon="3.79955">
        <ele>1172.47</ele>
        <time>2013-06-01T10:39:47Z</time>
      </trkpt>
      <trkpt lat="44.67431" lon="3.79982">
        <ele>1172.95</ele>
        <time>2013-06-01T10:40:07Z</time>
      </trkpt>
      <trkpt lat="44.67426" lon="3.79985">
        <ele>1173.91</ele>
        <time>2013-06-01T10:40:19Z</time>
      </trkpt>
      <trkpt lat="44.67424" lon="3.79981">
        <ele>1173.91</ele>
        <time>2013-06-01T10:40:22Z</time>
      </trkpt>
      <trkpt lat="44.67406" lon="3.79963">
        <ele>1173.91</ele>
        <time>2013-06-01T10:40:39Z</time>
      </trkpt>
      <trkpt lat="44.67405" lon="3.79958">
        <ele>1172.47</ele>
        <time>2013-06-01T10:40:41Z</time>
      </trkpt>
      <trkpt lat="44.67395" lon="3.79942">
        <ele>1171.02</ele>
        <time>2013-06-01T10:40:56Z</time>
      </trkpt>
      <trkpt lat="44.6738" lon="3.79935">
        <ele>1170.54</ele>
        <time>2013-06-01T10:41:14Z</time>
      </trkpt>
      <trkpt lat="44.67376" lon="3.79933">
        <ele>1170.06</ele>
        <time>2013-06-01T10:41:27Z</time>
      </trkpt>
      <trkpt lat="44.67374" lon="3.79932">
        <ele>1170.06</ele>
        <time>2013-06-01T10:41:28Z</time>
      </trkpt>
      <trkpt lat="44.67356" lon="3.79927">
        <ele>1169.1</ele>
        <time>2013-06-01T10:41:41Z</time>
      </trkpt>
      <trkpt lat="44.67331" lon="3.79921">
        <ele>1166.22</ele>
        <time>2013-06-01T10:42:00Z</time>
      </trkpt>
      <trkpt lat="44.67309" lon="3.79912">
        <ele>1164.77</ele>
        <time>2013-06-01T10:42:17Z</time>
      </trkpt>
      <trkpt lat="44.67306" lon="3.79911">
        <ele>1166.22</ele>
        <time>2013-06-01T10:42:20Z</time>
      </trkpt>
      <trkpt lat="44.67284" lon="3.79898">
        <ele>1166.22</ele>
        <time>2013-06-01T10:42:37Z</time>
      </trkpt>
      <trkpt lat="44.67263" lon="3.79894">
        <ele>1163.81</ele>
        <time>2013-06-01T10:42:53Z</time>
      </trkpt>
      <trkpt lat="44.67238" lon="3.79871">
        <ele>1162.85</ele>
        <time>2013-06-01T10:43:13Z</time>
      </trkpt>
      <trkpt lat="44.67216" lon="3.79862">
        <ele>1161.89</ele>
        <time>2013-06-01T10:43:29Z</time>
      </trkpt>
      <trkpt lat="44.67205" lon="3.79853">
        <ele>1161.89</ele>
        <time>2013-06-01T10:43:44Z</time>
      </trkpt>
      <trkpt lat="44.67203" lon="3.79853">
        <ele>1163.33</ele>
        <time>2013-06-01T10:43:55Z</time>
      </trkpt>
      <trkpt lat="44.67192" lon="3.7985">
        <ele>1162.85</ele>
        <time>2013-06-01T10:44:13Z</time>
      </trkpt>
      <trkpt lat="44.67176" lon="3.7984">
        <ele>1163.81</ele>
        <time>2013-06-01T10:44:29Z</time>
      </trkpt>
      <trkpt lat="44.67154" lon="3.79823">
        <ele>1163.81</ele>
        <time>2013-06-01T10:44:45Z</time>
      </trkpt>
      <trkpt lat="44.67135" lon="3.79809">
        <ele>1162.37</ele>
        <time>2013-06-01T10:45:03Z</time>
      </trkpt>
      <trkpt lat="44.67112" lon="3.79792">
        <ele>1162.85</ele>
        <time>2013-06-01T10:45:21Z</time>
      </trkpt>
      <trkpt lat="44.67095" lon="3.79775">
        <ele>1161.41</ele>
        <time>2013-06-01T10:45:37Z</time>
      </trkpt>
      <trkpt lat="44.67093" lon="3.79774">
        <ele>1162.85</ele>
        <time>2013-06-01T10:45:40Z</time>
      </trkpt>
      <trkpt lat="44.67092" lon="3.79771">
        <ele>1164.29</ele>
        <time>2013-06-01T10:45:45Z</time>
      </trkpt>
      <trkpt lat="44.67094" lon="3.79766">
        <ele>1162.85</ele>
        <time>2013-06-01T10:45:50Z</time>
      </trkpt>
      <trkpt lat="44.67094" lon="3.79757">
        <ele>1163.81</ele>
        <time>2013-06-01T10:46:04Z</time>
      </trkpt>
      <trkpt lat="44.6709" lon="3.79753">
        <ele>1162.37</ele>
        <time>2013-06-01T10:46:26Z</time>
      </trkpt>
      <trkpt lat="44.67079" lon="3.79747">
        <ele>1163.33</ele>
        <time>2013-06-01T10:46:40Z</time>
      </trkpt>
      <trkpt lat="44.67075" lon="3.79744">
        <ele>1163.33</ele>
        <time>2013-06-01T10:46:44Z</time>
      </trkpt>
      <trkpt lat="44.67061" lon="3.79735">
        <ele>1163.33</ele>
        <time>2013-06-01T10:46:58Z</time>
      </trkpt>
      <trkpt lat="44.67056" lon="3.79736">
        <ele>1163.33</ele>
        <time>2013-06-01T10:47:12Z</time>
      </trkpt>
      <trkpt lat="44.67047" lon="3.79726">
        <ele>1163.33</ele>
        <time>2013-06-01T10:47:30Z</time>
      </trkpt>
      <trkpt lat="44.6703" lon="3.79721">
        <ele>1163.33</ele>
        <time>2013-06-01T10:47:46Z</time>
      </trkpt>
      <trkpt lat="44.67027" lon="3.79719">
        <ele>1163.33</ele>
        <time>2013-06-01T10:47:49Z</time>
      </trkpt>
      <trkpt lat="44.67014" lon="3.79701">
        <ele>1164.77</ele>
        <time>2013-06-01T10:48:03Z</time>
      </trkpt>
      <trkpt lat="44.6701" lon="3.79699">
        <ele>1163.33</ele>
        <time>2013-06-01T10:48:07Z</time>
      </trkpt>
      <trkpt lat="44.66993" lon="3.79681">
        <ele>1163.81</ele>
        <time>2013-06-01T10:48:24Z</time>
      </trkpt>
      <trkpt lat="44.66985" lon="3.79665">
        <ele>1166.7</ele>
        <time>2013-06-01T10:48:34Z</time>
      </trkpt>
      <trkpt lat="44.66983" lon="3.79664">
        <ele>1166.7</ele>
        <time>2013-06-01T10:48:35Z</time>
      </trkpt>
      <trkpt lat="44.66979" lon="3.79659">
        <ele>1165.74</ele>
        <time>2013-06-01T10:48:39Z</time>
      </trkpt>
      <trkpt lat="44.66974" lon="3.7965">
        <ele>1167.18</ele>
        <time>2013-06-01T10:48:45Z</time>
      </trkpt>
      <trkpt lat="44.66966" lon="3.7964">
        <ele>1165.26</ele>
        <time>2013-06-01T10:48:53Z</time>
      </trkpt>
      <trkpt lat="44.66957" lon="3.7963">
        <ele>1166.22</ele>
        <time>2013-06-01T10:49:02Z</time>
      </trkpt>
      <trkpt lat="44.6694" lon="3.79609">
        <ele>1167.18</ele>
        <time>2013-06-01T10:49:20Z</time>
      </trkpt>
      <trkpt lat="44.66928" lon="3.79591">
        <ele>1167.18</ele>
        <time>2013-06-01T10:49:35Z</time>
      </trkpt>
      <trkpt lat="44.66922" lon="3.79579">
        <ele>1167.18</ele>
        <time>2013-06-01T10:49:43Z</time>
      </trkpt>
      <trkpt lat="44.66913" lon="3.79564">
        <ele>1167.66</ele>
        <time>2013-06-01T10:49:54Z</time>
      </trkpt>
      <trkpt lat="44.66898" lon="3.79542">
        <ele>1169.1</ele>
        <time>2013-06-01T10:50:13Z</time>
      </trkpt>
      <trkpt lat="44.6689" lon="3.79531">
        <ele>1170.06</ele>
        <time>2013-06-01T10:50:28Z</time>
      </trkpt>
      <trkpt lat="44.66893" lon="3.79536">
        <ele>1170.06</ele>
        <time>2013-06-01T10:50:33Z</time>
      </trkpt>
      <trkpt lat="44.66894" lon="3.79535">
        <ele>1169.58</ele>
        <time>2013-06-01T10:50:42Z</time>
      </trkpt>
      <trkpt lat="44.66893" lon="3.79533">
        <ele>1169.58</ele>
        <time>2013-06-01T10:50:44Z</time>
      </trkpt>
      <trkpt lat="44.66877" lon="3.79508">
        <ele>1171.98</ele>
        <time>2013-06-01T10:51:05Z</time>
      </trkpt>
      <trkpt lat="44.66864" lon="3.79491">
        <ele>1171.98</ele>
        <time>2013-06-01T10:51:20Z</time>
      </trkpt>
      <trkpt lat="44.6685" lon="3.79465">
        <ele>1172.95</ele>
        <time>2013-06-01T10:51:38Z</time>
      </trkpt>
      <trkpt lat="44.66843" lon="3.79454">
        <ele>1174.87</ele>
        <time>2013-06-01T10:51:46Z</time>
      </trkpt>
      <trkpt lat="44.66825" lon="3.79425">
        <ele>1175.35</ele>
        <time>2013-06-01T10:52:05Z</time>
      </trkpt>
      <trkpt lat="44.6681" lon="3.79401">
        <ele>1177.75</ele>
        <time>2013-06-01T10:52:25Z</time>
      </trkpt>
      <trkpt lat="44.66793" lon="3.79384">
        <ele>1179.19</ele>
        <time>2013-06-01T10:52:43Z</time>
      </trkpt>
      <trkpt lat="44.66786" lon="3.79379">
        <ele>1181.12</ele>
        <time>2013-06-01T10:52:49Z</time>
      </trkpt>
      <trkpt lat="44.6678" lon="3.79374">
        <ele>1181.6</ele>
        <time>2013-06-01T10:52:57Z</time>
      </trkpt>
      <trkpt lat="44.66769" lon="3.79363">
        <ele>1184.96</ele>
        <time>2013-06-01T10:53:09Z</time>
      </trkpt>
      <trkpt lat="44.6676" lon="3.79355">
        <ele>1184.96</ele>
        <time>2013-06-01T10:53:17Z</time>
      </trkpt>
      <trkpt lat="44.66753" lon="3.7935">
        <ele>1188.33</ele>
        <time>2013-06-01T10:53:24Z</time>
      </trkpt>
      <trkpt lat="44.66752" lon="3.79349">
        <ele>1188.33</ele>
        <time>2013-06-01T10:53:25Z</time>
      </trkpt>
      <trkpt lat="44.66743" lon="3.79341">
        <ele>1190.73</ele>
        <time>2013-06-01T10:53:38Z</time>
      </trkpt>
      <trkpt lat="44.66738" lon="3.79339">
        <ele>1192.17</ele>
        <time>2013-06-01T10:53:42Z</time>
      </trkpt>
      <trkpt lat="44.66724" lon="3.79326">
        <ele>1193.13</ele>
        <time>2013-06-01T10:53:58Z</time>
      </trkpt>
      <trkpt lat="44.66706" lon="3.79313">
        <ele>1196.5</ele>
        <time>2013-06-01T10:54:16Z</time>
      </trkpt>
      <trkpt lat="44.6669" lon="3.79295">
        <ele>1197.46</ele>
        <time>2013-06-01T10:54:32Z</time>
      </trkpt>
      <trkpt lat="44.66675" lon="3.79278">
        <ele>1200.34</ele>
        <time>2013-06-01T10:54:49Z</time>
      </trkpt>
      <trkpt lat="44.66662" lon="3.79257">
        <ele>1202.75</ele>
        <time>2013-06-01T10:55:06Z</time>
      </trkpt>
      <trkpt lat="44.6665" lon="3.79238">
        <ele>1206.11</ele>
        <time>2013-06-01T10:55:23Z</time>
      </trkpt>
      <trkpt lat="44.66635" lon="3.79216">
        <ele>1208.51</ele>
        <time>2013-06-01T10:55:40Z</time>
      </trkpt>
      <trkpt lat="44.66623" lon="3.79205">
        <ele>1209.96</ele>
        <time>2013-06-01T10:55:52Z</time>
      </trkpt>
      <trkpt lat="44.66616" lon="3.79196">
        <ele>1210.92</ele>
        <time>2013-06-01T10:56:01Z</time>
      </trkpt>
      <trkpt lat="44.66605" lon="3.79171">
        <ele>1212.84</ele>
        <time>2013-06-01T10:56:19Z</time>
      </trkpt>
      <trkpt lat="44.66596" lon="3.79153">
        <ele>1212.36</ele>
        <time>2013-06-01T10:56:30Z</time>
      </trkpt>
      <trkpt lat="44.66586" lon="3.79121">
        <ele>1209.96</ele>
        <time>2013-06-01T10:56:49Z</time>
      </trkpt>
      <trkpt lat="44.66584" lon="3.79116">
        <ele>1211.4</ele>
        <time>2013-06-01T10:56:52Z</time>
      </trkpt>
      <trkpt lat="44.66582" lon="3.7911">
        <ele>1211.88</ele>
        <time>2013-06-01T10:56:56Z</time>
      </trkpt>
      <trkpt lat="44.6658" lon="3.791">
        <ele>1211.88</ele>
        <time>2013-06-01T10:57:02Z</time>
      </trkpt>
      <trkpt lat="44.66578" lon="3.79097">
        <ele>1212.36</ele>
        <time>2013-06-01T10:57:05Z</time>
      </trkpt>
      <trkpt lat="44.66569" lon="3.79082">
        <ele>1210.92</ele>
        <time>2013-06-01T10:57:16Z</time>
      </trkpt>
      <trkpt lat="44.66561" lon="3.79076">
        <ele>1211.88</ele>
        <time>2013-06-01T10:57:23Z</time>
      </trkpt>
      <trkpt lat="44.6656" lon="3.79075">
        <ele>1211.88</ele>
        <time>2013-06-01T10:57:24Z</time>
      </trkpt>
      <trkpt lat="44.66552" lon="3.79067">
        <ele>1211.88</ele>
        <time>2013-06-01T10:57:32Z</time>
      </trkpt>
      <trkpt lat="44.66544" lon="3.79059">
        <ele>1210.44</ele>
        <time>2013-06-01T10:57:40Z</time>
      </trkpt>
      <trkpt lat="44.66543" lon="3.79056">
        <ele>1210.44</ele>
        <time>2013-06-01T10:57:42Z</time>
      </trkpt>
      <trkpt lat="44.66541" lon="3.79053">
        <ele>1211.88</ele>
        <time>2013-06-01T10:57:44Z</time>
      </trkpt>
      <trkpt lat="44.66534" lon="3.79043">
        <ele>1210.44</ele>
        <time>2013-06-01T10:57:51Z</time>
      </trkpt>
      <trkpt lat="44.66519" lon="3.79016">
        <ele>1211.88</ele>
        <time>2013-06-01T10:58:09Z</time>
      </trkpt>
      <trkpt lat="44.66512" lon="3.79009">
        <ele>1210.44</ele>
        <time>2013-06-01T10:58:17Z</time>
      </trkpt>
      <trkpt lat="44.6651" lon="3.79005">
        <ele>1211.88</ele>
        <time>2013-06-01T10:58:21Z</time>
      </trkpt>
      <trkpt lat="44.66498" lon="3.78977">
        <ele>1212.36</ele>
        <time>2013-06-01T10:58:38Z</time>
      </trkpt>
      <trkpt lat="44.66492" lon="3.78965">
        <ele>1211.4</ele>
        <time>2013-06-01T10:58:46Z</time>
      </trkpt>
      <trkpt lat="44.66489" lon="3.7896">
        <ele>1212.84</ele>
        <time>2013-06-01T10:58:49Z</time>
      </trkpt>
      <trkpt lat="44.66478" lon="3.78944">
        <ele>1212.84</ele>
        <time>2013-06-01T10:59:03Z</time>
      </trkpt>
      <trkpt lat="44.66461" lon="3.7892">
        <ele>1213.32</ele>
        <time>2013-06-01T10:59:21Z</time>
      </trkpt>
      <trkpt lat="44.66442" lon="3.78903">
        <ele>1214.76</ele>
        <time>2013-06-01T10:59:39Z</time>
      </trkpt>
      <trkpt lat="44.66424" lon="3.78885">
        <ele>1215.24</ele>
        <time>2013-06-01T10:59:56Z</time>
      </trkpt>
      <trkpt lat="44.66407" lon="3.78864">
        <ele>1216.69</ele>
        <time>2013-06-01T11:00:12Z</time>
      </trkpt>
      <trkpt lat="44.66392" lon="3.78852">
        <ele>1216.21</ele>
        <time>2013-06-01T11:00:28Z</time>
      </trkpt>
      <trkpt lat="44.66391" lon="3.78851">
        <ele>1212.84</ele>
        <time>2013-06-01T11:00:29Z</time>
      </trkpt>
      <trkpt lat="44.66391" lon="3.78851">
        <ele>1218.61</ele>
        <time>2013-06-01T11:00:30Z</time>
      </trkpt>
      <trkpt lat="44.6637" lon="3.78835">
        <ele>1216.21</ele>
        <time>2013-06-01T11:00:45Z</time>
      </trkpt>
      <trkpt lat="44.66364" lon="3.7883">
        <ele>1214.28</ele>
        <time>2013-06-01T11:00:50Z</time>
      </trkpt>
      <trkpt lat="44.66357" lon="3.78825">
        <ele>1217.65</ele>
        <time>2013-06-01T11:00:55Z</time>
      </trkpt>
      <trkpt lat="44.66356" lon="3.78825">
        <ele>1217.65</ele>
        <time>2013-06-01T11:00:56Z</time>
      </trkpt>
      <trkpt lat="44.66353" lon="3.78823">
        <ele>1216.21</ele>
        <time>2013-06-01T11:00:58Z</time>
      </trkpt>
      <trkpt lat="44.66341" lon="3.78799">
        <ele>1217.17</ele>
        <time>2013-06-01T11:01:14Z</time>
      </trkpt>
      <trkpt lat="44.66338" lon="3.78795">
        <ele>1214.76</ele>
        <time>2013-06-01T11:01:17Z</time>
      </trkpt>
      <trkpt lat="44.66327" lon="3.78765">
        <ele>1215.24</ele>
        <time>2013-06-01T11:01:35Z</time>
      </trkpt>
      <trkpt lat="44.66314" lon="3.78734">
        <ele>1215.24</ele>
        <time>2013-06-01T11:01:54Z</time>
      </trkpt>
      <trkpt lat="44.66301" lon="3.78698">
        <ele>1217.17</ele>
        <time>2013-06-01T11:02:15Z</time>
      </trkpt>
      <trkpt lat="44.66299" lon="3.78692">
        <ele>1215.72</ele>
        <time>2013-06-01T11:02:19Z</time>
      </trkpt>
      <trkpt lat="44.66284" lon="3.78666">
        <ele>1216.21</ele>
        <time>2013-06-01T11:02:37Z</time>
      </trkpt>
      <trkpt lat="44.66279" lon="3.78658">
        <ele>1214.28</ele>
        <time>2013-06-01T11:02:43Z</time>
      </trkpt>
      <trkpt lat="44.66266" lon="3.78627">
        <ele>1214.76</ele>
        <time>2013-06-01T11:03:01Z</time>
      </trkpt>
      <trkpt lat="44.66256" lon="3.78612">
        <ele>1213.32</ele>
        <time>2013-06-01T11:03:12Z</time>
      </trkpt>
      <trkpt lat="44.66252" lon="3.78606">
        <ele>1215.24</ele>
        <time>2013-06-01T11:03:16Z</time>
      </trkpt>
      <trkpt lat="44.66251" lon="3.78603">
        <ele>1213.8</ele>
        <time>2013-06-01T11:03:18Z</time>
      </trkpt>
      <trkpt lat="44.66245" lon="3.78591">
        <ele>1213.8</ele>
        <time>2013-06-01T11:03:27Z</time>
      </trkpt>
      <trkpt lat="44.66229" lon="3.78559">
        <ele>1211.4</ele>
        <time>2013-06-01T11:03:47Z</time>
      </trkpt>
      <trkpt lat="44.66222" lon="3.78547">
        <ele>1211.88</ele>
        <time>2013-06-01T11:03:55Z</time>
      </trkpt>
      <trkpt lat="44.66214" lon="3.78533">
        <ele>1213.32</ele>
        <time>2013-06-01T11:04:05Z</time>
      </trkpt>
      <trkpt lat="44.66201" lon="3.78512">
        <ele>1213.32</ele>
        <time>2013-06-01T11:04:20Z</time>
      </trkpt>
      <trkpt lat="44.66184" lon="3.78483">
        <ele>1214.28</ele>
        <time>2013-06-01T11:04:39Z</time>
      </trkpt>
      <trkpt lat="44.66177" lon="3.78473">
        <ele>1213.8</ele>
        <time>2013-06-01T11:04:46Z</time>
      </trkpt>
      <trkpt lat="44.6616" lon="3.78452">
        <ele>1215.24</ele>
        <time>2013-06-01T11:05:03Z</time>
      </trkpt>
      <trkpt lat="44.66157" lon="3.78448">
        <ele>1216.69</ele>
        <time>2013-06-01T11:05:06Z</time>
      </trkpt>
      <trkpt lat="44.66136" lon="3.78429">
        <ele>1216.69</ele>
        <time>2013-06-01T11:05:25Z</time>
      </trkpt>
      <trkpt lat="44.66112" lon="3.78412">
        <ele>1216.21</ele>
        <time>2013-06-01T11:05:46Z</time>
      </trkpt>
      <trkpt lat="44.6611" lon="3.7841">
        <ele>1217.65</ele>
        <time>2013-06-01T11:05:48Z</time>
      </trkpt>
      <trkpt lat="44.66099" lon="3.78398">
        <ele>1215.72</ele>
        <time>2013-06-01T11:05:59Z</time>
      </trkpt>
      <trkpt lat="44.66094" lon="3.78387">
        <ele>1217.17</ele>
        <time>2013-06-01T11:06:06Z</time>
      </trkpt>
      <trkpt lat="44.66082" lon="3.78363">
        <ele>1216.69</ele>
        <time>2013-06-01T11:06:22Z</time>
      </trkpt>
      <trkpt lat="44.66081" lon="3.78361">
        <ele>1216.69</ele>
        <time>2013-06-01T11:06:23Z</time>
      </trkpt>
      <trkpt lat="44.66079" lon="3.78349">
        <ele>1218.61</ele>
        <time>2013-06-01T11:06:28Z</time>
      </trkpt>
      <trkpt lat="44.66076" lon="3.78336">
        <ele>1219.09</ele>
        <time>2013-06-01T11:06:35Z</time>
      </trkpt>
      <trkpt lat="44.66074" lon="3.7832">
        <ele>1217.17</ele>
        <time>2013-06-01T11:06:45Z</time>
      </trkpt>
      <trkpt lat="44.66073" lon="3.78303">
        <ele>1216.21</ele>
        <time>2013-06-01T11:06:53Z</time>
      </trkpt>
      <trkpt lat="44.66074" lon="3.78285">
        <ele>1218.13</ele>
        <time>2013-06-01T11:07:02Z</time>
      </trkpt>
      <trkpt lat="44.66074" lon="3.78273">
        <ele>1216.69</ele>
        <time>2013-06-01T11:07:08Z</time>
      </trkpt>
      <trkpt lat="44.66074" lon="3.78266">
        <ele>1218.13</ele>
        <time>2013-06-01T11:07:12Z</time>
      </trkpt>
      <trkpt lat="44.66063" lon="3.78233">
        <ele>1216.69</ele>
        <time>2013-06-01T11:07:31Z</time>
      </trkpt>
      <trkpt lat="44.66054" lon="3.7822">
        <ele>1218.61</ele>
        <time>2013-06-01T11:07:41Z</time>
      </trkpt>
      <trkpt lat="44.66045" lon="3.78189">
        <ele>1217.17</ele>
        <time>2013-06-01T11:07:57Z</time>
      </trkpt>
      <trkpt lat="44.66036" lon="3.78161">
        <ele>1217.65</ele>
        <time>2013-06-01T11:08:13Z</time>
      </trkpt>
      <trkpt lat="44.66031" lon="3.7815">
        <ele>1216.21</ele>
        <time>2013-06-01T11:08:20Z</time>
      </trkpt>
      <trkpt lat="44.66029" lon="3.78143">
        <ele>1218.13</ele>
        <time>2013-06-01T11:08:24Z</time>
      </trkpt>
      <trkpt lat="44.66026" lon="3.78137">
        <ele>1216.69</ele>
        <time>2013-06-01T11:08:28Z</time>
      </trkpt>
      <trkpt lat="44.66019" lon="3.78123">
        <ele>1217.65</ele>
        <time>2013-06-01T11:08:37Z</time>
      </trkpt>
      <trkpt lat="44.66005" lon="3.78091">
        <ele>1218.13</ele>
        <time>2013-06-01T11:08:56Z</time>
      </trkpt>
      <trkpt lat="44.65988" lon="3.78063">
        <ele>1220.53</ele>
        <time>2013-06-01T11:09:16Z</time>
      </trkpt>
      <trkpt lat="44.65986" lon="3.78058">
        <ele>1218.61</ele>
        <time>2013-06-01T11:09:19Z</time>
      </trkpt>
      <trkpt lat="44.65981" lon="3.78045">
        <ele>1220.53</ele>
        <time>2013-06-01T11:09:27Z</time>
      </trkpt>
      <trkpt lat="44.65979" lon="3.7804">
        <ele>1218.61</ele>
        <time>2013-06-01T11:09:30Z</time>
      </trkpt>
      <trkpt lat="44.65977" lon="3.78035">
        <ele>1220.05</ele>
        <time>2013-06-01T11:09:33Z</time>
      </trkpt>
      <trkpt lat="44.65974" lon="3.78027">
        <ele>1218.61</ele>
        <time>2013-06-01T11:09:38Z</time>
      </trkpt>
      <trkpt lat="44.65972" lon="3.78017">
        <ele>1220.53</ele>
        <time>2013-06-01T11:09:44Z</time>
      </trkpt>
      <trkpt lat="44.65969" lon="3.78006">
        <ele>1217.65</ele>
        <time>2013-06-01T11:09:50Z</time>
      </trkpt>
      <trkpt lat="44.65969" lon="3.78004">
        <ele>1217.17</ele>
        <time>2013-06-01T11:09:51Z</time>
      </trkpt>
      <trkpt lat="44.65968" lon="3.77999">
        <ele>1219.09</ele>
        <time>2013-06-01T11:09:54Z</time>
      </trkpt>
      <trkpt lat="44.65968" lon="3.77998">
        <ele>1215.24</ele>
        <time>2013-06-01T11:09:55Z</time>
      </trkpt>
      <trkpt lat="44.65968" lon="3.77996">
        <ele>1219.57</ele>
        <time>2013-06-01T11:09:56Z</time>
      </trkpt>
      <trkpt lat="44.65967" lon="3.77989">
        <ele>1218.13</ele>
        <time>2013-06-01T11:10:00Z</time>
      </trkpt>
      <trkpt lat="44.65966" lon="3.77982">
        <ele>1214.76</ele>
        <time>2013-06-01T11:10:04Z</time>
      </trkpt>
      <trkpt lat="44.65965" lon="3.77976">
        <ele>1216.69</ele>
        <time>2013-06-01T11:10:07Z</time>
      </trkpt>
      <trkpt lat="44.65964" lon="3.7797">
        <ele>1218.61</ele>
        <time>2013-06-01T11:10:10Z</time>
      </trkpt>
      <trkpt lat="44.65961" lon="3.77957">
        <ele>1214.28</ele>
        <time>2013-06-01T11:10:17Z</time>
      </trkpt>
      <trkpt lat="44.65961" lon="3.77956">
        <ele>1214.76</ele>
        <time>2013-06-01T11:10:18Z</time>
      </trkpt>
      <trkpt lat="44.6596" lon="3.77954">
        <ele>1218.61</ele>
        <time>2013-06-01T11:10:19Z</time>
      </trkpt>
      <trkpt lat="44.65956" lon="3.77943">
        <ele>1217.65</ele>
        <time>2013-06-01T11:10:26Z</time>
      </trkpt>
      <trkpt lat="44.65954" lon="3.77938">
        <ele>1220.05</ele>
        <time>2013-06-01T11:10:29Z</time>
      </trkpt>
      <trkpt lat="44.65952" lon="3.77933">
        <ele>1218.61</ele>
        <time>2013-06-01T11:10:32Z</time>
      </trkpt>
      <trkpt lat="44.65943" lon="3.77928">
        <ele>1219.57</ele>
        <time>2013-06-01T11:10:39Z</time>
      </trkpt>
      <trkpt lat="44.6592" lon="3.7794">
        <ele>1220.53</ele>
        <time>2013-06-01T11:10:57Z</time>
      </trkpt>
      <trkpt lat="44.65911" lon="3.77944">
        <ele>1221.97</ele>
        <time>2013-06-01T11:11:04Z</time>
      </trkpt>
      <trkpt lat="44.65899" lon="3.7795">
        <ele>1221.01</ele>
        <time>2013-06-01T11:11:14Z</time>
      </trkpt>
      <trkpt lat="44.6589" lon="3.77955">
        <ele>1222.45</ele>
        <time>2013-06-01T11:11:21Z</time>
      </trkpt>
      <trkpt lat="44.65867" lon="3.7797">
        <ele>1224.86</ele>
        <time>2013-06-01T11:11:40Z</time>
      </trkpt>
      <trkpt lat="44.65849" lon="3.77984">
        <ele>1224.86</ele>
        <time>2013-06-01T11:11:56Z</time>
      </trkpt>
      <trkpt lat="44.65844" lon="3.77988">
        <ele>1226.3</ele>
        <time>2013-06-01T11:12:00Z</time>
      </trkpt>
      <trkpt lat="44.65826" lon="3.78009">
        <ele>1226.78</ele>
        <time>2013-06-01T11:12:18Z</time>
      </trkpt>
      <trkpt lat="44.65817" lon="3.78027">
        <ele>1225.34</ele>
        <time>2013-06-01T11:12:31Z</time>
      </trkpt>
      <trkpt lat="44.65798" lon="3.78049">
        <ele>1225.34</ele>
        <time>2013-06-01T11:12:49Z</time>
      </trkpt>
      <trkpt lat="44.65796" lon="3.78052">
        <ele>1223.9</ele>
        <time>2013-06-01T11:12:51Z</time>
      </trkpt>
      <trkpt lat="44.65784" lon="3.78066">
        <ele>1223.42</ele>
        <time>2013-06-01T11:13:02Z</time>
      </trkpt>
      <trkpt lat="44.65765" lon="3.78084">
        <ele>1224.38</ele>
        <time>2013-06-01T11:13:21Z</time>
      </trkpt>
      <trkpt lat="44.65756" lon="3.78093">
        <ele>1224.38</ele>
        <time>2013-06-01T11:13:29Z</time>
      </trkpt>
      <trkpt lat="44.6575" lon="3.781">
        <ele>1222.93</ele>
        <time>2013-06-01T11:13:35Z</time>
      </trkpt>
      <trkpt lat="44.65745" lon="3.78108">
        <ele>1222.45</ele>
        <time>2013-06-01T11:13:40Z</time>
      </trkpt>
      <trkpt lat="44.65736" lon="3.7812">
        <ele>1223.42</ele>
        <time>2013-06-01T11:13:52Z</time>
      </trkpt>
      <trkpt lat="44.65725" lon="3.78134">
        <ele>1222.45</ele>
        <time>2013-06-01T11:14:05Z</time>
      </trkpt>
      <trkpt lat="44.65709" lon="3.78162">
        <ele>1224.86</ele>
        <time>2013-06-01T11:14:23Z</time>
      </trkpt>
      <trkpt lat="44.65704" lon="3.78172">
        <ele>1223.42</ele>
        <time>2013-06-01T11:14:30Z</time>
      </trkpt>
      <trkpt lat="44.657" lon="3.7818">
        <ele>1223.9</ele>
        <time>2013-06-01T11:14:36Z</time>
      </trkpt>
      <trkpt lat="44.65687" lon="3.78206">
        <ele>1225.34</ele>
        <time>2013-06-01T11:14:55Z</time>
      </trkpt>
      <trkpt lat="44.65673" lon="3.78235">
        <ele>1228.22</ele>
        <time>2013-06-01T11:15:10Z</time>
      </trkpt>
      <trkpt lat="44.65658" lon="3.78258">
        <ele>1228.7</ele>
        <time>2013-06-01T11:15:28Z</time>
      </trkpt>
      <trkpt lat="44.65643" lon="3.78283">
        <ele>1229.66</ele>
        <time>2013-06-01T11:15:45Z</time>
      </trkpt>
      <trkpt lat="44.65637" lon="3.78293">
        <ele>1228.22</ele>
        <time>2013-06-01T11:15:52Z</time>
      </trkpt>
      <trkpt lat="44.65629" lon="3.78318">
        <ele>1229.18</ele>
        <time>2013-06-01T11:16:07Z</time>
      </trkpt>
      <trkpt lat="44.65621" lon="3.78341">
        <ele>1229.18</ele>
        <time>2013-06-01T11:16:21Z</time>
      </trkpt>
      <trkpt lat="44.65613" lon="3.78369">
        <ele>1229.18</ele>
        <time>2013-06-01T11:16:37Z</time>
      </trkpt>
      <trkpt lat="44.65604" lon="3.784">
        <ele>1230.14</ele>
        <time>2013-06-01T11:16:55Z</time>
      </trkpt>
      <trkpt lat="44.656" lon="3.78431">
        <ele>1230.14</ele>
        <time>2013-06-01T11:17:12Z</time>
      </trkpt>
      <trkpt lat="44.65601" lon="3.7845">
        <ele>1228.7</ele>
        <time>2013-06-01T11:17:23Z</time>
      </trkpt>
      <trkpt lat="44.65599" lon="3.7848">
        <ele>1228.22</ele>
        <time>2013-06-01T11:17:39Z</time>
      </trkpt>
      <trkpt lat="44.65595" lon="3.78502">
        <ele>1228.22</ele>
        <time>2013-06-01T11:17:55Z</time>
      </trkpt>
      <trkpt lat="44.65596" lon="3.78539">
        <ele>1227.74</ele>
        <time>2013-06-01T11:18:12Z</time>
      </trkpt>
      <trkpt lat="44.65598" lon="3.78568">
        <ele>1227.26</ele>
        <time>2013-06-01T11:18:28Z</time>
      </trkpt>
      <trkpt lat="44.65594" lon="3.78595">
        <ele>1226.3</ele>
        <time>2013-06-01T11:18:42Z</time>
      </trkpt>
      <trkpt lat="44.6559" lon="3.78623">
        <ele>1224.86</ele>
        <time>2013-06-01T11:19:00Z</time>
      </trkpt>
      <trkpt lat="44.6559" lon="3.78661">
        <ele>1223.42</ele>
        <time>2013-06-01T11:19:18Z</time>
      </trkpt>
      <trkpt lat="44.65588" lon="3.78687">
        <ele>1222.45</ele>
        <time>2013-06-01T11:19:34Z</time>
      </trkpt>
      <trkpt lat="44.65583" lon="3.78712">
        <ele>1221.49</ele>
        <time>2013-06-01T11:19:48Z</time>
      </trkpt>
      <trkpt lat="44.65573" lon="3.78739">
        <ele>1219.09</ele>
        <time>2013-06-01T11:20:04Z</time>
      </trkpt>
      <trkpt lat="44.65564" lon="3.78764">
        <ele>1217.65</ele>
        <time>2013-06-01T11:20:19Z</time>
      </trkpt>
      <trkpt lat="44.65556" lon="3.78794">
        <ele>1216.69</ele>
        <time>2013-06-01T11:20:35Z</time>
      </trkpt>
      <trkpt lat="44.6555" lon="3.78817">
        <ele>1215.72</ele>
        <time>2013-06-01T11:20:48Z</time>
      </trkpt>
      <trkpt lat="44.65547" lon="3.78842">
        <ele>1214.28</ele>
        <time>2013-06-01T11:21:02Z</time>
      </trkpt>
      <trkpt lat="44.65542" lon="3.78867">
        <ele>1213.32</ele>
        <time>2013-06-01T11:21:16Z</time>
      </trkpt>
      <trkpt lat="44.65539" lon="3.78907">
        <ele>1212.36</ele>
        <time>2013-06-01T11:21:33Z</time>
      </trkpt>
      <trkpt lat="44.65537" lon="3.7892">
        <ele>1213.8</ele>
        <time>2013-06-01T11:21:39Z</time>
      </trkpt>
      <trkpt lat="44.65537" lon="3.78924">
        <ele>1212.36</ele>
        <time>2013-06-01T11:21:41Z</time>
      </trkpt>
      <trkpt lat="44.65536" lon="3.78928">
        <ele>1211.88</ele>
        <time>2013-06-01T11:21:43Z</time>
      </trkpt>
      <trkpt lat="44.65533" lon="3.78948">
        <ele>1210.92</ele>
        <time>2013-06-01T11:21:56Z</time>
      </trkpt>
      <trkpt lat="44.65529" lon="3.78971">
        <ele>1210.92</ele>
        <time>2013-06-01T11:22:09Z</time>
      </trkpt>
      <trkpt lat="44.65527" lon="3.78987">
        <ele>1209.96</ele>
        <time>2013-06-01T11:22:19Z</time>
      </trkpt>
      <trkpt lat="44.65525" lon="3.78994">
        <ele>1210.92</ele>
        <time>2013-06-01T11:22:24Z</time>
      </trkpt>
      <trkpt lat="44.65522" lon="3.79016">
        <ele>1210.92</ele>
        <time>2013-06-01T11:22:36Z</time>
      </trkpt>
      <trkpt lat="44.6552" lon="3.79022">
        <ele>1209.48</ele>
        <time>2013-06-01T11:22:38Z</time>
      </trkpt>
      <trkpt lat="44.65519" lon="3.79038">
        <ele>1210.92</ele>
        <time>2013-06-01T11:22:48Z</time>
      </trkpt>
      <trkpt lat="44.65519" lon="3.7904">
        <ele>1210.92</ele>
        <time>2013-06-01T11:22:49Z</time>
      </trkpt>
      <trkpt lat="44.65518" lon="3.79058">
        <ele>1210.92</ele>
        <time>2013-06-01T11:22:57Z</time>
      </trkpt>
      <trkpt lat="44.65512" lon="3.79085">
        <ele>1209</ele>
        <time>2013-06-01T11:23:13Z</time>
      </trkpt>
      <trkpt lat="44.65514" lon="3.79109">
        <ele>1209.48</ele>
        <time>2013-06-01T11:23:23Z</time>
      </trkpt>
      <trkpt lat="44.65516" lon="3.79146">
        <ele>1209.48</ele>
        <time>2013-06-01T11:23:40Z</time>
      </trkpt>
      <trkpt lat="44.65517" lon="3.79181">
        <ele>1209.48</ele>
        <time>2013-06-01T11:23:59Z</time>
      </trkpt>
      <trkpt lat="44.65514" lon="3.79204">
        <ele>1207.55</ele>
        <time>2013-06-01T11:24:16Z</time>
      </trkpt>
      <trkpt lat="44.65514" lon="3.79244">
        <ele>1206.59</ele>
        <time>2013-06-01T11:24:35Z</time>
      </trkpt>
      <trkpt lat="44.65514" lon="3.79281">
        <ele>1204.67</ele>
        <time>2013-06-01T11:24:54Z</time>
      </trkpt>
      <trkpt lat="44.65511" lon="3.79317">
        <ele>1202.27</ele>
        <time>2013-06-01T11:25:12Z</time>
      </trkpt>
      <trkpt lat="44.65508" lon="3.79343">
        <ele>1201.3</ele>
        <time>2013-06-01T11:25:26Z</time>
      </trkpt>
      <trkpt lat="44.65505" lon="3.79371">
        <ele>1198.9</ele>
        <time>2013-06-01T11:25:40Z</time>
      </trkpt>
      <trkpt lat="44.65501" lon="3.79395">
        <ele>1196.98</ele>
        <time>2013-06-01T11:25:56Z</time>
      </trkpt>
      <trkpt lat="44.65497" lon="3.79424">
        <ele>1195.06</ele>
        <time>2013-06-01T11:26:11Z</time>
      </trkpt>
      <trkpt lat="44.65491" lon="3.79464">
        <ele>1194.09</ele>
        <time>2013-06-01T11:26:27Z</time>
      </trkpt>
      <trkpt lat="44.65489" lon="3.79486">
        <ele>1193.13</ele>
        <time>2013-06-01T11:26:41Z</time>
      </trkpt>
      <trkpt lat="44.65487" lon="3.79492">
        <ele>1192.65</ele>
        <time>2013-06-01T11:26:45Z</time>
      </trkpt>
      <trkpt lat="44.65485" lon="3.79502">
        <ele>1191.21</ele>
        <time>2013-06-01T11:26:56Z</time>
      </trkpt>
      <trkpt lat="44.65485" lon="3.79507">
        <ele>1194.09</ele>
        <time>2013-06-01T11:27:06Z</time>
      </trkpt>
      <trkpt lat="44.65486" lon="3.7952">
        <ele>1190.73</ele>
        <time>2013-06-01T11:27:16Z</time>
      </trkpt>
      <trkpt lat="44.65487" lon="3.79548">
        <ele>1190.73</ele>
        <time>2013-06-01T11:27:33Z</time>
      </trkpt>
      <trkpt lat="44.65498" lon="3.79566">
        <ele>1188.33</ele>
        <time>2013-06-01T11:27:47Z</time>
      </trkpt>
      <trkpt lat="44.65501" lon="3.79571">
        <ele>1187.85</ele>
        <time>2013-06-01T11:27:50Z</time>
      </trkpt>
      <trkpt lat="44.6551" lon="3.79587">
        <ele>1186.4</ele>
        <time>2013-06-01T11:28:00Z</time>
      </trkpt>
      <trkpt lat="44.65524" lon="3.79609">
        <ele>1183.04</ele>
        <time>2013-06-01T11:28:15Z</time>
      </trkpt>
      <trkpt lat="44.65528" lon="3.79613">
        <ele>1184.48</ele>
        <time>2013-06-01T11:28:19Z</time>
      </trkpt>
      <trkpt lat="44.65543" lon="3.79627">
        <ele>1182.08</ele>
        <time>2013-06-01T11:28:29Z</time>
      </trkpt>
      <trkpt lat="44.65549" lon="3.79638">
        <ele>1183.04</ele>
        <time>2013-06-01T11:28:36Z</time>
      </trkpt>
      <trkpt lat="44.65553" lon="3.79648">
        <ele>1183.04</ele>
        <time>2013-06-01T11:28:42Z</time>
      </trkpt>
      <trkpt lat="44.65562" lon="3.79672">
        <ele>1182.56</ele>
        <time>2013-06-01T11:28:58Z</time>
      </trkpt>
      <trkpt lat="44.65576" lon="3.79696">
        <ele>1182.08</ele>
        <time>2013-06-01T11:29:13Z</time>
      </trkpt>
      <trkpt lat="44.65588" lon="3.79723">
        <ele>1180.64</ele>
        <time>2013-06-01T11:29:30Z</time>
      </trkpt>
      <trkpt lat="44.65591" lon="3.79742">
        <ele>1183.04</ele>
        <time>2013-06-01T11:29:40Z</time>
      </trkpt>
      <trkpt lat="44.65594" lon="3.79748">
        <ele>1182.08</ele>
        <time>2013-06-01T11:29:44Z</time>
      </trkpt>
      <trkpt lat="44.65599" lon="3.7976">
        <ele>1179.19</ele>
        <time>2013-06-01T11:29:52Z</time>
      </trkpt>
      <trkpt lat="44.65603" lon="3.79768">
        <ele>1181.12</ele>
        <time>2013-06-01T11:29:57Z</time>
      </trkpt>
      <trkpt lat="44.65608" lon="3.79783">
        <ele>1183.52</ele>
        <time>2013-06-01T11:30:06Z</time>
      </trkpt>
      <trkpt lat="44.6561" lon="3.79787">
        <ele>1181.6</ele>
        <time>2013-06-01T11:30:08Z</time>
      </trkpt>
      <trkpt lat="44.65623" lon="3.79814">
        <ele>1181.6</ele>
        <time>2013-06-01T11:30:25Z</time>
      </trkpt>
      <trkpt lat="44.65633" lon="3.79836">
        <ele>1180.64</ele>
        <time>2013-06-01T11:30:39Z</time>
      </trkpt>
      <trkpt lat="44.65632" lon="3.7984">
        <ele>1180.64</ele>
        <time>2013-06-01T11:30:42Z</time>
      </trkpt>
      <trkpt lat="44.65609" lon="3.79838">
        <ele>1180.16</ele>
        <time>2013-06-01T11:31:00Z</time>
      </trkpt>
      <trkpt lat="44.65591" lon="3.79834">
        <ele>1179.67</ele>
        <time>2013-06-01T11:31:16Z</time>
      </trkpt>
      <trkpt lat="44.65567" lon="3.79829">
        <ele>1178.71</ele>
        <time>2013-06-01T11:31:34Z</time>
      </trkpt>
      <trkpt lat="44.65545" lon="3.79823">
        <ele>1177.75</ele>
        <time>2013-06-01T11:31:49Z</time>
      </trkpt>
      <trkpt lat="44.65523" lon="3.79818">
        <ele>1177.75</ele>
        <time>2013-06-01T11:32:04Z</time>
      </trkpt>
      <trkpt lat="44.65501" lon="3.79816">
        <ele>1177.27</ele>
        <time>2013-06-01T11:32:21Z</time>
      </trkpt>
      <trkpt lat="44.65477" lon="3.79818">
        <ele>1176.79</ele>
        <time>2013-06-01T11:32:39Z</time>
      </trkpt>
      <trkpt lat="44.65453" lon="3.79823">
        <ele>1176.31</ele>
        <time>2013-06-01T11:32:57Z</time>
      </trkpt>
      <trkpt lat="44.65449" lon="3.79825">
        <ele>1174.87</ele>
        <time>2013-06-01T11:33:00Z</time>
      </trkpt>
      <trkpt lat="44.65429" lon="3.79835">
        <ele>1175.35</ele>
        <time>2013-06-01T11:33:15Z</time>
      </trkpt>
      <trkpt lat="44.65423" lon="3.79839">
        <ele>1173.91</ele>
        <time>2013-06-01T11:33:19Z</time>
      </trkpt>
      <trkpt lat="44.65401" lon="3.79861">
        <ele>1172.95</ele>
        <time>2013-06-01T11:33:38Z</time>
      </trkpt>
      <trkpt lat="44.65396" lon="3.79868">
        <ele>1171.98</ele>
        <time>2013-06-01T11:33:44Z</time>
      </trkpt>
      <trkpt lat="44.65377" lon="3.79885">
        <ele>1169.58</ele>
        <time>2013-06-01T11:34:00Z</time>
      </trkpt>
      <trkpt lat="44.65355" lon="3.799">
        <ele>1166.7</ele>
        <time>2013-06-01T11:34:17Z</time>
      </trkpt>
      <trkpt lat="44.65335" lon="3.79912">
        <ele>1164.77</ele>
        <time>2013-06-01T11:34:32Z</time>
      </trkpt>
      <trkpt lat="44.65326" lon="3.79917">
        <ele>1164.77</ele>
        <time>2013-06-01T11:34:39Z</time>
      </trkpt>
      <trkpt lat="44.6532" lon="3.79922">
        <ele>1163.33</ele>
        <time>2013-06-01T11:34:45Z</time>
      </trkpt>
      <trkpt lat="44.65309" lon="3.79945">
        <ele>1162.37</ele>
        <time>2013-06-01T11:35:00Z</time>
      </trkpt>
      <trkpt lat="44.65301" lon="3.79974">
        <ele>1159.49</ele>
        <time>2013-06-01T11:35:14Z</time>
      </trkpt>
      <trkpt lat="44.65298" lon="3.79982">
        <ele>1159.49</ele>
        <time>2013-06-01T11:35:19Z</time>
      </trkpt>
      <trkpt lat="44.65285" lon="3.80001">
        <ele>1157.08</ele>
        <time>2013-06-01T11:35:34Z</time>
      </trkpt>
      <trkpt lat="44.6527" lon="3.80024">
        <ele>1155.64</ele>
        <time>2013-06-01T11:35:48Z</time>
      </trkpt>
      <trkpt lat="44.65257" lon="3.80046">
        <ele>1155.64</ele>
        <time>2013-06-01T11:36:02Z</time>
      </trkpt>
      <trkpt lat="44.65243" lon="3.80071">
        <ele>1153.72</ele>
        <time>2013-06-01T11:36:18Z</time>
      </trkpt>
      <trkpt lat="44.65235" lon="3.80094">
        <ele>1151.8</ele>
        <time>2013-06-01T11:36:31Z</time>
      </trkpt>
      <trkpt lat="44.65235" lon="3.80129">
        <ele>1149.39</ele>
        <time>2013-06-01T11:36:49Z</time>
      </trkpt>
      <trkpt lat="44.65236" lon="3.80134">
        <ele>1147.47</ele>
        <time>2013-06-01T11:36:52Z</time>
      </trkpt>
      <trkpt lat="44.65235" lon="3.8016">
        <ele>1145.07</ele>
        <time>2013-06-01T11:37:06Z</time>
      </trkpt>
      <trkpt lat="44.65229" lon="3.80193">
        <ele>1146.99</ele>
        <time>2013-06-01T11:37:23Z</time>
      </trkpt>
      <trkpt lat="44.65216" lon="3.80218">
        <ele>1146.51</ele>
        <time>2013-06-01T11:37:38Z</time>
      </trkpt>
      <trkpt lat="44.65201" lon="3.80231">
        <ele>1143.14</ele>
        <time>2013-06-01T11:37:51Z</time>
      </trkpt>
      <trkpt lat="44.65178" lon="3.80245">
        <ele>1140.74</ele>
        <time>2013-06-01T11:38:08Z</time>
      </trkpt>
      <trkpt lat="44.65155" lon="3.80257">
        <ele>1138.82</ele>
        <time>2013-06-01T11:38:25Z</time>
      </trkpt>
      <trkpt lat="44.6513" lon="3.80271">
        <ele>1136.9</ele>
        <time>2013-06-01T11:38:44Z</time>
      </trkpt>
      <trkpt lat="44.65108" lon="3.80285">
        <ele>1134.97</ele>
        <time>2013-06-01T11:39:01Z</time>
      </trkpt>
      <trkpt lat="44.65085" lon="3.80295">
        <ele>1133.53</ele>
        <time>2013-06-01T11:39:18Z</time>
      </trkpt>
      <trkpt lat="44.65065" lon="3.80304">
        <ele>1132.57</ele>
        <time>2013-06-01T11:39:32Z</time>
      </trkpt>
      <trkpt lat="44.65043" lon="3.80311">
        <ele>1130.17</ele>
        <time>2013-06-01T11:39:48Z</time>
      </trkpt>
      <trkpt lat="44.65023" lon="3.80317">
        <ele>1128.73</ele>
        <time>2013-06-01T11:40:03Z</time>
      </trkpt>
      <trkpt lat="44.65007" lon="3.80319">
        <ele>1125.36</ele>
        <time>2013-06-01T11:40:17Z</time>
      </trkpt>
      <trkpt lat="44.6498" lon="3.80325">
        <ele>1123.44</ele>
        <time>2013-06-01T11:40:34Z</time>
      </trkpt>
      <trkpt lat="44.64974" lon="3.80328">
        <ele>1122.96</ele>
        <time>2013-06-01T11:40:38Z</time>
      </trkpt>
      <trkpt lat="44.64958" lon="3.80328">
        <ele>1122.96</ele>
        <time>2013-06-01T11:40:50Z</time>
      </trkpt>
      <trkpt lat="44.64936" lon="3.80331">
        <ele>1122</ele>
        <time>2013-06-01T11:41:07Z</time>
      </trkpt>
      <trkpt lat="44.64914" lon="3.80333">
        <ele>1119.59</ele>
        <time>2013-06-01T11:41:23Z</time>
      </trkpt>
      <trkpt lat="44.64886" lon="3.80332">
        <ele>1118.15</ele>
        <time>2013-06-01T11:41:43Z</time>
      </trkpt>
      <trkpt lat="44.64878" lon="3.80333">
        <ele>1119.11</ele>
        <time>2013-06-01T11:41:49Z</time>
      </trkpt>
      <trkpt lat="44.6486" lon="3.80332">
        <ele>1119.11</ele>
        <time>2013-06-01T11:42:03Z</time>
      </trkpt>
      <trkpt lat="44.64858" lon="3.80333">
        <ele>1117.67</ele>
        <time>2013-06-01T11:42:05Z</time>
      </trkpt>
      <trkpt lat="44.64837" lon="3.80337">
        <ele>1116.71</ele>
        <time>2013-06-01T11:42:20Z</time>
      </trkpt>
      <trkpt lat="44.6482" lon="3.80343">
        <ele>1115.27</ele>
        <time>2013-06-01T11:42:37Z</time>
      </trkpt>
      <trkpt lat="44.64823" lon="3.80343">
        <ele>1115.27</ele>
        <time>2013-06-01T11:42:55Z</time>
      </trkpt>
      <trkpt lat="44.64824" lon="3.80341">
        <ele>1116.23</ele>
        <time>2013-06-01T11:43:06Z</time>
      </trkpt>
      <trkpt lat="44.64824" lon="3.80337">
        <ele>1116.23</ele>
        <time>2013-06-01T11:43:24Z</time>
      </trkpt>
      <trkpt lat="44.64823" lon="3.80333">
        <ele>1115.27</ele>
        <time>2013-06-01T11:43:42Z</time>
      </trkpt>
      <trkpt lat="44.64822" lon="3.80338">
        <ele>1116.71</ele>
        <time>2013-06-01T11:44:04Z</time>
      </trkpt>
      <trkpt lat="44.64823" lon="3.80338">
        <ele>1115.75</ele>
        <time>2013-06-01T11:44:25Z</time>
      </trkpt>
      <trkpt lat="44.64823" lon="3.8034">
        <ele>1114.31</ele>
        <time>2013-06-01T11:44:41Z</time>
      </trkpt>
      <trkpt lat="44.64823" lon="3.80339">
        <ele>1115.75</ele>
        <time>2013-06-01T11:44:44Z</time>
      </trkpt>
      <trkpt lat="44.64823" lon="3.80341">
        <ele>1115.27</ele>
        <time>2013-06-01T11:44:54Z</time>
      </trkpt>
      <trkpt lat="44.64824" lon="3.80342">
        <ele>1116.23</ele>
        <time>2013-06-01T11:45:02Z</time>
      </trkpt>
      <trkpt lat="44.64824" lon="3.80344">
        <ele>1115.75</ele>
        <time>2013-06-01T11:45:23Z</time>
      </trkpt>
      <trkpt lat="44.64823" lon="3.80344">
        <ele>1115.27</ele>
        <time>2013-06-01T11:45:55Z</time>
      </trkpt>
      <trkpt lat="44.64824" lon="3.80344">
        <ele>1118.63</ele>
        <time>2013-06-01T11:46:32Z</time>
      </trkpt>
      <trkpt lat="44.64824" lon="3.80343">
        <ele>1118.63</ele>
        <time>2013-06-01T11:46:33Z</time>
      </trkpt>
      <trkpt lat="44.64824" lon="3.80344">
        <ele>1117.19</ele>
        <time>2013-06-01T11:46:35Z</time>
      </trkpt>
      <trkpt lat="44.64824" lon="3.80346">
        <ele>1116.23</ele>
        <time>2013-06-01T11:46:43Z</time>
      </trkpt>
      <trkpt lat="44.64822" lon="3.80345">
        <ele>1116.71</ele>
        <time>2013-06-01T11:47:01Z</time>
      </trkpt>
      <trkpt lat="44.64822" lon="3.80337">
        <ele>1117.67</ele>
        <time>2013-06-01T11:47:40Z</time>
      </trkpt>
      <trkpt lat="44.64822" lon="3.80337">
        <ele>1116.23</ele>
        <time>2013-06-01T11:47:42Z</time>
      </trkpt>
      <trkpt lat="44.64822" lon="3.80337">
        <ele>1117.67</ele>
        <time>2013-06-01T11:48:08Z</time>
      </trkpt>
      <trkpt lat="44.64825" lon="3.80332">
        <ele>1116.71</ele>
        <time>2013-06-01T11:48:20Z</time>
      </trkpt>
      <trkpt lat="44.64823" lon="3.80336">
        <ele>1118.63</ele>
        <time>2013-06-01T11:49:00Z</time>
      </trkpt>
      <trkpt lat="44.64822" lon="3.80337">
        <ele>1119.11</ele>
        <time>2013-06-01T11:49:38Z</time>
      </trkpt>
      <trkpt lat="44.64822" lon="3.80337">
        <ele>1118.15</ele>
        <time>2013-06-01T11:50:14Z</time>
      </trkpt>
      <trkpt lat="44.6482" lon="3.80339">
        <ele>1119.59</ele>
        <time>2013-06-01T11:50:40Z</time>
      </trkpt>
      <trkpt lat="44.64821" lon="3.80337">
        <ele>1116.71</ele>
        <time>2013-06-01T11:50:52Z</time>
      </trkpt>
      <trkpt lat="44.64821" lon="3.80336">
        <ele>1118.15</ele>
        <time>2013-06-01T11:50:57Z</time>
      </trkpt>
      <trkpt lat="44.64822" lon="3.80341">
        <ele>1116.23</ele>
        <time>2013-06-01T11:51:12Z</time>
      </trkpt>
      <trkpt lat="44.64823" lon="3.8034">
        <ele>1118.15</ele>
        <time>2013-06-01T11:51:16Z</time>
      </trkpt>
      <trkpt lat="44.64823" lon="3.80341">
        <ele>1117.19</ele>
        <time>2013-06-01T11:51:39Z</time>
      </trkpt>
      <trkpt lat="44.64824" lon="3.8034">
        <ele>1119.11</ele>
        <time>2013-06-01T11:51:45Z</time>
      </trkpt>
      <trkpt lat="44.64824" lon="3.80339">
        <ele>1119.59</ele>
        <time>2013-06-01T11:52:15Z</time>
      </trkpt>
      <trkpt lat="44.64824" lon="3.80341">
        <ele>1118.63</ele>
        <time>2013-06-01T11:52:34Z</time>
      </trkpt>
      <trkpt lat="44.64824" lon="3.80342">
        <ele>1119.11</ele>
        <time>2013-06-01T11:52:45Z</time>
      </trkpt>
      <trkpt lat="44.64822" lon="3.80346">
        <ele>1118.15</ele>
        <time>2013-06-01T11:52:58Z</time>
      </trkpt>
      <trkpt lat="44.64821" lon="3.80347">
        <ele>1121.52</ele>
        <time>2013-06-01T11:53:19Z</time>
      </trkpt>
      <trkpt lat="44.64821" lon="3.80347">
        <ele>1119.59</ele>
        <time>2013-06-01T11:53:24Z</time>
      </trkpt>
      <trkpt lat="44.6482" lon="3.80349">
        <ele>1119.59</ele>
        <time>2013-06-01T11:53:34Z</time>
      </trkpt>
      <trkpt lat="44.6482" lon="3.80353">
        <ele>1119.59</ele>
        <time>2013-06-01T11:53:54Z</time>
      </trkpt>
      <trkpt lat="44.64821" lon="3.80351">
        <ele>1118.63</ele>
        <time>2013-06-01T11:54:21Z</time>
      </trkpt>
      <trkpt lat="44.64817" lon="3.80351">
        <ele>1119.59</ele>
        <time>2013-06-01T11:54:43Z</time>
      </trkpt>
      <trkpt lat="44.64822" lon="3.80345">
        <ele>1119.59</ele>
        <time>2013-06-01T11:55:08Z</time>
      </trkpt>
      <trkpt lat="44.64822" lon="3.80345">
        <ele>1119.59</ele>
        <time>2013-06-01T11:55:37Z</time>
      </trkpt>
      <trkpt lat="44.6482" lon="3.8033">
        <ele>1119.59</ele>
        <time>2013-06-01T11:56:13Z</time>
      </trkpt>
      <trkpt lat="44.64823" lon="3.80333">
        <ele>1119.59</ele>
        <time>2013-06-01T11:56:45Z</time>
      </trkpt>
      <trkpt lat="44.64821" lon="3.80333">
        <ele>1121.52</ele>
        <time>2013-06-01T11:57:24Z</time>
      </trkpt>
      <trkpt lat="44.6482" lon="3.80334">
        <ele>1120.07</ele>
        <time>2013-06-01T11:57:55Z</time>
      </trkpt>
      <trkpt lat="44.64822" lon="3.80332">
        <ele>1121.03</ele>
        <time>2013-06-01T11:58:13Z</time>
      </trkpt>
      <trkpt lat="44.64822" lon="3.80332">
        <ele>1121.03</ele>
        <time>2013-06-01T11:58:40Z</time>
      </trkpt>
      <trkpt lat="44.64823" lon="3.80329">
        <ele>1120.07</ele>
        <time>2013-06-01T11:59:09Z</time>
      </trkpt>
      <trkpt lat="44.64821" lon="3.8033">
        <ele>1120.55</ele>
        <time>2013-06-01T11:59:37Z</time>
      </trkpt>
      <trkpt lat="44.64821" lon="3.80334">
        <ele>1121.52</ele>
        <time>2013-06-01T12:00:11Z</time>
      </trkpt>
      <trkpt lat="44.64824" lon="3.80347">
        <ele>1120.07</ele>
        <time>2013-06-01T12:00:38Z</time>
      </trkpt>
      <trkpt lat="44.64822" lon="3.80349">
        <ele>1121.52</ele>
        <time>2013-06-01T12:00:43Z</time>
      </trkpt>
      <trkpt lat="44.6482" lon="3.80347">
        <ele>1121.03</ele>
        <time>2013-06-01T12:01:08Z</time>
      </trkpt>
      <trkpt lat="44.64817" lon="3.80342">
        <ele>1122.48</ele>
        <time>2013-06-01T12:01:46Z</time>
      </trkpt>
      <trkpt lat="44.64815" lon="3.8034">
        <ele>1121.03</ele>
        <time>2013-06-01T12:02:05Z</time>
      </trkpt>
      <trkpt lat="44.64815" lon="3.8034">
        <ele>1122.48</ele>
        <time>2013-06-01T12:02:10Z</time>
      </trkpt>
      <trkpt lat="44.64816" lon="3.80345">
        <ele>1122.96</ele>
        <time>2013-06-01T12:02:32Z</time>
      </trkpt>
      <trkpt lat="44.64819" lon="3.80335">
        <ele>1122.96</ele>
        <time>2013-06-01T12:03:02Z</time>
      </trkpt>
      <trkpt lat="44.64825" lon="3.80327">
        <ele>1122.48</ele>
        <time>2013-06-01T12:03:28Z</time>
      </trkpt>
      <trkpt lat="44.64834" lon="3.80319">
        <ele>1123.44</ele>
        <time>2013-06-01T12:03:53Z</time>
      </trkpt>
      <trkpt lat="44.64824" lon="3.80319">
        <ele>1124.4</ele>
        <time>2013-06-01T12:04:17Z</time>
      </trkpt>
      <trkpt lat="44.64821" lon="3.80331">
        <ele>1125.84</ele>
        <time>2013-06-01T12:04:50Z</time>
      </trkpt>
      <trkpt lat="44.64815" lon="3.80333">
        <ele>1127.76</ele>
        <time>2013-06-01T12:05:12Z</time>
      </trkpt>
      <trkpt lat="44.64812" lon="3.80331">
        <ele>1126.8</ele>
        <time>2013-06-01T12:05:21Z</time>
      </trkpt>
      <trkpt lat="44.64817" lon="3.80334">
        <ele>1124.4</ele>
        <time>2013-06-01T12:05:50Z</time>
      </trkpt>
      <trkpt lat="44.64823" lon="3.80337">
        <ele>1124.4</ele>
        <time>2013-06-01T12:06:24Z</time>
      </trkpt>
      <trkpt lat="44.64824" lon="3.80338">
        <ele>1125.84</ele>
        <time>2013-06-01T12:06:32Z</time>
      </trkpt>
      <trkpt lat="44.64818" lon="3.80334">
        <ele>1125.84</ele>
        <time>2013-06-01T12:07:05Z</time>
      </trkpt>
      <trkpt lat="44.64822" lon="3.80333">
        <ele>1126.32</ele>
        <time>2013-06-01T12:07:39Z</time>
      </trkpt>
      <trkpt lat="44.64829" lon="3.80328">
        <ele>1125.36</ele>
        <time>2013-06-01T12:08:11Z</time>
      </trkpt>
      <trkpt lat="44.64831" lon="3.80333">
        <ele>1127.76</ele>
        <time>2013-06-01T12:08:38Z</time>
      </trkpt>
      <trkpt lat="44.64824" lon="3.80335">
        <ele>1127.76</ele>
        <time>2013-06-01T12:09:04Z</time>
      </trkpt>
      <trkpt lat="44.64823" lon="3.80336">
        <ele>1126.8</ele>
        <time>2013-06-01T12:09:07Z</time>
      </trkpt>
      <trkpt lat="44.6482" lon="3.80338">
        <ele>1128.24</ele>
        <time>2013-06-01T12:09:17Z</time>
      </trkpt>
      <trkpt lat="44.64818" lon="3.8034">
        <ele>1128.24</ele>
        <time>2013-06-01T12:09:43Z</time>
      </trkpt>
      <trkpt lat="44.64825" lon="3.80333">
        <ele>1128.73</ele>
        <time>2013-06-01T12:10:10Z</time>
      </trkpt>
      <trkpt lat="44.64825" lon="3.80332">
        <ele>1128.24</ele>
        <time>2013-06-01T12:10:43Z</time>
      </trkpt>
      <trkpt lat="44.64818" lon="3.8033">
        <ele>1129.21</ele>
        <time>2013-06-01T12:11:11Z</time>
      </trkpt>
      <trkpt lat="44.64821" lon="3.80334">
        <ele>1129.21</ele>
        <time>2013-06-01T12:11:24Z</time>
      </trkpt>
      <trkpt lat="44.64822" lon="3.80336">
        <ele>1130.17</ele>
        <time>2013-06-01T12:12:03Z</time>
      </trkpt>
      <trkpt lat="44.64825" lon="3.80336">
        <ele>1129.21</ele>
        <time>2013-06-01T12:12:28Z</time>
      </trkpt>
      <trkpt lat="44.64825" lon="3.80336">
        <ele>1131.61</ele>
        <time>2013-06-01T12:12:32Z</time>
      </trkpt>
      <trkpt lat="44.64824" lon="3.80337">
        <ele>1130.17</ele>
        <time>2013-06-01T12:12:40Z</time>
      </trkpt>
      <trkpt lat="44.64822" lon="3.80338">
        <ele>1128.73</ele>
        <time>2013-06-01T12:13:16Z</time>
      </trkpt>
      <trkpt lat="44.64822" lon="3.80338">
        <ele>1130.17</ele>
        <time>2013-06-01T12:13:19Z</time>
      </trkpt>
      <trkpt lat="44.64822" lon="3.80341">
        <ele>1130.17</ele>
        <time>2013-06-01T12:13:54Z</time>
      </trkpt>
      <trkpt lat="44.64828" lon="3.80341">
        <ele>1130.17</ele>
        <time>2013-06-01T12:14:26Z</time>
      </trkpt>
      <trkpt lat="44.64828" lon="3.80343">
        <ele>1128.73</ele>
        <time>2013-06-01T12:14:34Z</time>
      </trkpt>
      <trkpt lat="44.64824" lon="3.80344">
        <ele>1128.24</ele>
        <time>2013-06-01T12:14:52Z</time>
      </trkpt>
      <trkpt lat="44.64824" lon="3.80344">
        <ele>1130.17</ele>
        <time>2013-06-01T12:14:56Z</time>
      </trkpt>
      <trkpt lat="44.64822" lon="3.80344">
        <ele>1129.69</ele>
        <time>2013-06-01T12:15:26Z</time>
      </trkpt>
      <trkpt lat="44.64823" lon="3.80337">
        <ele>1129.69</ele>
        <time>2013-06-01T12:15:50Z</time>
      </trkpt>
      <trkpt lat="44.64826" lon="3.80337">
        <ele>1130.17</ele>
        <time>2013-06-01T12:16:15Z</time>
      </trkpt>
      <trkpt lat="44.64828" lon="3.80333">
        <ele>1128.73</ele>
        <time>2013-06-01T12:16:31Z</time>
      </trkpt>
      <trkpt lat="44.64825" lon="3.80332">
        <ele>1130.17</ele>
        <time>2013-06-01T12:16:36Z</time>
      </trkpt>
      <trkpt lat="44.64824" lon="3.80327">
        <ele>1129.69</ele>
        <time>2013-06-01T12:16:53Z</time>
      </trkpt>
      <trkpt lat="44.64822" lon="3.80326">
        <ele>1130.17</ele>
        <time>2013-06-01T12:17:13Z</time>
      </trkpt>
      <trkpt lat="44.64821" lon="3.80326">
        <ele>1130.17</ele>
        <time>2013-06-01T12:17:35Z</time>
      </trkpt>
      <trkpt lat="44.64822" lon="3.80328">
        <ele>1130.65</ele>
        <time>2013-06-01T12:17:59Z</time>
      </trkpt>
      <trkpt lat="44.64822" lon="3.80331">
        <ele>1131.61</ele>
        <time>2013-06-01T12:18:09Z</time>
      </trkpt>
      <trkpt lat="44.64819" lon="3.80332">
        <ele>1131.61</ele>
        <time>2013-06-01T12:18:13Z</time>
      </trkpt>
      <trkpt lat="44.64804" lon="3.80327">
        <ele>1130.65</ele>
        <time>2013-06-01T12:18:27Z</time>
      </trkpt>
      <trkpt lat="44.6478" lon="3.80319">
        <ele>1130.65</ele>
        <time>2013-06-01T12:18:47Z</time>
      </trkpt>
      <trkpt lat="44.64766" lon="3.80316">
        <ele>1131.61</ele>
        <time>2013-06-01T12:18:59Z</time>
      </trkpt>
      <trkpt lat="44.64763" lon="3.80306">
        <ele>1131.61</ele>
        <time>2013-06-01T12:19:10Z</time>
      </trkpt>
      <trkpt lat="44.6476" lon="3.80307">
        <ele>1130.17</ele>
        <time>2013-06-01T12:19:21Z</time>
      </trkpt>
      <trkpt lat="44.6476" lon="3.80308">
        <ele>1133.53</ele>
        <time>2013-06-01T12:19:47Z</time>
      </trkpt>
      <trkpt lat="44.6476" lon="3.80309">
        <ele>1134.97</ele>
        <time>2013-06-01T12:19:49Z</time>
      </trkpt>
      <trkpt lat="44.64761" lon="3.80309">
        <ele>1131.13</ele>
        <time>2013-06-01T12:20:02Z</time>
      </trkpt>
      <trkpt lat="44.6476" lon="3.80309">
        <ele>1130.17</ele>
        <time>2013-06-01T12:20:44Z</time>
      </trkpt>
      <trkpt lat="44.64762" lon="3.8031">
        <ele>1128.73</ele>
        <time>2013-06-01T12:21:22Z</time>
      </trkpt>
      <trkpt lat="44.64762" lon="3.8031">
        <ele>1130.17</ele>
        <time>2013-06-01T12:21:31Z</time>
      </trkpt>
      <trkpt lat="44.64762" lon="3.80307">
        <ele>1129.69</ele>
        <time>2013-06-01T12:21:43Z</time>
      </trkpt>
      <trkpt lat="44.64763" lon="3.80309">
        <ele>1130.17</ele>
        <time>2013-06-01T12:22:09Z</time>
      </trkpt>
      <trkpt lat="44.64763" lon="3.8031">
        <ele>1130.65</ele>
        <time>2013-06-01T12:22:47Z</time>
      </trkpt>
      <trkpt lat="44.64762" lon="3.8031">
        <ele>1130.65</ele>
        <time>2013-06-01T12:22:48Z</time>
      </trkpt>
      <trkpt lat="44.64762" lon="3.8031">
        <ele>1129.69</ele>
        <time>2013-06-01T12:22:53Z</time>
      </trkpt>
      <trkpt lat="44.64761" lon="3.80309">
        <ele>1128.73</ele>
        <time>2013-06-01T12:23:27Z</time>
      </trkpt>
      <trkpt lat="44.64761" lon="3.80307">
        <ele>1127.28</ele>
        <time>2013-06-01T12:23:43Z</time>
      </trkpt>
      <trkpt lat="44.64761" lon="3.80307">
        <ele>1128.24</ele>
        <time>2013-06-01T12:23:51Z</time>
      </trkpt>
      <trkpt lat="44.64761" lon="3.80307">
        <ele>1126.8</ele>
        <time>2013-06-01T12:24:05Z</time>
      </trkpt>
      <trkpt lat="44.64762" lon="3.80307">
        <ele>1128.24</ele>
        <time>2013-06-01T12:24:07Z</time>
      </trkpt>
      <trkpt lat="44.64762" lon="3.80306">
        <ele>1129.69</ele>
        <time>2013-06-01T12:24:10Z</time>
      </trkpt>
      <trkpt lat="44.64762" lon="3.80306">
        <ele>1128.73</ele>
        <time>2013-06-01T12:24:17Z</time>
      </trkpt>
      <trkpt lat="44.6476" lon="3.80305">
        <ele>1126.8</ele>
        <time>2013-06-01T12:24:59Z</time>
      </trkpt>
      <trkpt lat="44.6476" lon="3.80305">
        <ele>1128.24</ele>
        <time>2013-06-01T12:25:01Z</time>
      </trkpt>
      <trkpt lat="44.6476" lon="3.80305">
        <ele>1127.28</ele>
        <time>2013-06-01T12:25:08Z</time>
      </trkpt>
      <trkpt lat="44.64761" lon="3.80306">
        <ele>1127.28</ele>
        <time>2013-06-01T12:25:37Z</time>
      </trkpt>
      <trkpt lat="44.64764" lon="3.80304">
        <ele>1130.65</ele>
        <time>2013-06-01T12:26:05Z</time>
      </trkpt>
      <trkpt lat="44.64764" lon="3.80305">
        <ele>1130.65</ele>
        <time>2013-06-01T12:26:06Z</time>
      </trkpt>
      <trkpt lat="44.64766" lon="3.80305">
        <ele>1127.76</ele>
        <time>2013-06-01T12:26:38Z</time>
      </trkpt>
      <trkpt lat="44.64766" lon="3.80305">
        <ele>1127.76</ele>
        <time>2013-06-01T12:27:10Z</time>
      </trkpt>
      <trkpt lat="44.64765" lon="3.80301">
        <ele>1129.21</ele>
        <time>2013-06-01T12:27:32Z</time>
      </trkpt>
      <trkpt lat="44.6476" lon="3.8031">
        <ele>1129.21</ele>
        <time>2013-06-01T12:28:07Z</time>
      </trkpt>
      <trkpt lat="44.64761" lon="3.80311">
        <ele>1128.73</ele>
        <time>2013-06-01T12:28:50Z</time>
      </trkpt>
      <trkpt lat="44.64762" lon="3.80314">
        <ele>1126.8</ele>
        <time>2013-06-01T12:29:07Z</time>
      </trkpt>
      <trkpt lat="44.64762" lon="3.80313">
        <ele>1127.76</ele>
        <time>2013-06-01T12:29:12Z</time>
      </trkpt>
      <trkpt lat="44.64762" lon="3.80313">
        <ele>1125.84</ele>
        <time>2013-06-01T12:29:14Z</time>
      </trkpt>
      <trkpt lat="44.64761" lon="3.80314">
        <ele>1127.28</ele>
        <time>2013-06-01T12:29:38Z</time>
      </trkpt>
      <trkpt lat="44.6476" lon="3.80312">
        <ele>1127.76</ele>
        <time>2013-06-01T12:30:03Z</time>
      </trkpt>
      <trkpt lat="44.64758" lon="3.80314">
        <ele>1127.76</ele>
        <time>2013-06-01T12:30:45Z</time>
      </trkpt>
      <trkpt lat="44.64757" lon="3.80314">
        <ele>1130.17</ele>
        <time>2013-06-01T12:30:51Z</time>
      </trkpt>
      <trkpt lat="44.64761" lon="3.80319">
        <ele>1127.76</ele>
        <time>2013-06-01T12:31:32Z</time>
      </trkpt>
      <trkpt lat="44.64762" lon="3.8032">
        <ele>1128.73</ele>
        <time>2013-06-01T12:32:13Z</time>
      </trkpt>
      <trkpt lat="44.6476" lon="3.80316">
        <ele>1127.28</ele>
        <time>2013-06-01T12:32:53Z</time>
      </trkpt>
      <trkpt lat="44.64761" lon="3.80316">
        <ele>1127.28</ele>
        <time>2013-06-01T12:33:27Z</time>
      </trkpt>
      <trkpt lat="44.64759" lon="3.80314">
        <ele>1127.76</ele>
        <time>2013-06-01T12:34:10Z</time>
      </trkpt>
      <trkpt lat="44.64759" lon="3.80315">
        <ele>1128.73</ele>
        <time>2013-06-01T12:34:59Z</time>
      </trkpt>
      <trkpt lat="44.6476" lon="3.80311">
        <ele>1128.73</ele>
        <time>2013-06-01T12:35:42Z</time>
      </trkpt>
      <trkpt lat="44.6476" lon="3.80316">
        <ele>1128.73</ele>
        <time>2013-06-01T12:36:18Z</time>
      </trkpt>
      <trkpt lat="44.64759" lon="3.80316">
        <ele>1127.76</ele>
        <time>2013-06-01T12:36:56Z</time>
      </trkpt>
      <trkpt lat="44.64758" lon="3.80318">
        <ele>1128.24</ele>
        <time>2013-06-01T12:37:31Z</time>
      </trkpt>
      <trkpt lat="44.64756" lon="3.80327">
        <ele>1127.76</ele>
        <time>2013-06-01T12:38:11Z</time>
      </trkpt>
      <trkpt lat="44.64757" lon="3.80327">
        <ele>1129.21</ele>
        <time>2013-06-01T12:38:13Z</time>
      </trkpt>
      <trkpt lat="44.64756" lon="3.80326">
        <ele>1128.24</ele>
        <time>2013-06-01T12:38:40Z</time>
      </trkpt>
      <trkpt lat="44.64756" lon="3.80328">
        <ele>1128.24</ele>
        <time>2013-06-01T12:39:15Z</time>
      </trkpt>
      <trkpt lat="44.64756" lon="3.80326">
        <ele>1128.24</ele>
        <time>2013-06-01T12:39:42Z</time>
      </trkpt>
      <trkpt lat="44.64757" lon="3.80321">
        <ele>1129.21</ele>
        <time>2013-06-01T12:40:16Z</time>
      </trkpt>
      <trkpt lat="44.64759" lon="3.80319">
        <ele>1128.24</ele>
        <time>2013-06-01T12:40:54Z</time>
      </trkpt>
      <trkpt lat="44.64758" lon="3.80318">
        <ele>1129.69</ele>
        <time>2013-06-01T12:41:41Z</time>
      </trkpt>
      <trkpt lat="44.64757" lon="3.80316">
        <ele>1128.73</ele>
        <time>2013-06-01T12:41:58Z</time>
      </trkpt>
      <trkpt lat="44.6476" lon="3.80315">
        <ele>1128.73</ele>
        <time>2013-06-01T12:42:31Z</time>
      </trkpt>
      <trkpt lat="44.6476" lon="3.80316">
        <ele>1128.73</ele>
        <time>2013-06-01T12:42:57Z</time>
      </trkpt>
      <trkpt lat="44.64758" lon="3.80315">
        <ele>1128.73</ele>
        <time>2013-06-01T12:43:20Z</time>
      </trkpt>
      <trkpt lat="44.64758" lon="3.80321">
        <ele>1129.21</ele>
        <time>2013-06-01T12:43:54Z</time>
      </trkpt>
      <trkpt lat="44.64757" lon="3.80323">
        <ele>1128.73</ele>
        <time>2013-06-01T12:44:03Z</time>
      </trkpt>
      <trkpt lat="44.64759" lon="3.80322">
        <ele>1129.69</ele>
        <time>2013-06-01T12:44:34Z</time>
      </trkpt>
      <trkpt lat="44.64757" lon="3.80319">
        <ele>1128.73</ele>
        <time>2013-06-01T12:45:23Z</time>
      </trkpt>
      <trkpt lat="44.64756" lon="3.80322">
        <ele>1128.24</ele>
        <time>2013-06-01T12:46:12Z</time>
      </trkpt>
      <trkpt lat="44.64758" lon="3.8032">
        <ele>1128.73</ele>
        <time>2013-06-01T12:46:56Z</time>
      </trkpt>
      <trkpt lat="44.64759" lon="3.80319">
        <ele>1128.24</ele>
        <time>2013-06-01T12:47:32Z</time>
      </trkpt>
      <trkpt lat="44.64761" lon="3.80316">
        <ele>1129.21</ele>
        <time>2013-06-01T12:48:17Z</time>
      </trkpt>
      <trkpt lat="44.64761" lon="3.80316">
        <ele>1127.76</ele>
        <time>2013-06-01T12:48:22Z</time>
      </trkpt>
      <trkpt lat="44.64757" lon="3.8032">
        <ele>1126.8</ele>
        <time>2013-06-01T12:49:03Z</time>
      </trkpt>
      <trkpt lat="44.64755" lon="3.80318">
        <ele>1126.8</ele>
        <time>2013-06-01T12:49:40Z</time>
      </trkpt>
      <trkpt lat="44.64756" lon="3.80316">
        <ele>1127.76</ele>
        <time>2013-06-01T12:50:18Z</time>
      </trkpt>
      <trkpt lat="44.64757" lon="3.80308">
        <ele>1125.84</ele>
        <time>2013-06-01T12:50:57Z</time>
      </trkpt>
      <trkpt lat="44.64757" lon="3.80308">
        <ele>1127.28</ele>
        <time>2013-06-01T12:51:03Z</time>
      </trkpt>
      <trkpt lat="44.64761" lon="3.80308">
        <ele>1126.32</ele>
        <time>2013-06-01T12:51:38Z</time>
      </trkpt>
      <trkpt lat="44.6476" lon="3.8031">
        <ele>1127.76</ele>
        <time>2013-06-01T12:52:11Z</time>
      </trkpt>
      <trkpt lat="44.6476" lon="3.80317">
        <ele>1127.76</ele>
        <time>2013-06-01T12:52:54Z</time>
      </trkpt>
      <trkpt lat="44.64762" lon="3.80314">
        <ele>1128.24</ele>
        <time>2013-06-01T12:53:36Z</time>
      </trkpt>
      <trkpt lat="44.64762" lon="3.80313">
        <ele>1128.24</ele>
        <time>2013-06-01T12:53:37Z</time>
      </trkpt>
      <trkpt lat="44.64764" lon="3.8031">
        <ele>1127.76</ele>
        <time>2013-06-01T12:54:14Z</time>
      </trkpt>
      <trkpt lat="44.64761" lon="3.80311">
        <ele>1126.8</ele>
        <time>2013-06-01T12:54:52Z</time>
      </trkpt>
      <trkpt lat="44.64759" lon="3.80315">
        <ele>1126.8</ele>
        <time>2013-06-01T12:55:30Z</time>
      </trkpt>
      <trkpt lat="44.6476" lon="3.80318">
        <ele>1126.32</ele>
        <time>2013-06-01T12:56:08Z</time>
      </trkpt>
      <trkpt lat="44.64763" lon="3.80314">
        <ele>1126.32</ele>
        <time>2013-06-01T12:56:41Z</time>
      </trkpt>
      <trkpt lat="44.64763" lon="3.80314">
        <ele>1126.32</ele>
        <time>2013-06-01T12:56:42Z</time>
      </trkpt>
      <trkpt lat="44.64762" lon="3.80314">
        <ele>1125.36</ele>
        <time>2013-06-01T12:57:09Z</time>
      </trkpt>
      <trkpt lat="44.64761" lon="3.80316">
        <ele>1124.88</ele>
        <time>2013-06-01T12:57:40Z</time>
      </trkpt>
      <trkpt lat="44.64763" lon="3.80309">
        <ele>1126.32</ele>
        <time>2013-06-01T12:58:15Z</time>
      </trkpt>
      <trkpt lat="44.64763" lon="3.80308">
        <ele>1125.84</ele>
        <time>2013-06-01T12:58:31Z</time>
      </trkpt>
      <trkpt lat="44.64762" lon="3.80308">
        <ele>1126.32</ele>
        <time>2013-06-01T12:58:41Z</time>
      </trkpt>
      <trkpt lat="44.64763" lon="3.8031">
        <ele>1126.32</ele>
        <time>2013-06-01T12:59:06Z</time>
      </trkpt>
      <trkpt lat="44.64762" lon="3.8031">
        <ele>1124.88</ele>
        <time>2013-06-01T12:59:10Z</time>
      </trkpt>
      <trkpt lat="44.64759" lon="3.80315">
        <ele>1125.84</ele>
        <time>2013-06-01T12:59:33Z</time>
      </trkpt>
      <trkpt lat="44.64759" lon="3.80314">
        <ele>1125.84</ele>
        <time>2013-06-01T13:00:06Z</time>
      </trkpt>
      <trkpt lat="44.64759" lon="3.80315">
        <ele>1125.84</ele>
        <time>2013-06-01T13:00:36Z</time>
      </trkpt>
      <trkpt lat="44.64758" lon="3.80312">
        <ele>1125.84</ele>
        <time>2013-06-01T13:01:12Z</time>
      </trkpt>
      <trkpt lat="44.64759" lon="3.8031">
        <ele>1124.88</ele>
        <time>2013-06-01T13:01:26Z</time>
      </trkpt>
      <trkpt lat="44.64762" lon="3.80316">
        <ele>1124.4</ele>
        <time>2013-06-01T13:02:06Z</time>
      </trkpt>
      <trkpt lat="44.64761" lon="3.80313">
        <ele>1125.36</ele>
        <time>2013-06-01T13:02:32Z</time>
      </trkpt>
      <trkpt lat="44.64758" lon="3.80313">
        <ele>1123.92</ele>
        <time>2013-06-01T13:03:09Z</time>
      </trkpt>
      <trkpt lat="44.64759" lon="3.80316">
        <ele>1123.92</ele>
        <time>2013-06-01T13:03:29Z</time>
      </trkpt>
      <trkpt lat="44.64758" lon="3.80313">
        <ele>1123.92</ele>
        <time>2013-06-01T13:03:40Z</time>
      </trkpt>
      <trkpt lat="44.64742" lon="3.80324">
        <ele>1123.44</ele>
        <time>2013-06-01T13:03:58Z</time>
      </trkpt>
      <trkpt lat="44.64734" lon="3.80326">
        <ele>1124.4</ele>
        <time>2013-06-01T13:04:06Z</time>
      </trkpt>
      <trkpt lat="44.64731" lon="3.80326">
        <ele>1124.88</ele>
        <time>2013-06-01T13:04:09Z</time>
      </trkpt>
      <trkpt lat="44.64729" lon="3.80325">
        <ele>1124.88</ele>
        <time>2013-06-01T13:04:11Z</time>
      </trkpt>
      <trkpt lat="44.64707" lon="3.80325">
        <ele>1124.88</ele>
        <time>2013-06-01T13:04:26Z</time>
      </trkpt>
      <trkpt lat="44.64684" lon="3.80334">
        <ele>1123.92</ele>
        <time>2013-06-01T13:04:44Z</time>
      </trkpt>
      <trkpt lat="44.64664" lon="3.80333">
        <ele>1122.48</ele>
        <time>2013-06-01T13:04:59Z</time>
      </trkpt>
      <trkpt lat="44.6466" lon="3.80331">
        <ele>1125.36</ele>
        <time>2013-06-01T13:05:03Z</time>
      </trkpt>
      <trkpt lat="44.6464" lon="3.80319">
        <ele>1126.8</ele>
        <time>2013-06-01T13:05:20Z</time>
      </trkpt>
      <trkpt lat="44.64615" lon="3.8033">
        <ele>1126.32</ele>
        <time>2013-06-01T13:05:36Z</time>
      </trkpt>
      <trkpt lat="44.64601" lon="3.80348">
        <ele>1126.8</ele>
        <time>2013-06-01T13:05:49Z</time>
      </trkpt>
      <trkpt lat="44.64598" lon="3.80352">
        <ele>1125.36</ele>
        <time>2013-06-01T13:05:52Z</time>
      </trkpt>
      <trkpt lat="44.64583" lon="3.80371">
        <ele>1125.36</ele>
        <time>2013-06-01T13:06:08Z</time>
      </trkpt>
      <trkpt lat="44.64578" lon="3.80399">
        <ele>1127.76</ele>
        <time>2013-06-01T13:06:23Z</time>
      </trkpt>
      <trkpt lat="44.64581" lon="3.80427">
        <ele>1129.21</ele>
        <time>2013-06-01T13:06:39Z</time>
      </trkpt>
      <trkpt lat="44.64579" lon="3.80437">
        <ele>1129.21</ele>
        <time>2013-06-01T13:06:44Z</time>
      </trkpt>
      <trkpt lat="44.64573" lon="3.80448">
        <ele>1130.17</ele>
        <time>2013-06-01T13:06:52Z</time>
      </trkpt>
      <trkpt lat="44.64567" lon="3.80455">
        <ele>1129.69</ele>
        <time>2013-06-01T13:06:58Z</time>
      </trkpt>
      <trkpt lat="44.64566" lon="3.80458">
        <ele>1131.13</ele>
        <time>2013-06-01T13:07:00Z</time>
      </trkpt>
      <trkpt lat="44.64562" lon="3.80464">
        <ele>1129.69</ele>
        <time>2013-06-01T13:07:05Z</time>
      </trkpt>
      <trkpt lat="44.64556" lon="3.80474">
        <ele>1131.13</ele>
        <time>2013-06-01T13:07:12Z</time>
      </trkpt>
      <trkpt lat="44.6454" lon="3.80498">
        <ele>1132.09</ele>
        <time>2013-06-01T13:07:29Z</time>
      </trkpt>
      <trkpt lat="44.64524" lon="3.80521">
        <ele>1134.49</ele>
        <time>2013-06-01T13:07:46Z</time>
      </trkpt>
      <trkpt lat="44.64512" lon="3.80543">
        <ele>1134.49</ele>
        <time>2013-06-01T13:08:01Z</time>
      </trkpt>
      <trkpt lat="44.64505" lon="3.80573">
        <ele>1137.86</ele>
        <time>2013-06-01T13:08:19Z</time>
      </trkpt>
      <trkpt lat="44.64505" lon="3.80575">
        <ele>1137.86</ele>
        <time>2013-06-01T13:08:20Z</time>
      </trkpt>
      <trkpt lat="44.64506" lon="3.80597">
        <ele>1138.34</ele>
        <time>2013-06-01T13:08:32Z</time>
      </trkpt>
      <trkpt lat="44.64494" lon="3.80624">
        <ele>1139.3</ele>
        <time>2013-06-01T13:08:49Z</time>
      </trkpt>
      <trkpt lat="44.6449" lon="3.80653">
        <ele>1141.7</ele>
        <time>2013-06-01T13:09:06Z</time>
      </trkpt>
      <trkpt lat="44.64489" lon="3.8068">
        <ele>1144.11</ele>
        <time>2013-06-01T13:09:21Z</time>
      </trkpt>
      <trkpt lat="44.64489" lon="3.80681">
        <ele>1144.11</ele>
        <time>2013-06-01T13:09:22Z</time>
      </trkpt>
      <trkpt lat="44.6449" lon="3.80711">
        <ele>1146.03</ele>
        <time>2013-06-01T13:09:39Z</time>
      </trkpt>
      <trkpt lat="44.6449" lon="3.80739">
        <ele>1147.95</ele>
        <time>2013-06-01T13:09:55Z</time>
      </trkpt>
      <trkpt lat="44.64476" lon="3.80761">
        <ele>1149.39</ele>
        <time>2013-06-01T13:10:12Z</time>
      </trkpt>
      <trkpt lat="44.64458" lon="3.80778">
        <ele>1150.35</ele>
        <time>2013-06-01T13:10:29Z</time>
      </trkpt>
      <trkpt lat="44.64447" lon="3.80807">
        <ele>1151.32</ele>
        <time>2013-06-01T13:10:46Z</time>
      </trkpt>
      <trkpt lat="44.64435" lon="3.80843">
        <ele>1152.28</ele>
        <time>2013-06-01T13:11:07Z</time>
      </trkpt>
      <trkpt lat="44.64422" lon="3.80875">
        <ele>1154.2</ele>
        <time>2013-06-01T13:11:27Z</time>
      </trkpt>
      <trkpt lat="44.64405" lon="3.80896">
        <ele>1157.08</ele>
        <time>2013-06-01T13:11:44Z</time>
      </trkpt>
      <trkpt lat="44.64389" lon="3.80914">
        <ele>1158.05</ele>
        <time>2013-06-01T13:12:00Z</time>
      </trkpt>
      <trkpt lat="44.64372" lon="3.80929">
        <ele>1158.05</ele>
        <time>2013-06-01T13:12:15Z</time>
      </trkpt>
      <trkpt lat="44.64362" lon="3.80935">
        <ele>1158.05</ele>
        <time>2013-06-01T13:12:23Z</time>
      </trkpt>
      <trkpt lat="44.64358" lon="3.80938">
        <ele>1157.08</ele>
        <time>2013-06-01T13:12:27Z</time>
      </trkpt>
      <trkpt lat="44.64349" lon="3.80945">
        <ele>1158.53</ele>
        <time>2013-06-01T13:12:35Z</time>
      </trkpt>
      <trkpt lat="44.64348" lon="3.80946">
        <ele>1158.53</ele>
        <time>2013-06-01T13:12:36Z</time>
      </trkpt>
      <trkpt lat="44.64333" lon="3.80955">
        <ele>1158.53</ele>
        <time>2013-06-01T13:12:50Z</time>
      </trkpt>
      <trkpt lat="44.64312" lon="3.80961">
        <ele>1156.12</ele>
        <time>2013-06-01T13:13:05Z</time>
      </trkpt>
      <trkpt lat="44.64287" lon="3.80964">
        <ele>1155.64</ele>
        <time>2013-06-01T13:13:23Z</time>
      </trkpt>
      <trkpt lat="44.64272" lon="3.80965">
        <ele>1155.64</ele>
        <time>2013-06-01T13:13:34Z</time>
      </trkpt>
      <trkpt lat="44.64267" lon="3.80966">
        <ele>1155.64</ele>
        <time>2013-06-01T13:13:38Z</time>
      </trkpt>
      <trkpt lat="44.64264" lon="3.80968">
        <ele>1157.08</ele>
        <time>2013-06-01T13:13:41Z</time>
      </trkpt>
      <trkpt lat="44.64257" lon="3.80972">
        <ele>1158.53</ele>
        <time>2013-06-01T13:13:48Z</time>
      </trkpt>
      <trkpt lat="44.64253" lon="3.80974">
        <ele>1159.01</ele>
        <time>2013-06-01T13:13:51Z</time>
      </trkpt>
      <trkpt lat="44.64243" lon="3.80978">
        <ele>1160.45</ele>
        <time>2013-06-01T13:14:02Z</time>
      </trkpt>
      <trkpt lat="44.6424" lon="3.80982">
        <ele>1160.93</ele>
        <time>2013-06-01T13:14:05Z</time>
      </trkpt>
      <trkpt lat="44.64222" lon="3.80989">
        <ele>1162.85</ele>
        <time>2013-06-01T13:14:18Z</time>
      </trkpt>
      <trkpt lat="44.64204" lon="3.80997">
        <ele>1164.29</ele>
        <time>2013-06-01T13:14:31Z</time>
      </trkpt>
      <trkpt lat="44.64188" lon="3.81004">
        <ele>1165.74</ele>
        <time>2013-06-01T13:14:45Z</time>
      </trkpt>
      <trkpt lat="44.64173" lon="3.81008">
        <ele>1168.62</ele>
        <time>2013-06-01T13:14:57Z</time>
      </trkpt>
      <trkpt lat="44.64171" lon="3.81008">
        <ele>1168.62</ele>
        <time>2013-06-01T13:14:59Z</time>
      </trkpt>
      <trkpt lat="44.64162" lon="3.81007">
        <ele>1169.1</ele>
        <time>2013-06-01T13:15:06Z</time>
      </trkpt>
      <trkpt lat="44.6414" lon="3.81015">
        <ele>1170.54</ele>
        <time>2013-06-01T13:15:22Z</time>
      </trkpt>
      <trkpt lat="44.6412" lon="3.81019">
        <ele>1171.02</ele>
        <time>2013-06-01T13:15:38Z</time>
      </trkpt>
      <trkpt lat="44.64099" lon="3.81023">
        <ele>1173.43</ele>
        <time>2013-06-01T13:15:54Z</time>
      </trkpt>
      <trkpt lat="44.64083" lon="3.8103">
        <ele>1175.35</ele>
        <time>2013-06-01T13:16:09Z</time>
      </trkpt>
      <trkpt lat="44.64073" lon="3.8104">
        <ele>1177.75</ele>
        <time>2013-06-01T13:16:22Z</time>
      </trkpt>
      <trkpt lat="44.64058" lon="3.81049">
        <ele>1179.19</ele>
        <time>2013-06-01T13:16:33Z</time>
      </trkpt>
      <trkpt lat="44.64057" lon="3.8105">
        <ele>1179.67</ele>
        <time>2013-06-01T13:16:34Z</time>
      </trkpt>
      <trkpt lat="44.64052" lon="3.81054">
        <ele>1179.67</ele>
        <time>2013-06-01T13:16:37Z</time>
      </trkpt>
      <trkpt lat="44.64034" lon="3.81059">
        <ele>1181.12</ele>
        <time>2013-06-01T13:16:50Z</time>
      </trkpt>
      <trkpt lat="44.64019" lon="3.81064">
        <ele>1182.08</ele>
        <time>2013-06-01T13:17:00Z</time>
      </trkpt>
      <trkpt lat="44.64001" lon="3.81069">
        <ele>1184</ele>
        <time>2013-06-01T13:17:14Z</time>
      </trkpt>
      <trkpt lat="44.63981" lon="3.81071">
        <ele>1185.44</ele>
        <time>2013-06-01T13:17:29Z</time>
      </trkpt>
      <trkpt lat="44.63961" lon="3.81073">
        <ele>1187.37</ele>
        <time>2013-06-01T13:17:45Z</time>
      </trkpt>
      <trkpt lat="44.63948" lon="3.81071">
        <ele>1189.29</ele>
        <time>2013-06-01T13:17:56Z</time>
      </trkpt>
      <trkpt lat="44.63926" lon="3.81064">
        <ele>1191.21</ele>
        <time>2013-06-01T13:18:12Z</time>
      </trkpt>
      <trkpt lat="44.63919" lon="3.81065">
        <ele>1192.17</ele>
        <time>2013-06-01T13:18:17Z</time>
      </trkpt>
      <trkpt lat="44.63896" lon="3.81067">
        <ele>1194.58</ele>
        <time>2013-06-01T13:18:35Z</time>
      </trkpt>
      <trkpt lat="44.63878" lon="3.8107">
        <ele>1196.5</ele>
        <time>2013-06-01T13:18:50Z</time>
      </trkpt>
      <trkpt lat="44.63854" lon="3.81078">
        <ele>1198.42</ele>
        <time>2013-06-01T13:19:08Z</time>
      </trkpt>
      <trkpt lat="44.63837" lon="3.81088">
        <ele>1200.82</ele>
        <time>2013-06-01T13:19:22Z</time>
      </trkpt>
      <trkpt lat="44.63822" lon="3.81113">
        <ele>1201.3</ele>
        <time>2013-06-01T13:19:38Z</time>
      </trkpt>
      <trkpt lat="44.63809" lon="3.81133">
        <ele>1202.75</ele>
        <time>2013-06-01T13:19:53Z</time>
      </trkpt>
      <trkpt lat="44.63796" lon="3.81146">
        <ele>1204.67</ele>
        <time>2013-06-01T13:20:06Z</time>
      </trkpt>
      <trkpt lat="44.63788" lon="3.81166">
        <ele>1206.11</ele>
        <time>2013-06-01T13:20:19Z</time>
      </trkpt>
      <trkpt lat="44.63782" lon="3.81189">
        <ele>1209.48</ele>
        <time>2013-06-01T13:20:33Z</time>
      </trkpt>
      <trkpt lat="44.6378" lon="3.81198">
        <ele>1209.96</ele>
        <time>2013-06-01T13:20:38Z</time>
      </trkpt>
      <trkpt lat="44.63776" lon="3.81217">
        <ele>1211.4</ele>
        <time>2013-06-01T13:20:49Z</time>
      </trkpt>
      <trkpt lat="44.63775" lon="3.81226">
        <ele>1211.88</ele>
        <time>2013-06-01T13:20:54Z</time>
      </trkpt>
      <trkpt lat="44.63772" lon="3.81239">
        <ele>1213.32</ele>
        <time>2013-06-01T13:21:02Z</time>
      </trkpt>
      <trkpt lat="44.63771" lon="3.81249">
        <ele>1214.28</ele>
        <time>2013-06-01T13:21:07Z</time>
      </trkpt>
      <trkpt lat="44.6377" lon="3.81255">
        <ele>1214.76</ele>
        <time>2013-06-01T13:21:11Z</time>
      </trkpt>
      <trkpt lat="44.63762" lon="3.81275">
        <ele>1215.72</ele>
        <time>2013-06-01T13:21:27Z</time>
      </trkpt>
      <trkpt lat="44.63751" lon="3.81282">
        <ele>1217.17</ele>
        <time>2013-06-01T13:21:33Z</time>
      </trkpt>
      <trkpt lat="44.63746" lon="3.8129">
        <ele>1218.13</ele>
        <time>2013-06-01T13:21:39Z</time>
      </trkpt>
      <trkpt lat="44.63732" lon="3.81303">
        <ele>1220.53</ele>
        <time>2013-06-01T13:21:54Z</time>
      </trkpt>
      <trkpt lat="44.63722" lon="3.81313">
        <ele>1222.45</ele>
        <time>2013-06-01T13:22:07Z</time>
      </trkpt>
      <trkpt lat="44.63716" lon="3.81319">
        <ele>1222.93</ele>
        <time>2013-06-01T13:22:12Z</time>
      </trkpt>
      <trkpt lat="44.63706" lon="3.81333">
        <ele>1226.3</ele>
        <time>2013-06-01T13:22:24Z</time>
      </trkpt>
      <trkpt lat="44.63703" lon="3.81337">
        <ele>1226.3</ele>
        <time>2013-06-01T13:22:27Z</time>
      </trkpt>
      <trkpt lat="44.63693" lon="3.81359">
        <ele>1228.22</ele>
        <time>2013-06-01T13:22:42Z</time>
      </trkpt>
      <trkpt lat="44.63683" lon="3.81384">
        <ele>1231.11</ele>
        <time>2013-06-01T13:22:56Z</time>
      </trkpt>
      <trkpt lat="44.63676" lon="3.81406">
        <ele>1233.03</ele>
        <time>2013-06-01T13:23:10Z</time>
      </trkpt>
      <trkpt lat="44.63672" lon="3.81422">
        <ele>1233.99</ele>
        <time>2013-06-01T13:23:19Z</time>
      </trkpt>
      <trkpt lat="44.63666" lon="3.81444">
        <ele>1235.91</ele>
        <time>2013-06-01T13:23:32Z</time>
      </trkpt>
      <trkpt lat="44.63664" lon="3.81458">
        <ele>1239.28</ele>
        <time>2013-06-01T13:23:41Z</time>
      </trkpt>
      <trkpt lat="44.63656" lon="3.81475">
        <ele>1239.76</ele>
        <time>2013-06-01T13:23:53Z</time>
      </trkpt>
      <trkpt lat="44.63652" lon="3.8149">
        <ele>1241.2</ele>
        <time>2013-06-01T13:24:01Z</time>
      </trkpt>
      <trkpt lat="44.63654" lon="3.81503">
        <ele>1242.16</ele>
        <time>2013-06-01T13:24:07Z</time>
      </trkpt>
      <trkpt lat="44.63653" lon="3.81526">
        <ele>1244.08</ele>
        <time>2013-06-01T13:24:20Z</time>
      </trkpt>
      <trkpt lat="44.63661" lon="3.81549">
        <ele>1245.53</ele>
        <time>2013-06-01T13:24:33Z</time>
      </trkpt>
      <trkpt lat="44.63669" lon="3.81563">
        <ele>1246.97</ele>
        <time>2013-06-01T13:24:44Z</time>
      </trkpt>
      <trkpt lat="44.63671" lon="3.81564">
        <ele>1246.97</ele>
        <time>2013-06-01T13:24:46Z</time>
      </trkpt>
      <trkpt lat="44.63694" lon="3.81569">
        <ele>1247.93</ele>
        <time>2013-06-01T13:25:02Z</time>
      </trkpt>
      <trkpt lat="44.63699" lon="3.81566">
        <ele>1246.01</ele>
        <time>2013-06-01T13:25:06Z</time>
      </trkpt>
      <trkpt lat="44.63717" lon="3.81554">
        <ele>1245.04</ele>
        <time>2013-06-01T13:25:19Z</time>
      </trkpt>
      <trkpt lat="44.63735" lon="3.81547">
        <ele>1243.6</ele>
        <time>2013-06-01T13:25:32Z</time>
      </trkpt>
      <trkpt lat="44.6374" lon="3.81546">
        <ele>1243.6</ele>
        <time>2013-06-01T13:25:37Z</time>
      </trkpt>
      <trkpt lat="44.63745" lon="3.81545">
        <ele>1243.6</ele>
        <time>2013-06-01T13:25:40Z</time>
      </trkpt>
      <trkpt lat="44.6375" lon="3.81545">
        <ele>1243.6</ele>
        <time>2013-06-01T13:25:44Z</time>
      </trkpt>
      <trkpt lat="44.63759" lon="3.81546">
        <ele>1242.64</ele>
        <time>2013-06-01T13:25:50Z</time>
      </trkpt>
      <trkpt lat="44.63762" lon="3.81547">
        <ele>1243.12</ele>
        <time>2013-06-01T13:25:53Z</time>
      </trkpt>
      <trkpt lat="44.63773" lon="3.81544">
        <ele>1240.72</ele>
        <time>2013-06-01T13:26:02Z</time>
      </trkpt>
      <trkpt lat="44.63786" lon="3.81544">
        <ele>1240.72</ele>
        <time>2013-06-01T13:26:14Z</time>
      </trkpt>
      <trkpt lat="44.63803" lon="3.81548">
        <ele>1239.76</ele>
        <time>2013-06-01T13:26:25Z</time>
      </trkpt>
      <trkpt lat="44.63816" lon="3.81555">
        <ele>1237.83</ele>
        <time>2013-06-01T13:26:38Z</time>
      </trkpt>
      <trkpt lat="44.63829" lon="3.81567">
        <ele>1237.83</ele>
        <time>2013-06-01T13:26:47Z</time>
      </trkpt>
      <trkpt lat="44.63836" lon="3.81577">
        <ele>1237.35</ele>
        <time>2013-06-01T13:26:53Z</time>
      </trkpt>
      <trkpt lat="44.63857" lon="3.81603">
        <ele>1235.91</ele>
        <time>2013-06-01T13:27:10Z</time>
      </trkpt>
      <trkpt lat="44.63874" lon="3.81627">
        <ele>1233.51</ele>
        <time>2013-06-01T13:27:26Z</time>
      </trkpt>
      <trkpt lat="44.63881" lon="3.81631">
        <ele>1234.95</ele>
        <time>2013-06-01T13:27:31Z</time>
      </trkpt>
      <trkpt lat="44.63885" lon="3.81635">
        <ele>1232.55</ele>
        <time>2013-06-01T13:27:35Z</time>
      </trkpt>
      <trkpt lat="44.6389" lon="3.8164">
        <ele>1234.47</ele>
        <time>2013-06-01T13:27:39Z</time>
      </trkpt>
      <trkpt lat="44.63909" lon="3.8166">
        <ele>1232.55</ele>
        <time>2013-06-01T13:27:56Z</time>
      </trkpt>
      <trkpt lat="44.63924" lon="3.81682">
        <ele>1230.62</ele>
        <time>2013-06-01T13:28:11Z</time>
      </trkpt>
      <trkpt lat="44.63939" lon="3.81701">
        <ele>1229.18</ele>
        <time>2013-06-01T13:28:27Z</time>
      </trkpt>
      <trkpt lat="44.63957" lon="3.81722">
        <ele>1227.26</ele>
        <time>2013-06-01T13:28:44Z</time>
      </trkpt>
      <trkpt lat="44.63979" lon="3.81751">
        <ele>1225.82</ele>
        <time>2013-06-01T13:29:05Z</time>
      </trkpt>
      <trkpt lat="44.64001" lon="3.81778">
        <ele>1223.42</ele>
        <time>2013-06-01T13:29:26Z</time>
      </trkpt>
      <trkpt lat="44.64019" lon="3.81801">
        <ele>1222.45</ele>
        <time>2013-06-01T13:29:44Z</time>
      </trkpt>
      <trkpt lat="44.64033" lon="3.81821">
        <ele>1221.01</ele>
        <time>2013-06-01T13:30:00Z</time>
      </trkpt>
      <trkpt lat="44.64037" lon="3.81828">
        <ele>1220.05</ele>
        <time>2013-06-01T13:30:04Z</time>
      </trkpt>
      <trkpt lat="44.6405" lon="3.8186">
        <ele>1217.65</ele>
        <time>2013-06-01T13:30:24Z</time>
      </trkpt>
      <trkpt lat="44.64048" lon="3.81889">
        <ele>1215.24</ele>
        <time>2013-06-01T13:30:41Z</time>
      </trkpt>
      <trkpt lat="44.64043" lon="3.81891">
        <ele>1215.24</ele>
        <time>2013-06-01T13:30:46Z</time>
      </trkpt>
      <trkpt lat="44.64033" lon="3.81888">
        <ele>1213.8</ele>
        <time>2013-06-01T13:30:54Z</time>
      </trkpt>
      <trkpt lat="44.6403" lon="3.81886">
        <ele>1212.84</ele>
        <time>2013-06-01T13:30:58Z</time>
      </trkpt>
      <trkpt lat="44.64011" lon="3.81882">
        <ele>1213.8</ele>
        <time>2013-06-01T13:31:15Z</time>
      </trkpt>
      <trkpt lat="44.63993" lon="3.81882">
        <ele>1211.88</ele>
        <time>2013-06-01T13:31:28Z</time>
      </trkpt>
      <trkpt lat="44.63972" lon="3.81881">
        <ele>1211.4</ele>
        <time>2013-06-01T13:31:42Z</time>
      </trkpt>
      <trkpt lat="44.63955" lon="3.81882">
        <ele>1210.44</ele>
        <time>2013-06-01T13:31:56Z</time>
      </trkpt>
      <trkpt lat="44.63943" lon="3.81871">
        <ele>1209</ele>
        <time>2013-06-01T13:32:09Z</time>
      </trkpt>
      <trkpt lat="44.63935" lon="3.81855">
        <ele>1207.07</ele>
        <time>2013-06-01T13:32:20Z</time>
      </trkpt>
      <trkpt lat="44.63917" lon="3.81853">
        <ele>1205.63</ele>
        <time>2013-06-01T13:32:32Z</time>
      </trkpt>
      <trkpt lat="44.63909" lon="3.81866">
        <ele>1203.23</ele>
        <time>2013-06-01T13:32:47Z</time>
      </trkpt>
      <trkpt lat="44.63902" lon="3.81885">
        <ele>1200.82</ele>
        <time>2013-06-01T13:33:01Z</time>
      </trkpt>
      <trkpt lat="44.63894" lon="3.81904">
        <ele>1198.42</ele>
        <time>2013-06-01T13:33:17Z</time>
      </trkpt>
      <trkpt lat="44.63893" lon="3.8191">
        <ele>1198.42</ele>
        <time>2013-06-01T13:33:20Z</time>
      </trkpt>
      <trkpt lat="44.63886" lon="3.81941">
        <ele>1196.02</ele>
        <time>2013-06-01T13:33:38Z</time>
      </trkpt>
      <trkpt lat="44.6388" lon="3.81957">
        <ele>1194.09</ele>
        <time>2013-06-01T13:33:49Z</time>
      </trkpt>
      <trkpt lat="44.63879" lon="3.81962">
        <ele>1194.09</ele>
        <time>2013-06-01T13:33:52Z</time>
      </trkpt>
      <trkpt lat="44.63879" lon="3.81964">
        <ele>1194.09</ele>
        <time>2013-06-01T13:33:54Z</time>
      </trkpt>
      <trkpt lat="44.63871" lon="3.81978">
        <ele>1191.69</ele>
        <time>2013-06-01T13:34:03Z</time>
      </trkpt>
      <trkpt lat="44.63859" lon="3.81995">
        <ele>1189.77</ele>
        <time>2013-06-01T13:34:15Z</time>
      </trkpt>
      <trkpt lat="44.63849" lon="3.82013">
        <ele>1188.81</ele>
        <time>2013-06-01T13:34:28Z</time>
      </trkpt>
      <trkpt lat="44.63848" lon="3.82021">
        <ele>1188.33</ele>
        <time>2013-06-01T13:34:32Z</time>
      </trkpt>
      <trkpt lat="44.63846" lon="3.82024">
        <ele>1188.33</ele>
        <time>2013-06-01T13:34:34Z</time>
      </trkpt>
      <trkpt lat="44.63829" lon="3.82047">
        <ele>1186.4</ele>
        <time>2013-06-01T13:34:48Z</time>
      </trkpt>
      <trkpt lat="44.63822" lon="3.82059">
        <ele>1184.48</ele>
        <time>2013-06-01T13:34:55Z</time>
      </trkpt>
      <trkpt lat="44.6381" lon="3.82083">
        <ele>1183.52</ele>
        <time>2013-06-01T13:35:10Z</time>
      </trkpt>
      <trkpt lat="44.63794" lon="3.82103">
        <ele>1182.08</ele>
        <time>2013-06-01T13:35:24Z</time>
      </trkpt>
      <trkpt lat="44.6378" lon="3.82121">
        <ele>1180.64</ele>
        <time>2013-06-01T13:35:34Z</time>
      </trkpt>
      <trkpt lat="44.63769" lon="3.8214">
        <ele>1178.23</ele>
        <time>2013-06-01T13:35:49Z</time>
      </trkpt>
      <trkpt lat="44.63766" lon="3.82146">
        <ele>1177.75</ele>
        <time>2013-06-01T13:35:53Z</time>
      </trkpt>
      <trkpt lat="44.63754" lon="3.82176">
        <ele>1173.91</ele>
        <time>2013-06-01T13:36:10Z</time>
      </trkpt>
      <trkpt lat="44.63747" lon="3.82198">
        <ele>1172.47</ele>
        <time>2013-06-01T13:36:26Z</time>
      </trkpt>
      <trkpt lat="44.63747" lon="3.82208">
        <ele>1171.02</ele>
        <time>2013-06-01T13:36:30Z</time>
      </trkpt>
      <trkpt lat="44.63744" lon="3.82211">
        <ele>1170.06</ele>
        <time>2013-06-01T13:36:33Z</time>
      </trkpt>
      <trkpt lat="44.63742" lon="3.82215">
        <ele>1170.06</ele>
        <time>2013-06-01T13:36:40Z</time>
      </trkpt>
      <trkpt lat="44.63744" lon="3.82233">
        <ele>1168.62</ele>
        <time>2013-06-01T13:36:53Z</time>
      </trkpt>
      <trkpt lat="44.63753" lon="3.82238">
        <ele>1167.18</ele>
        <time>2013-06-01T13:37:04Z</time>
      </trkpt>
      <trkpt lat="44.63769" lon="3.82243">
        <ele>1165.26</ele>
        <time>2013-06-01T13:37:17Z</time>
      </trkpt>
      <trkpt lat="44.63781" lon="3.82242">
        <ele>1164.77</ele>
        <time>2013-06-01T13:37:27Z</time>
      </trkpt>
      <trkpt lat="44.63801" lon="3.82235">
        <ele>1163.81</ele>
        <time>2013-06-01T13:37:44Z</time>
      </trkpt>
      <trkpt lat="44.63814" lon="3.8222">
        <ele>1161.41</ele>
        <time>2013-06-01T13:37:57Z</time>
      </trkpt>
      <trkpt lat="44.63826" lon="3.82195">
        <ele>1159.97</ele>
        <time>2013-06-01T13:38:16Z</time>
      </trkpt>
      <trkpt lat="44.63831" lon="3.82168">
        <ele>1159.97</ele>
        <time>2013-06-01T13:38:31Z</time>
      </trkpt>
      <trkpt lat="44.63841" lon="3.82144">
        <ele>1159.97</ele>
        <time>2013-06-01T13:38:45Z</time>
      </trkpt>
      <trkpt lat="44.63858" lon="3.82134">
        <ele>1159.97</ele>
        <time>2013-06-01T13:39:00Z</time>
      </trkpt>
      <trkpt lat="44.63867" lon="3.82139">
        <ele>1159.97</ele>
        <time>2013-06-01T13:39:10Z</time>
      </trkpt>
      <trkpt lat="44.63874" lon="3.82144">
        <ele>1161.41</ele>
        <time>2013-06-01T13:39:16Z</time>
      </trkpt>
      <trkpt lat="44.63885" lon="3.82161">
        <ele>1162.37</ele>
        <time>2013-06-01T13:39:31Z</time>
      </trkpt>
      <trkpt lat="44.63898" lon="3.82184">
        <ele>1163.33</ele>
        <time>2013-06-01T13:39:47Z</time>
      </trkpt>
      <trkpt lat="44.63914" lon="3.82206">
        <ele>1163.81</ele>
        <time>2013-06-01T13:40:02Z</time>
      </trkpt>
      <trkpt lat="44.63927" lon="3.82223">
        <ele>1164.77</ele>
        <time>2013-06-01T13:40:16Z</time>
      </trkpt>
      <trkpt lat="44.63943" lon="3.82247">
        <ele>1165.26</ele>
        <time>2013-06-01T13:40:33Z</time>
      </trkpt>
      <trkpt lat="44.63946" lon="3.82255">
        <ele>1165.26</ele>
        <time>2013-06-01T13:40:37Z</time>
      </trkpt>
      <trkpt lat="44.63951" lon="3.82268">
        <ele>1165.26</ele>
        <time>2013-06-01T13:40:45Z</time>
      </trkpt>
      <trkpt lat="44.63951" lon="3.82272">
        <ele>1163.81</ele>
        <time>2013-06-01T13:40:47Z</time>
      </trkpt>
      <trkpt lat="44.63957" lon="3.82301">
        <ele>1162.37</ele>
        <time>2013-06-01T13:41:04Z</time>
      </trkpt>
      <trkpt lat="44.63957" lon="3.8232">
        <ele>1161.89</ele>
        <time>2013-06-01T13:41:15Z</time>
      </trkpt>
      <trkpt lat="44.63961" lon="3.82344">
        <ele>1159.97</ele>
        <time>2013-06-01T13:41:29Z</time>
      </trkpt>
      <trkpt lat="44.63964" lon="3.82368">
        <ele>1158.53</ele>
        <time>2013-06-01T13:41:41Z</time>
      </trkpt>
      <trkpt lat="44.63965" lon="3.82376">
        <ele>1158.53</ele>
        <time>2013-06-01T13:41:45Z</time>
      </trkpt>
      <trkpt lat="44.63965" lon="3.82396">
        <ele>1157.56</ele>
        <time>2013-06-01T13:41:55Z</time>
      </trkpt>
      <trkpt lat="44.63969" lon="3.82421">
        <ele>1155.64</ele>
        <time>2013-06-01T13:42:10Z</time>
      </trkpt>
      <trkpt lat="44.63969" lon="3.82431">
        <ele>1154.68</ele>
        <time>2013-06-01T13:42:16Z</time>
      </trkpt>
      <trkpt lat="44.63974" lon="3.82463">
        <ele>1154.2</ele>
        <time>2013-06-01T13:42:31Z</time>
      </trkpt>
      <trkpt lat="44.63976" lon="3.82487">
        <ele>1152.28</ele>
        <time>2013-06-01T13:42:42Z</time>
      </trkpt>
      <trkpt lat="44.63984" lon="3.82521">
        <ele>1150.84</ele>
        <time>2013-06-01T13:42:58Z</time>
      </trkpt>
      <trkpt lat="44.63993" lon="3.82548">
        <ele>1149.87</ele>
        <time>2013-06-01T13:43:14Z</time>
      </trkpt>
      <trkpt lat="44.63996" lon="3.82568">
        <ele>1148.43</ele>
        <time>2013-06-01T13:43:26Z</time>
      </trkpt>
      <trkpt lat="44.63999" lon="3.82576">
        <ele>1147.47</ele>
        <time>2013-06-01T13:43:31Z</time>
      </trkpt>
      <trkpt lat="44.64001" lon="3.82611">
        <ele>1146.99</ele>
        <time>2013-06-01T13:43:49Z</time>
      </trkpt>
      <trkpt lat="44.63999" lon="3.82623">
        <ele>1146.99</ele>
        <time>2013-06-01T13:43:54Z</time>
      </trkpt>
      <trkpt lat="44.63999" lon="3.8263">
        <ele>1146.51</ele>
        <time>2013-06-01T13:43:57Z</time>
      </trkpt>
      <trkpt lat="44.64" lon="3.82639">
        <ele>1146.51</ele>
        <time>2013-06-01T13:44:01Z</time>
      </trkpt>
      <trkpt lat="44.64001" lon="3.82659">
        <ele>1146.03</ele>
        <time>2013-06-01T13:44:10Z</time>
      </trkpt>
      <trkpt lat="44.64002" lon="3.82664">
        <ele>1146.03</ele>
        <time>2013-06-01T13:44:13Z</time>
      </trkpt>
      <trkpt lat="44.64007" lon="3.82696">
        <ele>1144.11</ele>
        <time>2013-06-01T13:44:29Z</time>
      </trkpt>
      <trkpt lat="44.64013" lon="3.82722">
        <ele>1143.63</ele>
        <time>2013-06-01T13:44:42Z</time>
      </trkpt>
      <trkpt lat="44.64017" lon="3.82745">
        <ele>1143.14</ele>
        <time>2013-06-01T13:44:54Z</time>
      </trkpt>
      <trkpt lat="44.64027" lon="3.82771">
        <ele>1141.7</ele>
        <time>2013-06-01T13:45:06Z</time>
      </trkpt>
      <trkpt lat="44.64029" lon="3.82799">
        <ele>1140.26</ele>
        <time>2013-06-01T13:45:21Z</time>
      </trkpt>
      <trkpt lat="44.64031" lon="3.8281">
        <ele>1139.78</ele>
        <time>2013-06-01T13:45:26Z</time>
      </trkpt>
      <trkpt lat="44.64034" lon="3.82826">
        <ele>1137.86</ele>
        <time>2013-06-01T13:45:33Z</time>
      </trkpt>
      <trkpt lat="44.64043" lon="3.82851">
        <ele>1136.42</ele>
        <time>2013-06-01T13:45:48Z</time>
      </trkpt>
      <trkpt lat="44.64061" lon="3.8287">
        <ele>1135.94</ele>
        <time>2013-06-01T13:46:04Z</time>
      </trkpt>
      <trkpt lat="44.64085" lon="3.82887">
        <ele>1134.49</ele>
        <time>2013-06-01T13:46:20Z</time>
      </trkpt>
      <trkpt lat="44.64106" lon="3.82891">
        <ele>1131.61</ele>
        <time>2013-06-01T13:46:34Z</time>
      </trkpt>
      <trkpt lat="44.64109" lon="3.82892">
        <ele>1131.61</ele>
        <time>2013-06-01T13:46:36Z</time>
      </trkpt>
      <trkpt lat="44.64115" lon="3.82891">
        <ele>1131.61</ele>
        <time>2013-06-01T13:46:40Z</time>
      </trkpt>
      <trkpt lat="44.64138" lon="3.82897">
        <ele>1129.69</ele>
        <time>2013-06-01T13:46:56Z</time>
      </trkpt>
      <trkpt lat="44.64155" lon="3.82901">
        <ele>1129.21</ele>
        <time>2013-06-01T13:47:09Z</time>
      </trkpt>
      <trkpt lat="44.64178" lon="3.82905">
        <ele>1126.32</ele>
        <time>2013-06-01T13:47:25Z</time>
      </trkpt>
      <trkpt lat="44.64198" lon="3.82906">
        <ele>1124.4</ele>
        <time>2013-06-01T13:47:41Z</time>
      </trkpt>
      <trkpt lat="44.6422" lon="3.82917">
        <ele>1122.96</ele>
        <time>2013-06-01T13:47:55Z</time>
      </trkpt>
      <trkpt lat="44.64243" lon="3.82921">
        <ele>1122</ele>
        <time>2013-06-01T13:48:10Z</time>
      </trkpt>
      <trkpt lat="44.64261" lon="3.82922">
        <ele>1120.07</ele>
        <time>2013-06-01T13:48:22Z</time>
      </trkpt>
      <trkpt lat="44.64279" lon="3.82916">
        <ele>1118.15</ele>
        <time>2013-06-01T13:48:38Z</time>
      </trkpt>
      <trkpt lat="44.64294" lon="3.8291">
        <ele>1116.71</ele>
        <time>2013-06-01T13:48:50Z</time>
      </trkpt>
      <trkpt lat="44.64308" lon="3.82893">
        <ele>1115.75</ele>
        <time>2013-06-01T13:49:04Z</time>
      </trkpt>
      <trkpt lat="44.64338" lon="3.82883">
        <ele>1113.82</ele>
        <time>2013-06-01T13:49:16Z</time>
      </trkpt>
      <trkpt lat="44.64355" lon="3.82859">
        <ele>1111.42</ele>
        <time>2013-06-01T13:49:31Z</time>
      </trkpt>
      <trkpt lat="44.64358" lon="3.82859">
        <ele>1110.46</ele>
        <time>2013-06-01T13:49:34Z</time>
      </trkpt>
      <trkpt lat="44.64358" lon="3.82863">
        <ele>1109.98</ele>
        <time>2013-06-01T13:49:38Z</time>
      </trkpt>
      <trkpt lat="44.64353" lon="3.82894">
        <ele>1108.06</ele>
        <time>2013-06-01T13:49:57Z</time>
      </trkpt>
      <trkpt lat="44.64351" lon="3.82921">
        <ele>1106.13</ele>
        <time>2013-06-01T13:50:12Z</time>
      </trkpt>
      <trkpt lat="44.64337" lon="3.82965">
        <ele>1104.21</ele>
        <time>2013-06-01T13:50:33Z</time>
      </trkpt>
      <trkpt lat="44.64331" lon="3.82991">
        <ele>1103.25</ele>
        <time>2013-06-01T13:50:46Z</time>
      </trkpt>
      <trkpt lat="44.64315" lon="3.83007">
        <ele>1101.33</ele>
        <time>2013-06-01T13:50:59Z</time>
      </trkpt>
      <trkpt lat="44.64289" lon="3.83022">
        <ele>1098.92</ele>
        <time>2013-06-01T13:51:12Z</time>
      </trkpt>
      <trkpt lat="44.64268" lon="3.83035">
        <ele>1096.52</ele>
        <time>2013-06-01T13:51:28Z</time>
      </trkpt>
      <trkpt lat="44.64265" lon="3.8304">
        <ele>1095.56</ele>
        <time>2013-06-01T13:51:32Z</time>
      </trkpt>
      <trkpt lat="44.64258" lon="3.8307">
        <ele>1094.6</ele>
        <time>2013-06-01T13:51:50Z</time>
      </trkpt>
      <trkpt lat="44.64259" lon="3.83097">
        <ele>1093.64</ele>
        <time>2013-06-01T13:52:04Z</time>
      </trkpt>
      <trkpt lat="44.64267" lon="3.83134">
        <ele>1092.68</ele>
        <time>2013-06-01T13:52:23Z</time>
      </trkpt>
      <trkpt lat="44.64263" lon="3.83171">
        <ele>1092.68</ele>
        <time>2013-06-01T13:52:40Z</time>
      </trkpt>
      <trkpt lat="44.64256" lon="3.83205">
        <ele>1092.68</ele>
        <time>2013-06-01T13:52:57Z</time>
      </trkpt>
      <trkpt lat="44.64248" lon="3.83231">
        <ele>1095.56</ele>
        <time>2013-06-01T13:53:13Z</time>
      </trkpt>
      <trkpt lat="44.64255" lon="3.83256">
        <ele>1097.48</ele>
        <time>2013-06-01T13:53:28Z</time>
      </trkpt>
      <trkpt lat="44.64266" lon="3.83267">
        <ele>1100.85</ele>
        <time>2013-06-01T13:53:41Z</time>
      </trkpt>
      <trkpt lat="44.64282" lon="3.83282">
        <ele>1102.77</ele>
        <time>2013-06-01T13:53:58Z</time>
      </trkpt>
      <trkpt lat="44.64293" lon="3.83302">
        <ele>1105.65</ele>
        <time>2013-06-01T13:54:12Z</time>
      </trkpt>
      <trkpt lat="44.643" lon="3.83314">
        <ele>1109.02</ele>
        <time>2013-06-01T13:54:23Z</time>
      </trkpt>
      <trkpt lat="44.64312" lon="3.83324">
        <ele>1111.9</ele>
        <time>2013-06-01T13:54:36Z</time>
      </trkpt>
      <trkpt lat="44.64323" lon="3.83332">
        <ele>1114.31</ele>
        <time>2013-06-01T13:54:50Z</time>
      </trkpt>
      <trkpt lat="44.64332" lon="3.83342">
        <ele>1117.67</ele>
        <time>2013-06-01T13:55:01Z</time>
      </trkpt>
      <trkpt lat="44.64334" lon="3.83345">
        <ele>1119.11</ele>
        <time>2013-06-01T13:55:04Z</time>
      </trkpt>
      <trkpt lat="44.64347" lon="3.83352">
        <ele>1120.55</ele>
        <time>2013-06-01T13:55:18Z</time>
      </trkpt>
      <trkpt lat="44.64361" lon="3.83363">
        <ele>1123.44</ele>
        <time>2013-06-01T13:55:31Z</time>
      </trkpt>
      <trkpt lat="44.64374" lon="3.8337">
        <ele>1126.32</ele>
        <time>2013-06-01T13:55:44Z</time>
      </trkpt>
      <trkpt lat="44.64392" lon="3.83382">
        <ele>1129.69</ele>
        <time>2013-06-01T13:56:01Z</time>
      </trkpt>
      <trkpt lat="44.64401" lon="3.83386">
        <ele>1131.13</ele>
        <time>2013-06-01T13:56:09Z</time>
      </trkpt>
      <trkpt lat="44.64418" lon="3.83395">
        <ele>1134.01</ele>
        <time>2013-06-01T13:56:23Z</time>
      </trkpt>
      <trkpt lat="44.64435" lon="3.83403">
        <ele>1137.38</ele>
        <time>2013-06-01T13:56:36Z</time>
      </trkpt>
      <trkpt lat="44.64439" lon="3.83405">
        <ele>1137.86</ele>
        <time>2013-06-01T13:56:40Z</time>
      </trkpt>
      <trkpt lat="44.64459" lon="3.83415">
        <ele>1140.74</ele>
        <time>2013-06-01T13:56:57Z</time>
      </trkpt>
      <trkpt lat="44.64486" lon="3.83418">
        <ele>1144.11</ele>
        <time>2013-06-01T13:57:16Z</time>
      </trkpt>
      <trkpt lat="44.64505" lon="3.83408">
        <ele>1145.55</ele>
        <time>2013-06-01T13:57:32Z</time>
      </trkpt>
      <trkpt lat="44.64527" lon="3.83409">
        <ele>1146.03</ele>
        <time>2013-06-01T13:57:47Z</time>
      </trkpt>
      <trkpt lat="44.64546" lon="3.8341">
        <ele>1148.91</ele>
        <time>2013-06-01T13:58:01Z</time>
      </trkpt>
      <trkpt lat="44.64571" lon="3.83406">
        <ele>1150.35</ele>
        <time>2013-06-01T13:58:21Z</time>
      </trkpt>
      <trkpt lat="44.64584" lon="3.83401">
        <ele>1154.68</ele>
        <time>2013-06-01T13:58:30Z</time>
      </trkpt>
      <trkpt lat="44.64585" lon="3.834">
        <ele>1154.68</ele>
        <time>2013-06-01T13:58:31Z</time>
      </trkpt>
      <trkpt lat="44.64598" lon="3.83394">
        <ele>1152.76</ele>
        <time>2013-06-01T13:58:42Z</time>
      </trkpt>
      <trkpt lat="44.646" lon="3.83393">
        <ele>1157.08</ele>
        <time>2013-06-01T13:58:43Z</time>
      </trkpt>
      <trkpt lat="44.64601" lon="3.83392">
        <ele>1157.08</ele>
        <time>2013-06-01T13:58:44Z</time>
      </trkpt>
      <trkpt lat="44.64605" lon="3.83389">
        <ele>1155.16</ele>
        <time>2013-06-01T13:58:47Z</time>
      </trkpt>
      <trkpt lat="44.64619" lon="3.83384">
        <ele>1156.12</ele>
        <time>2013-06-01T13:58:58Z</time>
      </trkpt>
      <trkpt lat="44.6464" lon="3.83378">
        <ele>1156.12</ele>
        <time>2013-06-01T13:59:14Z</time>
      </trkpt>
      <trkpt lat="44.64645" lon="3.83373">
        <ele>1158.53</ele>
        <time>2013-06-01T13:59:19Z</time>
      </trkpt>
      <trkpt lat="44.64648" lon="3.8337">
        <ele>1156.6</ele>
        <time>2013-06-01T13:59:22Z</time>
      </trkpt>
      <trkpt lat="44.64664" lon="3.83359">
        <ele>1158.53</ele>
        <time>2013-06-01T13:59:37Z</time>
      </trkpt>
      <trkpt lat="44.64683" lon="3.83345">
        <ele>1160.45</ele>
        <time>2013-06-01T13:59:54Z</time>
      </trkpt>
      <trkpt lat="44.64688" lon="3.83342">
        <ele>1161.89</ele>
        <time>2013-06-01T13:59:58Z</time>
      </trkpt>
      <trkpt lat="44.64698" lon="3.83337">
        <ele>1160.93</ele>
        <time>2013-06-01T14:00:10Z</time>
      </trkpt>
      <trkpt lat="44.64699" lon="3.83335">
        <ele>1162.37</ele>
        <time>2013-06-01T14:00:16Z</time>
      </trkpt>
      <trkpt lat="44.647" lon="3.83328">
        <ele>1162.37</ele>
        <time>2013-06-01T14:00:45Z</time>
      </trkpt>
      <trkpt lat="44.64702" lon="3.83331">
        <ele>1162.37</ele>
        <time>2013-06-01T14:01:10Z</time>
      </trkpt>
      <trkpt lat="44.64702" lon="3.83334">
        <ele>1163.81</ele>
        <time>2013-06-01T14:01:38Z</time>
      </trkpt>
      <trkpt lat="44.64704" lon="3.83338">
        <ele>1161.41</ele>
        <time>2013-06-01T14:01:53Z</time>
      </trkpt>
      <trkpt lat="44.64707" lon="3.8334">
        <ele>1162.37</ele>
        <time>2013-06-01T14:02:19Z</time>
      </trkpt>
      <trkpt lat="44.64708" lon="3.83345">
        <ele>1160.93</ele>
        <time>2013-06-01T14:02:51Z</time>
      </trkpt>
      <trkpt lat="44.64708" lon="3.83345">
        <ele>1162.37</ele>
        <time>2013-06-01T14:02:54Z</time>
      </trkpt>
      <trkpt lat="44.64708" lon="3.83346">
        <ele>1160.93</ele>
        <time>2013-06-01T14:03:08Z</time>
      </trkpt>
      <trkpt lat="44.64708" lon="3.83347">
        <ele>1160.93</ele>
        <time>2013-06-01T14:03:21Z</time>
      </trkpt>
      <trkpt lat="44.64715" lon="3.83342">
        <ele>1162.85</ele>
        <time>2013-06-01T14:03:29Z</time>
      </trkpt>
      <trkpt lat="44.64737" lon="3.8334">
        <ele>1165.74</ele>
        <time>2013-06-01T14:03:47Z</time>
      </trkpt>
      <trkpt lat="44.64758" lon="3.83331">
        <ele>1166.7</ele>
        <time>2013-06-01T14:04:04Z</time>
      </trkpt>
      <trkpt lat="44.64779" lon="3.83317">
        <ele>1168.62</ele>
        <time>2013-06-01T14:04:23Z</time>
      </trkpt>
      <trkpt lat="44.64803" lon="3.83301">
        <ele>1169.1</ele>
        <time>2013-06-01T14:04:41Z</time>
      </trkpt>
      <trkpt lat="44.64812" lon="3.83295">
        <ele>1170.06</ele>
        <time>2013-06-01T14:04:48Z</time>
      </trkpt>
      <trkpt lat="44.64818" lon="3.83292">
        <ele>1170.54</ele>
        <time>2013-06-01T14:04:52Z</time>
      </trkpt>
      <trkpt lat="44.64831" lon="3.83288">
        <ele>1173.91</ele>
        <time>2013-06-01T14:05:01Z</time>
      </trkpt>
      <trkpt lat="44.64852" lon="3.83287">
        <ele>1173.91</ele>
        <time>2013-06-01T14:05:14Z</time>
      </trkpt>
      <trkpt lat="44.64863" lon="3.83289">
        <ele>1174.87</ele>
        <time>2013-06-01T14:05:21Z</time>
      </trkpt>
      <trkpt lat="44.64887" lon="3.83297">
        <ele>1176.31</ele>
        <time>2013-06-01T14:05:41Z</time>
      </trkpt>
      <trkpt lat="44.64897" lon="3.83304">
        <ele>1174.87</ele>
        <time>2013-06-01T14:05:48Z</time>
      </trkpt>
      <trkpt lat="44.64919" lon="3.83329">
        <ele>1171.98</ele>
        <time>2013-06-01T14:06:07Z</time>
      </trkpt>
      <trkpt lat="44.64931" lon="3.83352">
        <ele>1171.5</ele>
        <time>2013-06-01T14:06:23Z</time>
      </trkpt>
      <trkpt lat="44.64945" lon="3.83379">
        <ele>1170.06</ele>
        <time>2013-06-01T14:06:41Z</time>
      </trkpt>
      <trkpt lat="44.64961" lon="3.83416">
        <ele>1169.1</ele>
        <time>2013-06-01T14:07:02Z</time>
      </trkpt>
      <trkpt lat="44.64976" lon="3.83452">
        <ele>1168.14</ele>
        <time>2013-06-01T14:07:21Z</time>
      </trkpt>
      <trkpt lat="44.64992" lon="3.83489">
        <ele>1169.58</ele>
        <time>2013-06-01T14:07:44Z</time>
      </trkpt>
      <trkpt lat="44.65009" lon="3.83522">
        <ele>1169.58</ele>
        <time>2013-06-01T14:08:05Z</time>
      </trkpt>
      <trkpt lat="44.65025" lon="3.83538">
        <ele>1170.54</ele>
        <time>2013-06-01T14:08:18Z</time>
      </trkpt>
      <trkpt lat="44.6505" lon="3.83553">
        <ele>1172.95</ele>
        <time>2013-06-01T14:08:37Z</time>
      </trkpt>
      <trkpt lat="44.65071" lon="3.83567">
        <ele>1174.39</ele>
        <time>2013-06-01T14:08:54Z</time>
      </trkpt>
      <trkpt lat="44.65092" lon="3.83584">
        <ele>1175.83</ele>
        <time>2013-06-01T14:09:11Z</time>
      </trkpt>
      <trkpt lat="44.65101" lon="3.83592">
        <ele>1174.39</ele>
        <time>2013-06-01T14:09:19Z</time>
      </trkpt>
      <trkpt lat="44.65119" lon="3.83609">
        <ele>1176.31</ele>
        <time>2013-06-01T14:09:36Z</time>
      </trkpt>
      <trkpt lat="44.65123" lon="3.83614">
        <ele>1176.79</ele>
        <time>2013-06-01T14:09:40Z</time>
      </trkpt>
      <trkpt lat="44.65128" lon="3.83629">
        <ele>1177.27</ele>
        <time>2013-06-01T14:09:49Z</time>
      </trkpt>
      <trkpt lat="44.65123" lon="3.83638">
        <ele>1179.19</ele>
        <time>2013-06-01T14:09:57Z</time>
      </trkpt>
      <trkpt lat="44.65106" lon="3.83641">
        <ele>1182.56</ele>
        <time>2013-06-01T14:10:11Z</time>
      </trkpt>
      <trkpt lat="44.6509" lon="3.83643">
        <ele>1184.96</ele>
        <time>2013-06-01T14:10:24Z</time>
      </trkpt>
      <trkpt lat="44.65073" lon="3.83646">
        <ele>1187.85</ele>
        <time>2013-06-01T14:10:38Z</time>
      </trkpt>
      <trkpt lat="44.65058" lon="3.8365">
        <ele>1188.81</ele>
        <time>2013-06-01T14:10:50Z</time>
      </trkpt>
      <trkpt lat="44.65041" lon="3.83659">
        <ele>1190.25</ele>
        <time>2013-06-01T14:11:03Z</time>
      </trkpt>
      <trkpt lat="44.65034" lon="3.83665">
        <ele>1192.65</ele>
        <time>2013-06-01T14:11:07Z</time>
      </trkpt>
      <trkpt lat="44.65015" lon="3.8368">
        <ele>1193.61</ele>
        <time>2013-06-01T14:11:21Z</time>
      </trkpt>
      <trkpt lat="44.65002" lon="3.83692">
        <ele>1192.65</ele>
        <time>2013-06-01T14:11:31Z</time>
      </trkpt>
      <trkpt lat="44.64997" lon="3.83695">
        <ele>1194.09</ele>
        <time>2013-06-01T14:11:34Z</time>
      </trkpt>
      <trkpt lat="44.6498" lon="3.83709">
        <ele>1194.58</ele>
        <time>2013-06-01T14:11:49Z</time>
      </trkpt>
      <trkpt lat="44.64973" lon="3.83712">
        <ele>1196.02</ele>
        <time>2013-06-01T14:11:54Z</time>
      </trkpt>
      <trkpt lat="44.64952" lon="3.83724">
        <ele>1196.98</ele>
        <time>2013-06-01T14:12:10Z</time>
      </trkpt>
      <trkpt lat="44.64949" lon="3.83726">
        <ele>1199.86</ele>
        <time>2013-06-01T14:12:13Z</time>
      </trkpt>
      <trkpt lat="44.64926" lon="3.8374">
        <ele>1200.34</ele>
        <time>2013-06-01T14:12:31Z</time>
      </trkpt>
      <trkpt lat="44.649" lon="3.83755">
        <ele>1202.75</ele>
        <time>2013-06-01T14:12:51Z</time>
      </trkpt>
      <trkpt lat="44.6488" lon="3.8377">
        <ele>1203.71</ele>
        <time>2013-06-01T14:13:07Z</time>
      </trkpt>
      <trkpt lat="44.64862" lon="3.83789">
        <ele>1205.15</ele>
        <time>2013-06-01T14:13:23Z</time>
      </trkpt>
      <trkpt lat="44.64853" lon="3.83814">
        <ele>1206.11</ele>
        <time>2013-06-01T14:13:37Z</time>
      </trkpt>
      <trkpt lat="44.64844" lon="3.83844">
        <ele>1208.03</ele>
        <time>2013-06-01T14:13:54Z</time>
      </trkpt>
      <trkpt lat="44.64831" lon="3.83876">
        <ele>1209</ele>
        <time>2013-06-01T14:14:11Z</time>
      </trkpt>
      <trkpt lat="44.64822" lon="3.83908">
        <ele>1209</ele>
        <time>2013-06-01T14:14:28Z</time>
      </trkpt>
      <trkpt lat="44.64821" lon="3.8391">
        <ele>1209</ele>
        <time>2013-06-01T14:14:29Z</time>
      </trkpt>
      <trkpt lat="44.64818" lon="3.83943">
        <ele>1209</ele>
        <time>2013-06-01T14:14:45Z</time>
      </trkpt>
      <trkpt lat="44.64816" lon="3.83967">
        <ele>1208.03</ele>
        <time>2013-06-01T14:14:57Z</time>
      </trkpt>
      <trkpt lat="44.64815" lon="3.83977">
        <ele>1208.03</ele>
        <time>2013-06-01T14:15:02Z</time>
      </trkpt>
      <trkpt lat="44.64809" lon="3.84005">
        <ele>1206.59</ele>
        <time>2013-06-01T14:15:18Z</time>
      </trkpt>
      <trkpt lat="44.64804" lon="3.84035">
        <ele>1204.67</ele>
        <time>2013-06-01T14:15:34Z</time>
      </trkpt>
      <trkpt lat="44.64804" lon="3.84048">
        <ele>1206.59</ele>
        <time>2013-06-01T14:15:40Z</time>
      </trkpt>
      <trkpt lat="44.64804" lon="3.84057">
        <ele>1205.15</ele>
        <time>2013-06-01T14:15:45Z</time>
      </trkpt>
      <trkpt lat="44.64803" lon="3.84093">
        <ele>1204.19</ele>
        <time>2013-06-01T14:16:02Z</time>
      </trkpt>
      <trkpt lat="44.64798" lon="3.84132">
        <ele>1203.23</ele>
        <time>2013-06-01T14:16:21Z</time>
      </trkpt>
      <trkpt lat="44.64793" lon="3.84159">
        <ele>1201.3</ele>
        <time>2013-06-01T14:16:35Z</time>
      </trkpt>
      <trkpt lat="44.64793" lon="3.84161">
        <ele>1201.3</ele>
        <time>2013-06-01T14:16:36Z</time>
      </trkpt>
      <trkpt lat="44.6479" lon="3.84196">
        <ele>1199.86</ele>
        <time>2013-06-01T14:16:53Z</time>
      </trkpt>
      <trkpt lat="44.64791" lon="3.8421">
        <ele>1198.9</ele>
        <time>2013-06-01T14:17:02Z</time>
      </trkpt>
      <trkpt lat="44.64793" lon="3.8422">
        <ele>1198.42</ele>
        <time>2013-06-01T14:17:08Z</time>
      </trkpt>
      <trkpt lat="44.6479" lon="3.84253">
        <ele>1197.46</ele>
        <time>2013-06-01T14:17:26Z</time>
      </trkpt>
      <trkpt lat="44.64786" lon="3.8428">
        <ele>1196.02</ele>
        <time>2013-06-01T14:17:40Z</time>
      </trkpt>
      <trkpt lat="44.64783" lon="3.84292">
        <ele>1195.06</ele>
        <time>2013-06-01T14:17:47Z</time>
      </trkpt>
      <trkpt lat="44.64781" lon="3.84303">
        <ele>1194.58</ele>
        <time>2013-06-01T14:17:53Z</time>
      </trkpt>
      <trkpt lat="44.6478" lon="3.84324">
        <ele>1193.13</ele>
        <time>2013-06-01T14:18:04Z</time>
      </trkpt>
      <trkpt lat="44.64777" lon="3.84339">
        <ele>1192.17</ele>
        <time>2013-06-01T14:18:11Z</time>
      </trkpt>
      <trkpt lat="44.64773" lon="3.84359">
        <ele>1191.69</ele>
        <time>2013-06-01T14:18:20Z</time>
      </trkpt>
      <trkpt lat="44.64773" lon="3.8437">
        <ele>1191.21</ele>
        <time>2013-06-01T14:18:24Z</time>
      </trkpt>
      <trkpt lat="44.64761" lon="3.84405">
        <ele>1190.25</ele>
        <time>2013-06-01T14:18:42Z</time>
      </trkpt>
      <trkpt lat="44.64757" lon="3.84419">
        <ele>1190.25</ele>
        <time>2013-06-01T14:18:49Z</time>
      </trkpt>
      <trkpt lat="44.6475" lon="3.84445">
        <ele>1190.25</ele>
        <time>2013-06-01T14:19:04Z</time>
      </trkpt>
      <trkpt lat="44.64738" lon="3.84472">
        <ele>1190.25</ele>
        <time>2013-06-01T14:19:19Z</time>
      </trkpt>
      <trkpt lat="44.64736" lon="3.84475">
        <ele>1190.25</ele>
        <time>2013-06-01T14:19:21Z</time>
      </trkpt>
      <trkpt lat="44.64734" lon="3.84483">
        <ele>1189.29</ele>
        <time>2013-06-01T14:19:25Z</time>
      </trkpt>
      <trkpt lat="44.64733" lon="3.84491">
        <ele>1189.29</ele>
        <time>2013-06-01T14:19:29Z</time>
      </trkpt>
      <trkpt lat="44.6473" lon="3.84498">
        <ele>1188.81</ele>
        <time>2013-06-01T14:19:33Z</time>
      </trkpt>
      <trkpt lat="44.64729" lon="3.84506">
        <ele>1188.81</ele>
        <time>2013-06-01T14:19:37Z</time>
      </trkpt>
      <trkpt lat="44.64721" lon="3.84525">
        <ele>1190.73</ele>
        <time>2013-06-01T14:19:49Z</time>
      </trkpt>
      <trkpt lat="44.64719" lon="3.84529">
        <ele>1190.73</ele>
        <time>2013-06-01T14:19:52Z</time>
      </trkpt>
      <trkpt lat="44.64712" lon="3.84558">
        <ele>1191.21</ele>
        <time>2013-06-01T14:20:08Z</time>
      </trkpt>
      <trkpt lat="44.64707" lon="3.84583">
        <ele>1191.21</ele>
        <time>2013-06-01T14:20:22Z</time>
      </trkpt>
      <trkpt lat="44.64706" lon="3.84592">
        <ele>1191.21</ele>
        <time>2013-06-01T14:20:26Z</time>
      </trkpt>
      <trkpt lat="44.64701" lon="3.84602">
        <ele>1189.77</ele>
        <time>2013-06-01T14:20:32Z</time>
      </trkpt>
      <trkpt lat="44.64694" lon="3.84613">
        <ele>1190.25</ele>
        <time>2013-06-01T14:20:40Z</time>
      </trkpt>
      <trkpt lat="44.64693" lon="3.84618">
        <ele>1190.25</ele>
        <time>2013-06-01T14:20:43Z</time>
      </trkpt>
      <trkpt lat="44.64692" lon="3.8463">
        <ele>1190.25</ele>
        <time>2013-06-01T14:20:49Z</time>
      </trkpt>
      <trkpt lat="44.64693" lon="3.84635">
        <ele>1190.25</ele>
        <time>2013-06-01T14:20:51Z</time>
      </trkpt>
      <trkpt lat="44.64691" lon="3.84661">
        <ele>1190.25</ele>
        <time>2013-06-01T14:21:05Z</time>
      </trkpt>
      <trkpt lat="44.64691" lon="3.84676">
        <ele>1190.25</ele>
        <time>2013-06-01T14:21:13Z</time>
      </trkpt>
      <trkpt lat="44.6469" lon="3.84704">
        <ele>1190.25</ele>
        <time>2013-06-01T14:21:26Z</time>
      </trkpt>
      <trkpt lat="44.64688" lon="3.8471">
        <ele>1190.25</ele>
        <time>2013-06-01T14:21:30Z</time>
      </trkpt>
      <trkpt lat="44.64688" lon="3.84713">
        <ele>1190.25</ele>
        <time>2013-06-01T14:21:32Z</time>
      </trkpt>
      <trkpt lat="44.64688" lon="3.84715">
        <ele>1190.25</ele>
        <time>2013-06-01T14:21:33Z</time>
      </trkpt>
      <trkpt lat="44.6468" lon="3.8474">
        <ele>1190.25</ele>
        <time>2013-06-01T14:21:46Z</time>
      </trkpt>
      <trkpt lat="44.64681" lon="3.8475">
        <ele>1191.21</ele>
        <time>2013-06-01T14:21:51Z</time>
      </trkpt>
      <trkpt lat="44.6468" lon="3.84756">
        <ele>1191.21</ele>
        <time>2013-06-01T14:21:54Z</time>
      </trkpt>
      <trkpt lat="44.64678" lon="3.84778">
        <ele>1191.69</ele>
        <time>2013-06-01T14:22:06Z</time>
      </trkpt>
      <trkpt lat="44.64677" lon="3.84784">
        <ele>1191.69</ele>
        <time>2013-06-01T14:22:09Z</time>
      </trkpt>
      <trkpt lat="44.64666" lon="3.84809">
        <ele>1192.17</ele>
        <time>2013-06-01T14:22:23Z</time>
      </trkpt>
      <trkpt lat="44.64663" lon="3.84822">
        <ele>1192.65</ele>
        <time>2013-06-01T14:22:30Z</time>
      </trkpt>
      <trkpt lat="44.64664" lon="3.84827">
        <ele>1192.65</ele>
        <time>2013-06-01T14:22:32Z</time>
      </trkpt>
      <trkpt lat="44.64661" lon="3.84839">
        <ele>1193.13</ele>
        <time>2013-06-01T14:22:38Z</time>
      </trkpt>
      <trkpt lat="44.64661" lon="3.84844">
        <ele>1193.13</ele>
        <time>2013-06-01T14:22:41Z</time>
      </trkpt>
      <trkpt lat="44.64658" lon="3.8485">
        <ele>1193.13</ele>
        <time>2013-06-01T14:22:43Z</time>
      </trkpt>
      <trkpt lat="44.6466" lon="3.84861">
        <ele>1193.13</ele>
        <time>2013-06-01T14:22:50Z</time>
      </trkpt>
      <trkpt lat="44.64657" lon="3.84868">
        <ele>1193.13</ele>
        <time>2013-06-01T14:22:53Z</time>
      </trkpt>
      <trkpt lat="44.64658" lon="3.84872">
        <ele>1193.13</ele>
        <time>2013-06-01T14:22:55Z</time>
      </trkpt>
      <trkpt lat="44.64657" lon="3.84882">
        <ele>1193.13</ele>
        <time>2013-06-01T14:23:00Z</time>
      </trkpt>
      <trkpt lat="44.64656" lon="3.84893">
        <ele>1193.13</ele>
        <time>2013-06-01T14:23:04Z</time>
      </trkpt>
      <trkpt lat="44.64657" lon="3.84907">
        <ele>1193.13</ele>
        <time>2013-06-01T14:23:11Z</time>
      </trkpt>
      <trkpt lat="44.64656" lon="3.84938">
        <ele>1194.09</ele>
        <time>2013-06-01T14:23:24Z</time>
      </trkpt>
      <trkpt lat="44.64656" lon="3.84945">
        <ele>1194.58</ele>
        <time>2013-06-01T14:23:28Z</time>
      </trkpt>
      <trkpt lat="44.64653" lon="3.84949">
        <ele>1194.58</ele>
        <time>2013-06-01T14:23:30Z</time>
      </trkpt>
      <trkpt lat="44.64649" lon="3.84956">
        <ele>1194.58</ele>
        <time>2013-06-01T14:23:34Z</time>
      </trkpt>
      <trkpt lat="44.64645" lon="3.84968">
        <ele>1194.58</ele>
        <time>2013-06-01T14:23:41Z</time>
      </trkpt>
      <trkpt lat="44.64642" lon="3.84973">
        <ele>1194.58</ele>
        <time>2013-06-01T14:23:44Z</time>
      </trkpt>
      <trkpt lat="44.64639" lon="3.84979">
        <ele>1194.58</ele>
        <time>2013-06-01T14:23:48Z</time>
      </trkpt>
      <trkpt lat="44.64639" lon="3.84983">
        <ele>1195.06</ele>
        <time>2013-06-01T14:23:50Z</time>
      </trkpt>
      <trkpt lat="44.64639" lon="3.84985">
        <ele>1195.06</ele>
        <time>2013-06-01T14:23:51Z</time>
      </trkpt>
      <trkpt lat="44.64638" lon="3.84991">
        <ele>1195.06</ele>
        <time>2013-06-01T14:23:55Z</time>
      </trkpt>
      <trkpt lat="44.64638" lon="3.84995">
        <ele>1195.06</ele>
        <time>2013-06-01T14:23:57Z</time>
      </trkpt>
      <trkpt lat="44.64636" lon="3.85004">
        <ele>1195.06</ele>
        <time>2013-06-01T14:24:01Z</time>
      </trkpt>
      <trkpt lat="44.64636" lon="3.85009">
        <ele>1195.06</ele>
        <time>2013-06-01T14:24:04Z</time>
      </trkpt>
      <trkpt lat="44.64635" lon="3.85046">
        <ele>1195.06</ele>
        <time>2013-06-01T14:24:19Z</time>
      </trkpt>
      <trkpt lat="44.64632" lon="3.85073">
        <ele>1196.02</ele>
        <time>2013-06-01T14:24:33Z</time>
      </trkpt>
      <trkpt lat="44.6463" lon="3.85081">
        <ele>1194.58</ele>
        <time>2013-06-01T14:24:37Z</time>
      </trkpt>
      <trkpt lat="44.64628" lon="3.8511">
        <ele>1194.58</ele>
        <time>2013-06-01T14:24:52Z</time>
      </trkpt>
      <trkpt lat="44.64627" lon="3.85116">
        <ele>1196.02</ele>
        <time>2013-06-01T14:24:55Z</time>
      </trkpt>
      <trkpt lat="44.64626" lon="3.85124">
        <ele>1196.02</ele>
        <time>2013-06-01T14:24:59Z</time>
      </trkpt>
      <trkpt lat="44.64628" lon="3.85136">
        <ele>1196.02</ele>
        <time>2013-06-01T14:25:05Z</time>
      </trkpt>
      <trkpt lat="44.64629" lon="3.8514">
        <ele>1196.02</ele>
        <time>2013-06-01T14:25:07Z</time>
      </trkpt>
      <trkpt lat="44.64629" lon="3.85169">
        <ele>1195.54</ele>
        <time>2013-06-01T14:25:22Z</time>
      </trkpt>
      <trkpt lat="44.64627" lon="3.85175">
        <ele>1195.54</ele>
        <time>2013-06-01T14:25:25Z</time>
      </trkpt>
      <trkpt lat="44.6462" lon="3.85206">
        <ele>1194.58</ele>
        <time>2013-06-01T14:25:41Z</time>
      </trkpt>
      <trkpt lat="44.64615" lon="3.85228">
        <ele>1196.5</ele>
        <time>2013-06-01T14:25:53Z</time>
      </trkpt>
      <trkpt lat="44.64615" lon="3.85236">
        <ele>1196.98</ele>
        <time>2013-06-01T14:25:57Z</time>
      </trkpt>
      <trkpt lat="44.64615" lon="3.85255">
        <ele>1197.46</ele>
        <time>2013-06-01T14:26:07Z</time>
      </trkpt>
      <trkpt lat="44.64616" lon="3.85261">
        <ele>1197.46</ele>
        <time>2013-06-01T14:26:10Z</time>
      </trkpt>
      <trkpt lat="44.64616" lon="3.85299">
        <ele>1197.94</ele>
        <time>2013-06-01T14:26:28Z</time>
      </trkpt>
      <trkpt lat="44.64616" lon="3.85339">
        <ele>1198.42</ele>
        <time>2013-06-01T14:26:44Z</time>
      </trkpt>
      <trkpt lat="44.64609" lon="3.85367">
        <ele>1199.38</ele>
        <time>2013-06-01T14:26:59Z</time>
      </trkpt>
      <trkpt lat="44.64607" lon="3.85373">
        <ele>1199.38</ele>
        <time>2013-06-01T14:27:03Z</time>
      </trkpt>
      <trkpt lat="44.64597" lon="3.85401">
        <ele>1199.38</ele>
        <time>2013-06-01T14:27:19Z</time>
      </trkpt>
      <trkpt lat="44.64596" lon="3.85403">
        <ele>1199.38</ele>
        <time>2013-06-01T14:27:20Z</time>
      </trkpt>
      <trkpt lat="44.64591" lon="3.85417">
        <ele>1199.38</ele>
        <time>2013-06-01T14:27:28Z</time>
      </trkpt>
      <trkpt lat="44.64588" lon="3.85424">
        <ele>1199.38</ele>
        <time>2013-06-01T14:27:32Z</time>
      </trkpt>
      <trkpt lat="44.64571" lon="3.85454">
        <ele>1200.34</ele>
        <time>2013-06-01T14:27:51Z</time>
      </trkpt>
      <trkpt lat="44.6456" lon="3.8548">
        <ele>1201.3</ele>
        <time>2013-06-01T14:28:08Z</time>
      </trkpt>
      <trkpt lat="44.64553" lon="3.85497">
        <ele>1202.27</ele>
        <time>2013-06-01T14:28:18Z</time>
      </trkpt>
      <trkpt lat="44.64548" lon="3.85504">
        <ele>1202.27</ele>
        <time>2013-06-01T14:28:23Z</time>
      </trkpt>
      <trkpt lat="44.6453" lon="3.85524">
        <ele>1202.75</ele>
        <time>2013-06-01T14:28:38Z</time>
      </trkpt>
      <trkpt lat="44.64528" lon="3.85528">
        <ele>1203.23</ele>
        <time>2013-06-01T14:28:42Z</time>
      </trkpt>
      <trkpt lat="44.64523" lon="3.85539">
        <ele>1203.71</ele>
        <time>2013-06-01T14:28:50Z</time>
      </trkpt>
      <trkpt lat="44.64509" lon="3.85551">
        <ele>1204.67</ele>
        <time>2013-06-01T14:28:59Z</time>
      </trkpt>
      <trkpt lat="44.64493" lon="3.85562">
        <ele>1205.63</ele>
        <time>2013-06-01T14:29:14Z</time>
      </trkpt>
      <trkpt lat="44.64477" lon="3.85569">
        <ele>1206.59</ele>
        <time>2013-06-01T14:29:28Z</time>
      </trkpt>
      <trkpt lat="44.64458" lon="3.85581">
        <ele>1208.51</ele>
        <time>2013-06-01T14:29:43Z</time>
      </trkpt>
      <trkpt lat="44.64452" lon="3.85586">
        <ele>1209</ele>
        <time>2013-06-01T14:29:49Z</time>
      </trkpt>
      <trkpt lat="44.64426" lon="3.85599">
        <ele>1209.48</ele>
        <time>2013-06-01T14:30:07Z</time>
      </trkpt>
      <trkpt lat="44.64419" lon="3.85603">
        <ele>1209.96</ele>
        <time>2013-06-01T14:30:13Z</time>
      </trkpt>
      <trkpt lat="44.64388" lon="3.85623">
        <ele>1210.92</ele>
        <time>2013-06-01T14:30:34Z</time>
      </trkpt>
      <trkpt lat="44.64369" lon="3.85635">
        <ele>1212.84</ele>
        <time>2013-06-01T14:30:50Z</time>
      </trkpt>
      <trkpt lat="44.64353" lon="3.85648">
        <ele>1213.32</ele>
        <time>2013-06-01T14:31:04Z</time>
      </trkpt>
      <trkpt lat="44.64333" lon="3.8566">
        <ele>1213.8</ele>
        <time>2013-06-01T14:31:17Z</time>
      </trkpt>
      <trkpt lat="44.64324" lon="3.85663">
        <ele>1214.28</ele>
        <time>2013-06-01T14:31:24Z</time>
      </trkpt>
      <trkpt lat="44.64313" lon="3.8566">
        <ele>1214.28</ele>
        <time>2013-06-01T14:31:31Z</time>
      </trkpt>
      <trkpt lat="44.64295" lon="3.85666">
        <ele>1215.24</ele>
        <time>2013-06-01T14:31:45Z</time>
      </trkpt>
      <trkpt lat="44.64278" lon="3.85668">
        <ele>1215.72</ele>
        <time>2013-06-01T14:31:56Z</time>
      </trkpt>
      <trkpt lat="44.64261" lon="3.85676">
        <ele>1217.17</ele>
        <time>2013-06-01T14:32:11Z</time>
      </trkpt>
      <trkpt lat="44.64245" lon="3.85676">
        <ele>1217.65</ele>
        <time>2013-06-01T14:32:22Z</time>
      </trkpt>
      <trkpt lat="44.64223" lon="3.85681">
        <ele>1218.13</ele>
        <time>2013-06-01T14:32:36Z</time>
      </trkpt>
      <trkpt lat="44.6422" lon="3.85683">
        <ele>1218.13</ele>
        <time>2013-06-01T14:32:40Z</time>
      </trkpt>
      <trkpt lat="44.64222" lon="3.8569">
        <ele>1218.13</ele>
        <time>2013-06-01T14:32:46Z</time>
      </trkpt>
      <trkpt lat="44.64228" lon="3.85713">
        <ele>1218.13</ele>
        <time>2013-06-01T14:33:02Z</time>
      </trkpt>
      <trkpt lat="44.64229" lon="3.85716">
        <ele>1218.13</ele>
        <time>2013-06-01T14:33:04Z</time>
      </trkpt>
      <trkpt lat="44.64235" lon="3.85744">
        <ele>1218.13</ele>
        <time>2013-06-01T14:33:22Z</time>
      </trkpt>
      <trkpt lat="44.64232" lon="3.85759">
        <ele>1218.13</ele>
        <time>2013-06-01T14:33:37Z</time>
      </trkpt>
      <trkpt lat="44.64229" lon="3.85767">
        <ele>1219.57</ele>
        <time>2013-06-01T14:33:53Z</time>
      </trkpt>
      <trkpt lat="44.6423" lon="3.85768">
        <ele>1218.13</ele>
        <time>2013-06-01T14:33:57Z</time>
      </trkpt>
      <trkpt lat="44.64229" lon="3.85768">
        <ele>1218.13</ele>
        <time>2013-06-01T14:34:20Z</time>
      </trkpt>
      <trkpt lat="44.6423" lon="3.85767">
        <ele>1218.13</ele>
        <time>2013-06-01T14:34:34Z</time>
      </trkpt>
      <trkpt lat="44.64231" lon="3.85766">
        <ele>1217.17</ele>
        <time>2013-06-01T14:34:57Z</time>
      </trkpt>
      <trkpt lat="44.64232" lon="3.8577">
        <ele>1217.17</ele>
        <time>2013-06-01T14:35:13Z</time>
      </trkpt>
      <trkpt lat="44.64231" lon="3.85769">
        <ele>1218.61</ele>
        <time>2013-06-01T14:35:16Z</time>
      </trkpt>
      <trkpt lat="44.64232" lon="3.85767">
        <ele>1218.13</ele>
        <time>2013-06-01T14:35:28Z</time>
      </trkpt>
      <trkpt lat="44.64232" lon="3.85769">
        <ele>1217.17</ele>
        <time>2013-06-01T14:35:51Z</time>
      </trkpt>
      <trkpt lat="44.64232" lon="3.85769">
        <ele>1218.61</ele>
        <time>2013-06-01T14:35:53Z</time>
      </trkpt>
      <trkpt lat="44.64232" lon="3.85768">
        <ele>1217.17</ele>
        <time>2013-06-01T14:35:58Z</time>
      </trkpt>
      <trkpt lat="44.6423" lon="3.85767">
        <ele>1217.65</ele>
        <time>2013-06-01T14:36:16Z</time>
      </trkpt>
      <trkpt lat="44.6423" lon="3.85767">
        <ele>1217.65</ele>
        <time>2013-06-01T14:36:37Z</time>
      </trkpt>
      <trkpt lat="44.64236" lon="3.85765">
        <ele>1217.65</ele>
        <time>2013-06-01T14:36:44Z</time>
      </trkpt>
      <trkpt lat="44.6424" lon="3.85768">
        <ele>1217.65</ele>
        <time>2013-06-01T14:36:51Z</time>
      </trkpt>
      <trkpt lat="44.64244" lon="3.85775">
        <ele>1217.65</ele>
        <time>2013-06-01T14:36:57Z</time>
      </trkpt>
      <trkpt lat="44.64249" lon="3.85795">
        <ele>1217.65</ele>
        <time>2013-06-01T14:37:10Z</time>
      </trkpt>
      <trkpt lat="44.64256" lon="3.85819">
        <ele>1217.65</ele>
        <time>2013-06-01T14:37:24Z</time>
      </trkpt>
      <trkpt lat="44.64261" lon="3.85841">
        <ele>1217.65</ele>
        <time>2013-06-01T14:37:38Z</time>
      </trkpt>
      <trkpt lat="44.64262" lon="3.85845">
        <ele>1217.65</ele>
        <time>2013-06-01T14:37:40Z</time>
      </trkpt>
      <trkpt lat="44.64276" lon="3.85857">
        <ele>1216.21</ele>
        <time>2013-06-01T14:37:53Z</time>
      </trkpt>
      <trkpt lat="44.64293" lon="3.85855">
        <ele>1216.69</ele>
        <time>2013-06-01T14:38:05Z</time>
      </trkpt>
      <trkpt lat="44.64309" lon="3.85855">
        <ele>1217.65</ele>
        <time>2013-06-01T14:38:18Z</time>
      </trkpt>
      <trkpt lat="44.64316" lon="3.85858">
        <ele>1218.61</ele>
        <time>2013-06-01T14:38:23Z</time>
      </trkpt>
      <trkpt lat="44.64318" lon="3.85861">
        <ele>1218.61</ele>
        <time>2013-06-01T14:38:25Z</time>
      </trkpt>
      <trkpt lat="44.64344" lon="3.85881">
        <ele>1220.05</ele>
        <time>2013-06-01T14:38:41Z</time>
      </trkpt>
      <trkpt lat="44.64361" lon="3.85896">
        <ele>1221.49</ele>
        <time>2013-06-01T14:38:53Z</time>
      </trkpt>
      <trkpt lat="44.64377" lon="3.85912">
        <ele>1223.42</ele>
        <time>2013-06-01T14:39:07Z</time>
      </trkpt>
      <trkpt lat="44.64383" lon="3.8593">
        <ele>1224.38</ele>
        <time>2013-06-01T14:39:17Z</time>
      </trkpt>
      <trkpt lat="44.64403" lon="3.85952">
        <ele>1226.3</ele>
        <time>2013-06-01T14:39:32Z</time>
      </trkpt>
      <trkpt lat="44.64421" lon="3.85968">
        <ele>1228.22</ele>
        <time>2013-06-01T14:39:46Z</time>
      </trkpt>
      <trkpt lat="44.64428" lon="3.85969">
        <ele>1228.7</ele>
        <time>2013-06-01T14:39:52Z</time>
      </trkpt>
      <trkpt lat="44.64447" lon="3.85972">
        <ele>1228.7</ele>
        <time>2013-06-01T14:40:05Z</time>
      </trkpt>
      <trkpt lat="44.64451" lon="3.85973">
        <ele>1229.18</ele>
        <time>2013-06-01T14:40:08Z</time>
      </trkpt>
      <trkpt lat="44.64466" lon="3.85978">
        <ele>1229.66</ele>
        <time>2013-06-01T14:40:21Z</time>
      </trkpt>
      <trkpt lat="44.64481" lon="3.85986">
        <ele>1230.14</ele>
        <time>2013-06-01T14:40:33Z</time>
      </trkpt>
      <trkpt lat="44.64498" lon="3.86">
        <ele>1230.62</ele>
        <time>2013-06-01T14:40:49Z</time>
      </trkpt>
      <trkpt lat="44.64514" lon="3.86016">
        <ele>1231.11</ele>
        <time>2013-06-01T14:41:05Z</time>
      </trkpt>
      <trkpt lat="44.64518" lon="3.86022">
        <ele>1231.59</ele>
        <time>2013-06-01T14:41:09Z</time>
      </trkpt>
      <trkpt lat="44.64536" lon="3.86045">
        <ele>1232.07</ele>
        <time>2013-06-01T14:41:25Z</time>
      </trkpt>
      <trkpt lat="44.64547" lon="3.86057">
        <ele>1232.07</ele>
        <time>2013-06-01T14:41:34Z</time>
      </trkpt>
      <trkpt lat="44.64566" lon="3.8608">
        <ele>1233.51</ele>
        <time>2013-06-01T14:41:49Z</time>
      </trkpt>
      <trkpt lat="44.64574" lon="3.86086">
        <ele>1233.99</ele>
        <time>2013-06-01T14:41:55Z</time>
      </trkpt>
      <trkpt lat="44.64591" lon="3.86097">
        <ele>1234.47</ele>
        <time>2013-06-01T14:42:09Z</time>
      </trkpt>
      <trkpt lat="44.64609" lon="3.86104">
        <ele>1236.39</ele>
        <time>2013-06-01T14:42:22Z</time>
      </trkpt>
      <trkpt lat="44.64626" lon="3.86112">
        <ele>1236.87</ele>
        <time>2013-06-01T14:42:36Z</time>
      </trkpt>
      <trkpt lat="44.64645" lon="3.86119">
        <ele>1237.83</ele>
        <time>2013-06-01T14:42:50Z</time>
      </trkpt>
      <trkpt lat="44.64664" lon="3.86127">
        <ele>1237.83</ele>
        <time>2013-06-01T14:43:02Z</time>
      </trkpt>
      <trkpt lat="44.64685" lon="3.86136">
        <ele>1238.8</ele>
        <time>2013-06-01T14:43:17Z</time>
      </trkpt>
      <trkpt lat="44.64713" lon="3.86146">
        <ele>1239.76</ele>
        <time>2013-06-01T14:43:33Z</time>
      </trkpt>
      <trkpt lat="44.64719" lon="3.86148">
        <ele>1238.32</ele>
        <time>2013-06-01T14:43:37Z</time>
      </trkpt>
      <trkpt lat="44.64744" lon="3.86162">
        <ele>1236.87</ele>
        <time>2013-06-01T14:43:55Z</time>
      </trkpt>
      <trkpt lat="44.64751" lon="3.86162">
        <ele>1236.39</ele>
        <time>2013-06-01T14:44:00Z</time>
      </trkpt>
      <trkpt lat="44.64756" lon="3.86165">
        <ele>1235.91</ele>
        <time>2013-06-01T14:44:04Z</time>
      </trkpt>
      <trkpt lat="44.64782" lon="3.86173">
        <ele>1233.99</ele>
        <time>2013-06-01T14:44:22Z</time>
      </trkpt>
      <trkpt lat="44.64802" lon="3.86181">
        <ele>1231.59</ele>
        <time>2013-06-01T14:44:37Z</time>
      </trkpt>
      <trkpt lat="44.64818" lon="3.86191">
        <ele>1229.18</ele>
        <time>2013-06-01T14:44:50Z</time>
      </trkpt>
      <trkpt lat="44.64834" lon="3.86206">
        <ele>1227.74</ele>
        <time>2013-06-01T14:45:04Z</time>
      </trkpt>
      <trkpt lat="44.6485" lon="3.86222">
        <ele>1228.22</ele>
        <time>2013-06-01T14:45:17Z</time>
      </trkpt>
      <trkpt lat="44.6486" lon="3.86233">
        <ele>1228.22</ele>
        <time>2013-06-01T14:45:26Z</time>
      </trkpt>
      <trkpt lat="44.64869" lon="3.86244">
        <ele>1227.74</ele>
        <time>2013-06-01T14:45:36Z</time>
      </trkpt>
      <trkpt lat="44.64887" lon="3.8627">
        <ele>1227.74</ele>
        <time>2013-06-01T14:45:53Z</time>
      </trkpt>
      <trkpt lat="44.649" lon="3.86295">
        <ele>1227.74</ele>
        <time>2013-06-01T14:46:09Z</time>
      </trkpt>
      <trkpt lat="44.64917" lon="3.86323">
        <ele>1228.7</ele>
        <time>2013-06-01T14:46:26Z</time>
      </trkpt>
      <trkpt lat="44.64931" lon="3.8635">
        <ele>1229.18</ele>
        <time>2013-06-01T14:46:41Z</time>
      </trkpt>
      <trkpt lat="44.64938" lon="3.86374">
        <ele>1229.66</ele>
        <time>2013-06-01T14:46:55Z</time>
      </trkpt>
      <trkpt lat="44.64939" lon="3.86376">
        <ele>1229.66</ele>
        <time>2013-06-01T14:46:56Z</time>
      </trkpt>
      <trkpt lat="44.6494" lon="3.86384">
        <ele>1230.14</ele>
        <time>2013-06-01T14:47:00Z</time>
      </trkpt>
      <trkpt lat="44.64944" lon="3.86417">
        <ele>1231.59</ele>
        <time>2013-06-01T14:47:17Z</time>
      </trkpt>
      <trkpt lat="44.64945" lon="3.86442">
        <ele>1231.59</ele>
        <time>2013-06-01T14:47:31Z</time>
      </trkpt>
      <trkpt lat="44.64945" lon="3.86451">
        <ele>1232.07</ele>
        <time>2013-06-01T14:47:36Z</time>
      </trkpt>
      <trkpt lat="44.64944" lon="3.86454">
        <ele>1232.07</ele>
        <time>2013-06-01T14:47:38Z</time>
      </trkpt>
      <trkpt lat="44.64945" lon="3.86473">
        <ele>1232.55</ele>
        <time>2013-06-01T14:47:47Z</time>
      </trkpt>
      <trkpt lat="44.64945" lon="3.86487">
        <ele>1232.55</ele>
        <time>2013-06-01T14:47:55Z</time>
      </trkpt>
      <trkpt lat="44.64942" lon="3.865">
        <ele>1233.03</ele>
        <time>2013-06-01T14:48:02Z</time>
      </trkpt>
      <trkpt lat="44.64942" lon="3.86506">
        <ele>1233.03</ele>
        <time>2013-06-01T14:48:05Z</time>
      </trkpt>
      <trkpt lat="44.64945" lon="3.86528">
        <ele>1233.51</ele>
        <time>2013-06-01T14:48:15Z</time>
      </trkpt>
      <trkpt lat="44.64949" lon="3.86564">
        <ele>1233.99</ele>
        <time>2013-06-01T14:48:31Z</time>
      </trkpt>
      <trkpt lat="44.64953" lon="3.86592">
        <ele>1234.95</ele>
        <time>2013-06-01T14:48:45Z</time>
      </trkpt>
      <trkpt lat="44.64955" lon="3.86606">
        <ele>1235.43</ele>
        <time>2013-06-01T14:48:52Z</time>
      </trkpt>
      <trkpt lat="44.64955" lon="3.86615">
        <ele>1235.43</ele>
        <time>2013-06-01T14:48:57Z</time>
      </trkpt>
      <trkpt lat="44.64956" lon="3.86639">
        <ele>1236.39</ele>
        <time>2013-06-01T14:49:08Z</time>
      </trkpt>
      <trkpt lat="44.64955" lon="3.86669">
        <ele>1236.87</ele>
        <time>2013-06-01T14:49:22Z</time>
      </trkpt>
      <trkpt lat="44.64954" lon="3.8669">
        <ele>1237.83</ele>
        <time>2013-06-01T14:49:34Z</time>
      </trkpt>
      <trkpt lat="44.64949" lon="3.86719">
        <ele>1238.8</ele>
        <time>2013-06-01T14:49:49Z</time>
      </trkpt>
      <trkpt lat="44.64945" lon="3.86747">
        <ele>1239.28</ele>
        <time>2013-06-01T14:50:02Z</time>
      </trkpt>
      <trkpt lat="44.64936" lon="3.86782">
        <ele>1241.68</ele>
        <time>2013-06-01T14:50:20Z</time>
      </trkpt>
      <trkpt lat="44.6493" lon="3.86815">
        <ele>1241.68</ele>
        <time>2013-06-01T14:50:37Z</time>
      </trkpt>
      <trkpt lat="44.64929" lon="3.86816">
        <ele>1241.68</ele>
        <time>2013-06-01T14:50:38Z</time>
      </trkpt>
      <trkpt lat="44.64926" lon="3.8685">
        <ele>1242.64</ele>
        <time>2013-06-01T14:50:54Z</time>
      </trkpt>
      <trkpt lat="44.64922" lon="3.86868">
        <ele>1242.64</ele>
        <time>2013-06-01T14:51:02Z</time>
      </trkpt>
      <trkpt lat="44.6492" lon="3.8689">
        <ele>1242.64</ele>
        <time>2013-06-01T14:51:12Z</time>
      </trkpt>
      <trkpt lat="44.64918" lon="3.86912">
        <ele>1243.12</ele>
        <time>2013-06-01T14:51:23Z</time>
      </trkpt>
      <trkpt lat="44.64915" lon="3.86932">
        <ele>1243.12</ele>
        <time>2013-06-01T14:51:33Z</time>
      </trkpt>
      <trkpt lat="44.6491" lon="3.86952">
        <ele>1243.12</ele>
        <time>2013-06-01T14:51:43Z</time>
      </trkpt>
      <trkpt lat="44.64909" lon="3.86976">
        <ele>1243.12</ele>
        <time>2013-06-01T14:51:54Z</time>
      </trkpt>
      <trkpt lat="44.64908" lon="3.86992">
        <ele>1243.12</ele>
        <time>2013-06-01T14:52:02Z</time>
      </trkpt>
      <trkpt lat="44.64914" lon="3.87028">
        <ele>1242.16</ele>
        <time>2013-06-01T14:52:18Z</time>
      </trkpt>
      <trkpt lat="44.64914" lon="3.8703">
        <ele>1242.16</ele>
        <time>2013-06-01T14:52:19Z</time>
      </trkpt>
      <trkpt lat="44.64915" lon="3.87061">
        <ele>1242.16</ele>
        <time>2013-06-01T14:52:34Z</time>
      </trkpt>
      <trkpt lat="44.64916" lon="3.87094">
        <ele>1241.68</ele>
        <time>2013-06-01T14:52:51Z</time>
      </trkpt>
      <trkpt lat="44.64914" lon="3.87121">
        <ele>1241.2</ele>
        <time>2013-06-01T14:53:04Z</time>
      </trkpt>
      <trkpt lat="44.64915" lon="3.87152">
        <ele>1240.72</ele>
        <time>2013-06-01T14:53:19Z</time>
      </trkpt>
      <trkpt lat="44.64918" lon="3.8718">
        <ele>1239.76</ele>
        <time>2013-06-01T14:53:33Z</time>
      </trkpt>
      <trkpt lat="44.64918" lon="3.87201">
        <ele>1239.28</ele>
        <time>2013-06-01T14:53:44Z</time>
      </trkpt>
      <trkpt lat="44.64917" lon="3.87209">
        <ele>1238.8</ele>
        <time>2013-06-01T14:53:48Z</time>
      </trkpt>
      <trkpt lat="44.6491" lon="3.87242">
        <ele>1238.8</ele>
        <time>2013-06-01T14:54:07Z</time>
      </trkpt>
      <trkpt lat="44.64908" lon="3.87245">
        <ele>1237.35</ele>
        <time>2013-06-01T14:54:09Z</time>
      </trkpt>
      <trkpt lat="44.64897" lon="3.87279">
        <ele>1236.87</ele>
        <time>2013-06-01T14:54:27Z</time>
      </trkpt>
      <trkpt lat="44.64894" lon="3.87285">
        <ele>1236.39</ele>
        <time>2013-06-01T14:54:30Z</time>
      </trkpt>
      <trkpt lat="44.64892" lon="3.87292">
        <ele>1236.39</ele>
        <time>2013-06-01T14:54:34Z</time>
      </trkpt>
      <trkpt lat="44.64888" lon="3.87322">
        <ele>1235.91</ele>
        <time>2013-06-01T14:54:49Z</time>
      </trkpt>
      <trkpt lat="44.64888" lon="3.87325">
        <ele>1235.91</ele>
        <time>2013-06-01T14:54:51Z</time>
      </trkpt>
      <trkpt lat="44.6489" lon="3.87347">
        <ele>1235.43</ele>
        <time>2013-06-01T14:55:04Z</time>
      </trkpt>
      <trkpt lat="44.64892" lon="3.87363">
        <ele>1234.47</ele>
        <time>2013-06-01T14:55:17Z</time>
      </trkpt>
      <trkpt lat="44.64898" lon="3.87403">
        <ele>1233.51</ele>
        <time>2013-06-01T14:55:34Z</time>
      </trkpt>
      <trkpt lat="44.64902" lon="3.87434">
        <ele>1232.07</ele>
        <time>2013-06-01T14:55:50Z</time>
      </trkpt>
      <trkpt lat="44.64907" lon="3.87461">
        <ele>1231.11</ele>
        <time>2013-06-01T14:56:06Z</time>
      </trkpt>
      <trkpt lat="44.64912" lon="3.87491">
        <ele>1229.66</ele>
        <time>2013-06-01T14:56:23Z</time>
      </trkpt>
      <trkpt lat="44.64915" lon="3.87523">
        <ele>1228.7</ele>
        <time>2013-06-01T14:56:39Z</time>
      </trkpt>
      <trkpt lat="44.64916" lon="3.87525">
        <ele>1228.7</ele>
        <time>2013-06-01T14:56:40Z</time>
      </trkpt>
      <trkpt lat="44.64921" lon="3.87559">
        <ele>1227.74</ele>
        <time>2013-06-01T14:56:51Z</time>
      </trkpt>
      <trkpt lat="44.64949" lon="3.87577">
        <ele>1226.78</ele>
        <time>2013-06-01T14:57:07Z</time>
      </trkpt>
      <trkpt lat="44.64971" lon="3.87571">
        <ele>1225.82</ele>
        <time>2013-06-01T14:57:22Z</time>
      </trkpt>
      <trkpt lat="44.64989" lon="3.87574">
        <ele>1225.34</ele>
        <time>2013-06-01T14:57:34Z</time>
      </trkpt>
      <trkpt lat="44.64992" lon="3.87576">
        <ele>1225.34</ele>
        <time>2013-06-01T14:57:37Z</time>
      </trkpt>
      <trkpt lat="44.64998" lon="3.87583">
        <ele>1225.34</ele>
        <time>2013-06-01T14:57:44Z</time>
      </trkpt>
      <trkpt lat="44.6501" lon="3.87613">
        <ele>1224.38</ele>
        <time>2013-06-01T14:58:01Z</time>
      </trkpt>
      <trkpt lat="44.65028" lon="3.8764">
        <ele>1222.93</ele>
        <time>2013-06-01T14:58:17Z</time>
      </trkpt>
      <trkpt lat="44.65046" lon="3.87653">
        <ele>1221.01</ele>
        <time>2013-06-01T14:58:30Z</time>
      </trkpt>
      <trkpt lat="44.6506" lon="3.87672">
        <ele>1218.13</ele>
        <time>2013-06-01T14:58:44Z</time>
      </trkpt>
      <trkpt lat="44.65064" lon="3.87679">
        <ele>1217.65</ele>
        <time>2013-06-01T14:58:48Z</time>
      </trkpt>
      <trkpt lat="44.65075" lon="3.87693">
        <ele>1215.72</ele>
        <time>2013-06-01T14:58:57Z</time>
      </trkpt>
      <trkpt lat="44.65088" lon="3.87714">
        <ele>1212.36</ele>
        <time>2013-06-01T14:59:11Z</time>
      </trkpt>
      <trkpt lat="44.65093" lon="3.87722">
        <ele>1210.92</ele>
        <time>2013-06-01T14:59:17Z</time>
      </trkpt>
      <trkpt lat="44.65103" lon="3.87743">
        <ele>1207.55</ele>
        <time>2013-06-01T14:59:30Z</time>
      </trkpt>
      <trkpt lat="44.65106" lon="3.87752">
        <ele>1206.59</ele>
        <time>2013-06-01T14:59:35Z</time>
      </trkpt>
      <trkpt lat="44.65108" lon="3.87757">
        <ele>1206.11</ele>
        <time>2013-06-01T14:59:38Z</time>
      </trkpt>
      <trkpt lat="44.65111" lon="3.87761">
        <ele>1205.15</ele>
        <time>2013-06-01T14:59:41Z</time>
      </trkpt>
      <trkpt lat="44.65125" lon="3.87766">
        <ele>1203.23</ele>
        <time>2013-06-01T14:59:51Z</time>
      </trkpt>
      <trkpt lat="44.65142" lon="3.8777">
        <ele>1199.86</ele>
        <time>2013-06-01T15:00:05Z</time>
      </trkpt>
      <trkpt lat="44.65147" lon="3.87771">
        <ele>1199.38</ele>
        <time>2013-06-01T15:00:09Z</time>
      </trkpt>
      <trkpt lat="44.65166" lon="3.87768">
        <ele>1196.98</ele>
        <time>2013-06-01T15:00:21Z</time>
      </trkpt>
      <trkpt lat="44.6519" lon="3.87752">
        <ele>1195.54</ele>
        <time>2013-06-01T15:00:37Z</time>
      </trkpt>
      <trkpt lat="44.65206" lon="3.87734">
        <ele>1193.61</ele>
        <time>2013-06-01T15:00:51Z</time>
      </trkpt>
      <trkpt lat="44.65213" lon="3.87724">
        <ele>1192.65</ele>
        <time>2013-06-01T15:00:58Z</time>
      </trkpt>
      <trkpt lat="44.65215" lon="3.87724">
        <ele>1192.65</ele>
        <time>2013-06-01T15:01:00Z</time>
      </trkpt>
      <trkpt lat="44.65216" lon="3.87725">
        <ele>1191.21</ele>
        <time>2013-06-01T15:01:05Z</time>
      </trkpt>
      <trkpt lat="44.65214" lon="3.87731">
        <ele>1189.77</ele>
        <time>2013-06-01T15:01:10Z</time>
      </trkpt>
      <trkpt lat="44.65214" lon="3.87751">
        <ele>1186.88</ele>
        <time>2013-06-01T15:01:24Z</time>
      </trkpt>
      <trkpt lat="44.65211" lon="3.87774">
        <ele>1183.04</ele>
        <time>2013-06-01T15:01:39Z</time>
      </trkpt>
      <trkpt lat="44.65211" lon="3.87776">
        <ele>1183.04</ele>
        <time>2013-06-01T15:01:40Z</time>
      </trkpt>
      <trkpt lat="44.65205" lon="3.878">
        <ele>1179.67</ele>
        <time>2013-06-01T15:01:54Z</time>
      </trkpt>
      <trkpt lat="44.65205" lon="3.87807">
        <ele>1179.19</ele>
        <time>2013-06-01T15:01:57Z</time>
      </trkpt>
      <trkpt lat="44.65204" lon="3.87812">
        <ele>1179.19</ele>
        <time>2013-06-01T15:02:00Z</time>
      </trkpt>
      <trkpt lat="44.65196" lon="3.87835">
        <ele>1177.27</ele>
        <time>2013-06-01T15:02:13Z</time>
      </trkpt>
      <trkpt lat="44.65192" lon="3.87865">
        <ele>1175.35</ele>
        <time>2013-06-01T15:02:28Z</time>
      </trkpt>
      <trkpt lat="44.65179" lon="3.87888">
        <ele>1171.5</ele>
        <time>2013-06-01T15:02:42Z</time>
      </trkpt>
      <trkpt lat="44.65167" lon="3.87913">
        <ele>1169.1</ele>
        <time>2013-06-01T15:02:58Z</time>
      </trkpt>
      <trkpt lat="44.65155" lon="3.87925">
        <ele>1166.7</ele>
        <time>2013-06-01T15:03:06Z</time>
      </trkpt>
      <trkpt lat="44.65144" lon="3.87937">
        <ele>1163.33</ele>
        <time>2013-06-01T15:03:16Z</time>
      </trkpt>
      <trkpt lat="44.65135" lon="3.87958">
        <ele>1160.93</ele>
        <time>2013-06-01T15:03:31Z</time>
      </trkpt>
      <trkpt lat="44.65127" lon="3.87984">
        <ele>1158.05</ele>
        <time>2013-06-01T15:03:47Z</time>
      </trkpt>
      <trkpt lat="44.65115" lon="3.88007">
        <ele>1155.64</ele>
        <time>2013-06-01T15:04:01Z</time>
      </trkpt>
      <trkpt lat="44.65106" lon="3.88036">
        <ele>1152.28</ele>
        <time>2013-06-01T15:04:18Z</time>
      </trkpt>
      <trkpt lat="44.65101" lon="3.88049">
        <ele>1150.84</ele>
        <time>2013-06-01T15:04:25Z</time>
      </trkpt>
      <trkpt lat="44.65098" lon="3.88067">
        <ele>1150.35</ele>
        <time>2013-06-01T15:04:37Z</time>
      </trkpt>
      <trkpt lat="44.65097" lon="3.88083">
        <ele>1146.99</ele>
        <time>2013-06-01T15:04:46Z</time>
      </trkpt>
      <trkpt lat="44.651" lon="3.88113">
        <ele>1145.07</ele>
        <time>2013-06-01T15:05:01Z</time>
      </trkpt>
      <trkpt lat="44.651" lon="3.88117">
        <ele>1144.11</ele>
        <time>2013-06-01T15:05:03Z</time>
      </trkpt>
      <trkpt lat="44.65098" lon="3.88119">
        <ele>1143.63</ele>
        <time>2013-06-01T15:05:05Z</time>
      </trkpt>
      <trkpt lat="44.65102" lon="3.88153">
        <ele>1140.74</ele>
        <time>2013-06-01T15:05:20Z</time>
      </trkpt>
      <trkpt lat="44.65105" lon="3.88173">
        <ele>1138.82</ele>
        <time>2013-06-01T15:05:33Z</time>
      </trkpt>
      <trkpt lat="44.65109" lon="3.88188">
        <ele>1136.42</ele>
        <time>2013-06-01T15:05:45Z</time>
      </trkpt>
      <trkpt lat="44.65111" lon="3.88198">
        <ele>1135.45</ele>
        <time>2013-06-01T15:05:51Z</time>
      </trkpt>
      <trkpt lat="44.65119" lon="3.88224">
        <ele>1134.01</ele>
        <time>2013-06-01T15:06:04Z</time>
      </trkpt>
      <trkpt lat="44.65125" lon="3.88247">
        <ele>1132.09</ele>
        <time>2013-06-01T15:06:17Z</time>
      </trkpt>
      <trkpt lat="44.65121" lon="3.88276">
        <ele>1129.21</ele>
        <time>2013-06-01T15:06:29Z</time>
      </trkpt>
      <trkpt lat="44.65122" lon="3.88305">
        <ele>1126.8</ele>
        <time>2013-06-01T15:06:43Z</time>
      </trkpt>
      <trkpt lat="44.65124" lon="3.88325">
        <ele>1125.36</ele>
        <time>2013-06-01T15:06:54Z</time>
      </trkpt>
      <trkpt lat="44.65122" lon="3.88347">
        <ele>1123.44</ele>
        <time>2013-06-01T15:07:06Z</time>
      </trkpt>
      <trkpt lat="44.65121" lon="3.88363">
        <ele>1119.59</ele>
        <time>2013-06-01T15:07:14Z</time>
      </trkpt>
      <trkpt lat="44.6512" lon="3.88364">
        <ele>1119.59</ele>
        <time>2013-06-01T15:07:15Z</time>
      </trkpt>
      <trkpt lat="44.65119" lon="3.88373">
        <ele>1121.03</ele>
        <time>2013-06-01T15:07:19Z</time>
      </trkpt>
      <trkpt lat="44.65117" lon="3.88379">
        <ele>1119.11</ele>
        <time>2013-06-01T15:07:22Z</time>
      </trkpt>
      <trkpt lat="44.65115" lon="3.88403">
        <ele>1117.67</ele>
        <time>2013-06-01T15:07:32Z</time>
      </trkpt>
      <trkpt lat="44.65116" lon="3.88433">
        <ele>1116.71</ele>
        <time>2013-06-01T15:07:45Z</time>
      </trkpt>
      <trkpt lat="44.65108" lon="3.88462">
        <ele>1114.31</ele>
        <time>2013-06-01T15:08:00Z</time>
      </trkpt>
      <trkpt lat="44.65105" lon="3.88484">
        <ele>1112.86</ele>
        <time>2013-06-01T15:08:12Z</time>
      </trkpt>
      <trkpt lat="44.65104" lon="3.88496">
        <ele>1111.42</ele>
        <time>2013-06-01T15:08:18Z</time>
      </trkpt>
      <trkpt lat="44.65098" lon="3.8853">
        <ele>1108.06</ele>
        <time>2013-06-01T15:08:34Z</time>
      </trkpt>
      <trkpt lat="44.65088" lon="3.88565">
        <ele>1106.61</ele>
        <time>2013-06-01T15:08:50Z</time>
      </trkpt>
      <trkpt lat="44.65082" lon="3.88588">
        <ele>1104.69</ele>
        <time>2013-06-01T15:09:00Z</time>
      </trkpt>
      <trkpt lat="44.65071" lon="3.88615">
        <ele>1102.77</ele>
        <time>2013-06-01T15:09:17Z</time>
      </trkpt>
      <trkpt lat="44.65053" lon="3.88642">
        <ele>1101.33</ele>
        <time>2013-06-01T15:09:34Z</time>
      </trkpt>
      <trkpt lat="44.65041" lon="3.88659">
        <ele>1098.92</ele>
        <time>2013-06-01T15:09:44Z</time>
      </trkpt>
      <trkpt lat="44.65033" lon="3.88684">
        <ele>1095.56</ele>
        <time>2013-06-01T15:09:57Z</time>
      </trkpt>
      <trkpt lat="44.65029" lon="3.88692">
        <ele>1094.6</ele>
        <time>2013-06-01T15:10:06Z</time>
      </trkpt>
      <trkpt lat="44.65038" lon="3.88717">
        <ele>1090.75</ele>
        <time>2013-06-01T15:10:21Z</time>
      </trkpt>
      <trkpt lat="44.65042" lon="3.88722">
        <ele>1089.31</ele>
        <time>2013-06-01T15:10:24Z</time>
      </trkpt>
      <trkpt lat="44.65062" lon="3.88738">
        <ele>1085.95</ele>
        <time>2013-06-01T15:10:40Z</time>
      </trkpt>
      <trkpt lat="44.65076" lon="3.88751">
        <ele>1083.54</ele>
        <time>2013-06-01T15:10:53Z</time>
      </trkpt>
      <trkpt lat="44.65097" lon="3.8877">
        <ele>1080.66</ele>
        <time>2013-06-01T15:11:09Z</time>
      </trkpt>
      <trkpt lat="44.65101" lon="3.88772">
        <ele>1081.62</ele>
        <time>2013-06-01T15:11:16Z</time>
      </trkpt>
      <trkpt lat="44.651" lon="3.88772">
        <ele>1080.18</ele>
        <time>2013-06-01T15:11:21Z</time>
      </trkpt>
      <trkpt lat="44.651" lon="3.88773">
        <ele>1084.02</ele>
        <time>2013-06-01T15:11:24Z</time>
      </trkpt>
      <trkpt lat="44.651" lon="3.88773">
        <ele>1082.58</ele>
        <time>2013-06-01T15:11:25Z</time>
      </trkpt>
      <trkpt lat="44.651" lon="3.88773">
        <ele>1080.66</ele>
        <time>2013-06-01T15:11:27Z</time>
      </trkpt>
      <trkpt lat="44.65099" lon="3.88777">
        <ele>1080.18</ele>
        <time>2013-06-01T15:11:56Z</time>
      </trkpt>
      <trkpt lat="44.65099" lon="3.88777">
        <ele>1080.18</ele>
        <time>2013-06-01T15:12:02Z</time>
      </trkpt>
      <trkpt lat="44.65103" lon="3.8878">
        <ele>1080.18</ele>
        <time>2013-06-01T15:12:07Z</time>
      </trkpt>
      <trkpt lat="44.65127" lon="3.88784">
        <ele>1076.33</ele>
        <time>2013-06-01T15:12:23Z</time>
      </trkpt>
      <trkpt lat="44.65141" lon="3.88791">
        <ele>1076.33</ele>
        <time>2013-06-01T15:12:33Z</time>
      </trkpt>
      <trkpt lat="44.65147" lon="3.88793">
        <ele>1074.89</ele>
        <time>2013-06-01T15:12:37Z</time>
      </trkpt>
      <trkpt lat="44.65157" lon="3.88795">
        <ele>1074.89</ele>
        <time>2013-06-01T15:12:45Z</time>
      </trkpt>
      <trkpt lat="44.65159" lon="3.88799">
        <ele>1073.45</ele>
        <time>2013-06-01T15:12:48Z</time>
      </trkpt>
      <trkpt lat="44.65169" lon="3.88824">
        <ele>1071.53</ele>
        <time>2013-06-01T15:13:04Z</time>
      </trkpt>
      <trkpt lat="44.65178" lon="3.88855">
        <ele>1068.16</ele>
        <time>2013-06-01T15:13:21Z</time>
      </trkpt>
      <trkpt lat="44.65182" lon="3.88882">
        <ele>1067.2</ele>
        <time>2013-06-01T15:13:36Z</time>
      </trkpt>
      <trkpt lat="44.65182" lon="3.88892">
        <ele>1065.28</ele>
        <time>2013-06-01T15:13:41Z</time>
      </trkpt>
      <trkpt lat="44.65175" lon="3.88913">
        <ele>1062.87</ele>
        <time>2013-06-01T15:13:52Z</time>
      </trkpt>
      <trkpt lat="44.65165" lon="3.8893">
        <ele>1061.43</ele>
        <time>2013-06-01T15:14:03Z</time>
      </trkpt>
      <trkpt lat="44.65164" lon="3.88936">
        <ele>1059.51</ele>
        <time>2013-06-01T15:14:07Z</time>
      </trkpt>
      <trkpt lat="44.65166" lon="3.88952">
        <ele>1056.15</ele>
        <time>2013-06-01T15:14:15Z</time>
      </trkpt>
      <trkpt lat="44.65158" lon="3.88967">
        <ele>1054.22</ele>
        <time>2013-06-01T15:14:30Z</time>
      </trkpt>
      <trkpt lat="44.65148" lon="3.88971">
        <ele>1051.34</ele>
        <time>2013-06-01T15:14:38Z</time>
      </trkpt>
      <trkpt lat="44.65129" lon="3.88973">
        <ele>1048.45</ele>
        <time>2013-06-01T15:14:51Z</time>
      </trkpt>
      <trkpt lat="44.65128" lon="3.88973">
        <ele>1047.97</ele>
        <time>2013-06-01T15:14:52Z</time>
      </trkpt>
      <trkpt lat="44.65124" lon="3.88974">
        <ele>1047.01</ele>
        <time>2013-06-01T15:14:54Z</time>
      </trkpt>
      <trkpt lat="44.65109" lon="3.88977">
        <ele>1045.57</ele>
        <time>2013-06-01T15:15:04Z</time>
      </trkpt>
      <trkpt lat="44.65092" lon="3.88976">
        <ele>1042.21</ele>
        <time>2013-06-01T15:15:16Z</time>
      </trkpt>
      <trkpt lat="44.65076" lon="3.88973">
        <ele>1039.8</ele>
        <time>2013-06-01T15:15:29Z</time>
      </trkpt>
      <trkpt lat="44.65063" lon="3.88972">
        <ele>1037.4</ele>
        <time>2013-06-01T15:15:39Z</time>
      </trkpt>
      <trkpt lat="44.65047" lon="3.8898">
        <ele>1034.04</ele>
        <time>2013-06-01T15:15:50Z</time>
      </trkpt>
      <trkpt lat="44.65044" lon="3.88983">
        <ele>1033.07</ele>
        <time>2013-06-01T15:15:53Z</time>
      </trkpt>
      <trkpt lat="44.65024" lon="3.89001">
        <ele>1031.15</ele>
        <time>2013-06-01T15:16:09Z</time>
      </trkpt>
      <trkpt lat="44.65014" lon="3.89008">
        <ele>1030.19</ele>
        <time>2013-06-01T15:16:17Z</time>
      </trkpt>
      <trkpt lat="44.6499" lon="3.89008">
        <ele>1026.83</ele>
        <time>2013-06-01T15:16:32Z</time>
      </trkpt>
      <trkpt lat="44.64968" lon="3.89014">
        <ele>1023.94</ele>
        <time>2013-06-01T15:16:48Z</time>
      </trkpt>
      <trkpt lat="44.64944" lon="3.89021">
        <ele>1022.02</ele>
        <time>2013-06-01T15:17:04Z</time>
      </trkpt>
      <trkpt lat="44.64936" lon="3.89021">
        <ele>1020.58</ele>
        <time>2013-06-01T15:17:10Z</time>
      </trkpt>
      <trkpt lat="44.6493" lon="3.89025">
        <ele>1018.65</ele>
        <time>2013-06-01T15:17:16Z</time>
      </trkpt>
      <trkpt lat="44.64926" lon="3.8903">
        <ele>1017.69</ele>
        <time>2013-06-01T15:17:21Z</time>
      </trkpt>
      <trkpt lat="44.64897" lon="3.89032">
        <ele>1015.29</ele>
        <time>2013-06-01T15:17:40Z</time>
      </trkpt>
      <trkpt lat="44.64878" lon="3.89037">
        <ele>1011.93</ele>
        <time>2013-06-01T15:17:54Z</time>
      </trkpt>
      <trkpt lat="44.64854" lon="3.8906">
        <ele>1011.93</ele>
        <time>2013-06-01T15:18:13Z</time>
      </trkpt>
      <trkpt lat="44.64837" lon="3.89078">
        <ele>1012.89</ele>
        <time>2013-06-01T15:18:29Z</time>
      </trkpt>
      <trkpt lat="44.64809" lon="3.89102">
        <ele>1015.29</ele>
        <time>2013-06-01T15:18:52Z</time>
      </trkpt>
      <trkpt lat="44.6479" lon="3.89113">
        <ele>1018.65</ele>
        <time>2013-06-01T15:19:07Z</time>
      </trkpt>
      <trkpt lat="44.64788" lon="3.89114">
        <ele>1018.65</ele>
        <time>2013-06-01T15:19:08Z</time>
      </trkpt>
      <trkpt lat="44.64775" lon="3.89116">
        <ele>1017.21</ele>
        <time>2013-06-01T15:19:16Z</time>
      </trkpt>
      <trkpt lat="44.64763" lon="3.8912">
        <ele>1018.65</ele>
        <time>2013-06-01T15:19:24Z</time>
      </trkpt>
      <trkpt lat="44.64743" lon="3.89134">
        <ele>1018.65</ele>
        <time>2013-06-01T15:19:38Z</time>
      </trkpt>
      <trkpt lat="44.64723" lon="3.89141">
        <ele>1019.13</ele>
        <time>2013-06-01T15:19:52Z</time>
      </trkpt>
      <trkpt lat="44.64705" lon="3.89146">
        <ele>1017.69</ele>
        <time>2013-06-01T15:20:05Z</time>
      </trkpt>
      <trkpt lat="44.64691" lon="3.89153">
        <ele>1016.73</ele>
        <time>2013-06-01T15:20:18Z</time>
      </trkpt>
      <trkpt lat="44.64676" lon="3.89163">
        <ele>1017.69</ele>
        <time>2013-06-01T15:20:29Z</time>
      </trkpt>
      <trkpt lat="44.64656" lon="3.89178">
        <ele>1019.13</ele>
        <time>2013-06-01T15:20:45Z</time>
      </trkpt>
      <trkpt lat="44.64638" lon="3.89193">
        <ele>1019.13</ele>
        <time>2013-06-01T15:21:01Z</time>
      </trkpt>
      <trkpt lat="44.64622" lon="3.89213">
        <ele>1017.21</ele>
        <time>2013-06-01T15:21:17Z</time>
      </trkpt>
      <trkpt lat="44.64614" lon="3.89219">
        <ele>1016.73</ele>
        <time>2013-06-01T15:21:22Z</time>
      </trkpt>
      <trkpt lat="44.64595" lon="3.8925">
        <ele>1015.29</ele>
        <time>2013-06-01T15:21:39Z</time>
      </trkpt>
      <trkpt lat="44.64576" lon="3.89276">
        <ele>1013.85</ele>
        <time>2013-06-01T15:21:55Z</time>
      </trkpt>
      <trkpt lat="44.64568" lon="3.89285">
        <ele>1015.29</ele>
        <time>2013-06-01T15:22:01Z</time>
      </trkpt>
      <trkpt lat="44.64566" lon="3.89288">
        <ele>1013.85</ele>
        <time>2013-06-01T15:22:03Z</time>
      </trkpt>
      <trkpt lat="44.64544" lon="3.89315">
        <ele>1011.93</ele>
        <time>2013-06-01T15:22:22Z</time>
      </trkpt>
      <trkpt lat="44.6452" lon="3.89338">
        <ele>1010</ele>
        <time>2013-06-01T15:22:43Z</time>
      </trkpt>
      <trkpt lat="44.64497" lon="3.89359">
        <ele>1010</ele>
        <time>2013-06-01T15:23:01Z</time>
      </trkpt>
      <trkpt lat="44.64496" lon="3.8936">
        <ele>1010</ele>
        <time>2013-06-01T15:23:02Z</time>
      </trkpt>
      <trkpt lat="44.6449" lon="3.89365">
        <ele>1008.08</ele>
        <time>2013-06-01T15:23:07Z</time>
      </trkpt>
      <trkpt lat="44.64462" lon="3.89385">
        <ele>1006.64</ele>
        <time>2013-06-01T15:23:28Z</time>
      </trkpt>
      <trkpt lat="44.64443" lon="3.89394">
        <ele>1004.23</ele>
        <time>2013-06-01T15:23:42Z</time>
      </trkpt>
      <trkpt lat="44.64415" lon="3.89408">
        <ele>1003.27</ele>
        <time>2013-06-01T15:24:02Z</time>
      </trkpt>
      <trkpt lat="44.6439" lon="3.89419">
        <ele>1000.87</ele>
        <time>2013-06-01T15:24:20Z</time>
      </trkpt>
      <trkpt lat="44.64352" lon="3.89423">
        <ele>999.43</ele>
        <time>2013-06-01T15:24:44Z</time>
      </trkpt>
      <trkpt lat="44.64324" lon="3.89423">
        <ele>998.95</ele>
        <time>2013-06-01T15:25:03Z</time>
      </trkpt>
      <trkpt lat="44.64291" lon="3.89414">
        <ele>996.54</ele>
        <time>2013-06-01T15:25:26Z</time>
      </trkpt>
      <trkpt lat="44.64287" lon="3.89411">
        <ele>998.95</ele>
        <time>2013-06-01T15:25:29Z</time>
      </trkpt>
      <trkpt lat="44.64265" lon="3.894">
        <ele>997.51</ele>
        <time>2013-06-01T15:25:45Z</time>
      </trkpt>
      <trkpt lat="44.64251" lon="3.89395">
        <ele>996.54</ele>
        <time>2013-06-01T15:25:56Z</time>
      </trkpt>
      <trkpt lat="44.64234" lon="3.89381">
        <ele>996.54</ele>
        <time>2013-06-01T15:26:09Z</time>
      </trkpt>
      <trkpt lat="44.64213" lon="3.89362">
        <ele>997.51</ele>
        <time>2013-06-01T15:26:26Z</time>
      </trkpt>
      <trkpt lat="44.64185" lon="3.89338">
        <ele>995.58</ele>
        <time>2013-06-01T15:26:48Z</time>
      </trkpt>
      <trkpt lat="44.64177" lon="3.8933">
        <ele>996.06</ele>
        <time>2013-06-01T15:26:55Z</time>
      </trkpt>
      <trkpt lat="44.64165" lon="3.8932">
        <ele>994.62</ele>
        <time>2013-06-01T15:27:04Z</time>
      </trkpt>
      <trkpt lat="44.64142" lon="3.89297">
        <ele>994.14</ele>
        <time>2013-06-01T15:27:22Z</time>
      </trkpt>
      <trkpt lat="44.6412" lon="3.89276">
        <ele>993.66</ele>
        <time>2013-06-01T15:27:41Z</time>
      </trkpt>
      <trkpt lat="44.64093" lon="3.89259">
        <ele>992.22</ele>
        <time>2013-06-01T15:28:01Z</time>
      </trkpt>
      <trkpt lat="44.64057" lon="3.89246">
        <ele>990.78</ele>
        <time>2013-06-01T15:28:26Z</time>
      </trkpt>
      <trkpt lat="44.6402" lon="3.89243">
        <ele>990.78</ele>
        <time>2013-06-01T15:28:51Z</time>
      </trkpt>
      <trkpt lat="44.63989" lon="3.89242">
        <ele>990.3</ele>
        <time>2013-06-01T15:29:13Z</time>
      </trkpt>
      <trkpt lat="44.63964" lon="3.89243">
        <ele>989.33</ele>
        <time>2013-06-01T15:29:31Z</time>
      </trkpt>
      <trkpt lat="44.63956" lon="3.89243">
        <ele>990.78</ele>
        <time>2013-06-01T15:29:37Z</time>
      </trkpt>
      <trkpt lat="44.63953" lon="3.89243">
        <ele>990.78</ele>
        <time>2013-06-01T15:29:39Z</time>
      </trkpt>
      <trkpt lat="44.63918" lon="3.89243">
        <ele>989.81</ele>
        <time>2013-06-01T15:30:03Z</time>
      </trkpt>
      <trkpt lat="44.63885" lon="3.89243">
        <ele>989.33</ele>
        <time>2013-06-01T15:30:25Z</time>
      </trkpt>
      <trkpt lat="44.63871" lon="3.89243">
        <ele>991.74</ele>
        <time>2013-06-01T15:30:35Z</time>
      </trkpt>
      <trkpt lat="44.63866" lon="3.89244">
        <ele>990.3</ele>
        <time>2013-06-01T15:30:38Z</time>
      </trkpt>
      <trkpt lat="44.6384" lon="3.89247">
        <ele>989.33</ele>
        <time>2013-06-01T15:30:56Z</time>
      </trkpt>
      <trkpt lat="44.63817" lon="3.89259">
        <ele>989.33</ele>
        <time>2013-06-01T15:31:14Z</time>
      </trkpt>
      <trkpt lat="44.63786" lon="3.89282">
        <ele>988.85</ele>
        <time>2013-06-01T15:31:37Z</time>
      </trkpt>
      <trkpt lat="44.63758" lon="3.89306">
        <ele>988.37</ele>
        <time>2013-06-01T15:31:58Z</time>
      </trkpt>
      <trkpt lat="44.63743" lon="3.89339">
        <ele>988.37</ele>
        <time>2013-06-01T15:32:17Z</time>
      </trkpt>
      <trkpt lat="44.63728" lon="3.8936">
        <ele>989.33</ele>
        <time>2013-06-01T15:32:34Z</time>
      </trkpt>
      <trkpt lat="44.63726" lon="3.89361">
        <ele>989.33</ele>
        <time>2013-06-01T15:32:35Z</time>
      </trkpt>
      <trkpt lat="44.63724" lon="3.89361">
        <ele>989.33</ele>
        <time>2013-06-01T15:32:40Z</time>
      </trkpt>
      <trkpt lat="44.63732" lon="3.89359">
        <ele>989.33</ele>
        <time>2013-06-01T15:32:49Z</time>
      </trkpt>
      <trkpt lat="44.63737" lon="3.89354">
        <ele>989.33</ele>
        <time>2013-06-01T15:32:57Z</time>
      </trkpt>
      <trkpt lat="44.6374" lon="3.89347">
        <ele>987.89</ele>
        <time>2013-06-01T15:33:02Z</time>
      </trkpt>
      <trkpt lat="44.63742" lon="3.89346">
        <ele>987.41</ele>
        <time>2013-06-01T15:33:22Z</time>
      </trkpt>
      <trkpt lat="44.63742" lon="3.89342">
        <ele>988.85</ele>
        <time>2013-06-01T15:33:56Z</time>
      </trkpt>
      <trkpt lat="44.63741" lon="3.89344">
        <ele>988.85</ele>
        <time>2013-06-01T15:34:14Z</time>
      </trkpt>
      <trkpt lat="44.63721" lon="3.89357">
        <ele>988.85</ele>
        <time>2013-06-01T15:34:34Z</time>
      </trkpt>
      <trkpt lat="44.63697" lon="3.89363">
        <ele>988.85</ele>
        <time>2013-06-01T15:34:52Z</time>
      </trkpt>
      <trkpt lat="44.63667" lon="3.89369">
        <ele>988.85</ele>
        <time>2013-06-01T15:35:13Z</time>
      </trkpt>
      <trkpt lat="44.63643" lon="3.89378">
        <ele>988.37</ele>
        <time>2013-06-01T15:35:29Z</time>
      </trkpt>
      <trkpt lat="44.63613" lon="3.89388">
        <ele>988.37</ele>
        <time>2013-06-01T15:35:50Z</time>
      </trkpt>
      <trkpt lat="44.63586" lon="3.89396">
        <ele>989.33</ele>
        <time>2013-06-01T15:36:10Z</time>
      </trkpt>
      <trkpt lat="44.63557" lon="3.89405">
        <ele>989.33</ele>
        <time>2013-06-01T15:36:31Z</time>
      </trkpt>
      <trkpt lat="44.6353" lon="3.89412">
        <ele>988.85</ele>
        <time>2013-06-01T15:36:50Z</time>
      </trkpt>
      <trkpt lat="44.63504" lon="3.89419">
        <ele>986.45</ele>
        <time>2013-06-01T15:37:09Z</time>
      </trkpt>
      <trkpt lat="44.63482" lon="3.89427">
        <ele>985.01</ele>
        <time>2013-06-01T15:37:25Z</time>
      </trkpt>
      <trkpt lat="44.63481" lon="3.89428">
        <ele>985.01</ele>
        <time>2013-06-01T15:37:26Z</time>
      </trkpt>
      <trkpt lat="44.63477" lon="3.89456">
        <ele>985.01</ele>
        <time>2013-06-01T15:37:44Z</time>
      </trkpt>
      <trkpt lat="44.63476" lon="3.89473">
        <ele>987.41</ele>
        <time>2013-06-01T15:37:54Z</time>
      </trkpt>
      <trkpt lat="44.63474" lon="3.89486">
        <ele>985.97</ele>
        <time>2013-06-01T15:38:01Z</time>
      </trkpt>
      <trkpt lat="44.63471" lon="3.89493">
        <ele>985.49</ele>
        <time>2013-06-01T15:38:08Z</time>
      </trkpt>
      <trkpt lat="44.63466" lon="3.89493">
        <ele>985.49</ele>
        <time>2013-06-01T15:38:13Z</time>
      </trkpt>
      <trkpt lat="44.63445" lon="3.89482">
        <ele>984.05</ele>
        <time>2013-06-01T15:38:31Z</time>
      </trkpt>
      <trkpt lat="44.63422" lon="3.89473">
        <ele>981.16</ele>
        <time>2013-06-01T15:38:48Z</time>
      </trkpt>
      <trkpt lat="44.63395" lon="3.89464">
        <ele>980.68</ele>
        <time>2013-06-01T15:39:07Z</time>
      </trkpt>
      <trkpt lat="44.63389" lon="3.89462">
        <ele>982.12</ele>
        <time>2013-06-01T15:39:11Z</time>
      </trkpt>
      <trkpt lat="44.63368" lon="3.89455">
        <ele>980.68</ele>
        <time>2013-06-01T15:39:25Z</time>
      </trkpt>
      <trkpt lat="44.63337" lon="3.89451">
        <ele>981.16</ele>
        <time>2013-06-01T15:39:46Z</time>
      </trkpt>
      <trkpt lat="44.63307" lon="3.89448">
        <ele>982.12</ele>
        <time>2013-06-01T15:40:07Z</time>
      </trkpt>
      <trkpt lat="44.63278" lon="3.8945">
        <ele>982.12</ele>
        <time>2013-06-01T15:40:26Z</time>
      </trkpt>
      <trkpt lat="44.63248" lon="3.89458">
        <ele>982.6</ele>
        <time>2013-06-01T15:40:46Z</time>
      </trkpt>
      <trkpt lat="44.63219" lon="3.89468">
        <ele>982.6</ele>
        <time>2013-06-01T15:41:07Z</time>
      </trkpt>
      <trkpt lat="44.63191" lon="3.89477">
        <ele>983.09</ele>
        <time>2013-06-01T15:41:27Z</time>
      </trkpt>
      <trkpt lat="44.63169" lon="3.89486">
        <ele>984.53</ele>
        <time>2013-06-01T15:41:44Z</time>
      </trkpt>
      <trkpt lat="44.63162" lon="3.89489">
        <ele>983.57</ele>
        <time>2013-06-01T15:41:49Z</time>
      </trkpt>
      <trkpt lat="44.63138" lon="3.89496">
        <ele>983.09</ele>
        <time>2013-06-01T15:42:05Z</time>
      </trkpt>
      <trkpt lat="44.63105" lon="3.89496">
        <ele>982.12</ele>
        <time>2013-06-01T15:42:28Z</time>
      </trkpt>
      <trkpt lat="44.63081" lon="3.89494">
        <ele>983.09</ele>
        <time>2013-06-01T15:42:45Z</time>
      </trkpt>
      <trkpt lat="44.63062" lon="3.89493">
        <ele>983.57</ele>
        <time>2013-06-01T15:42:58Z</time>
      </trkpt>
      <trkpt lat="44.6304" lon="3.89493">
        <ele>982.12</ele>
        <time>2013-06-01T15:43:12Z</time>
      </trkpt>
      <trkpt lat="44.63039" lon="3.89493">
        <ele>982.12</ele>
        <time>2013-06-01T15:43:13Z</time>
      </trkpt>
      <trkpt lat="44.6303" lon="3.89492">
        <ele>983.09</ele>
        <time>2013-06-01T15:43:19Z</time>
      </trkpt>
      <trkpt lat="44.63007" lon="3.8949">
        <ele>983.09</ele>
        <time>2013-06-01T15:43:34Z</time>
      </trkpt>
      <trkpt lat="44.62982" lon="3.89487">
        <ele>983.09</ele>
        <time>2013-06-01T15:43:52Z</time>
      </trkpt>
      <trkpt lat="44.6296" lon="3.89483">
        <ele>983.57</ele>
        <time>2013-06-01T15:44:07Z</time>
      </trkpt>
      <trkpt lat="44.62936" lon="3.8948">
        <ele>985.01</ele>
        <time>2013-06-01T15:44:23Z</time>
      </trkpt>
      <trkpt lat="44.62915" lon="3.89475">
        <ele>985.01</ele>
        <time>2013-06-01T15:44:39Z</time>
      </trkpt>
      <trkpt lat="44.62891" lon="3.89469">
        <ele>984.53</ele>
        <time>2013-06-01T15:44:56Z</time>
      </trkpt>
      <trkpt lat="44.62867" lon="3.89466">
        <ele>984.53</ele>
        <time>2013-06-01T15:45:13Z</time>
      </trkpt>
      <trkpt lat="44.62837" lon="3.89463">
        <ele>984.53</ele>
        <time>2013-06-01T15:45:33Z</time>
      </trkpt>
      <trkpt lat="44.62817" lon="3.89459">
        <ele>984.53</ele>
        <time>2013-06-01T15:45:47Z</time>
      </trkpt>
      <trkpt lat="44.62792" lon="3.89454">
        <ele>983.09</ele>
        <time>2013-06-01T15:46:05Z</time>
      </trkpt>
      <trkpt lat="44.62769" lon="3.89449">
        <ele>983.09</ele>
        <time>2013-06-01T15:46:21Z</time>
      </trkpt>
      <trkpt lat="44.62745" lon="3.89449">
        <ele>984.05</ele>
        <time>2013-06-01T15:46:37Z</time>
      </trkpt>
      <trkpt lat="44.62724" lon="3.89454">
        <ele>985.01</ele>
        <time>2013-06-01T15:46:50Z</time>
      </trkpt>
      <trkpt lat="44.627" lon="3.89463">
        <ele>986.93</ele>
        <time>2013-06-01T15:47:07Z</time>
      </trkpt>
      <trkpt lat="44.62682" lon="3.89472">
        <ele>985.97</ele>
        <time>2013-06-01T15:47:20Z</time>
      </trkpt>
      <trkpt lat="44.62661" lon="3.89483">
        <ele>985.97</ele>
        <time>2013-06-01T15:47:35Z</time>
      </trkpt>
      <trkpt lat="44.62658" lon="3.89485">
        <ele>987.41</ele>
        <time>2013-06-01T15:47:37Z</time>
      </trkpt>
      <trkpt lat="44.62642" lon="3.89495">
        <ele>986.93</ele>
        <time>2013-06-01T15:47:49Z</time>
      </trkpt>
      <trkpt lat="44.62636" lon="3.89498">
        <ele>985.97</ele>
        <time>2013-06-01T15:47:53Z</time>
      </trkpt>
      <trkpt lat="44.62618" lon="3.89506">
        <ele>985.97</ele>
        <time>2013-06-01T15:48:06Z</time>
      </trkpt>
      <trkpt lat="44.62598" lon="3.89515">
        <ele>985.97</ele>
        <time>2013-06-01T15:48:20Z</time>
      </trkpt>
      <trkpt lat="44.62578" lon="3.89527">
        <ele>985.97</ele>
        <time>2013-06-01T15:48:35Z</time>
      </trkpt>
      <trkpt lat="44.62577" lon="3.89527">
        <ele>985.97</ele>
        <time>2013-06-01T15:48:36Z</time>
      </trkpt>
      <trkpt lat="44.62552" lon="3.89541">
        <ele>986.93</ele>
        <time>2013-06-01T15:48:54Z</time>
      </trkpt>
      <trkpt lat="44.62523" lon="3.89555">
        <ele>987.89</ele>
        <time>2013-06-01T15:49:15Z</time>
      </trkpt>
      <trkpt lat="44.62504" lon="3.89563">
        <ele>989.33</ele>
        <time>2013-06-01T15:49:28Z</time>
      </trkpt>
      <trkpt lat="44.62487" lon="3.8957">
        <ele>990.78</ele>
        <time>2013-06-01T15:49:41Z</time>
      </trkpt>
      <trkpt lat="44.62481" lon="3.89571">
        <ele>990.78</ele>
        <time>2013-06-01T15:49:46Z</time>
      </trkpt>
      <trkpt lat="44.62473" lon="3.89573">
        <ele>991.26</ele>
        <time>2013-06-01T15:49:52Z</time>
      </trkpt>
      <trkpt lat="44.62446" lon="3.89574">
        <ele>993.18</ele>
        <time>2013-06-01T15:50:12Z</time>
      </trkpt>
      <trkpt lat="44.62424" lon="3.89566">
        <ele>996.54</ele>
        <time>2013-06-01T15:50:29Z</time>
      </trkpt>
      <trkpt lat="44.62402" lon="3.89557">
        <ele>999.43</ele>
        <time>2013-06-01T15:50:47Z</time>
      </trkpt>
      <trkpt lat="44.62379" lon="3.89547">
        <ele>1001.35</ele>
        <time>2013-06-01T15:51:04Z</time>
      </trkpt>
      <trkpt lat="44.62358" lon="3.89538">
        <ele>1002.79</ele>
        <time>2013-06-01T15:51:19Z</time>
      </trkpt>
      <trkpt lat="44.62337" lon="3.89541">
        <ele>1005.68</ele>
        <time>2013-06-01T15:51:35Z</time>
      </trkpt>
      <trkpt lat="44.62317" lon="3.89553">
        <ele>1007.6</ele>
        <time>2013-06-01T15:51:50Z</time>
      </trkpt>
      <trkpt lat="44.62298" lon="3.89567">
        <ele>1009.04</ele>
        <time>2013-06-01T15:52:06Z</time>
      </trkpt>
      <trkpt lat="44.62277" lon="3.89579">
        <ele>1011.44</ele>
        <time>2013-06-01T15:52:23Z</time>
      </trkpt>
      <trkpt lat="44.6226" lon="3.89581">
        <ele>1012.89</ele>
        <time>2013-06-01T15:52:36Z</time>
      </trkpt>
      <trkpt lat="44.62238" lon="3.8958">
        <ele>1016.25</ele>
        <time>2013-06-01T15:52:54Z</time>
      </trkpt>
      <trkpt lat="44.62222" lon="3.89576">
        <ele>1018.17</ele>
        <time>2013-06-01T15:53:07Z</time>
      </trkpt>
      <trkpt lat="44.622" lon="3.89575">
        <ele>1020.58</ele>
        <time>2013-06-01T15:53:23Z</time>
      </trkpt>
      <trkpt lat="44.6218" lon="3.89574">
        <ele>1021.06</ele>
        <time>2013-06-01T15:53:37Z</time>
      </trkpt>
      <trkpt lat="44.62154" lon="3.89572">
        <ele>1022.02</ele>
        <time>2013-06-01T15:53:56Z</time>
      </trkpt>
      <trkpt lat="44.62131" lon="3.89573">
        <ele>1022.98</ele>
        <time>2013-06-01T15:54:11Z</time>
      </trkpt>
      <trkpt lat="44.62111" lon="3.89575">
        <ele>1022.98</ele>
        <time>2013-06-01T15:54:25Z</time>
      </trkpt>
      <trkpt lat="44.62093" lon="3.8958">
        <ele>1023.94</ele>
        <time>2013-06-01T15:54:39Z</time>
      </trkpt>
      <trkpt lat="44.62067" lon="3.89589">
        <ele>1023.94</ele>
        <time>2013-06-01T15:54:57Z</time>
      </trkpt>
      <trkpt lat="44.62044" lon="3.89598">
        <ele>1022.98</ele>
        <time>2013-06-01T15:55:12Z</time>
      </trkpt>
      <trkpt lat="44.62029" lon="3.89604">
        <ele>1024.9</ele>
        <time>2013-06-01T15:55:23Z</time>
      </trkpt>
      <trkpt lat="44.6201" lon="3.89617">
        <ele>1024.42</ele>
        <time>2013-06-01T15:55:38Z</time>
      </trkpt>
      <trkpt lat="44.61989" lon="3.8963">
        <ele>1024.42</ele>
        <time>2013-06-01T15:55:54Z</time>
      </trkpt>
      <trkpt lat="44.6196" lon="3.89644">
        <ele>1024.9</ele>
        <time>2013-06-01T15:56:14Z</time>
      </trkpt>
      <trkpt lat="44.61929" lon="3.89654">
        <ele>1025.86</ele>
        <time>2013-06-01T15:56:36Z</time>
      </trkpt>
      <trkpt lat="44.61913" lon="3.89659">
        <ele>1026.34</ele>
        <time>2013-06-01T15:56:48Z</time>
      </trkpt>
      <trkpt lat="44.61908" lon="3.89661">
        <ele>1026.34</ele>
        <time>2013-06-01T15:56:52Z</time>
      </trkpt>
      <trkpt lat="44.61902" lon="3.89662">
        <ele>1026.83</ele>
        <time>2013-06-01T15:56:57Z</time>
      </trkpt>
      <trkpt lat="44.61878" lon="3.89674">
        <ele>1027.31</ele>
        <time>2013-06-01T15:57:14Z</time>
      </trkpt>
      <trkpt lat="44.61854" lon="3.89692">
        <ele>1028.27</ele>
        <time>2013-06-01T15:57:32Z</time>
      </trkpt>
      <trkpt lat="44.61833" lon="3.8971">
        <ele>1028.75</ele>
        <time>2013-06-01T15:57:48Z</time>
      </trkpt>
      <trkpt lat="44.61814" lon="3.89731">
        <ele>1029.23</ele>
        <time>2013-06-01T15:58:04Z</time>
      </trkpt>
      <trkpt lat="44.61796" lon="3.89753">
        <ele>1029.23</ele>
        <time>2013-06-01T15:58:20Z</time>
      </trkpt>
      <trkpt lat="44.61773" lon="3.89775">
        <ele>1030.67</ele>
        <time>2013-06-01T15:58:41Z</time>
      </trkpt>
      <trkpt lat="44.61754" lon="3.8979">
        <ele>1031.63</ele>
        <time>2013-06-01T15:58:57Z</time>
      </trkpt>
      <trkpt lat="44.61735" lon="3.89803">
        <ele>1032.59</ele>
        <time>2013-06-01T15:59:11Z</time>
      </trkpt>
      <trkpt lat="44.61724" lon="3.89806">
        <ele>1033.55</ele>
        <time>2013-06-01T15:59:19Z</time>
      </trkpt>
      <trkpt lat="44.61714" lon="3.8981">
        <ele>1035.96</ele>
        <time>2013-06-01T15:59:28Z</time>
      </trkpt>
      <trkpt lat="44.61705" lon="3.89819">
        <ele>1038.84</ele>
        <time>2013-06-01T15:59:36Z</time>
      </trkpt>
      <trkpt lat="44.61685" lon="3.89839">
        <ele>1037.4</ele>
        <time>2013-06-01T15:59:53Z</time>
      </trkpt>
      <trkpt lat="44.61668" lon="3.89855">
        <ele>1037.4</ele>
        <time>2013-06-01T16:00:07Z</time>
      </trkpt>
      <trkpt lat="44.61652" lon="3.89876">
        <ele>1035.96</ele>
        <time>2013-06-01T16:00:22Z</time>
      </trkpt>
      <trkpt lat="44.61637" lon="3.89904">
        <ele>1034.04</ele>
        <time>2013-06-01T16:00:40Z</time>
      </trkpt>
      <trkpt lat="44.61622" lon="3.89934">
        <ele>1032.11</ele>
        <time>2013-06-01T16:00:58Z</time>
      </trkpt>
      <trkpt lat="44.61611" lon="3.89954">
        <ele>1029.23</ele>
        <time>2013-06-01T16:01:09Z</time>
      </trkpt>
      <trkpt lat="44.61597" lon="3.89984">
        <ele>1026.83</ele>
        <time>2013-06-01T16:01:26Z</time>
      </trkpt>
      <trkpt lat="44.61593" lon="3.9">
        <ele>1026.83</ele>
        <time>2013-06-01T16:01:35Z</time>
      </trkpt>
      <trkpt lat="44.61587" lon="3.90018">
        <ele>1023.46</ele>
        <time>2013-06-01T16:01:45Z</time>
      </trkpt>
      <trkpt lat="44.61583" lon="3.9003">
        <ele>1022.98</ele>
        <time>2013-06-01T16:02:01Z</time>
      </trkpt>
      <trkpt lat="44.61581" lon="3.90039">
        <ele>1022.98</ele>
        <time>2013-06-01T16:02:22Z</time>
      </trkpt>
      <trkpt lat="44.61576" lon="3.90072">
        <ele>1020.1</ele>
        <time>2013-06-01T16:02:39Z</time>
      </trkpt>
      <trkpt lat="44.61575" lon="3.90093">
        <ele>1018.17</ele>
        <time>2013-06-01T16:02:53Z</time>
      </trkpt>
      <trkpt lat="44.61578" lon="3.90106">
        <ele>1018.17</ele>
        <time>2013-06-01T16:03:09Z</time>
      </trkpt>
      <trkpt lat="44.61578" lon="3.90109">
        <ele>1018.17</ele>
        <time>2013-06-01T16:03:27Z</time>
      </trkpt>
      <trkpt lat="44.61578" lon="3.9011">
        <ele>1019.13</ele>
        <time>2013-06-01T16:03:47Z</time>
      </trkpt>
      <trkpt lat="44.61578" lon="3.90107">
        <ele>1018.65</ele>
        <time>2013-06-01T16:04:03Z</time>
      </trkpt>
      <trkpt lat="44.61576" lon="3.90108">
        <ele>1017.69</ele>
        <time>2013-06-01T16:04:18Z</time>
      </trkpt>
      <trkpt lat="44.61574" lon="3.9011">
        <ele>1016.73</ele>
        <time>2013-06-01T16:04:27Z</time>
      </trkpt>
      <trkpt lat="44.61572" lon="3.90122">
        <ele>1015.29</ele>
        <time>2013-06-01T16:04:39Z</time>
      </trkpt>
      <trkpt lat="44.6157" lon="3.90134">
        <ele>1014.33</ele>
        <time>2013-06-01T16:04:54Z</time>
      </trkpt>
      <trkpt lat="44.61566" lon="3.90143">
        <ele>1013.37</ele>
        <time>2013-06-01T16:05:07Z</time>
      </trkpt>
      <trkpt lat="44.61565" lon="3.90144">
        <ele>1013.37</ele>
        <time>2013-06-01T16:05:08Z</time>
      </trkpt>
      <trkpt lat="44.61558" lon="3.90152">
        <ele>1011.44</ele>
        <time>2013-06-01T16:05:20Z</time>
      </trkpt>
      <trkpt lat="44.61554" lon="3.90154">
        <ele>1010.96</ele>
        <time>2013-06-01T16:05:34Z</time>
      </trkpt>
      <trkpt lat="44.61551" lon="3.90161">
        <ele>1010.48</ele>
        <time>2013-06-01T16:05:46Z</time>
      </trkpt>
      <trkpt lat="44.61547" lon="3.90164">
        <ele>1010.48</ele>
        <time>2013-06-01T16:05:54Z</time>
      </trkpt>
      <trkpt lat="44.61543" lon="3.9017">
        <ele>1010.48</ele>
        <time>2013-06-01T16:06:06Z</time>
      </trkpt>
      <trkpt lat="44.61537" lon="3.90173">
        <ele>1009.52</ele>
        <time>2013-06-01T16:06:19Z</time>
      </trkpt>
      <trkpt lat="44.61527" lon="3.90186">
        <ele>1008.08</ele>
        <time>2013-06-01T16:06:34Z</time>
      </trkpt>
      <trkpt lat="44.61527" lon="3.90187">
        <ele>1008.08</ele>
        <time>2013-06-01T16:06:35Z</time>
      </trkpt>
      <trkpt lat="44.61519" lon="3.90196">
        <ele>1005.68</ele>
        <time>2013-06-01T16:06:47Z</time>
      </trkpt>
      <trkpt lat="44.61514" lon="3.90203">
        <ele>1005.2</ele>
        <time>2013-06-01T16:06:56Z</time>
      </trkpt>
      <trkpt lat="44.61509" lon="3.90206">
        <ele>1004.23</ele>
        <time>2013-06-01T16:07:02Z</time>
      </trkpt>
      <trkpt lat="44.61509" lon="3.90209">
        <ele>1003.75</ele>
        <time>2013-06-01T16:07:04Z</time>
      </trkpt>
      <trkpt lat="44.61513" lon="3.90231">
        <ele>1001.83</ele>
        <time>2013-06-01T16:07:16Z</time>
      </trkpt>
      <trkpt lat="44.61521" lon="3.90263">
        <ele>1001.83</ele>
        <time>2013-06-01T16:07:34Z</time>
      </trkpt>
      <trkpt lat="44.61524" lon="3.90272">
        <ele>1001.83</ele>
        <time>2013-06-01T16:07:41Z</time>
      </trkpt>
      <trkpt lat="44.61529" lon="3.90294">
        <ele>1001.83</ele>
        <time>2013-06-01T16:07:54Z</time>
      </trkpt>
      <trkpt lat="44.6153" lon="3.903">
        <ele>1001.83</ele>
        <time>2013-06-01T16:07:57Z</time>
      </trkpt>
      <trkpt lat="44.61536" lon="3.90318">
        <ele>1003.27</ele>
        <time>2013-06-01T16:08:06Z</time>
      </trkpt>
      <trkpt lat="44.61546" lon="3.90342">
        <ele>1005.68</ele>
        <time>2013-06-01T16:08:20Z</time>
      </trkpt>
      <trkpt lat="44.61552" lon="3.90365">
        <ele>1008.56</ele>
        <time>2013-06-01T16:08:36Z</time>
      </trkpt>
      <trkpt lat="44.61554" lon="3.90384">
        <ele>1011.44</ele>
        <time>2013-06-01T16:08:50Z</time>
      </trkpt>
      <trkpt lat="44.61554" lon="3.90386">
        <ele>1011.44</ele>
        <time>2013-06-01T16:08:51Z</time>
      </trkpt>
      <trkpt lat="44.61552" lon="3.90388">
        <ele>1012.41</ele>
        <time>2013-06-01T16:08:56Z</time>
      </trkpt>
      <trkpt lat="44.61552" lon="3.90386">
        <ele>1012.41</ele>
        <time>2013-06-01T16:08:58Z</time>
      </trkpt>
      <trkpt lat="44.61551" lon="3.90371">
        <ele>1011.44</ele>
        <time>2013-06-01T16:09:09Z</time>
      </trkpt>
      <trkpt lat="44.61551" lon="3.9037">
        <ele>1011.44</ele>
        <time>2013-06-01T16:09:10Z</time>
      </trkpt>
      <trkpt lat="44.61544" lon="3.90348">
        <ele>1011.44</ele>
        <time>2013-06-01T16:09:24Z</time>
      </trkpt>
      <trkpt lat="44.61527" lon="3.90326">
        <ele>1009.52</ele>
        <time>2013-06-01T16:09:39Z</time>
      </trkpt>
      <trkpt lat="44.61507" lon="3.90312">
        <ele>1007.6</ele>
        <time>2013-06-01T16:09:55Z</time>
      </trkpt>
      <trkpt lat="44.61506" lon="3.90311">
        <ele>1007.6</ele>
        <time>2013-06-01T16:09:56Z</time>
      </trkpt>
      <trkpt lat="44.61506" lon="3.90304">
        <ele>1007.6</ele>
        <time>2013-06-01T16:10:00Z</time>
      </trkpt>
      <trkpt lat="44.61499" lon="3.90286">
        <ele>1008.08</ele>
        <time>2013-06-01T16:10:12Z</time>
      </trkpt>
      <trkpt lat="44.6149" lon="3.90265">
        <ele>1006.64</ele>
        <time>2013-06-01T16:10:26Z</time>
      </trkpt>
      <trkpt lat="44.61482" lon="3.9025">
        <ele>1006.16</ele>
        <time>2013-06-01T16:10:36Z</time>
      </trkpt>
      <trkpt lat="44.61477" lon="3.90241">
        <ele>1005.68</ele>
        <time>2013-06-01T16:10:41Z</time>
      </trkpt>
      <trkpt lat="44.61474" lon="3.90232">
        <ele>1003.75</ele>
        <time>2013-06-01T16:10:46Z</time>
      </trkpt>
      <trkpt lat="44.61469" lon="3.90215">
        <ele>1005.2</ele>
        <time>2013-06-01T16:10:57Z</time>
      </trkpt>
      <trkpt lat="44.61468" lon="3.90206">
        <ele>1005.2</ele>
        <time>2013-06-01T16:11:02Z</time>
      </trkpt>
      <trkpt lat="44.61467" lon="3.90199">
        <ele>1005.2</ele>
        <time>2013-06-01T16:11:06Z</time>
      </trkpt>
      <trkpt lat="44.61465" lon="3.90172">
        <ele>1003.27</ele>
        <time>2013-06-01T16:11:19Z</time>
      </trkpt>
      <trkpt lat="44.61459" lon="3.90153">
        <ele>1002.31</ele>
        <time>2013-06-01T16:11:31Z</time>
      </trkpt>
      <trkpt lat="44.61446" lon="3.90125">
        <ele>1000.87</ele>
        <time>2013-06-01T16:11:46Z</time>
      </trkpt>
      <trkpt lat="44.61444" lon="3.9012">
        <ele>1003.75</ele>
        <time>2013-06-01T16:11:49Z</time>
      </trkpt>
      <trkpt lat="44.61443" lon="3.90118">
        <ele>1003.75</ele>
        <time>2013-06-01T16:11:50Z</time>
      </trkpt>
      <trkpt lat="44.61427" lon="3.90097">
        <ele>1003.27</ele>
        <time>2013-06-01T16:12:05Z</time>
      </trkpt>
      <trkpt lat="44.61411" lon="3.90082">
        <ele>1006.16</ele>
        <time>2013-06-01T16:12:18Z</time>
      </trkpt>
      <trkpt lat="44.61392" lon="3.90076">
        <ele>1008.56</ele>
        <time>2013-06-01T16:12:31Z</time>
      </trkpt>
      <trkpt lat="44.6139" lon="3.90076">
        <ele>1008.56</ele>
        <time>2013-06-01T16:12:32Z</time>
      </trkpt>
      <trkpt lat="44.61382" lon="3.90084">
        <ele>1009.04</ele>
        <time>2013-06-01T16:12:38Z</time>
      </trkpt>
      <trkpt lat="44.61378" lon="3.90099">
        <ele>1007.6</ele>
        <time>2013-06-01T16:12:45Z</time>
      </trkpt>
      <trkpt lat="44.6137" lon="3.90127">
        <ele>1005.2</ele>
        <time>2013-06-01T16:13:00Z</time>
      </trkpt>
      <trkpt lat="44.6136" lon="3.90157">
        <ele>1004.23</ele>
        <time>2013-06-01T16:13:19Z</time>
      </trkpt>
      <trkpt lat="44.61348" lon="3.90182">
        <ele>1001.35</ele>
        <time>2013-06-01T16:13:34Z</time>
      </trkpt>
      <trkpt lat="44.61343" lon="3.90195">
        <ele>1000.39</ele>
        <time>2013-06-01T16:13:45Z</time>
      </trkpt>
      <trkpt lat="44.61339" lon="3.90207">
        <ele>999.43</ele>
        <time>2013-06-01T16:13:50Z</time>
      </trkpt>
      <trkpt lat="44.61334" lon="3.90214">
        <ele>998.47</ele>
        <time>2013-06-01T16:13:55Z</time>
      </trkpt>
      <trkpt lat="44.61331" lon="3.90219">
        <ele>999.91</ele>
        <time>2013-06-01T16:13:59Z</time>
      </trkpt>
      <trkpt lat="44.61329" lon="3.90221">
        <ele>998.47</ele>
        <time>2013-06-01T16:14:01Z</time>
      </trkpt>
      <trkpt lat="44.61323" lon="3.90223">
        <ele>999.91</ele>
        <time>2013-06-01T16:14:08Z</time>
      </trkpt>
      <trkpt lat="44.61316" lon="3.90224">
        <ele>998.47</ele>
        <time>2013-06-01T16:14:14Z</time>
      </trkpt>
      <trkpt lat="44.61303" lon="3.90226">
        <ele>996.54</ele>
        <time>2013-06-01T16:14:24Z</time>
      </trkpt>
      <trkpt lat="44.61287" lon="3.90231">
        <ele>995.58</ele>
        <time>2013-06-01T16:14:35Z</time>
      </trkpt>
      <trkpt lat="44.61283" lon="3.90233">
        <ele>997.02</ele>
        <time>2013-06-01T16:14:38Z</time>
      </trkpt>
      <trkpt lat="44.61279" lon="3.90236">
        <ele>995.1</ele>
        <time>2013-06-01T16:14:42Z</time>
      </trkpt>
      <trkpt lat="44.61271" lon="3.90242">
        <ele>998.47</ele>
        <time>2013-06-01T16:14:50Z</time>
      </trkpt>
      <trkpt lat="44.61254" lon="3.90254">
        <ele>998.95</ele>
        <time>2013-06-01T16:15:03Z</time>
      </trkpt>
      <trkpt lat="44.61238" lon="3.90263">
        <ele>1000.87</ele>
        <time>2013-06-01T16:15:15Z</time>
      </trkpt>
      <trkpt lat="44.61222" lon="3.90276">
        <ele>1003.27</ele>
        <time>2013-06-01T16:15:30Z</time>
      </trkpt>
      <trkpt lat="44.6122" lon="3.90302">
        <ele>1003.27</ele>
        <time>2013-06-01T16:15:43Z</time>
      </trkpt>
      <trkpt lat="44.6122" lon="3.90308">
        <ele>1003.27</ele>
        <time>2013-06-01T16:15:46Z</time>
      </trkpt>
      <trkpt lat="44.61219" lon="3.90324">
        <ele>1004.23</ele>
        <time>2013-06-01T16:15:56Z</time>
      </trkpt>
      <trkpt lat="44.61203" lon="3.90351">
        <ele>1005.68</ele>
        <time>2013-06-01T16:16:12Z</time>
      </trkpt>
      <trkpt lat="44.61193" lon="3.90364">
        <ele>1007.12</ele>
        <time>2013-06-01T16:16:23Z</time>
      </trkpt>
      <trkpt lat="44.61179" lon="3.90388">
        <ele>1010.48</ele>
        <time>2013-06-01T16:16:40Z</time>
      </trkpt>
      <trkpt lat="44.61178" lon="3.9039">
        <ele>1010.48</ele>
        <time>2013-06-01T16:16:41Z</time>
      </trkpt>
      <trkpt lat="44.61167" lon="3.9041">
        <ele>1009.52</ele>
        <time>2013-06-01T16:16:53Z</time>
      </trkpt>
      <trkpt lat="44.61152" lon="3.90429">
        <ele>1008.56</ele>
        <time>2013-06-01T16:17:08Z</time>
      </trkpt>
      <trkpt lat="44.61135" lon="3.90446">
        <ele>1009.52</ele>
        <time>2013-06-01T16:17:23Z</time>
      </trkpt>
      <trkpt lat="44.61129" lon="3.90452">
        <ele>1008.08</ele>
        <time>2013-06-01T16:17:29Z</time>
      </trkpt>
      <trkpt lat="44.61112" lon="3.9047">
        <ele>1008.08</ele>
        <time>2013-06-01T16:17:44Z</time>
      </trkpt>
      <trkpt lat="44.61094" lon="3.90488">
        <ele>1008.08</ele>
        <time>2013-06-01T16:18:00Z</time>
      </trkpt>
      <trkpt lat="44.61073" lon="3.90505">
        <ele>1008.08</ele>
        <time>2013-06-01T16:18:16Z</time>
      </trkpt>
      <trkpt lat="44.61056" lon="3.90522">
        <ele>1009.04</ele>
        <time>2013-06-01T16:18:31Z</time>
      </trkpt>
      <trkpt lat="44.61038" lon="3.90541">
        <ele>1009.52</ele>
        <time>2013-06-01T16:18:47Z</time>
      </trkpt>
      <trkpt lat="44.61022" lon="3.90556">
        <ele>1009.52</ele>
        <time>2013-06-01T16:19:00Z</time>
      </trkpt>
      <trkpt lat="44.61005" lon="3.90575">
        <ele>1009.52</ele>
        <time>2013-06-01T16:19:15Z</time>
      </trkpt>
      <trkpt lat="44.61" lon="3.90581">
        <ele>1008.08</ele>
        <time>2013-06-01T16:19:19Z</time>
      </trkpt>
      <trkpt lat="44.60995" lon="3.90589">
        <ele>1009.52</ele>
        <time>2013-06-01T16:19:25Z</time>
      </trkpt>
      <trkpt lat="44.60976" lon="3.90605">
        <ele>1009.04</ele>
        <time>2013-06-01T16:19:40Z</time>
      </trkpt>
      <trkpt lat="44.60972" lon="3.90609">
        <ele>1008.08</ele>
        <time>2013-06-01T16:19:43Z</time>
      </trkpt>
      <trkpt lat="44.60949" lon="3.90625">
        <ele>1007.6</ele>
        <time>2013-06-01T16:20:01Z</time>
      </trkpt>
      <trkpt lat="44.60928" lon="3.90638">
        <ele>1007.6</ele>
        <time>2013-06-01T16:20:17Z</time>
      </trkpt>
      <trkpt lat="44.60912" lon="3.90647">
        <ele>1006.64</ele>
        <time>2013-06-01T16:20:30Z</time>
      </trkpt>
      <trkpt lat="44.60893" lon="3.90659">
        <ele>1006.64</ele>
        <time>2013-06-01T16:20:45Z</time>
      </trkpt>
      <trkpt lat="44.60871" lon="3.90668">
        <ele>1008.08</ele>
        <time>2013-06-01T16:21:01Z</time>
      </trkpt>
      <trkpt lat="44.60869" lon="3.90668">
        <ele>1008.08</ele>
        <time>2013-06-01T16:21:02Z</time>
      </trkpt>
      <trkpt lat="44.60848" lon="3.90673">
        <ele>1009.04</ele>
        <time>2013-06-01T16:21:17Z</time>
      </trkpt>
      <trkpt lat="44.60826" lon="3.90667">
        <ele>1006.16</ele>
        <time>2013-06-01T16:21:33Z</time>
      </trkpt>
      <trkpt lat="44.60816" lon="3.90657">
        <ele>1005.68</ele>
        <time>2013-06-01T16:21:42Z</time>
      </trkpt>
      <trkpt lat="44.60797" lon="3.90639">
        <ele>1003.27</ele>
        <time>2013-06-01T16:21:58Z</time>
      </trkpt>
      <trkpt lat="44.6079" lon="3.90638">
        <ele>1001.35</ele>
        <time>2013-06-01T16:22:04Z</time>
      </trkpt>
      <trkpt lat="44.60786" lon="3.90636">
        <ele>1002.79</ele>
        <time>2013-06-01T16:22:07Z</time>
      </trkpt>
      <trkpt lat="44.60777" lon="3.90642">
        <ele>1002.79</ele>
        <time>2013-06-01T16:22:14Z</time>
      </trkpt>
      <trkpt lat="44.6077" lon="3.90639">
        <ele>1002.79</ele>
        <time>2013-06-01T16:22:20Z</time>
      </trkpt>
      <trkpt lat="44.60766" lon="3.90633">
        <ele>1002.79</ele>
        <time>2013-06-01T16:22:25Z</time>
      </trkpt>
      <trkpt lat="44.60759" lon="3.90624">
        <ele>1002.79</ele>
        <time>2013-06-01T16:22:38Z</time>
      </trkpt>
      <trkpt lat="44.60753" lon="3.90624">
        <ele>1002.79</ele>
        <time>2013-06-01T16:22:50Z</time>
      </trkpt>
      <trkpt lat="44.60752" lon="3.90625">
        <ele>1003.27</ele>
        <time>2013-06-01T16:22:52Z</time>
      </trkpt>
      <trkpt lat="44.60746" lon="3.90629">
        <ele>1003.27</ele>
        <time>2013-06-01T16:22:59Z</time>
      </trkpt>
      <trkpt lat="44.60743" lon="3.90627">
        <ele>1003.27</ele>
        <time>2013-06-01T16:23:02Z</time>
      </trkpt>
      <trkpt lat="44.60739" lon="3.90616">
        <ele>1004.23</ele>
        <time>2013-06-01T16:23:11Z</time>
      </trkpt>
      <trkpt lat="44.60735" lon="3.90607">
        <ele>1006.16</ele>
        <time>2013-06-01T16:23:17Z</time>
      </trkpt>
      <trkpt lat="44.60727" lon="3.90595">
        <ele>1009.04</ele>
        <time>2013-06-01T16:23:26Z</time>
      </trkpt>
      <trkpt lat="44.60725" lon="3.90592">
        <ele>1009.04</ele>
        <time>2013-06-01T16:23:28Z</time>
      </trkpt>
      <trkpt lat="44.60709" lon="3.90582">
        <ele>1011.93</ele>
        <time>2013-06-01T16:23:42Z</time>
      </trkpt>
      <trkpt lat="44.60698" lon="3.90574">
        <ele>1011.44</ele>
        <time>2013-06-01T16:23:52Z</time>
      </trkpt>
      <trkpt lat="44.60697" lon="3.90571">
        <ele>1011.44</ele>
        <time>2013-06-01T16:23:54Z</time>
      </trkpt>
      <trkpt lat="44.60697" lon="3.90566">
        <ele>1010.48</ele>
        <time>2013-06-01T16:23:57Z</time>
      </trkpt>
      <trkpt lat="44.6069" lon="3.90544">
        <ele>1008.56</ele>
        <time>2013-06-01T16:24:11Z</time>
      </trkpt>
      <trkpt lat="44.60681" lon="3.90534">
        <ele>1010.96</ele>
        <time>2013-06-01T16:24:22Z</time>
      </trkpt>
      <trkpt lat="44.60675" lon="3.90525">
        <ele>1012.89</ele>
        <time>2013-06-01T16:24:30Z</time>
      </trkpt>
      <trkpt lat="44.6067" lon="3.90519">
        <ele>1014.33</ele>
        <time>2013-06-01T16:24:35Z</time>
      </trkpt>
      <trkpt lat="44.60662" lon="3.90508">
        <ele>1018.17</ele>
        <time>2013-06-01T16:24:46Z</time>
      </trkpt>
      <trkpt lat="44.60649" lon="3.90493">
        <ele>1020.1</ele>
        <time>2013-06-01T16:25:00Z</time>
      </trkpt>
      <trkpt lat="44.60639" lon="3.90489">
        <ele>1022.5</ele>
        <time>2013-06-01T16:25:08Z</time>
      </trkpt>
      <trkpt lat="44.60624" lon="3.905">
        <ele>1022.98</ele>
        <time>2013-06-01T16:25:19Z</time>
      </trkpt>
      <trkpt lat="44.60607" lon="3.90508">
        <ele>1023.46</ele>
        <time>2013-06-01T16:25:33Z</time>
      </trkpt>
      <trkpt lat="44.60591" lon="3.90509">
        <ele>1023.94</ele>
        <time>2013-06-01T16:25:46Z</time>
      </trkpt>
      <trkpt lat="44.60573" lon="3.90512">
        <ele>1024.42</ele>
        <time>2013-06-01T16:25:58Z</time>
      </trkpt>
      <trkpt lat="44.60556" lon="3.90513">
        <ele>1024.42</ele>
        <time>2013-06-01T16:26:12Z</time>
      </trkpt>
      <trkpt lat="44.6054" lon="3.9051">
        <ele>1025.38</ele>
        <time>2013-06-01T16:26:23Z</time>
      </trkpt>
      <trkpt lat="44.60519" lon="3.90508">
        <ele>1026.34</ele>
        <time>2013-06-01T16:26:38Z</time>
      </trkpt>
      <trkpt lat="44.60506" lon="3.90506">
        <ele>1026.34</ele>
        <time>2013-06-01T16:26:46Z</time>
      </trkpt>
      <trkpt lat="44.60482" lon="3.90503">
        <ele>1026.34</ele>
        <time>2013-06-01T16:27:02Z</time>
      </trkpt>
      <trkpt lat="44.60474" lon="3.905">
        <ele>1026.83</ele>
        <time>2013-06-01T16:27:10Z</time>
      </trkpt>
      <trkpt lat="44.6045" lon="3.90492">
        <ele>1027.31</ele>
        <time>2013-06-01T16:27:27Z</time>
      </trkpt>
      <trkpt lat="44.60427" lon="3.90486">
        <ele>1027.31</ele>
        <time>2013-06-01T16:27:42Z</time>
      </trkpt>
      <trkpt lat="44.60423" lon="3.90485">
        <ele>1027.31</ele>
        <time>2013-06-01T16:27:45Z</time>
      </trkpt>
      <trkpt lat="44.60403" lon="3.90476">
        <ele>1028.27</ele>
        <time>2013-06-01T16:27:59Z</time>
      </trkpt>
      <trkpt lat="44.60401" lon="3.90475">
        <ele>1028.27</ele>
        <time>2013-06-01T16:28:01Z</time>
      </trkpt>
      <trkpt lat="44.60384" lon="3.90466">
        <ele>1028.27</ele>
        <time>2013-06-01T16:28:14Z</time>
      </trkpt>
      <trkpt lat="44.60362" lon="3.90458">
        <ele>1029.23</ele>
        <time>2013-06-01T16:28:30Z</time>
      </trkpt>
      <trkpt lat="44.60356" lon="3.90457">
        <ele>1029.23</ele>
        <time>2013-06-01T16:28:35Z</time>
      </trkpt>
      <trkpt lat="44.60345" lon="3.90453">
        <ele>1029.23</ele>
        <time>2013-06-01T16:28:42Z</time>
      </trkpt>
      <trkpt lat="44.60325" lon="3.90448">
        <ele>1030.19</ele>
        <time>2013-06-01T16:28:57Z</time>
      </trkpt>
      <trkpt lat="44.60307" lon="3.90446">
        <ele>1030.19</ele>
        <time>2013-06-01T16:29:09Z</time>
      </trkpt>
      <trkpt lat="44.60286" lon="3.90445">
        <ele>1030.19</ele>
        <time>2013-06-01T16:29:23Z</time>
      </trkpt>
      <trkpt lat="44.60274" lon="3.90446">
        <ele>1031.15</ele>
        <time>2013-06-01T16:29:31Z</time>
      </trkpt>
      <trkpt lat="44.60269" lon="3.90445">
        <ele>1031.15</ele>
        <time>2013-06-01T16:29:35Z</time>
      </trkpt>
      <trkpt lat="44.60255" lon="3.90441">
        <ele>1031.15</ele>
        <time>2013-06-01T16:29:47Z</time>
      </trkpt>
      <trkpt lat="44.60233" lon="3.90438">
        <ele>1032.59</ele>
        <time>2013-06-01T16:30:01Z</time>
      </trkpt>
      <trkpt lat="44.60221" lon="3.9044">
        <ele>1033.07</ele>
        <time>2013-06-01T16:30:12Z</time>
      </trkpt>
      <trkpt lat="44.60204" lon="3.90446">
        <ele>1033.07</ele>
        <time>2013-06-01T16:30:24Z</time>
      </trkpt>
      <trkpt lat="44.60199" lon="3.90446">
        <ele>1033.07</ele>
        <time>2013-06-01T16:30:27Z</time>
      </trkpt>
      <trkpt lat="44.6018" lon="3.9045">
        <ele>1032.59</ele>
        <time>2013-06-01T16:30:41Z</time>
      </trkpt>
      <trkpt lat="44.6016" lon="3.90448">
        <ele>1032.59</ele>
        <time>2013-06-01T16:30:55Z</time>
      </trkpt>
      <trkpt lat="44.60157" lon="3.90447">
        <ele>1032.59</ele>
        <time>2013-06-01T16:30:57Z</time>
      </trkpt>
      <trkpt lat="44.60152" lon="3.90445">
        <ele>1032.59</ele>
        <time>2013-06-01T16:31:01Z</time>
      </trkpt>
      <trkpt lat="44.6015" lon="3.90444">
        <ele>1032.59</ele>
        <time>2013-06-01T16:31:03Z</time>
      </trkpt>
      <trkpt lat="44.60133" lon="3.90434">
        <ele>1032.59</ele>
        <time>2013-06-01T16:31:17Z</time>
      </trkpt>
      <trkpt lat="44.60122" lon="3.90432">
        <ele>1032.59</ele>
        <time>2013-06-01T16:31:28Z</time>
      </trkpt>
      <trkpt lat="44.60101" lon="3.90446">
        <ele>1032.59</ele>
        <time>2013-06-01T16:31:42Z</time>
      </trkpt>
      <trkpt lat="44.60084" lon="3.90451">
        <ele>1033.07</ele>
        <time>2013-06-01T16:31:55Z</time>
      </trkpt>
      <trkpt lat="44.60069" lon="3.90447">
        <ele>1034.52</ele>
        <time>2013-06-01T16:32:08Z</time>
      </trkpt>
      <trkpt lat="44.60048" lon="3.9044">
        <ele>1035.96</ele>
        <time>2013-06-01T16:32:22Z</time>
      </trkpt>
      <trkpt lat="44.60038" lon="3.90433">
        <ele>1036.92</ele>
        <time>2013-06-01T16:32:34Z</time>
      </trkpt>
      <trkpt lat="44.60018" lon="3.90421">
        <ele>1037.4</ele>
        <time>2013-06-01T16:32:48Z</time>
      </trkpt>
      <trkpt lat="44.60002" lon="3.9041">
        <ele>1038.84</ele>
        <time>2013-06-01T16:33:01Z</time>
      </trkpt>
      <trkpt lat="44.59991" lon="3.90405">
        <ele>1038.84</ele>
        <time>2013-06-01T16:33:09Z</time>
      </trkpt>
      <trkpt lat="44.59975" lon="3.90394">
        <ele>1039.8</ele>
        <time>2013-06-01T16:33:19Z</time>
      </trkpt>
      <trkpt lat="44.5996" lon="3.90375">
        <ele>1040.76</ele>
        <time>2013-06-01T16:33:35Z</time>
      </trkpt>
      <trkpt lat="44.59956" lon="3.90368">
        <ele>1041.25</ele>
        <time>2013-06-01T16:33:42Z</time>
      </trkpt>
      <trkpt lat="44.59951" lon="3.90363">
        <ele>1041.73</ele>
        <time>2013-06-01T16:33:46Z</time>
      </trkpt>
      <trkpt lat="44.5994" lon="3.90359">
        <ele>1041.73</ele>
        <time>2013-06-01T16:33:52Z</time>
      </trkpt>
      <trkpt lat="44.59927" lon="3.90353">
        <ele>1041.73</ele>
        <time>2013-06-01T16:34:01Z</time>
      </trkpt>
      <trkpt lat="44.59916" lon="3.90346">
        <ele>1041.73</ele>
        <time>2013-06-01T16:34:10Z</time>
      </trkpt>
      <trkpt lat="44.59903" lon="3.90339">
        <ele>1041.73</ele>
        <time>2013-06-01T16:34:19Z</time>
      </trkpt>
      <trkpt lat="44.5989" lon="3.90333">
        <ele>1041.73</ele>
        <time>2013-06-01T16:34:28Z</time>
      </trkpt>
      <trkpt lat="44.59872" lon="3.90319">
        <ele>1041.73</ele>
        <time>2013-06-01T16:34:43Z</time>
      </trkpt>
      <trkpt lat="44.59863" lon="3.90301">
        <ele>1041.73</ele>
        <time>2013-06-01T16:34:55Z</time>
      </trkpt>
      <trkpt lat="44.59862" lon="3.90299">
        <ele>1041.73</ele>
        <time>2013-06-01T16:34:56Z</time>
      </trkpt>
      <trkpt lat="44.59856" lon="3.90275">
        <ele>1041.73</ele>
        <time>2013-06-01T16:35:09Z</time>
      </trkpt>
      <trkpt lat="44.59855" lon="3.90269">
        <ele>1042.21</ele>
        <time>2013-06-01T16:35:13Z</time>
      </trkpt>
      <trkpt lat="44.59854" lon="3.90265">
        <ele>1042.21</ele>
        <time>2013-06-01T16:35:16Z</time>
      </trkpt>
      <trkpt lat="44.59851" lon="3.90261">
        <ele>1042.21</ele>
        <time>2013-06-01T16:35:18Z</time>
      </trkpt>
      <trkpt lat="44.59846" lon="3.90248">
        <ele>1042.69</ele>
        <time>2013-06-01T16:35:25Z</time>
      </trkpt>
      <trkpt lat="44.59845" lon="3.90242">
        <ele>1043.17</ele>
        <time>2013-06-01T16:35:28Z</time>
      </trkpt>
      <trkpt lat="44.59845" lon="3.90234">
        <ele>1043.17</ele>
        <time>2013-06-01T16:35:32Z</time>
      </trkpt>
      <trkpt lat="44.59846" lon="3.90227">
        <ele>1043.65</ele>
        <time>2013-06-01T16:35:36Z</time>
      </trkpt>
      <trkpt lat="44.59847" lon="3.9022">
        <ele>1044.13</ele>
        <time>2013-06-01T16:35:40Z</time>
      </trkpt>
      <trkpt lat="44.59843" lon="3.90216">
        <ele>1044.13</ele>
        <time>2013-06-01T16:35:45Z</time>
      </trkpt>
      <trkpt lat="44.59827" lon="3.90225">
        <ele>1044.13</ele>
        <time>2013-06-01T16:35:57Z</time>
      </trkpt>
      <trkpt lat="44.59816" lon="3.90238">
        <ele>1044.13</ele>
        <time>2013-06-01T16:36:08Z</time>
      </trkpt>
      <trkpt lat="44.59814" lon="3.90243">
        <ele>1044.13</ele>
        <time>2013-06-01T16:36:12Z</time>
      </trkpt>
      <trkpt lat="44.59799" lon="3.90265">
        <ele>1044.13</ele>
        <time>2013-06-01T16:36:25Z</time>
      </trkpt>
      <trkpt lat="44.59788" lon="3.90287">
        <ele>1044.13</ele>
        <time>2013-06-01T16:36:39Z</time>
      </trkpt>
      <trkpt lat="44.59772" lon="3.90295">
        <ele>1044.13</ele>
        <time>2013-06-01T16:36:52Z</time>
      </trkpt>
      <trkpt lat="44.59751" lon="3.9029">
        <ele>1044.13</ele>
        <time>2013-06-01T16:37:07Z</time>
      </trkpt>
      <trkpt lat="44.59731" lon="3.90289">
        <ele>1044.13</ele>
        <time>2013-06-01T16:37:21Z</time>
      </trkpt>
      <trkpt lat="44.59713" lon="3.90292">
        <ele>1044.13</ele>
        <time>2013-06-01T16:37:34Z</time>
      </trkpt>
      <trkpt lat="44.59692" lon="3.90296">
        <ele>1043.65</ele>
        <time>2013-06-01T16:37:49Z</time>
      </trkpt>
      <trkpt lat="44.59681" lon="3.90299">
        <ele>1045.09</ele>
        <time>2013-06-01T16:37:56Z</time>
      </trkpt>
      <trkpt lat="44.5966" lon="3.90302">
        <ele>1045.57</ele>
        <time>2013-06-01T16:38:11Z</time>
      </trkpt>
      <trkpt lat="44.59646" lon="3.90304">
        <ele>1045.57</ele>
        <time>2013-06-01T16:38:22Z</time>
      </trkpt>
      <trkpt lat="44.59625" lon="3.90308">
        <ele>1045.57</ele>
        <time>2013-06-01T16:38:36Z</time>
      </trkpt>
      <trkpt lat="44.5962" lon="3.90309">
        <ele>1045.57</ele>
        <time>2013-06-01T16:38:40Z</time>
      </trkpt>
      <trkpt lat="44.59598" lon="3.90309">
        <ele>1045.09</ele>
        <time>2013-06-01T16:38:56Z</time>
      </trkpt>
      <trkpt lat="44.59577" lon="3.90305">
        <ele>1045.09</ele>
        <time>2013-06-01T16:39:10Z</time>
      </trkpt>
      <trkpt lat="44.59573" lon="3.90304">
        <ele>1045.09</ele>
        <time>2013-06-01T16:39:13Z</time>
      </trkpt>
      <trkpt lat="44.59553" lon="3.90304">
        <ele>1044.61</ele>
        <time>2013-06-01T16:39:29Z</time>
      </trkpt>
      <trkpt lat="44.59536" lon="3.90308">
        <ele>1041.73</ele>
        <time>2013-06-01T16:39:43Z</time>
      </trkpt>
      <trkpt lat="44.5953" lon="3.90314">
        <ele>1041.25</ele>
        <time>2013-06-01T16:39:56Z</time>
      </trkpt>
      <trkpt lat="44.59516" lon="3.90323">
        <ele>1039.8</ele>
        <time>2013-06-01T16:40:11Z</time>
      </trkpt>
      <trkpt lat="44.59494" lon="3.9033">
        <ele>1038.36</ele>
        <time>2013-06-01T16:40:29Z</time>
      </trkpt>
      <trkpt lat="44.59483" lon="3.90331">
        <ele>1036.92</ele>
        <time>2013-06-01T16:40:40Z</time>
      </trkpt>
      <trkpt lat="44.59477" lon="3.90333">
        <ele>1036.92</ele>
        <time>2013-06-01T16:40:44Z</time>
      </trkpt>
      <trkpt lat="44.59455" lon="3.9034">
        <ele>1035</ele>
        <time>2013-06-01T16:41:02Z</time>
      </trkpt>
      <trkpt lat="44.59434" lon="3.9035">
        <ele>1034.52</ele>
        <time>2013-06-01T16:41:17Z</time>
      </trkpt>
      <trkpt lat="44.59413" lon="3.90359">
        <ele>1032.11</ele>
        <time>2013-06-01T16:41:29Z</time>
      </trkpt>
      <trkpt lat="44.59411" lon="3.90361">
        <ele>1031.63</ele>
        <time>2013-06-01T16:41:38Z</time>
      </trkpt>
      <trkpt lat="44.59394" lon="3.90371">
        <ele>1031.15</ele>
        <time>2013-06-01T16:41:49Z</time>
      </trkpt>
      <trkpt lat="44.59381" lon="3.90369">
        <ele>1033.07</ele>
        <time>2013-06-01T16:42:00Z</time>
      </trkpt>
      <trkpt lat="44.59367" lon="3.90357">
        <ele>1035</ele>
        <time>2013-06-01T16:42:16Z</time>
      </trkpt>
      <trkpt lat="44.59352" lon="3.90352">
        <ele>1035.96</ele>
        <time>2013-06-01T16:42:29Z</time>
      </trkpt>
      <trkpt lat="44.59331" lon="3.90345">
        <ele>1038.84</ele>
        <time>2013-06-01T16:42:47Z</time>
      </trkpt>
      <trkpt lat="44.59315" lon="3.90341">
        <ele>1040.76</ele>
        <time>2013-06-01T16:43:00Z</time>
      </trkpt>
      <trkpt lat="44.59301" lon="3.90332">
        <ele>1041.25</ele>
        <time>2013-06-01T16:43:12Z</time>
      </trkpt>
      <trkpt lat="44.59298" lon="3.90331">
        <ele>1041.25</ele>
        <time>2013-06-01T16:43:14Z</time>
      </trkpt>
      <trkpt lat="44.59277" lon="3.9032">
        <ele>1041.73</ele>
        <time>2013-06-01T16:43:30Z</time>
      </trkpt>
      <trkpt lat="44.59248" lon="3.90305">
        <ele>1042.69</ele>
        <time>2013-06-01T16:43:49Z</time>
      </trkpt>
      <trkpt lat="44.59242" lon="3.90302">
        <ele>1044.61</ele>
        <time>2013-06-01T16:43:52Z</time>
      </trkpt>
      <trkpt lat="44.59225" lon="3.90289">
        <ele>1043.65</ele>
        <time>2013-06-01T16:44:06Z</time>
      </trkpt>
      <trkpt lat="44.59211" lon="3.9028">
        <ele>1045.09</ele>
        <time>2013-06-01T16:44:17Z</time>
      </trkpt>
      <trkpt lat="44.59182" lon="3.90274">
        <ele>1046.53</ele>
        <time>2013-06-01T16:44:38Z</time>
      </trkpt>
      <trkpt lat="44.59161" lon="3.90271">
        <ele>1045.57</ele>
        <time>2013-06-01T16:44:53Z</time>
      </trkpt>
      <trkpt lat="44.59138" lon="3.90267">
        <ele>1045.57</ele>
        <time>2013-06-01T16:45:09Z</time>
      </trkpt>
      <trkpt lat="44.59115" lon="3.90259">
        <ele>1045.09</ele>
        <time>2013-06-01T16:45:26Z</time>
      </trkpt>
      <trkpt lat="44.59105" lon="3.9025">
        <ele>1046.53</ele>
        <time>2013-06-01T16:45:37Z</time>
      </trkpt>
      <trkpt lat="44.59086" lon="3.90238">
        <ele>1047.49</ele>
        <time>2013-06-01T16:45:54Z</time>
      </trkpt>
      <trkpt lat="44.59056" lon="3.90227">
        <ele>1047.49</ele>
        <time>2013-06-01T16:46:15Z</time>
      </trkpt>
      <trkpt lat="44.59053" lon="3.90229">
        <ele>1047.49</ele>
        <time>2013-06-01T16:46:26Z</time>
      </trkpt>
      <trkpt lat="44.59069" lon="3.90235">
        <ele>1047.49</ele>
        <time>2013-06-01T16:46:44Z</time>
      </trkpt>
      <trkpt lat="44.59072" lon="3.90237">
        <ele>1047.49</ele>
        <time>2013-06-01T16:47:10Z</time>
      </trkpt>
      <trkpt lat="44.59074" lon="3.90234">
        <ele>1047.49</ele>
        <time>2013-06-01T16:47:31Z</time>
      </trkpt>
      <trkpt lat="44.59076" lon="3.90232">
        <ele>1046.53</ele>
        <time>2013-06-01T16:48:01Z</time>
      </trkpt>
      <trkpt lat="44.59075" lon="3.90232">
        <ele>1046.53</ele>
        <time>2013-06-01T16:48:07Z</time>
      </trkpt>
      <trkpt lat="44.59054" lon="3.90223">
        <ele>1047.97</ele>
        <time>2013-06-01T16:48:26Z</time>
      </trkpt>
      <trkpt lat="44.59034" lon="3.90216">
        <ele>1047.97</ele>
        <time>2013-06-01T16:48:43Z</time>
      </trkpt>
      <trkpt lat="44.59012" lon="3.90209">
        <ele>1048.45</ele>
        <time>2013-06-01T16:49:00Z</time>
      </trkpt>
      <trkpt lat="44.58995" lon="3.90201">
        <ele>1048.45</ele>
        <time>2013-06-01T16:49:14Z</time>
      </trkpt>
      <trkpt lat="44.5897" lon="3.90196">
        <ele>1047.49</ele>
        <time>2013-06-01T16:49:31Z</time>
      </trkpt>
      <trkpt lat="44.58947" lon="3.9019">
        <ele>1047.49</ele>
        <time>2013-06-01T16:49:47Z</time>
      </trkpt>
      <trkpt lat="44.58926" lon="3.90184">
        <ele>1047.01</ele>
        <time>2013-06-01T16:50:03Z</time>
      </trkpt>
      <trkpt lat="44.58901" lon="3.90177">
        <ele>1044.61</ele>
        <time>2013-06-01T16:50:23Z</time>
      </trkpt>
      <trkpt lat="44.58875" lon="3.90171">
        <ele>1044.13</ele>
        <time>2013-06-01T16:50:42Z</time>
      </trkpt>
      <trkpt lat="44.5885" lon="3.90164">
        <ele>1043.65</ele>
        <time>2013-06-01T16:51:01Z</time>
      </trkpt>
      <trkpt lat="44.58826" lon="3.90158">
        <ele>1043.17</ele>
        <time>2013-06-01T16:51:19Z</time>
      </trkpt>
      <trkpt lat="44.58798" lon="3.90153">
        <ele>1042.69</ele>
        <time>2013-06-01T16:51:39Z</time>
      </trkpt>
      <trkpt lat="44.58778" lon="3.90144">
        <ele>1042.21</ele>
        <time>2013-06-01T16:51:56Z</time>
      </trkpt>
      <trkpt lat="44.58757" lon="3.90141">
        <ele>1041.25</ele>
        <time>2013-06-01T16:52:11Z</time>
      </trkpt>
      <trkpt lat="44.58753" lon="3.90138">
        <ele>1040.76</ele>
        <time>2013-06-01T16:52:18Z</time>
      </trkpt>
      <trkpt lat="44.58734" lon="3.90134">
        <ele>1040.76</ele>
        <time>2013-06-01T16:52:34Z</time>
      </trkpt>
      <trkpt lat="44.58713" lon="3.90126">
        <ele>1040.28</ele>
        <time>2013-06-01T16:52:51Z</time>
      </trkpt>
      <trkpt lat="44.58685" lon="3.90117">
        <ele>1040.76</ele>
        <time>2013-06-01T16:53:11Z</time>
      </trkpt>
      <trkpt lat="44.58662" lon="3.90111">
        <ele>1040.76</ele>
        <time>2013-06-01T16:53:28Z</time>
      </trkpt>
      <trkpt lat="44.58639" lon="3.90106">
        <ele>1040.76</ele>
        <time>2013-06-01T16:53:45Z</time>
      </trkpt>
      <trkpt lat="44.58615" lon="3.90102">
        <ele>1040.76</ele>
        <time>2013-06-01T16:54:03Z</time>
      </trkpt>
      <trkpt lat="44.58585" lon="3.90093">
        <ele>1040.28</ele>
        <time>2013-06-01T16:54:24Z</time>
      </trkpt>
      <trkpt lat="44.58566" lon="3.90091">
        <ele>1038.36</ele>
        <time>2013-06-01T16:54:40Z</time>
      </trkpt>
      <trkpt lat="44.58545" lon="3.90073">
        <ele>1037.88</ele>
        <time>2013-06-01T16:55:00Z</time>
      </trkpt>
      <trkpt lat="44.58524" lon="3.90059">
        <ele>1037.4</ele>
        <time>2013-06-01T16:55:17Z</time>
      </trkpt>
      <trkpt lat="44.58512" lon="3.9005">
        <ele>1037.4</ele>
        <time>2013-06-01T16:55:28Z</time>
      </trkpt>
      <trkpt lat="44.58496" lon="3.90028">
        <ele>1037.4</ele>
        <time>2013-06-01T16:55:43Z</time>
      </trkpt>
      <trkpt lat="44.58476" lon="3.90003">
        <ele>1037.4</ele>
        <time>2013-06-01T16:56:03Z</time>
      </trkpt>
      <trkpt lat="44.58456" lon="3.89981">
        <ele>1037.4</ele>
        <time>2013-06-01T16:56:22Z</time>
      </trkpt>
      <trkpt lat="44.58439" lon="3.89954">
        <ele>1035.48</ele>
        <time>2013-06-01T16:56:41Z</time>
      </trkpt>
      <trkpt lat="44.58436" lon="3.89948">
        <ele>1035.48</ele>
        <time>2013-06-01T16:56:45Z</time>
      </trkpt>
      <trkpt lat="44.58434" lon="3.89944">
        <ele>1036.92</ele>
        <time>2013-06-01T16:56:47Z</time>
      </trkpt>
      <trkpt lat="44.58424" lon="3.8991">
        <ele>1036.92</ele>
        <time>2013-06-01T16:57:06Z</time>
      </trkpt>
      <trkpt lat="44.58422" lon="3.89903">
        <ele>1035.96</ele>
        <time>2013-06-01T16:57:10Z</time>
      </trkpt>
      <trkpt lat="44.58417" lon="3.89864">
        <ele>1035.48</ele>
        <time>2013-06-01T16:57:32Z</time>
      </trkpt>
      <trkpt lat="44.58409" lon="3.89828">
        <ele>1034.52</ele>
        <time>2013-06-01T16:57:51Z</time>
      </trkpt>
      <trkpt lat="44.58407" lon="3.89815">
        <ele>1035.48</ele>
        <time>2013-06-01T16:57:58Z</time>
      </trkpt>
      <trkpt lat="44.5839" lon="3.8978">
        <ele>1036.92</ele>
        <time>2013-06-01T16:58:19Z</time>
      </trkpt>
      <trkpt lat="44.58372" lon="3.89758">
        <ele>1037.4</ele>
        <time>2013-06-01T16:58:37Z</time>
      </trkpt>
      <trkpt lat="44.5835" lon="3.89731">
        <ele>1037.88</ele>
        <time>2013-06-01T16:58:57Z</time>
      </trkpt>
      <trkpt lat="44.58327" lon="3.89705">
        <ele>1039.32</ele>
        <time>2013-06-01T16:59:19Z</time>
      </trkpt>
      <trkpt lat="44.58308" lon="3.89685">
        <ele>1039.8</ele>
        <time>2013-06-01T16:59:37Z</time>
      </trkpt>
      <trkpt lat="44.58288" lon="3.8967">
        <ele>1041.25</ele>
        <time>2013-06-01T16:59:55Z</time>
      </trkpt>
      <trkpt lat="44.58269" lon="3.89658">
        <ele>1044.13</ele>
        <time>2013-06-01T17:00:11Z</time>
      </trkpt>
      <trkpt lat="44.58257" lon="3.89653">
        <ele>1042.69</ele>
        <time>2013-06-01T17:00:20Z</time>
      </trkpt>
      <trkpt lat="44.58234" lon="3.89642">
        <ele>1041.73</ele>
        <time>2013-06-01T17:00:38Z</time>
      </trkpt>
      <trkpt lat="44.58219" lon="3.89641">
        <ele>1043.65</ele>
        <time>2013-06-01T17:00:49Z</time>
      </trkpt>
      <trkpt lat="44.58198" lon="3.89643">
        <ele>1043.65</ele>
        <time>2013-06-01T17:01:07Z</time>
      </trkpt>
      <trkpt lat="44.58193" lon="3.89643">
        <ele>1043.65</ele>
        <time>2013-06-01T17:01:11Z</time>
      </trkpt>
      <trkpt lat="44.58183" lon="3.89646">
        <ele>1043.65</ele>
        <time>2013-06-01T17:01:18Z</time>
      </trkpt>
      <trkpt lat="44.58171" lon="3.89648">
        <ele>1042.21</ele>
        <time>2013-06-01T17:01:27Z</time>
      </trkpt>
      <trkpt lat="44.58163" lon="3.89649">
        <ele>1043.65</ele>
        <time>2013-06-01T17:01:33Z</time>
      </trkpt>
      <trkpt lat="44.58136" lon="3.89654">
        <ele>1045.09</ele>
        <time>2013-06-01T17:01:52Z</time>
      </trkpt>
      <trkpt lat="44.58112" lon="3.89656">
        <ele>1045.09</ele>
        <time>2013-06-01T17:02:11Z</time>
      </trkpt>
      <trkpt lat="44.58083" lon="3.89659">
        <ele>1045.09</ele>
        <time>2013-06-01T17:02:31Z</time>
      </trkpt>
      <trkpt lat="44.58065" lon="3.89657">
        <ele>1046.53</ele>
        <time>2013-06-01T17:02:43Z</time>
      </trkpt>
      <trkpt lat="44.58038" lon="3.89646">
        <ele>1047.01</ele>
        <time>2013-06-01T17:03:03Z</time>
      </trkpt>
      <trkpt lat="44.58026" lon="3.89636">
        <ele>1044.61</ele>
        <time>2013-06-01T17:03:13Z</time>
      </trkpt>
      <trkpt lat="44.58022" lon="3.89632">
        <ele>1046.05</ele>
        <time>2013-06-01T17:03:16Z</time>
      </trkpt>
      <trkpt lat="44.58003" lon="3.89606">
        <ele>1046.05</ele>
        <time>2013-06-01T17:03:36Z</time>
      </trkpt>
      <trkpt lat="44.57984" lon="3.89577">
        <ele>1046.05</ele>
        <time>2013-06-01T17:03:57Z</time>
      </trkpt>
      <trkpt lat="44.57964" lon="3.89555">
        <ele>1046.05</ele>
        <time>2013-06-01T17:04:16Z</time>
      </trkpt>
      <trkpt lat="44.57939" lon="3.89532">
        <ele>1045.09</ele>
        <time>2013-06-01T17:04:38Z</time>
      </trkpt>
      <trkpt lat="44.57917" lon="3.89507">
        <ele>1045.09</ele>
        <time>2013-06-01T17:04:59Z</time>
      </trkpt>
      <trkpt lat="44.57899" lon="3.89482">
        <ele>1045.09</ele>
        <time>2013-06-01T17:05:18Z</time>
      </trkpt>
      <trkpt lat="44.57878" lon="3.89453">
        <ele>1045.09</ele>
        <time>2013-06-01T17:05:40Z</time>
      </trkpt>
      <trkpt lat="44.57857" lon="3.89427">
        <ele>1045.09</ele>
        <time>2013-06-01T17:06:01Z</time>
      </trkpt>
      <trkpt lat="44.57835" lon="3.89409">
        <ele>1044.61</ele>
        <time>2013-06-01T17:06:21Z</time>
      </trkpt>
      <trkpt lat="44.57814" lon="3.89396">
        <ele>1044.61</ele>
        <time>2013-06-01T17:06:39Z</time>
      </trkpt>
      <trkpt lat="44.57795" lon="3.89383">
        <ele>1044.13</ele>
        <time>2013-06-01T17:06:55Z</time>
      </trkpt>
      <trkpt lat="44.57774" lon="3.89362">
        <ele>1044.13</ele>
        <time>2013-06-01T17:07:14Z</time>
      </trkpt>
      <trkpt lat="44.57751" lon="3.89341">
        <ele>1045.57</ele>
        <time>2013-06-01T17:07:34Z</time>
      </trkpt>
      <trkpt lat="44.57728" lon="3.89335">
        <ele>1045.57</ele>
        <time>2013-06-01T17:07:52Z</time>
      </trkpt>
      <trkpt lat="44.57713" lon="3.89336">
        <ele>1044.13</ele>
        <time>2013-06-01T17:08:04Z</time>
      </trkpt>
      <trkpt lat="44.57691" lon="3.89344">
        <ele>1041.73</ele>
        <time>2013-06-01T17:08:22Z</time>
      </trkpt>
      <trkpt lat="44.57671" lon="3.89351">
        <ele>1042.21</ele>
        <time>2013-06-01T17:08:39Z</time>
      </trkpt>
      <trkpt lat="44.57662" lon="3.89353">
        <ele>1043.17</ele>
        <time>2013-06-01T17:08:48Z</time>
      </trkpt>
      <trkpt lat="44.57636" lon="3.89352">
        <ele>1043.17</ele>
        <time>2013-06-01T17:09:06Z</time>
      </trkpt>
      <trkpt lat="44.57614" lon="3.89343">
        <ele>1040.76</ele>
        <time>2013-06-01T17:09:24Z</time>
      </trkpt>
      <trkpt lat="44.57599" lon="3.89345">
        <ele>1040.76</ele>
        <time>2013-06-01T17:09:37Z</time>
      </trkpt>
      <trkpt lat="44.57588" lon="3.8935">
        <ele>1040.28</ele>
        <time>2013-06-01T17:09:51Z</time>
      </trkpt>
      <trkpt lat="44.57575" lon="3.89347">
        <ele>1040.28</ele>
        <time>2013-06-01T17:10:04Z</time>
      </trkpt>
      <trkpt lat="44.57571" lon="3.89347">
        <ele>1040.28</ele>
        <time>2013-06-01T17:10:14Z</time>
      </trkpt>
      <trkpt lat="44.57567" lon="3.89347">
        <ele>1040.28</ele>
        <time>2013-06-01T17:10:31Z</time>
      </trkpt>
      <trkpt lat="44.57566" lon="3.8935">
        <ele>1040.28</ele>
        <time>2013-06-01T17:10:55Z</time>
      </trkpt>
      <trkpt lat="44.57542" lon="3.89323">
        <ele>1040.28</ele>
        <time>2013-06-01T17:11:14Z</time>
      </trkpt>
      <trkpt lat="44.57535" lon="3.89302">
        <ele>1039.32</ele>
        <time>2013-06-01T17:11:36Z</time>
      </trkpt>
      <trkpt lat="44.57547" lon="3.89316">
        <ele>1040.28</ele>
        <time>2013-06-01T17:12:00Z</time>
      </trkpt>
      <trkpt lat="44.57555" lon="3.89341">
        <ele>1039.32</ele>
        <time>2013-06-01T17:12:30Z</time>
      </trkpt>
      <trkpt lat="44.57546" lon="3.89348">
        <ele>1039.32</ele>
        <time>2013-06-01T17:12:59Z</time>
      </trkpt>
      <trkpt lat="44.57541" lon="3.8935">
        <ele>1039.32</ele>
        <time>2013-06-01T17:13:27Z</time>
      </trkpt>
      <trkpt lat="44.57541" lon="3.8935">
        <ele>1039.32</ele>
        <time>2013-06-01T17:13:59Z</time>
      </trkpt>
      <trkpt lat="44.57546" lon="3.89362">
        <ele>1040.28</ele>
        <time>2013-06-01T17:14:19Z</time>
      </trkpt>
      <trkpt lat="44.57568" lon="3.89345">
        <ele>1040.28</ele>
        <time>2013-06-01T17:14:37Z</time>
      </trkpt>
      <trkpt lat="44.57563" lon="3.89347">
        <ele>1040.28</ele>
        <time>2013-06-01T17:14:44Z</time>
      </trkpt>
      <trkpt lat="44.57543" lon="3.89346">
        <ele>1040.28</ele>
        <time>2013-06-01T17:15:03Z</time>
      </trkpt>
      <trkpt lat="44.57533" lon="3.89338">
        <ele>1040.28</ele>
        <time>2013-06-01T17:15:16Z</time>
      </trkpt>
      <trkpt lat="44.5753" lon="3.89328">
        <ele>1040.28</ele>
        <time>2013-06-01T17:15:30Z</time>
      </trkpt>
      <trkpt lat="44.5753" lon="3.89327">
        <ele>1038.36</ele>
        <time>2013-06-01T17:15:43Z</time>
      </trkpt>
      <trkpt lat="44.57531" lon="3.89325">
        <ele>1039.32</ele>
        <time>2013-06-01T17:16:00Z</time>
      </trkpt>
      <trkpt lat="44.57527" lon="3.8933">
        <ele>1039.32</ele>
        <time>2013-06-01T17:16:28Z</time>
      </trkpt>
      <trkpt lat="44.57534" lon="3.89326">
        <ele>1039.32</ele>
        <time>2013-06-01T17:17:07Z</time>
      </trkpt>
      <trkpt lat="44.57542" lon="3.89322">
        <ele>1039.32</ele>
        <time>2013-06-01T17:17:42Z</time>
      </trkpt>
      <trkpt lat="44.57539" lon="3.89325">
        <ele>1039.32</ele>
        <time>2013-06-01T17:18:17Z</time>
      </trkpt>
      <trkpt lat="44.57534" lon="3.89327">
        <ele>1039.8</ele>
        <time>2013-06-01T17:18:51Z</time>
      </trkpt>
      <trkpt lat="44.57534" lon="3.89325">
        <ele>1038.36</ele>
        <time>2013-06-01T17:19:35Z</time>
      </trkpt>
      <trkpt lat="44.57527" lon="3.89336">
        <ele>1038.36</ele>
        <time>2013-06-01T17:20:11Z</time>
      </trkpt>
      <trkpt lat="44.57532" lon="3.8933">
        <ele>1038.36</ele>
        <time>2013-06-01T17:20:47Z</time>
      </trkpt>
      <trkpt lat="44.57531" lon="3.89322">
        <ele>1038.36</ele>
        <time>2013-06-01T17:21:21Z</time>
      </trkpt>
      <trkpt lat="44.57535" lon="3.89325">
        <ele>1038.36</ele>
        <time>2013-06-01T17:21:55Z</time>
      </trkpt>
      <trkpt lat="44.57536" lon="3.89329">
        <ele>1038.36</ele>
        <time>2013-06-01T17:22:28Z</time>
      </trkpt>
      <trkpt lat="44.57532" lon="3.8933">
        <ele>1038.36</ele>
        <time>2013-06-01T17:23:07Z</time>
      </trkpt>
      <trkpt lat="44.57533" lon="3.89329">
        <ele>1037.88</ele>
        <time>2013-06-01T17:23:42Z</time>
      </trkpt>
      <trkpt lat="44.57535" lon="3.89329">
        <ele>1038.36</ele>
        <time>2013-06-01T17:24:13Z</time>
      </trkpt>
      <trkpt lat="44.57534" lon="3.89322">
        <ele>1038.36</ele>
        <time>2013-06-01T17:24:51Z</time>
      </trkpt>
      <trkpt lat="44.57536" lon="3.89321">
        <ele>1037.88</ele>
        <time>2013-06-01T17:25:27Z</time>
      </trkpt>
      <trkpt lat="44.57534" lon="3.89321">
        <ele>1037.88</ele>
        <time>2013-06-01T17:26:01Z</time>
      </trkpt>
      <trkpt lat="44.57528" lon="3.8933">
        <ele>1038.36</ele>
        <time>2013-06-01T17:26:34Z</time>
      </trkpt>
      <trkpt lat="44.5753" lon="3.89319">
        <ele>1038.36</ele>
        <time>2013-06-01T17:27:11Z</time>
      </trkpt>
      <trkpt lat="44.5753" lon="3.89324">
        <ele>1038.36</ele>
        <time>2013-06-01T17:27:52Z</time>
      </trkpt>
      <trkpt lat="44.57527" lon="3.89328">
        <ele>1038.84</ele>
        <time>2013-06-01T17:28:28Z</time>
      </trkpt>
      <trkpt lat="44.57529" lon="3.89326">
        <ele>1038.84</ele>
        <time>2013-06-01T17:29:00Z</time>
      </trkpt>
      <trkpt lat="44.57534" lon="3.89329">
        <ele>1038.84</ele>
        <time>2013-06-01T17:29:39Z</time>
      </trkpt>
      <trkpt lat="44.57535" lon="3.89326">
        <ele>1038.84</ele>
        <time>2013-06-01T17:30:19Z</time>
      </trkpt>
      <trkpt lat="44.57533" lon="3.89327">
        <ele>1038.84</ele>
        <time>2013-06-01T17:30:51Z</time>
      </trkpt>
      <trkpt lat="44.57535" lon="3.89323">
        <ele>1038.84</ele>
        <time>2013-06-01T17:31:27Z</time>
      </trkpt>
      <trkpt lat="44.57532" lon="3.89326">
        <ele>1038.84</ele>
        <time>2013-06-01T17:31:56Z</time>
      </trkpt>
      <trkpt lat="44.57531" lon="3.89325">
        <ele>1040.76</ele>
        <time>2013-06-01T17:32:00Z</time>
      </trkpt>
      <trkpt lat="44.57531" lon="3.89325">
        <ele>1039.32</ele>
        <time>2013-06-01T17:32:02Z</time>
      </trkpt>
      <trkpt lat="44.57531" lon="3.89325">
        <ele>1041.25</ele>
        <time>2013-06-01T17:32:03Z</time>
      </trkpt>
      <trkpt lat="44.57531" lon="3.89325">
        <ele>1039.32</ele>
        <time>2013-06-01T17:32:04Z</time>
      </trkpt>
      <trkpt lat="44.57531" lon="3.89325">
        <ele>1041.25</ele>
        <time>2013-06-01T17:32:06Z</time>
      </trkpt>
      <trkpt lat="44.57531" lon="3.89325">
        <ele>1039.32</ele>
        <time>2013-06-01T17:32:07Z</time>
      </trkpt>
      <trkpt lat="44.57533" lon="3.89326">
        <ele>1038.84</ele>
        <time>2013-06-01T17:32:38Z</time>
      </trkpt>
      <trkpt lat="44.57531" lon="3.89324">
        <ele>1038.84</ele>
        <time>2013-06-01T17:33:18Z</time>
      </trkpt>
      <trkpt lat="44.57533" lon="3.89326">
        <ele>1038.84</ele>
        <time>2013-06-01T17:33:51Z</time>
      </trkpt>
      <trkpt lat="44.5753" lon="3.89332">
        <ele>1038.84</ele>
        <time>2013-06-01T17:34:23Z</time>
      </trkpt>
      <trkpt lat="44.57531" lon="3.89327">
        <ele>1038.84</ele>
        <time>2013-06-01T17:34:50Z</time>
      </trkpt>
      <trkpt lat="44.57533" lon="3.89327">
        <ele>1038.84</ele>
        <time>2013-06-01T17:35:22Z</time>
      </trkpt>
      <trkpt lat="44.57534" lon="3.89326">
        <ele>1038.84</ele>
        <time>2013-06-01T17:35:56Z</time>
      </trkpt>
      <trkpt lat="44.57537" lon="3.89326">
        <ele>1038.36</ele>
        <time>2013-06-01T17:36:34Z</time>
      </trkpt>
      <trkpt lat="44.57537" lon="3.89326">
        <ele>1039.32</ele>
        <time>2013-06-01T17:37:12Z</time>
      </trkpt>
      <trkpt lat="44.57536" lon="3.89325">
        <ele>1038.36</ele>
        <time>2013-06-01T17:37:42Z</time>
      </trkpt>
      <trkpt lat="44.57534" lon="3.89327">
        <ele>1039.32</ele>
        <time>2013-06-01T17:38:11Z</time>
      </trkpt>
      <trkpt lat="44.57534" lon="3.89326">
        <ele>1039.8</ele>
        <time>2013-06-01T17:38:37Z</time>
      </trkpt>
      <trkpt lat="44.57534" lon="3.89328">
        <ele>1039.8</ele>
        <time>2013-06-01T17:38:52Z</time>
      </trkpt>
      <trkpt lat="44.57534" lon="3.89328">
        <ele>1038.84</ele>
        <time>2013-06-01T17:39:03Z</time>
      </trkpt>
      <trkpt lat="44.57534" lon="3.89326">
        <ele>1038.84</ele>
        <time>2013-06-01T17:39:17Z</time>
      </trkpt>
      <trkpt lat="44.57531" lon="3.89324">
        <ele>1038.84</ele>
        <time>2013-06-01T17:39:46Z</time>
      </trkpt>
      <trkpt lat="44.57532" lon="3.89323">
        <ele>1038.84</ele>
        <time>2013-06-01T17:40:19Z</time>
      </trkpt>
      <trkpt lat="44.57535" lon="3.89323">
        <ele>1038.84</ele>
        <time>2013-06-01T17:40:56Z</time>
      </trkpt>
      <trkpt lat="44.57535" lon="3.89324">
        <ele>1038.36</ele>
        <time>2013-06-01T17:41:37Z</time>
      </trkpt>
      <trkpt lat="44.57533" lon="3.89324">
        <ele>1038.36</ele>
        <time>2013-06-01T17:42:08Z</time>
      </trkpt>
      <trkpt lat="44.57532" lon="3.89329">
        <ele>1038.36</ele>
        <time>2013-06-01T17:42:43Z</time>
      </trkpt>
      <trkpt lat="44.57533" lon="3.89325">
        <ele>1038.36</ele>
        <time>2013-06-01T17:43:12Z</time>
      </trkpt>
      <trkpt lat="44.57534" lon="3.89326">
        <ele>1038.36</ele>
        <time>2013-06-01T17:43:38Z</time>
      </trkpt>
      <trkpt lat="44.57535" lon="3.89324">
        <ele>1040.28</ele>
        <time>2013-06-01T17:43:51Z</time>
      </trkpt>
      <trkpt lat="44.57535" lon="3.89324">
        <ele>1038.36</ele>
        <time>2013-06-01T17:43:52Z</time>
      </trkpt>
      <trkpt lat="44.57533" lon="3.89324">
        <ele>1038.36</ele>
        <time>2013-06-01T17:44:08Z</time>
      </trkpt>
    </trkseg>
  </trk>
</gpx>